GEFSMW_prec_meanprec_012.txt.gz
QPF
0.03 0.05 0.11 0.15 0.10 0.10 0.07 0.05 0.04 0.02 0.01 0.01 0.00 0.00 0.00 0.00 0.00 0.00 0.00 0.00 0.00 0.00 0.00 0.00 0.00 0.00 0.00 0.00 0.00 0.01 0.01 0.01 0.01 0.01 0.01 0.01 0.00 0.01 0.02 0.02 0.01 0.00 0.00
0.22 0.49 0.74 0.61 0.26 0.10 0.04 0.02 0.02 0.01 0.00 0.00 0.00 0.00 0.00 0.00 0.00 0.00 0.00 0.00 0.00 0.00 0.00 0.00 0.00 0.00 0.00 0.00 0.00 0.00 0.00 0.00 0.00 0.00 0.00 0.00 0.00 0.00 0.00 0.01 0.01 0.01 0.01
0.60 1.11 1.15 0.72 0.34 0.13 0.05 0.02 0.01 0.00 0.00 0.00 0.00 0.00 0.00 0.00 0.00 0.00 0.00 0.00 0.00 0.00 0.00 0.00 0.00 0.00 0.00 0.00 0.01 0.01 0.01 0.01 0.00 0.01 0.01 0.01 0.00 0.00 0.01 0.01 0.02 0.03 0.03
0.53 0.80 0.81 0.47 0.27 0.18 0.15 0.07 0.01 0.00 0.00 0.00 0.00 0.00 0.00 0.00 0.00 0.00 0.00 0.00 0.00 0.00 0.00 0.00 0.00 0.00 0.00 0.01 0.01 0.01 0.02 0.03 0.02 0.02 0.04 0.04 0.05 0.03 0.01 0.01 0.01 0.03 0.03
0.38 0.36 0.33 0.26 0.23 0.22 0.22 0.14 0.06 0.07 0.05 0.03 0.03 0.02 0.01 0.00 0.00 0.00 0.00 0.00 0.00 0.00 0.00 0.00 0.00 0.00 0.00 0.01 0.01 0.01 0.02 0.03 0.03 0.04 0.05 0.07 0.09 0.09 0.07 0.03 0.02 0.05 0.03
0.36 0.31 0.24 0.19 0.18 0.17 0.15 0.12 0.13 0.20 0.17 0.12 0.08 0.09 0.07 0.04 0.02 0.01 0.01 0.00 0.00 0.00 0.00 0.00 0.00 0.00 0.00 0.00 0.00 0.01 0.01 0.03 0.04 0.05 0.05 0.06 0.07 0.10 0.13 0.09 0.08 0.07 0.04
0.28 0.33 0.28 0.21 0.16 0.14 0.10 0.06 0.06 0.12 0.13 0.09 0.09 0.12 0.14 0.11 0.06 0.04 0.02 0.02 0.00 0.00 0.00 0.00 0.00 0.00 0.00 0.00 0.00 0.01 0.01 0.02 0.04 0.05 0.05 0.06 0.05 0.08 0.11 0.10 0.10 0.13 0.12
0.08 0.12 0.13 0.11 0.07 0.05 0.04 0.03 0.02 0.03 0.04 0.05 0.07 0.10 0.12 0.08 0.07 0.12 0.08 0.04 0.02 0.00 0.00 0.00 0.00 0.00 0.00 0.00 0.00 0.00 0.01 0.01 0.03 0.03 0.06 0.07 0.05 0.07 0.07 0.07 0.11 0.14 0.18
0.02 0.04 0.05 0.05 0.04 0.03 0.02 0.02 0.01 0.01 0.01 0.02 0.04 0.07 0.12 0.12 0.11 0.12 0.11 0.08 0.07 0.03 0.02 0.01 0.00 0.00 0.00 0.00 0.00 0.00 0.01 0.01 0.03 0.04 0.07 0.09 0.09 0.09 0.09 0.11 0.15 0.17 0.16
0.01 0.01 0.01 0.02 0.02 0.02 0.02 0.03 0.02 0.02 0.02 0.02 0.02 0.04 0.09 0.13 0.13 0.12 0.14 0.14 0.12 0.08 0.05 0.03 0.02 0.01 0.01 0.00 0.00 0.01 0.02 0.03 0.05 0.07 0.08 0.12 0.13 0.14 0.16 0.18 0.21 0.23 0.20
0.00 0.00 0.01 0.01 0.02 0.02 0.02 0.02 0.02 0.02 0.02 0.02 0.02 0.02 0.03 0.06 0.11 0.14 0.16 0.17 0.16 0.14 0.10 0.08 0.07 0.04 0.02 0.01 0.01 0.02 0.02 0.02 0.04 0.05 0.07 0.12 0.16 0.18 0.19 0.22 0.23 0.24 0.27
0.00 0.00 0.00 0.00 0.00 0.01 0.01 0.02 0.02 0.02 0.02 0.02 0.02 0.01 0.01 0.01 0.03 0.05 0.08 0.11 0.13 0.13 0.13 0.12 0.10 0.06 0.03 0.02 0.01 0.01 0.01 0.02 0.02 0.03 0.05 0.07 0.08 0.13 0.13 0.15 0.19 0.24 0.30
0.00 0.00 0.00 0.00 0.00 0.00 0.00 0.01 0.01 0.01 0.01 0.01 0.00 0.00 0.00 0.00 0.00 0.01 0.02 0.04 0.07 0.10 0.12 0.12 0.10 0.08 0.06 0.04 0.02 0.02 0.01 0.01 0.02 0.02 0.04 0.04 0.06 0.08 0.05 0.07 0.12 0.18 0.31
0.00 0.00 0.00 0.00 0.00 0.00 0.00 0.00 0.00 0.00 0.00 0.00 0.00 0.01 0.01 0.01 0.01 0.01 0.01 0.01 0.03 0.06 0.09 0.11 0.11 0.10 0.08 0.05 0.03 0.02 0.01 0.01 0.01 0.03 0.03 0.04 0.04 0.04 0.02 0.02 0.06 0.11 0.21
0.00 0.00 0.00 0.00 0.00 0.00 0.00 0.00 0.00 0.00 0.01 0.01 0.02 0.03 0.03 0.03 0.04 0.03 0.03 0.03 0.03 0.04 0.07 0.10 0.11 0.11 0.09 0.05 0.04 0.04 0.02 0.01 0.01 0.02 0.03 0.02 0.01 0.01 0.01 0.01 0.04 0.11 0.23
0.00 0.00 0.00 0.00 0.00 0.00 0.00 0.00 0.00 0.00 0.01 0.01 0.01 0.02 0.02 0.02 0.03 0.02 0.02 0.02 0.02 0.03 0.05 0.08 0.11 0.11 0.09 0.07 0.04 0.03 0.02 0.01 0.01 0.02 0.03 0.03 0.01 0.00 0.00 0.01 0.04 0.10 0.21
0.00 0.00 0.00 0.00 0.00 0.00 0.00 0.00 0.00 0.00 0.00 0.01 0.01 0.01 0.01 0.01 0.01 0.01 0.01 0.01 0.01 0.02 0.03 0.06 0.09 0.12 0.13 0.11 0.06 0.04 0.02 0.02 0.01 0.01 0.03 0.03 0.02 0.01 0.00 0.00 0.01 0.04 0.11
0.00 0.00 0.00 0.00 0.00 0.00 0.00 0.00 0.00 0.00 0.00 0.00 0.00 0.00 0.00 0.01 0.01 0.01 0.01 0.01 0.01 0.02 0.02 0.04 0.07 0.11 0.15 0.13 0.09 0.06 0.03 0.02 0.01 0.01 0.01 0.03 0.04 0.03 0.01 0.01 0.01 0.01 0.03
0.00 0.00 0.00 0.00 0.00 0.00 0.00 0.00 0.00 0.00 0.00 0.00 0.00 0.00 0.00 0.01 0.01 0.01 0.02 0.02 0.02 0.02 0.01 0.02 0.04 0.10 0.15 0.16 0.11 0.07 0.04 0.02 0.01 0.01 0.01 0.02 0.03 0.01 0.00 0.01 0.01 0.01 0.01
0.00 0.00 0.00 0.00 0.00 0.00 0.00 0.00 0.00 0.00 0.00 0.01 0.01 0.01 0.01 0.02 0.02 0.02 0.03 0.02 0.03 0.02 0.01 0.01 0.04 0.09 0.16 0.19 0.14 0.11 0.06 0.04 0.03 0.03 0.02 0.01 0.01 0.00 0.00 0.02 0.01 0.00 0.00
0.00 0.00 0.00 0.00 0.00 0.00 0.00 0.01 0.02 0.02 0.02 0.02 0.02 0.02 0.02 0.03 0.02 0.03 0.04 0.04 0.03 0.03 0.04 0.03 0.04 0.10 0.20 0.27 0.20 0.15 0.11 0.08 0.05 0.03 0.02 0.00 0.00 0.00 0.00 0.01 0.01 0.00 0.00
0.00 0.00 0.00 0.00 0.00 0.00 0.01 0.03 0.03 0.03 0.03 0.03 0.03 0.03 0.03 0.03 0.02 0.04 0.05 0.06 0.06 0.06 0.04 0.05 0.06 0.10 0.20 0.33 0.31 0.20 0.16 0.14 0.10 0.05 0.02 0.00 0.00 0.00 0.00 0.00 0.00 0.00 0.00
0.00 0.00 0.00 0.00 0.00 0.01 0.03 0.04 0.03 0.03 0.03 0.04 0.04 0.04 0.04 0.05 0.05 0.06 0.06 0.06 0.06 0.05 0.03 0.06 0.10 0.12 0.16 0.29 0.39 0.28 0.20 0.18 0.15 0.07 0.03 0.01 0.00 0.00 0.00 0.00 0.00 0.00 0.00
0.00 0.00 0.00 0.01 0.02 0.03 0.03 0.03 0.03 0.04 0.05 0.06 0.06 0.06 0.06 0.06 0.06 0.08 0.07 0.06 0.05 0.05 0.05 0.08 0.12 0.14 0.14 0.21 0.31 0.30 0.25 0.23 0.20 0.11 0.04 0.01 0.00 0.00 0.00 0.00 0.00 0.00 0.00
0.00 0.01 0.02 0.04 0.04 0.04 0.03 0.03 0.04 0.07 0.09 0.08 0.08 0.08 0.08 0.07 0.07 0.07 0.07 0.06 0.05 0.05 0.05 0.09 0.13 0.15 0.14 0.17 0.23 0.26 0.26 0.25 0.23 0.14 0.06 0.01 0.00 0.00 0.00 0.00 0.00 0.00 0.00
0.01 0.04 0.06 0.08 0.07 0.06 0.05 0.05 0.07 0.11 0.13 0.13 0.11 0.11 0.11 0.09 0.08 0.07 0.07 0.04 0.03 0.02 0.01 0.02 0.05 0.09 0.11 0.14 0.18 0.21 0.22 0.19 0.16 0.10 0.05 0.01 0.00 0.00 0.00 0.00 0.00 0.00 0.00

GEFSMW_prec_meanprec_018.txt.gz
QPF
0.21 0.42 0.80 1.45 2.32 3.04 3.13 2.52 1.92 1.51 1.10 0.75 0.39 0.15 0.07 0.03 0.02 0.01 0.00 0.00 0.00 0.00 0.00 0.00 0.00 0.00 0.00 0.00 0.00 0.00 0.00 0.00 0.00 0.00 0.00 0.00 0.00 0.00 0.00 0.00 0.01 0.01 0.01
0.35 0.60 1.18 1.86 2.24 2.32 1.96 1.49 1.20 1.01 0.72 0.45 0.21 0.11 0.06 0.03 0.01 0.01 0.00 0.00 0.00 0.00 0.00 0.00 0.00 0.00 0.00 0.00 0.00 0.00 0.00 0.00 0.00 0.00 0.00 0.00 0.00 0.00 0.00 0.00 0.01 0.01 0.02
0.49 0.64 1.03 1.37 1.21 0.94 0.82 0.76 0.68 0.44 0.28 0.22 0.11 0.05 0.03 0.02 0.02 0.01 0.01 0.00 0.00 0.00 0.00 0.00 0.00 0.00 0.00 0.00 0.00 0.00 0.00 0.00 0.00 0.00 0.01 0.01 0.00 0.00 0.00 0.00 0.02 0.02 0.03
0.24 0.28 0.41 0.52 0.55 0.53 0.47 0.56 0.53 0.29 0.21 0.15 0.08 0.06 0.06 0.05 0.04 0.02 0.01 0.01 0.01 0.00 0.00 0.00 0.00 0.00 0.00 0.00 0.00 0.00 0.00 0.00 0.00 0.00 0.01 0.01 0.01 0.02 0.01 0.00 0.00 0.02 0.04
0.04 0.06 0.10 0.13 0.16 0.18 0.21 0.35 0.41 0.32 0.25 0.20 0.14 0.12 0.11 0.09 0.08 0.06 0.04 0.03 0.02 0.01 0.00 0.00 0.00 0.00 0.00 0.00 0.00 0.00 0.00 0.00 0.00 0.00 0.00 0.00 0.01 0.02 0.02 0.00 0.00 0.01 0.03
0.01 0.01 0.02 0.03 0.05 0.08 0.11 0.20 0.28 0.29 0.30 0.29 0.23 0.17 0.12 0.11 0.10 0.08 0.08 0.05 0.02 0.01 0.01 0.00 0.00 0.01 0.01 0.00 0.00 0.00 0.00 0.00 0.00 0.00 0.00 0.00 0.00 0.01 0.01 0.01 0.00 0.01 0.00
0.00 0.00 0.01 0.01 0.02 0.03 0.04 0.07 0.08 0.10 0.14 0.18 0.20 0.18 0.14 0.12 0.11 0.09 0.07 0.06 0.05 0.04 0.03 0.02 0.01 0.02 0.01 0.00 0.00 0.00 0.00 0.00 0.00 0.00 0.00 0.00 0.00 0.01 0.01 0.01 0.01 0.01 0.00
0.00 0.00 0.00 0.00 0.00 0.01 0.01 0.01 0.01 0.02 0.03 0.04 0.05 0.07 0.08 0.08 0.08 0.08 0.08 0.11 0.15 0.16 0.14 0.08 0.04 0.03 0.01 0.01 0.00 0.00 0.00 0.00 0.00 0.00 0.00 0.00 0.00 0.00 0.01 0.01 0.02 0.01 0.00
0.00 0.00 0.00 0.00 0.00 0.00 0.00 0.00 0.00 0.00 0.00 0.01 0.01 0.01 0.02 0.02 0.03 0.04 0.05 0.08 0.14 0.19 0.17 0.13 0.09 0.05 0.03 0.02 0.01 0.00 0.00 0.00 0.00 0.00 0.00 0.00 0.00 0.01 0.01 0.02 0.02 0.02 0.01
0.00 0.00 0.00 0.00 0.00 0.00 0.00 0.00 0.00 0.00 0.00 0.00 0.00 0.00 0.00 0.00 0.01 0.01 0.02 0.04 0.06 0.09 0.11 0.10 0.08 0.06 0.04 0.04 0.03 0.01 0.00 0.00 0.00 0.00 0.00 0.00 0.00 0.00 0.01 0.01 0.02 0.02 0.01
0.00 0.00 0.00 0.00 0.00 0.00 0.00 0.00 0.00 0.00 0.00 0.00 0.00 0.00 0.00 0.00 0.00 0.00 0.00 0.01 0.01 0.03 0.04 0.05 0.05 0.05 0.04 0.04 0.03 0.02 0.01 0.01 0.00 0.00 0.00 0.00 0.00 0.00 0.00 0.01 0.01 0.02 0.02
0.00 0.00 0.00 0.00 0.00 0.00 0.00 0.00 0.00 0.00 0.00 0.00 0.00 0.00 0.00 0.00 0.00 0.00 0.00 0.00 0.00 0.00 0.00 0.01 0.01 0.02 0.03 0.04 0.04 0.04 0.02 0.02 0.01 0.00 0.00 0.00 0.00 0.00 0.00 0.00 0.00 0.01 0.03
0.00 0.00 0.00 0.00 0.00 0.00 0.00 0.00 0.00 0.00 0.00 0.00 0.00 0.00 0.00 0.00 0.00 0.00 0.00 0.00 0.00 0.00 0.00 0.00 0.00 0.00 0.01 0.02 0.03 0.04 0.03 0.03 0.02 0.01 0.01 0.00 0.00 0.00 0.00 0.00 0.00 0.01 0.03
0.00 0.00 0.00 0.00 0.00 0.00 0.00 0.00 0.00 0.00 0.00 0.00 0.00 0.00 0.00 0.00 0.00 0.00 0.00 0.00 0.00 0.00 0.00 0.00 0.00 0.00 0.00 0.01 0.02 0.03 0.04 0.03 0.03 0.03 0.02 0.01 0.00 0.00 0.00 0.00 0.00 0.01 0.02
0.00 0.00 0.00 0.00 0.00 0.00 0.00 0.00 0.00 0.00 0.00 0.00 0.00 0.00 0.00 0.00 0.00 0.00 0.00 0.00 0.00 0.00 0.00 0.00 0.00 0.00 0.00 0.01 0.02 0.03 0.04 0.04 0.03 0.04 0.03 0.01 0.00 0.00 0.00 0.00 0.00 0.00 0.01
0.00 0.00 0.00 0.00 0.00 0.00 0.00 0.00 0.00 0.00 0.00 0.00 0.00 0.00 0.00 0.00 0.00 0.00 0.00 0.01 0.00 0.00 0.00 0.00 0.00 0.00 0.01 0.01 0.02 0.02 0.03 0.05 0.05 0.04 0.03 0.02 0.00 0.00 0.00 0.00 0.00 0.00 0.01
0.00 0.00 0.00 0.00 0.00 0.00 0.00 0.00 0.00 0.00 0.00 0.00 0.00 0.00 0.00 0.00 0.00 0.00 0.01 0.01 0.01 0.01 0.01 0.01 0.01 0.00 0.01 0.01 0.01 0.02 0.03 0.05 0.06 0.06 0.04 0.03 0.01 0.00 0.00 0.00 0.00 0.00 0.01
0.00 0.00 0.00 0.00 0.00 0.00 0.00 0.00 0.00 0.00 0.00 0.00 0.00 0.00 0.00 0.00 0.00 0.00 0.00 0.01 0.01 0.01 0.01 0.01 0.01 0.00 0.00 0.00 0.01 0.02 0.04 0.06 0.07 0.07 0.06 0.04 0.02 0.00 0.00 0.00 0.00 0.00 0.01
0.00 0.00 0.00 0.00 0.00 0.00 0.00 0.00 0.00 0.00 0.00 0.00 0.01 0.01 0.01 0.01 0.00 0.00 0.01 0.01 0.01 0.01 0.01 0.01 0.01 0.01 0.00 0.01 0.01 0.01 0.04 0.07 0.08 0.09 0.09 0.06 0.03 0.01 0.00 0.00 0.00 0.00 0.00
0.00 0.00 0.00 0.00 0.00 0.00 0.00 0.00 0.01 0.01 0.02 0.02 0.03 0.02 0.02 0.02 0.01 0.01 0.01 0.01 0.01 0.01 0.01 0.00 0.01 0.01 0.01 0.01 0.01 0.01 0.03 0.06 0.09 0.11 0.12 0.10 0.05 0.02 0.00 0.00 0.00 0.00 0.00
0.00 0.00 0.00 0.00 0.00 0.00 0.01 0.02 0.03 0.04 0.04 0.05 0.05 0.04 0.04 0.03 0.02 0.01 0.01 0.01 0.01 0.00 0.01 0.00 0.00 0.01 0.01 0.00 0.00 0.00 0.03 0.06 0.11 0.15 0.16 0.14 0.09 0.04 0.01 0.01 0.00 0.00 0.00
0.00 0.00 0.00 0.00 0.00 0.01 0.03 0.05 0.05 0.05 0.06 0.06 0.05 0.04 0.03 0.03 0.02 0.02 0.01 0.01 0.01 0.01 0.01 0.00 0.00 0.00 0.00 0.00 0.00 0.00 0.02 0.06 0.11 0.19 0.23 0.18 0.13 0.07 0.03 0.01 0.00 0.00 0.00
0.00 0.00 0.00 0.01 0.01 0.02 0.04 0.07 0.06 0.06 0.07 0.07 0.06 0.04 0.04 0.03 0.03 0.03 0.02 0.01 0.01 0.01 0.01 0.01 0.01 0.01 0.01 0.01 0.00 0.00 0.01 0.05 0.11 0.21 0.31 0.27 0.18 0.10 0.05 0.02 0.00 0.00 0.00
0.00 0.00 0.01 0.02 0.03 0.03 0.03 0.05 0.06 0.07 0.08 0.08 0.06 0.05 0.05 0.05 0.05 0.04 0.04 0.02 0.01 0.01 0.01 0.01 0.01 0.01 0.02 0.02 0.01 0.00 0.01 0.05 0.11 0.21 0.34 0.38 0.27 0.15 0.07 0.03 0.01 0.00 0.00
0.01 0.02 0.03 0.04 0.04 0.04 0.03 0.04 0.05 0.07 0.08 0.08 0.07 0.07 0.08 0.07 0.06 0.06 0.05 0.03 0.02 0.02 0.01 0.01 0.02 0.02 0.02 0.02 0.02 0.02 0.03 0.04 0.11 0.23 0.38 0.48 0.37 0.21 0.09 0.03 0.01 0.00 0.00
0.02 0.03 0.04 0.04 0.04 0.04 0.03 0.03 0.04 0.06 0.08 0.08 0.07 0.07 0.07 0.07 0.07 0.06 0.04 0.03 0.01 0.01 0.01 0.01 0.01 0.01 0.01 0.01 0.01 0.03 0.04 0.05 0.10 0.24 0.40 0.50 0.40 0.21 0.09 0.02 0.01 0.00 0.00

GEFSMW_prec_meanprec_024.txt.gz
QPF
0.10 0.09 0.08 0.06 0.04 0.04 0.13 0.33 0.50 0.63 0.77 0.82 0.73 0.63 0.54 0.45 0.35 0.24 0.19 0.14 0.09 0.06 0.03 0.01 0.00 0.00 0.00 0.00 0.00 0.00 0.00 0.00 0.00 0.00 0.00 0.00 0.00 0.00 0.00 0.00 0.00 0.00 0.00
0.05 0.05 0.04 0.02 0.01 0.01 0.06 0.15 0.25 0.31 0.33 0.33 0.33 0.32 0.29 0.26 0.20 0.16 0.15 0.12 0.08 0.05 0.03 0.01 0.00 0.00 0.00 0.00 0.00 0.00 0.00 0.00 0.00 0.00 0.00 0.00 0.00 0.00 0.00 0.00 0.00 0.00 0.00
0.03 0.03 0.01 0.00 0.00 0.00 0.01 0.02 0.04 0.08 0.10 0.12 0.19 0.19 0.18 0.17 0.14 0.13 0.13 0.10 0.07 0.05 0.03 0.01 0.00 0.00 0.00 0.00 0.00 0.00 0.00 0.00 0.00 0.00 0.00 0.00 0.00 0.00 0.00 0.00 0.00 0.00 0.00
0.02 0.01 0.01 0.00 0.00 0.00 0.01 0.01 0.03 0.05 0.06 0.07 0.10 0.09 0.09 0.11 0.12 0.12 0.11 0.11 0.09 0.07 0.05 0.03 0.01 0.00 0.00 0.00 0.00 0.00 0.00 0.00 0.00 0.00 0.00 0.00 0.00 0.00 0.00 0.00 0.00 0.00 0.00
0.02 0.01 0.01 0.01 0.00 0.00 0.01 0.01 0.02 0.03 0.04 0.04 0.05 0.05 0.06 0.07 0.09 0.11 0.12 0.14 0.14 0.12 0.10 0.08 0.05 0.02 0.01 0.00 0.00 0.00 0.00 0.00 0.00 0.00 0.00 0.00 0.00 0.00 0.00 0.00 0.00 0.00 0.00
0.01 0.00 0.00 0.00 0.00 0.00 0.01 0.01 0.01 0.01 0.02 0.02 0.02 0.03 0.04 0.05 0.07 0.09 0.10 0.12 0.14 0.14 0.13 0.12 0.10 0.08 0.04 0.01 0.00 0.00 0.00 0.00 0.00 0.00 0.00 0.00 0.00 0.00 0.00 0.00 0.00 0.00 0.00
0.00 0.00 0.00 0.00 0.00 0.00 0.00 0.00 0.00 0.00 0.00 0.01 0.01 0.01 0.01 0.02 0.03 0.04 0.06 0.08 0.10 0.11 0.12 0.12 0.13 0.12 0.09 0.06 0.03 0.01 0.00 0.00 0.00 0.00 0.00 0.00 0.00 0.00 0.00 0.00 0.00 0.00 0.00
0.00 0.00 0.00 0.00 0.00 0.00 0.00 0.00 0.00 0.00 0.00 0.00 0.00 0.00 0.00 0.00 0.00 0.00 0.01 0.02 0.04 0.05 0.07 0.07 0.09 0.11 0.12 0.11 0.07 0.03 0.01 0.00 0.00 0.00 0.00 0.00 0.00 0.00 0.00 0.00 0.00 0.00 0.00
0.00 0.00 0.00 0.00 0.00 0.00 0.00 0.00 0.00 0.00 0.00 0.00 0.00 0.00 0.00 0.00 0.00 0.00 0.00 0.00 0.01 0.01 0.02 0.03 0.05 0.08 0.10 0.11 0.10 0.08 0.05 0.02 0.01 0.00 0.00 0.00 0.00 0.00 0.00 0.00 0.00 0.00 0.00
0.00 0.00 0.00 0.00 0.00 0.00 0.00 0.00 0.00 0.00 0.00 0.00 0.00 0.00 0.00 0.00 0.00 0.00 0.00 0.00 0.00 0.00 0.01 0.02 0.03 0.04 0.07 0.09 0.09 0.09 0.08 0.05 0.02 0.01 0.01 0.00 0.00 0.00 0.00 0.00 0.00 0.00 0.00
0.00 0.00 0.00 0.00 0.00 0.00 0.00 0.00 0.00 0.00 0.00 0.00 0.00 0.00 0.00 0.00 0.00 0.00 0.00 0.00 0.00 0.00 0.00 0.01 0.02 0.03 0.05 0.07 0.09 0.09 0.10 0.08 0.06 0.04 0.02 0.01 0.01 0.00 0.00 0.00 0.00 0.00 0.00
0.00 0.00 0.00 0.00 0.00 0.00 0.00 0.00 0.00 0.00 0.00 0.00 0.00 0.00 0.00 0.00 0.00 0.00 0.00 0.00 0.00 0.00 0.00 0.00 0.00 0.01 0.03 0.06 0.09 0.11 0.12 0.11 0.10 0.08 0.06 0.03 0.02 0.01 0.01 0.00 0.00 0.00 0.00
0.00 0.00 0.00 0.00 0.00 0.00 0.00 0.00 0.00 0.00 0.00 0.00 0.00 0.00 0.00 0.00 0.00 0.00 0.00 0.00 0.00 0.00 0.00 0.00 0.00 0.00 0.01 0.02 0.04 0.08 0.12 0.14 0.14 0.12 0.10 0.07 0.05 0.02 0.02 0.01 0.00 0.00 0.00
0.00 0.00 0.00 0.00 0.00 0.00 0.00 0.00 0.00 0.00 0.00 0.00 0.00 0.00 0.00 0.00 0.00 0.00 0.00 0.00 0.00 0.00 0.00 0.00 0.00 0.00 0.00 0.00 0.01 0.02 0.05 0.09 0.12 0.14 0.13 0.11 0.08 0.05 0.03 0.02 0.01 0.00 0.00
0.00 0.00 0.00 0.00 0.00 0.00 0.00 0.00 0.00 0.00 0.00 0.00 0.00 0.00 0.00 0.00 0.00 0.00 0.00 0.00 0.00 0.00 0.00 0.00 0.00 0.00 0.00 0.00 0.00 0.00 0.01 0.02 0.05 0.09 0.11 0.13 0.11 0.08 0.05 0.03 0.02 0.01 0.00
0.00 0.00 0.00 0.00 0.00 0.00 0.00 0.00 0.00 0.00 0.00 0.00 0.00 0.00 0.00 0.00 0.00 0.00 0.00 0.00 0.00 0.00 0.00 0.00 0.00 0.00 0.00 0.00 0.00 0.00 0.00 0.00 0.01 0.03 0.06 0.09 0.13 0.10 0.07 0.04 0.02 0.01 0.00
0.00 0.00 0.00 0.00 0.00 0.00 0.00 0.00 0.00 0.00 0.00 0.00 0.00 0.01 0.01 0.01 0.01 0.01 0.01 0.01 0.01 0.01 0.00 0.00 0.00 0.00 0.00 0.00 0.00 0.00 0.00 0.00 0.00 0.01 0.03 0.05 0.07 0.09 0.07 0.05 0.03 0.01 0.00
0.00 0.00 0.00 0.00 0.00 0.00 0.00 0.00 0.00 0.00 0.00 0.00 0.01 0.01 0.02 0.03 0.03 0.04 0.03 0.03 0.02 0.02 0.02 0.01 0.00 0.00 0.00 0.00 0.00 0.00 0.00 0.00 0.00 0.01 0.02 0.03 0.04 0.06 0.07 0.05 0.03 0.01 0.00
0.00 0.00 0.00 0.00 0.00 0.00 0.00 0.00 0.00 0.00 0.00 0.01 0.01 0.02 0.03 0.05 0.06 0.07 0.06 0.06 0.05 0.04 0.04 0.03 0.01 0.00 0.00 0.00 0.00 0.00 0.00 0.00 0.00 0.00 0.02 0.04 0.05 0.06 0.06 0.05 0.03 0.02 0.01
0.00 0.00 0.00 0.00 0.00 0.00 0.00 0.00 0.00 0.00 0.01 0.01 0.02 0.03 0.05 0.08 0.10 0.11 0.11 0.10 0.08 0.07 0.05 0.04 0.02 0.01 0.00 0.00 0.00 0.00 0.00 0.00 0.00 0.00 0.02 0.06 0.07 0.08 0.07 0.05 0.04 0.02 0.01
0.00 0.00 0.00 0.00 0.00 0.00 0.00 0.00 0.00 0.01 0.01 0.01 0.02 0.03 0.05 0.08 0.11 0.13 0.15 0.14 0.12 0.08 0.05 0.03 0.02 0.00 0.00 0.00 0.00 0.00 0.00 0.00 0.00 0.00 0.02 0.05 0.09 0.11 0.10 0.07 0.04 0.02 0.01
0.00 0.00 0.00 0.00 0.00 0.00 0.00 0.01 0.01 0.01 0.01 0.01 0.02 0.02 0.04 0.06 0.08 0.10 0.12 0.15 0.16 0.14 0.09 0.05 0.02 0.01 0.00 0.00 0.00 0.00 0.00 0.00 0.00 0.00 0.02 0.08 0.12 0.16 0.16 0.12 0.07 0.04 0.02
0.00 0.00 0.00 0.00 0.00 0.00 0.00 0.01 0.01 0.01 0.01 0.01 0.02 0.03 0.04 0.05 0.07 0.08 0.10 0.11 0.11 0.11 0.09 0.06 0.03 0.01 0.00 0.00 0.00 0.00 0.00 0.00 0.00 0.00 0.03 0.12 0.19 0.24 0.25 0.20 0.13 0.07 0.04
0.00 0.00 0.00 0.00 0.00 0.00 0.01 0.01 0.01 0.01 0.01 0.02 0.02 0.03 0.04 0.06 0.07 0.09 0.10 0.11 0.11 0.09 0.07 0.04 0.02 0.01 0.00 0.00 0.00 0.00 0.00 0.00 0.00 0.01 0.03 0.13 0.26 0.36 0.39 0.32 0.20 0.10 0.06
0.00 0.00 0.00 0.00 0.01 0.01 0.01 0.01 0.01 0.01 0.02 0.02 0.03 0.03 0.04 0.05 0.06 0.07 0.09 0.11 0.11 0.10 0.07 0.04 0.02 0.01 0.00 0.00 0.00 0.00 0.00 0.00 0.00 0.00 0.04 0.14 0.32 0.50 0.55 0.45 0.28 0.15 0.09
0.00 0.00 0.00 0.01 0.01 0.01 0.01 0.01 0.01 0.02 0.02 0.03 0.03 0.03 0.03 0.03 0.04 0.05 0.06 0.06 0.07 0.07 0.05 0.03 0.01 0.00 0.00 0.00 0.00 0.00 0.00 0.00 0.00 0.01 0.03 0.16 0.35 0.56 0.63 0.53 0.34 0.18 0.09

GEFSMW_prec_meanprec_030.txt.gz
QPF
0.01 0.01 0.01 0.01 0.01 0.01 0.01 0.00 0.00 0.00 0.00 0.00 0.01 0.03 0.10 0.18 0.24 0.25 0.25 0.24 0.23 0.22 0.19 0.16 0.13 0.09 0.06 0.05 0.05 0.06 0.06 0.06 0.06 0.06 0.06 0.05 0.04 0.04 0.04 0.04 0.03 0.02 0.01
0.00 0.01 0.01 0.00 0.00 0.00 0.00 0.00 0.00 0.00 0.00 0.01 0.01 0.02 0.04 0.08 0.11 0.14 0.16 0.17 0.16 0.17 0.16 0.15 0.13 0.09 0.06 0.04 0.04 0.04 0.03 0.03 0.02 0.02 0.02 0.02 0.01 0.01 0.01 0.01 0.01 0.01 0.00
0.00 0.00 0.00 0.00 0.00 0.00 0.00 0.00 0.00 0.00 0.00 0.00 0.01 0.02 0.03 0.05 0.06 0.06 0.07 0.09 0.11 0.12 0.12 0.12 0.11 0.09 0.07 0.05 0.04 0.03 0.02 0.02 0.01 0.01 0.00 0.00 0.00 0.00 0.00 0.00 0.00 0.00 0.00
0.00 0.00 0.00 0.00 0.00 0.00 0.00 0.00 0.00 0.00 0.00 0.00 0.01 0.01 0.02 0.03 0.03 0.04 0.04 0.05 0.06 0.09 0.09 0.08 0.06 0.05 0.05 0.05 0.04 0.02 0.02 0.01 0.01 0.01 0.00 0.00 0.00 0.00 0.00 0.00 0.00 0.00 0.00
0.00 0.00 0.00 0.00 0.00 0.00 0.00 0.00 0.00 0.00 0.00 0.00 0.00 0.00 0.00 0.01 0.01 0.02 0.02 0.03 0.04 0.05 0.07 0.09 0.08 0.06 0.05 0.04 0.03 0.02 0.01 0.01 0.01 0.01 0.00 0.00 0.00 0.00 0.00 0.00 0.00 0.00 0.00
0.00 0.00 0.00 0.00 0.00 0.00 0.00 0.00 0.00 0.00 0.00 0.00 0.00 0.00 0.00 0.00 0.00 0.00 0.00 0.01 0.01 0.02 0.03 0.05 0.07 0.08 0.09 0.07 0.04 0.02 0.02 0.01 0.01 0.01 0.00 0.00 0.00 0.00 0.00 0.00 0.00 0.00 0.00
0.00 0.00 0.00 0.00 0.00 0.00 0.00 0.00 0.00 0.00 0.00 0.00 0.00 0.00 0.00 0.00 0.00 0.00 0.00 0.00 0.00 0.01 0.01 0.02 0.03 0.05 0.07 0.09 0.09 0.06 0.04 0.03 0.02 0.01 0.01 0.00 0.00 0.00 0.00 0.00 0.00 0.00 0.00
0.00 0.00 0.00 0.00 0.00 0.00 0.00 0.00 0.00 0.00 0.00 0.00 0.00 0.00 0.00 0.00 0.00 0.00 0.00 0.00 0.00 0.00 0.00 0.00 0.01 0.02 0.03 0.06 0.08 0.09 0.09 0.07 0.05 0.03 0.02 0.01 0.00 0.00 0.00 0.00 0.00 0.00 0.00
0.00 0.00 0.00 0.00 0.00 0.00 0.00 0.00 0.00 0.00 0.00 0.00 0.00 0.00 0.00 0.00 0.00 0.00 0.00 0.00 0.00 0.00 0.00 0.00 0.00 0.01 0.01 0.03 0.05 0.08 0.10 0.10 0.08 0.06 0.05 0.03 0.02 0.01 0.01 0.00 0.00 0.00 0.00
0.00 0.00 0.00 0.00 0.00 0.00 0.00 0.00 0.00 0.00 0.00 0.00 0.00 0.00 0.00 0.00 0.00 0.00 0.00 0.00 0.00 0.00 0.00 0.00 0.00 0.00 0.00 0.01 0.02 0.05 0.09 0.11 0.13 0.13 0.11 0.08 0.06 0.04 0.02 0.01 0.01 0.00 0.00
0.00 0.00 0.00 0.00 0.00 0.00 0.00 0.00 0.00 0.00 0.00 0.00 0.00 0.00 0.00 0.00 0.00 0.00 0.00 0.00 0.00 0.00 0.00 0.00 0.00 0.00 0.00 0.00 0.01 0.02 0.05 0.10 0.15 0.19 0.19 0.15 0.12 0.10 0.06 0.04 0.02 0.01 0.01
0.00 0.00 0.00 0.00 0.00 0.00 0.00 0.00 0.00 0.00 0.00 0.00 0.00 0.00 0.00 0.00 0.00 0.00 0.00 0.00 0.00 0.00 0.00 0.00 0.00 0.00 0.00 0.00 0.00 0.01 0.03 0.06 0.11 0.18 0.24 0.26 0.22 0.16 0.12 0.09 0.05 0.02 0.01
0.00 0.00 0.00 0.00 0.00 0.00 0.00 0.00 0.00 0.00 0.00 0.00 0.00 0.00 0.00 0.00 0.00 0.00 0.00 0.00 0.00 0.00 0.00 0.00 0.00 0.00 0.00 0.00 0.00 0.00 0.01 0.04 0.07 0.12 0.19 0.27 0.31 0.28 0.21 0.15 0.12 0.08 0.04
0.00 0.00 0.00 0.00 0.00 0.00 0.00 0.00 0.00 0.00 0.00 0.00 0.00 0.00 0.00 0.00 0.00 0.00 0.00 0.00 0.00 0.00 0.01 0.01 0.01 0.01 0.00 0.00 0.00 0.00 0.01 0.02 0.04 0.07 0.12 0.19 0.28 0.35 0.34 0.26 0.19 0.15 0.10
0.00 0.00 0.00 0.00 0.00 0.00 0.00 0.00 0.00 0.00 0.00 0.00 0.00 0.00 0.00 0.00 0.00 0.00 0.00 0.01 0.01 0.01 0.01 0.01 0.01 0.01 0.01 0.00 0.00 0.01 0.00 0.01 0.02 0.03 0.06 0.11 0.17 0.26 0.35 0.36 0.29 0.23 0.16
0.00 0.00 0.00 0.00 0.00 0.00 0.00 0.00 0.00 0.00 0.00 0.00 0.00 0.00 0.00 0.00 0.01 0.01 0.01 0.01 0.02 0.02 0.03 0.03 0.03 0.03 0.01 0.00 0.00 0.01 0.01 0.01 0.02 0.02 0.03 0.05 0.10 0.16 0.23 0.30 0.34 0.31 0.24
0.00 0.00 0.00 0.00 0.00 0.00 0.00 0.00 0.00 0.00 0.00 0.00 0.00 0.01 0.01 0.01 0.01 0.01 0.02 0.03 0.04 0.04 0.05 0.06 0.06 0.06 0.04 0.02 0.01 0.00 0.02 0.03 0.03 0.03 0.03 0.02 0.04 0.09 0.15 0.20 0.25 0.28 0.25
0.00 0.00 0.00 0.00 0.00 0.00 0.00 0.00 0.00 0.00 0.00 0.00 0.01 0.01 0.02 0.02 0.02 0.03 0.04 0.05 0.07 0.07 0.07 0.07 0.08 0.08 0.07 0.04 0.02 0.01 0.02 0.04 0.04 0.04 0.03 0.02 0.03 0.04 0.08 0.15 0.18 0.20 0.19
0.00 0.00 0.00 0.00 0.00 0.00 0.00 0.00 0.00 0.00 0.00 0.01 0.01 0.02 0.02 0.03 0.04 0.04 0.05 0.07 0.09 0.08 0.09 0.10 0.10 0.10 0.09 0.06 0.03 0.02 0.04 0.05 0.04 0.04 0.03 0.02 0.02 0.02 0.03 0.08 0.13 0.15 0.14
0.00 0.00 0.00 0.00 0.00 0.00 0.00 0.00 0.00 0.00 0.01 0.01 0.02 0.02 0.03 0.05 0.05 0.05 0.06 0.07 0.09 0.09 0.10 0.10 0.11 0.12 0.11 0.08 0.04 0.03 0.05 0.06 0.05 0.05 0.04 0.01 0.01 0.01 0.01 0.04 0.08 0.11 0.12
0.00 0.00 0.00 0.00 0.00 0.00 0.00 0.00 0.01 0.01 0.01 0.01 0.02 0.02 0.04 0.05 0.05 0.06 0.07 0.08 0.10 0.10 0.10 0.10 0.11 0.12 0.12 0.09 0.04 0.02 0.04 0.04 0.04 0.03 0.03 0.02 0.01 0.00 0.00 0.02 0.04 0.08 0.10
0.00 0.00 0.00 0.00 0.00 0.00 0.00 0.01 0.01 0.01 0.01 0.02 0.02 0.03 0.04 0.04 0.04 0.06 0.07 0.08 0.08 0.09 0.09 0.09 0.10 0.11 0.09 0.08 0.04 0.02 0.01 0.02 0.04 0.03 0.02 0.02 0.01 0.00 0.00 0.01 0.03 0.05 0.08
0.00 0.00 0.00 0.00 0.00 0.00 0.00 0.01 0.01 0.01 0.02 0.02 0.02 0.03 0.03 0.04 0.05 0.06 0.07 0.07 0.08 0.08 0.08 0.08 0.08 0.08 0.07 0.06 0.02 0.01 0.01 0.00 0.02 0.03 0.02 0.02 0.00 0.00 0.00 0.01 0.02 0.05 0.07
0.00 0.00 0.00 0.00 0.00 0.00 0.00 0.01 0.01 0.02 0.02 0.02 0.02 0.02 0.02 0.03 0.03 0.05 0.06 0.07 0.08 0.08 0.08 0.08 0.08 0.07 0.06 0.06 0.04 0.02 0.01 0.00 0.00 0.01 0.01 0.00 0.00 0.00 0.01 0.02 0.04 0.05 0.08
0.00 0.00 0.00 0.00 0.00 0.00 0.00 0.01 0.01 0.02 0.02 0.01 0.01 0.01 0.02 0.02 0.03 0.04 0.05 0.04 0.06 0.05 0.05 0.07 0.07 0.06 0.05 0.05 0.03 0.03 0.03 0.02 0.02 0.02 0.03 0.02 0.02 0.02 0.02 0.03 0.06 0.09 0.12
0.00 0.00 0.00 0.00 0.00 0.00 0.00 0.01 0.01 0.02 0.02 0.01 0.01 0.01 0.01 0.02 0.02 0.03 0.04 0.03 0.02 0.02 0.02 0.02 0.03 0.04 0.03 0.01 0.01 0.00 0.01 0.01 0.01 0.02 0.04 0.04 0.04 0.04 0.04 0.06 0.11 0.15 0.17

GEFSMW_prec_meanprec_036.txt.gz
QPF
0.00 0.00 0.00 0.00 0.00 0.00 0.00 0.00 0.00 0.01 0.01 0.01 0.01 0.01 0.01 0.02 0.05 0.04 0.05 0.06 0.09 0.14 0.20 0.23 0.25 0.26 0.26 0.26 0.26 0.28 0.28 0.27 0.27 0.24 0.24 0.23 0.20 0.17 0.14 0.13 0.15 0.14 0.13
0.00 0.00 0.00 0.00 0.00 0.00 0.00 0.00 0.00 0.00 0.00 0.01 0.00 0.00 0.01 0.01 0.03 0.03 0.04 0.04 0.04 0.07 0.10 0.14 0.17 0.20 0.20 0.22 0.22 0.22 0.21 0.20 0.22 0.21 0.20 0.18 0.16 0.12 0.07 0.06 0.05 0.06 0.09
0.00 0.00 0.00 0.00 0.00 0.00 0.00 0.00 0.00 0.00 0.00 0.00 0.00 0.00 0.00 0.01 0.01 0.01 0.02 0.02 0.02 0.05 0.07 0.10 0.12 0.16 0.19 0.20 0.21 0.20 0.18 0.15 0.14 0.15 0.15 0.11 0.09 0.09 0.05 0.04 0.02 0.03 0.05
0.00 0.00 0.00 0.00 0.00 0.00 0.00 0.00 0.00 0.00 0.00 0.00 0.00 0.00 0.00 0.00 0.00 0.00 0.01 0.01 0.01 0.02 0.03 0.06 0.08 0.11 0.15 0.18 0.18 0.20 0.19 0.16 0.11 0.11 0.09 0.06 0.07 0.08 0.08 0.06 0.02 0.02 0.02
0.00 0.00 0.00 0.00 0.00 0.00 0.00 0.00 0.00 0.00 0.01 0.01 0.00 0.00 0.00 0.00 0.00 0.00 0.00 0.00 0.00 0.00 0.01 0.01 0.03 0.05 0.08 0.13 0.15 0.20 0.19 0.18 0.13 0.10 0.09 0.07 0.04 0.03 0.04 0.05 0.03 0.02 0.01
0.00 0.00 0.00 0.00 0.00 0.00 0.00 0.00 0.00 0.00 0.01 0.00 0.00 0.00 0.01 0.01 0.00 0.00 0.00 0.00 0.00 0.00 0.00 0.00 0.01 0.01 0.03 0.05 0.08 0.12 0.16 0.19 0.18 0.12 0.09 0.10 0.07 0.03 0.01 0.01 0.02 0.02 0.00
0.00 0.00 0.00 0.00 0.00 0.00 0.00 0.00 0.00 0.00 0.00 0.00 0.00 0.00 0.00 0.01 0.01 0.01 0.01 0.01 0.00 0.00 0.00 0.00 0.00 0.00 0.01 0.02 0.04 0.06 0.11 0.16 0.17 0.15 0.12 0.10 0.07 0.04 0.03 0.01 0.00 0.00 0.00
0.00 0.00 0.00 0.00 0.00 0.00 0.00 0.00 0.00 0.00 0.00 0.00 0.00 0.00 0.00 0.00 0.00 0.00 0.01 0.00 0.00 0.00 0.00 0.00 0.00 0.00 0.00 0.01 0.01 0.02 0.05 0.10 0.13 0.16 0.18 0.16 0.09 0.06 0.05 0.03 0.02 0.02 0.01
0.00 0.00 0.00 0.00 0.00 0.00 0.00 0.00 0.00 0.00 0.00 0.00 0.00 0.00 0.00 0.00 0.00 0.00 0.00 0.00 0.00 0.00 0.00 0.00 0.00 0.00 0.00 0.00 0.00 0.01 0.03 0.05 0.08 0.13 0.18 0.18 0.15 0.12 0.08 0.05 0.03 0.03 0.04
0.00 0.00 0.00 0.00 0.00 0.00 0.00 0.00 0.00 0.00 0.00 0.00 0.00 0.00 0.00 0.00 0.00 0.00 0.00 0.00 0.00 0.00 0.00 0.00 0.00 0.00 0.00 0.00 0.00 0.00 0.01 0.02 0.04 0.07 0.13 0.18 0.20 0.20 0.15 0.10 0.06 0.05 0.04
0.00 0.00 0.00 0.00 0.00 0.00 0.00 0.00 0.00 0.00 0.00 0.00 0.00 0.00 0.00 0.00 0.00 0.00 0.00 0.01 0.01 0.01 0.01 0.01 0.00 0.00 0.00 0.00 0.01 0.00 0.00 0.01 0.02 0.04 0.07 0.11 0.17 0.23 0.23 0.20 0.15 0.10 0.08
0.00 0.00 0.00 0.00 0.00 0.00 0.00 0.00 0.00 0.00 0.00 0.00 0.00 0.00 0.00 0.00 0.00 0.00 0.00 0.01 0.01 0.01 0.01 0.01 0.01 0.01 0.00 0.01 0.01 0.01 0.01 0.01 0.01 0.02 0.04 0.06 0.11 0.17 0.22 0.27 0.25 0.20 0.17
0.00 0.00 0.00 0.00 0.00 0.00 0.00 0.00 0.00 0.00 0.00 0.00 0.00 0.00 0.00 0.00 0.01 0.01 0.00 0.01 0.01 0.01 0.01 0.01 0.02 0.01 0.01 0.01 0.01 0.02 0.01 0.01 0.01 0.01 0.02 0.05 0.08 0.12 0.18 0.23 0.26 0.28 0.26
0.00 0.00 0.00 0.00 0.00 0.00 0.00 0.00 0.00 0.00 0.00 0.00 0.00 0.00 0.01 0.01 0.01 0.01 0.01 0.01 0.01 0.01 0.02 0.02 0.03 0.03 0.03 0.02 0.02 0.03 0.03 0.03 0.02 0.02 0.01 0.02 0.06 0.10 0.15 0.22 0.27 0.30 0.31
0.00 0.00 0.00 0.00 0.00 0.00 0.00 0.00 0.00 0.00 0.00 0.00 0.01 0.01 0.01 0.01 0.01 0.01 0.01 0.01 0.01 0.01 0.02 0.03 0.04 0.05 0.04 0.02 0.03 0.04 0.04 0.05 0.04 0.03 0.02 0.02 0.03 0.05 0.10 0.17 0.24 0.30 0.33
0.00 0.00 0.00 0.00 0.00 0.00 0.00 0.00 0.00 0.00 0.01 0.01 0.01 0.01 0.01 0.01 0.01 0.01 0.01 0.02 0.02 0.03 0.04 0.04 0.05 0.05 0.03 0.02 0.03 0.03 0.04 0.06 0.06 0.06 0.05 0.03 0.02 0.02 0.05 0.10 0.17 0.24 0.31
0.00 0.00 0.00 0.00 0.00 0.00 0.00 0.00 0.00 0.01 0.01 0.01 0.01 0.01 0.01 0.01 0.01 0.02 0.02 0.03 0.04 0.06 0.06 0.05 0.06 0.07 0.07 0.05 0.04 0.03 0.04 0.05 0.07 0.08 0.08 0.04 0.01 0.02 0.03 0.05 0.08 0.15 0.22
0.00 0.00 0.00 0.00 0.00 0.00 0.00 0.00 0.00 0.01 0.01 0.01 0.01 0.01 0.02 0.02 0.02 0.02 0.03 0.05 0.07 0.07 0.07 0.06 0.07 0.08 0.08 0.06 0.04 0.03 0.04 0.05 0.07 0.08 0.09 0.08 0.06 0.06 0.06 0.05 0.05 0.07 0.11
0.00 0.00 0.00 0.00 0.00 0.00 0.00 0.01 0.01 0.01 0.01 0.01 0.01 0.01 0.02 0.02 0.02 0.03 0.05 0.07 0.07 0.07 0.08 0.08 0.09 0.10 0.10 0.07 0.04 0.04 0.06 0.08 0.07 0.07 0.08 0.09 0.07 0.07 0.05 0.06 0.06 0.06 0.08
0.00 0.00 0.00 0.00 0.00 0.00 0.01 0.01 0.01 0.01 0.01 0.01 0.01 0.01 0.02 0.03 0.03 0.05 0.07 0.07 0.07 0.08 0.08 0.08 0.09 0.11 0.12 0.11 0.05 0.04 0.07 0.11 0.11 0.11 0.11 0.09 0.09 0.09 0.03 0.04 0.05 0.05 0.07
0.00 0.00 0.00 0.00 0.00 0.01 0.01 0.02 0.01 0.02 0.02 0.01 0.01 0.01 0.02 0.03 0.04 0.06 0.08 0.07 0.08 0.09 0.09 0.09 0.10 0.12 0.13 0.10 0.04 0.02 0.08 0.13 0.15 0.14 0.12 0.10 0.06 0.04 0.02 0.02 0.04 0.04 0.05
0.00 0.00 0.00 0.00 0.01 0.01 0.02 0.02 0.02 0.02 0.01 0.01 0.01 0.01 0.02 0.03 0.03 0.06 0.07 0.08 0.10 0.09 0.09 0.10 0.10 0.12 0.13 0.09 0.04 0.01 0.04 0.10 0.17 0.17 0.15 0.14 0.08 0.03 0.01 0.01 0.01 0.01 0.02
0.00 0.00 0.00 0.00 0.01 0.01 0.02 0.02 0.02 0.02 0.01 0.01 0.02 0.02 0.02 0.04 0.06 0.08 0.08 0.08 0.10 0.10 0.10 0.10 0.10 0.10 0.12 0.10 0.03 0.01 0.01 0.03 0.10 0.15 0.16 0.13 0.06 0.03 0.02 0.01 0.00 0.01 0.01
0.00 0.00 0.00 0.00 0.01 0.01 0.01 0.02 0.02 0.02 0.02 0.02 0.02 0.02 0.02 0.03 0.05 0.09 0.09 0.09 0.09 0.08 0.08 0.08 0.09 0.10 0.11 0.12 0.08 0.04 0.02 0.02 0.04 0.07 0.08 0.07 0.04 0.02 0.02 0.01 0.00 0.00 0.01
0.00 0.00 0.00 0.00 0.01 0.01 0.01 0.01 0.01 0.02 0.02 0.01 0.01 0.01 0.02 0.04 0.05 0.09 0.10 0.06 0.05 0.03 0.02 0.03 0.06 0.08 0.09 0.08 0.05 0.06 0.07 0.06 0.04 0.06 0.10 0.08 0.06 0.03 0.02 0.03 0.03 0.02 0.02
0.00 0.00 0.00 0.00 0.00 0.01 0.01 0.01 0.01 0.01 0.02 0.01 0.01 0.02 0.02 0.04 0.06 0.09 0.10 0.06 0.02 0.01 0.00 0.00 0.01 0.02 0.02 0.01 0.01 0.01 0.02 0.02 0.02 0.04 0.11 0.13 0.12 0.09 0.07 0.07 0.06 0.04 0.03

GEFSMW_prec_meanprec_042.txt.gz
QPF
0.00 0.00 0.00 0.00 0.00 0.00 0.00 0.00 0.00 0.00 0.00 0.00 0.00 0.00 0.00 0.00 0.00 0.00 0.00 0.00 0.00 0.00 0.00 0.00 0.01 0.03 0.04 0.05 0.07 0.10 0.14 0.17 0.20 0.23 0.23 0.20 0.18 0.18 0.15 0.13 0.13 0.11 0.11
0.00 0.00 0.00 0.00 0.00 0.00 0.00 0.00 0.00 0.00 0.00 0.00 0.00 0.00 0.00 0.00 0.00 0.00 0.00 0.00 0.00 0.00 0.00 0.00 0.00 0.01 0.02 0.03 0.05 0.06 0.08 0.12 0.19 0.21 0.21 0.18 0.16 0.15 0.11 0.10 0.07 0.06 0.08
0.00 0.00 0.00 0.00 0.00 0.00 0.00 0.00 0.00 0.00 0.00 0.00 0.00 0.00 0.00 0.00 0.00 0.00 0.00 0.00 0.00 0.00 0.00 0.00 0.00 0.01 0.02 0.03 0.05 0.06 0.07 0.09 0.12 0.18 0.23 0.22 0.16 0.12 0.12 0.10 0.07 0.06 0.06
0.00 0.00 0.00 0.00 0.00 0.00 0.00 0.00 0.00 0.00 0.00 0.00 0.00 0.00 0.00 0.00 0.00 0.00 0.00 0.00 0.00 0.00 0.00 0.00 0.00 0.00 0.01 0.02 0.05 0.07 0.07 0.06 0.06 0.09 0.16 0.19 0.16 0.13 0.12 0.13 0.13 0.12 0.10
0.00 0.00 0.00 0.00 0.00 0.00 0.00 0.00 0.00 0.00 0.00 0.00 0.00 0.00 0.00 0.00 0.00 0.00 0.00 0.00 0.00 0.00 0.00 0.00 0.00 0.00 0.00 0.01 0.02 0.04 0.07 0.07 0.05 0.06 0.08 0.11 0.11 0.11 0.12 0.11 0.11 0.12 0.10
0.00 0.00 0.00 0.00 0.00 0.00 0.00 0.00 0.00 0.00 0.00 0.00 0.00 0.00 0.00 0.00 0.00 0.00 0.00 0.00 0.00 0.00 0.00 0.00 0.00 0.00 0.00 0.00 0.01 0.01 0.03 0.05 0.05 0.06 0.06 0.09 0.12 0.13 0.13 0.08 0.05 0.07 0.07
0.00 0.00 0.00 0.00 0.00 0.00 0.00 0.00 0.00 0.00 0.00 0.00 0.00 0.00 0.00 0.00 0.00 0.00 0.00 0.00 0.00 0.00 0.00 0.00 0.00 0.00 0.00 0.00 0.00 0.00 0.01 0.02 0.03 0.05 0.06 0.07 0.09 0.13 0.13 0.10 0.07 0.05 0.05
0.00 0.00 0.00 0.00 0.00 0.00 0.00 0.00 0.00 0.00 0.00 0.00 0.00 0.00 0.00 0.00 0.00 0.00 0.00 0.00 0.00 0.00 0.00 0.00 0.00 0.00 0.00 0.00 0.00 0.00 0.00 0.00 0.01 0.02 0.04 0.05 0.07 0.11 0.14 0.15 0.14 0.10 0.08
0.00 0.00 0.00 0.00 0.00 0.00 0.00 0.00 0.00 0.00 0.00 0.00 0.00 0.00 0.00 0.00 0.00 0.00 0.00 0.00 0.00 0.00 0.00 0.00 0.00 0.00 0.00 0.00 0.00 0.00 0.00 0.00 0.00 0.01 0.02 0.03 0.04 0.07 0.10 0.14 0.19 0.19 0.13
0.00 0.00 0.00 0.00 0.00 0.00 0.00 0.00 0.00 0.00 0.00 0.00 0.00 0.00 0.00 0.00 0.00 0.00 0.00 0.00 0.00 0.00 0.00 0.00 0.00 0.00 0.00 0.00 0.00 0.00 0.00 0.00 0.00 0.00 0.00 0.01 0.02 0.04 0.08 0.12 0.16 0.20 0.20
0.00 0.00 0.00 0.00 0.00 0.00 0.00 0.00 0.00 0.00 0.00 0.00 0.00 0.00 0.00 0.00 0.00 0.00 0.00 0.00 0.00 0.00 0.00 0.00 0.00 0.00 0.00 0.00 0.00 0.00 0.00 0.00 0.00 0.00 0.00 0.00 0.01 0.02 0.04 0.08 0.10 0.15 0.19
0.00 0.00 0.00 0.00 0.00 0.00 0.00 0.00 0.00 0.00 0.00 0.00 0.00 0.00 0.00 0.00 0.00 0.00 0.00 0.00 0.00 0.00 0.00 0.00 0.00 0.00 0.00 0.00 0.00 0.00 0.00 0.00 0.00 0.00 0.00 0.00 0.00 0.01 0.02 0.05 0.08 0.11 0.16
0.00 0.00 0.00 0.00 0.00 0.00 0.00 0.00 0.00 0.00 0.00 0.00 0.00 0.00 0.00 0.00 0.00 0.00 0.00 0.00 0.00 0.00 0.00 0.00 0.00 0.00 0.00 0.00 0.00 0.00 0.00 0.00 0.01 0.01 0.01 0.01 0.00 0.00 0.01 0.02 0.05 0.09 0.14
0.00 0.00 0.00 0.00 0.00 0.00 0.00 0.00 0.00 0.00 0.00 0.00 0.00 0.00 0.00 0.00 0.00 0.00 0.00 0.00 0.00 0.00 0.00 0.00 0.00 0.00 0.00 0.00 0.00 0.00 0.00 0.01 0.01 0.01 0.01 0.01 0.01 0.00 0.00 0.01 0.03 0.07 0.12
0.00 0.00 0.00 0.00 0.00 0.00 0.00 0.00 0.00 0.00 0.00 0.00 0.00 0.00 0.00 0.00 0.00 0.00 0.00 0.00 0.00 0.00 0.00 0.00 0.00 0.00 0.00 0.00 0.00 0.00 0.00 0.01 0.01 0.01 0.01 0.01 0.01 0.01 0.00 0.00 0.01 0.04 0.08
0.00 0.00 0.00 0.00 0.00 0.00 0.00 0.00 0.00 0.00 0.00 0.00 0.00 0.00 0.00 0.00 0.00 0.00 0.00 0.00 0.00 0.00 0.00 0.00 0.00 0.00 0.00 0.00 0.00 0.00 0.00 0.01 0.01 0.02 0.02 0.01 0.01 0.02 0.01 0.01 0.01 0.02 0.05
0.00 0.00 0.00 0.00 0.00 0.00 0.00 0.00 0.00 0.00 0.00 0.00 0.00 0.00 0.00 0.00 0.00 0.00 0.00 0.00 0.00 0.00 0.00 0.00 0.00 0.00 0.00 0.00 0.00 0.00 0.00 0.01 0.01 0.02 0.02 0.02 0.01 0.02 0.02 0.02 0.02 0.01 0.02
0.00 0.00 0.00 0.00 0.00 0.00 0.00 0.00 0.00 0.00 0.00 0.00 0.00 0.00 0.00 0.00 0.00 0.00 0.00 0.00 0.00 0.00 0.00 0.00 0.00 0.00 0.00 0.00 0.00 0.00 0.00 0.01 0.01 0.03 0.03 0.02 0.02 0.03 0.05 0.04 0.02 0.02 0.01
0.00 0.00 0.00 0.00 0.00 0.00 0.00 0.00 0.00 0.00 0.00 0.00 0.00 0.00 0.00 0.00 0.00 0.00 0.00 0.00 0.00 0.00 0.00 0.00 0.00 0.00 0.00 0.00 0.00 0.00 0.00 0.01 0.02 0.03 0.04 0.05 0.04 0.03 0.06 0.06 0.04 0.03 0.02
0.00 0.00 0.00 0.00 0.00 0.00 0.00 0.00 0.00 0.00 0.00 0.00 0.00 0.00 0.00 0.00 0.00 0.00 0.00 0.00 0.00 0.00 0.00 0.00 0.00 0.01 0.01 0.01 0.01 0.01 0.01 0.02 0.03 0.04 0.05 0.07 0.06 0.05 0.06 0.07 0.06 0.04 0.02
0.00 0.00 0.00 0.00 0.00 0.00 0.00 0.00 0.00 0.00 0.00 0.00 0.00 0.00 0.00 0.00 0.00 0.00 0.01 0.00 0.00 0.00 0.00 0.00 0.01 0.01 0.01 0.00 0.00 0.00 0.01 0.02 0.03 0.04 0.06 0.07 0.07 0.06 0.06 0.07 0.07 0.05 0.05
0.00 0.00 0.00 0.00 0.00 0.00 0.00 0.00 0.00 0.00 0.00 0.00 0.00 0.00 0.00 0.00 0.00 0.00 0.00 0.00 0.00 0.00 0.00 0.01 0.01 0.01 0.01 0.01 0.00 0.00 0.01 0.03 0.04 0.05 0.06 0.06 0.06 0.05 0.06 0.06 0.06 0.06 0.06
0.00 0.00 0.00 0.00 0.00 0.00 0.00 0.00 0.00 0.00 0.00 0.00 0.00 0.00 0.00 0.00 0.00 0.00 0.00 0.00 0.01 0.01 0.01 0.01 0.01 0.01 0.01 0.01 0.00 0.00 0.01 0.02 0.04 0.06 0.07 0.07 0.06 0.05 0.05 0.05 0.05 0.06 0.06
0.00 0.00 0.00 0.00 0.00 0.00 0.00 0.00 0.00 0.00 0.00 0.00 0.00 0.00 0.00 0.00 0.00 0.01 0.01 0.01 0.01 0.01 0.01 0.01 0.01 0.01 0.01 0.01 0.01 0.01 0.01 0.02 0.03 0.06 0.06 0.06 0.06 0.05 0.04 0.04 0.04 0.05 0.04
0.00 0.00 0.00 0.00 0.00 0.00 0.00 0.00 0.00 0.00 0.00 0.00 0.00 0.00 0.00 0.00 0.00 0.01 0.01 0.01 0.01 0.01 0.01 0.01 0.01 0.01 0.00 0.00 0.00 0.00 0.01 0.02 0.03 0.04 0.05 0.05 0.04 0.04 0.03 0.03 0.03 0.03 0.03
0.00 0.00 0.00 0.00 0.00 0.00 0.00 0.00 0.00 0.00 0.00 0.00 0.00 0.00 0.00 0.00 0.01 0.01 0.01 0.01 0.01 0.01 0.01 0.01 0.01 0.01 0.00 0.00 0.00 0.01 0.00 0.00 0.00 0.01 0.03 0.05 0.04 0.03 0.03 0.04 0.03 0.02 0.02

GEFSMW_prec_meanprec_048.txt.gz
QPF
0.02 0.02 0.01 0.01 0.01 0.00 0.00 0.00 0.00 0.00 0.00 0.00 0.00 0.00 0.00 0.00 0.00 0.00 0.00 0.00 0.00 0.00 0.00 0.00 0.00 0.00 0.00 0.00 0.00 0.00 0.01 0.01 0.02 0.03 0.04 0.05 0.07 0.08 0.08 0.10 0.13 0.14 0.12
0.01 0.01 0.00 0.00 0.00 0.00 0.00 0.00 0.00 0.00 0.00 0.00 0.00 0.00 0.00 0.00 0.00 0.00 0.00 0.00 0.00 0.00 0.00 0.00 0.00 0.00 0.00 0.00 0.00 0.00 0.00 0.01 0.02 0.04 0.05 0.05 0.04 0.05 0.06 0.09 0.10 0.10 0.12
0.01 0.00 0.00 0.00 0.00 0.00 0.00 0.00 0.00 0.00 0.00 0.00 0.00 0.00 0.00 0.00 0.00 0.00 0.00 0.00 0.00 0.00 0.00 0.00 0.00 0.00 0.00 0.00 0.00 0.00 0.01 0.01 0.02 0.03 0.05 0.06 0.07 0.04 0.03 0.05 0.08 0.10 0.10
0.00 0.00 0.00 0.00 0.00 0.00 0.00 0.00 0.00 0.00 0.00 0.00 0.00 0.00 0.00 0.00 0.00 0.00 0.00 0.00 0.00 0.00 0.00 0.00 0.00 0.00 0.00 0.00 0.00 0.00 0.01 0.01 0.01 0.02 0.02 0.04 0.07 0.08 0.05 0.04 0.05 0.07 0.09
0.00 0.00 0.00 0.00 0.00 0.00 0.00 0.00 0.00 0.00 0.00 0.00 0.00 0.00 0.00 0.00 0.00 0.00 0.00 0.00 0.00 0.00 0.00 0.00 0.00 0.00 0.00 0.00 0.00 0.00 0.01 0.01 0.01 0.01 0.01 0.02 0.03 0.05 0.06 0.05 0.04 0.05 0.06
0.00 0.00 0.00 0.00 0.00 0.00 0.00 0.00 0.00 0.00 0.00 0.00 0.00 0.00 0.00 0.00 0.00 0.00 0.00 0.00 0.00 0.00 0.00 0.00 0.00 0.00 0.00 0.00 0.00 0.00 0.00 0.01 0.01 0.01 0.00 0.01 0.02 0.04 0.05 0.04 0.04 0.04 0.04
0.00 0.00 0.00 0.00 0.00 0.00 0.00 0.00 0.00 0.00 0.00 0.00 0.00 0.00 0.00 0.00 0.00 0.00 0.00 0.00 0.00 0.00 0.00 0.00 0.00 0.00 0.00 0.00 0.00 0.00 0.00 0.00 0.00 0.00 0.00 0.00 0.01 0.02 0.03 0.03 0.03 0.02 0.03
0.00 0.00 0.00 0.00 0.00 0.00 0.00 0.00 0.00 0.00 0.00 0.00 0.00 0.00 0.00 0.00 0.00 0.00 0.00 0.00 0.00 0.00 0.00 0.00 0.00 0.00 0.00 0.00 0.00 0.00 0.00 0.00 0.00 0.00 0.00 0.00 0.00 0.01 0.01 0.03 0.03 0.03 0.02
0.00 0.00 0.00 0.00 0.00 0.00 0.00 0.00 0.00 0.00 0.00 0.00 0.00 0.00 0.00 0.00 0.00 0.00 0.00 0.00 0.00 0.00 0.00 0.00 0.00 0.00 0.00 0.00 0.00 0.00 0.00 0.00 0.00 0.00 0.00 0.00 0.00 0.00 0.00 0.01 0.02 0.03 0.03
0.00 0.00 0.00 0.00 0.00 0.00 0.00 0.00 0.00 0.00 0.00 0.00 0.00 0.00 0.00 0.00 0.00 0.00 0.00 0.00 0.00 0.00 0.00 0.00 0.00 0.00 0.00 0.00 0.00 0.00 0.00 0.00 0.00 0.00 0.00 0.00 0.00 0.00 0.00 0.00 0.01 0.02 0.03
0.00 0.00 0.00 0.00 0.00 0.00 0.00 0.00 0.00 0.00 0.00 0.00 0.00 0.00 0.00 0.00 0.00 0.00 0.00 0.00 0.00 0.00 0.00 0.00 0.00 0.00 0.00 0.00 0.00 0.00 0.00 0.00 0.00 0.00 0.00 0.00 0.00 0.00 0.00 0.00 0.00 0.01 0.02
0.00 0.00 0.00 0.00 0.00 0.00 0.00 0.00 0.00 0.00 0.00 0.00 0.00 0.00 0.00 0.00 0.00 0.00 0.00 0.00 0.00 0.00 0.00 0.00 0.00 0.00 0.00 0.00 0.00 0.00 0.00 0.00 0.00 0.00 0.00 0.00 0.00 0.00 0.00 0.00 0.00 0.00 0.01
0.00 0.00 0.00 0.00 0.00 0.00 0.00 0.00 0.00 0.00 0.00 0.00 0.00 0.00 0.00 0.00 0.00 0.00 0.00 0.00 0.00 0.00 0.00 0.00 0.00 0.00 0.00 0.00 0.00 0.00 0.00 0.00 0.00 0.00 0.00 0.00 0.00 0.00 0.00 0.00 0.00 0.00 0.01
0.00 0.00 0.00 0.00 0.00 0.00 0.00 0.00 0.00 0.00 0.00 0.00 0.00 0.00 0.00 0.00 0.00 0.00 0.00 0.00 0.00 0.00 0.00 0.00 0.00 0.00 0.00 0.00 0.00 0.00 0.00 0.00 0.00 0.00 0.00 0.00 0.00 0.00 0.00 0.00 0.00 0.00 0.01
0.00 0.00 0.00 0.00 0.00 0.00 0.00 0.00 0.00 0.00 0.00 0.00 0.00 0.00 0.00 0.00 0.00 0.00 0.00 0.00 0.00 0.00 0.00 0.00 0.00 0.00 0.00 0.00 0.00 0.00 0.00 0.00 0.00 0.00 0.00 0.00 0.00 0.00 0.00 0.00 0.00 0.00 0.00
0.00 0.00 0.00 0.00 0.00 0.00 0.00 0.00 0.00 0.00 0.00 0.00 0.00 0.00 0.00 0.00 0.00 0.00 0.00 0.00 0.00 0.00 0.00 0.00 0.00 0.00 0.00 0.00 0.00 0.00 0.00 0.00 0.00 0.00 0.00 0.00 0.00 0.00 0.00 0.00 0.00 0.00 0.00
0.00 0.00 0.00 0.00 0.00 0.00 0.00 0.00 0.00 0.00 0.00 0.00 0.00 0.00 0.00 0.00 0.00 0.00 0.00 0.00 0.00 0.00 0.00 0.00 0.00 0.00 0.00 0.00 0.00 0.00 0.00 0.00 0.00 0.00 0.00 0.00 0.00 0.00 0.00 0.00 0.00 0.00 0.00
0.00 0.00 0.00 0.00 0.00 0.00 0.00 0.00 0.00 0.00 0.00 0.00 0.00 0.00 0.00 0.00 0.00 0.00 0.00 0.00 0.00 0.00 0.00 0.00 0.00 0.00 0.00 0.00 0.00 0.00 0.00 0.00 0.00 0.00 0.00 0.00 0.00 0.00 0.00 0.00 0.00 0.00 0.01
0.00 0.00 0.00 0.00 0.00 0.00 0.00 0.00 0.00 0.00 0.00 0.00 0.00 0.00 0.00 0.00 0.00 0.00 0.00 0.00 0.00 0.00 0.00 0.00 0.00 0.00 0.00 0.00 0.00 0.00 0.00 0.00 0.00 0.00 0.00 0.00 0.00 0.00 0.00 0.00 0.01 0.01 0.01
0.00 0.00 0.00 0.00 0.00 0.00 0.00 0.00 0.00 0.00 0.00 0.00 0.00 0.00 0.00 0.00 0.00 0.00 0.00 0.00 0.00 0.00 0.00 0.00 0.00 0.00 0.00 0.00 0.00 0.00 0.00 0.00 0.00 0.00 0.00 0.00 0.00 0.01 0.01 0.01 0.01 0.01 0.01
0.00 0.00 0.00 0.00 0.00 0.00 0.00 0.00 0.00 0.00 0.00 0.00 0.00 0.00 0.00 0.00 0.00 0.00 0.00 0.00 0.00 0.00 0.00 0.00 0.00 0.00 0.00 0.00 0.00 0.00 0.00 0.00 0.00 0.00 0.00 0.01 0.01 0.01 0.02 0.02 0.02 0.02 0.03
0.00 0.00 0.00 0.00 0.00 0.00 0.00 0.00 0.00 0.00 0.00 0.00 0.00 0.00 0.00 0.00 0.00 0.00 0.00 0.00 0.00 0.00 0.00 0.00 0.00 0.00 0.00 0.01 0.00 0.00 0.00 0.00 0.00 0.01 0.01 0.02 0.02 0.03 0.03 0.02 0.03 0.04 0.04
0.00 0.00 0.00 0.00 0.00 0.00 0.00 0.00 0.00 0.00 0.00 0.00 0.00 0.00 0.00 0.00 0.00 0.00 0.00 0.00 0.00 0.00 0.00 0.00 0.00 0.01 0.00 0.00 0.00 0.01 0.01 0.01 0.01 0.01 0.02 0.03 0.03 0.04 0.04 0.04 0.03 0.04 0.05
0.00 0.00 0.00 0.00 0.00 0.00 0.00 0.00 0.00 0.00 0.00 0.00 0.00 0.00 0.00 0.00 0.00 0.00 0.00 0.00 0.00 0.00 0.00 0.00 0.00 0.00 0.00 0.00 0.01 0.00 0.01 0.01 0.01 0.01 0.02 0.03 0.04 0.05 0.05 0.05 0.05 0.05 0.06
0.00 0.00 0.00 0.00 0.00 0.00 0.00 0.00 0.00 0.00 0.00 0.00 0.00 0.00 0.00 0.00 0.00 0.00 0.00 0.00 0.00 0.00 0.00 0.00 0.00 0.00 0.00 0.00 0.00 0.00 0.00 0.01 0.01 0.02 0.03 0.03 0.03 0.04 0.05 0.06 0.06 0.05 0.06
0.00 0.00 0.00 0.00 0.00 0.00 0.00 0.00 0.00 0.00 0.00 0.00 0.00 0.00 0.00 0.00 0.00 0.00 0.00 0.00 0.00 0.00 0.00 0.00 0.00 0.00 0.00 0.00 0.00 0.00 0.01 0.01 0.01 0.01 0.02 0.03 0.03 0.04 0.05 0.06 0.06 0.06 0.07

GEFSMW_prec_meanprec_054.txt.gz
QPF
0.05 0.03 0.01 0.01 0.01 0.01 0.01 0.00 0.00 0.00 0.00 0.00 0.00 0.00 0.00 0.00 0.00 0.00 0.00 0.00 0.00 0.00 0.00 0.00 0.00 0.00 0.00 0.00 0.00 0.00 0.00 0.00 0.01 0.02 0.02 0.02 0.03 0.04 0.05 0.06 0.07 0.08 0.08
0.08 0.04 0.01 0.00 0.00 0.00 0.00 0.00 0.00 0.00 0.00 0.00 0.00 0.00 0.00 0.00 0.00 0.00 0.00 0.00 0.00 0.00 0.00 0.00 0.00 0.00 0.00 0.01 0.01 0.00 0.00 0.00 0.00 0.01 0.02 0.02 0.03 0.06 0.06 0.07 0.07 0.08 0.12
0.05 0.03 0.01 0.00 0.00 0.00 0.00 0.00 0.01 0.01 0.01 0.01 0.00 0.00 0.00 0.00 0.00 0.00 0.00 0.00 0.00 0.00 0.00 0.00 0.00 0.00 0.00 0.00 0.01 0.01 0.01 0.01 0.01 0.01 0.02 0.02 0.04 0.05 0.06 0.07 0.09 0.11 0.13
0.01 0.01 0.00 0.00 0.00 0.00 0.00 0.01 0.01 0.01 0.01 0.00 0.00 0.00 0.00 0.00 0.00 0.00 0.00 0.00 0.00 0.00 0.00 0.00 0.00 0.00 0.00 0.00 0.01 0.00 0.00 0.00 0.00 0.01 0.01 0.02 0.03 0.04 0.04 0.06 0.09 0.09 0.11
0.00 0.00 0.00 0.00 0.00 0.00 0.00 0.00 0.00 0.01 0.01 0.00 0.00 0.00 0.00 0.00 0.00 0.00 0.00 0.00 0.00 0.00 0.00 0.00 0.00 0.00 0.00 0.00 0.00 0.01 0.01 0.01 0.01 0.01 0.01 0.01 0.02 0.02 0.03 0.03 0.04 0.05 0.06
0.00 0.00 0.00 0.00 0.00 0.00 0.00 0.00 0.00 0.01 0.00 0.00 0.00 0.00 0.00 0.00 0.00 0.00 0.00 0.00 0.00 0.00 0.00 0.00 0.00 0.00 0.00 0.00 0.00 0.00 0.00 0.00 0.01 0.01 0.00 0.01 0.01 0.01 0.02 0.02 0.02 0.03 0.04
0.00 0.00 0.00 0.00 0.00 0.00 0.00 0.00 0.00 0.00 0.00 0.00 0.00 0.00 0.00 0.00 0.00 0.00 0.00 0.00 0.00 0.00 0.00 0.00 0.00 0.00 0.00 0.00 0.00 0.00 0.00 0.00 0.00 0.00 0.01 0.01 0.00 0.00 0.01 0.01 0.02 0.02 0.02
0.00 0.00 0.00 0.00 0.00 0.00 0.00 0.00 0.00 0.00 0.00 0.00 0.00 0.00 0.00 0.00 0.00 0.00 0.00 0.00 0.00 0.00 0.00 0.00 0.00 0.00 0.00 0.00 0.00 0.00 0.00 0.00 0.00 0.00 0.00 0.00 0.00 0.00 0.01 0.01 0.01 0.01 0.02
0.00 0.00 0.00 0.00 0.00 0.00 0.00 0.00 0.00 0.00 0.00 0.00 0.00 0.00 0.00 0.00 0.00 0.00 0.00 0.00 0.00 0.00 0.00 0.00 0.00 0.00 0.00 0.00 0.00 0.00 0.00 0.00 0.00 0.00 0.00 0.00 0.00 0.00 0.00 0.01 0.01 0.01 0.01
0.00 0.00 0.00 0.00 0.00 0.00 0.00 0.00 0.00 0.00 0.00 0.00 0.00 0.00 0.00 0.00 0.00 0.00 0.00 0.00 0.00 0.00 0.00 0.00 0.00 0.00 0.00 0.00 0.00 0.00 0.00 0.00 0.00 0.00 0.00 0.00 0.00 0.00 0.00 0.00 0.01 0.01 0.01
0.00 0.00 0.00 0.00 0.00 0.00 0.00 0.00 0.00 0.00 0.00 0.00 0.00 0.00 0.00 0.00 0.00 0.00 0.00 0.00 0.00 0.00 0.00 0.00 0.00 0.00 0.00 0.00 0.00 0.00 0.00 0.00 0.00 0.00 0.00 0.00 0.00 0.00 0.00 0.00 0.00 0.01 0.01
0.00 0.00 0.00 0.00 0.00 0.00 0.00 0.00 0.00 0.00 0.00 0.00 0.00 0.00 0.00 0.00 0.00 0.00 0.00 0.00 0.00 0.00 0.00 0.00 0.00 0.00 0.00 0.00 0.00 0.00 0.00 0.00 0.00 0.00 0.00 0.00 0.00 0.00 0.00 0.00 0.00 0.00 0.01
0.00 0.00 0.00 0.00 0.00 0.00 0.00 0.00 0.00 0.00 0.00 0.00 0.00 0.00 0.00 0.00 0.00 0.00 0.00 0.00 0.00 0.00 0.00 0.00 0.00 0.00 0.00 0.00 0.00 0.00 0.00 0.00 0.00 0.00 0.00 0.00 0.00 0.00 0.00 0.00 0.00 0.00 0.00
0.00 0.00 0.00 0.00 0.00 0.00 0.00 0.00 0.00 0.00 0.00 0.00 0.00 0.00 0.00 0.00 0.00 0.00 0.00 0.00 0.00 0.00 0.00 0.00 0.00 0.00 0.00 0.00 0.00 0.00 0.00 0.01 0.01 0.01 0.01 0.00 0.00 0.01 0.01 0.01 0.00 0.00 0.00
0.00 0.00 0.00 0.00 0.00 0.00 0.00 0.00 0.00 0.00 0.00 0.00 0.00 0.00 0.00 0.00 0.00 0.00 0.00 0.00 0.00 0.00 0.00 0.00 0.00 0.00 0.00 0.00 0.00 0.00 0.00 0.00 0.01 0.01 0.01 0.01 0.00 0.00 0.00 0.00 0.00 0.01 0.01
0.00 0.00 0.00 0.00 0.00 0.00 0.00 0.00 0.00 0.00 0.00 0.00 0.00 0.00 0.00 0.00 0.00 0.00 0.00 0.00 0.00 0.00 0.00 0.00 0.00 0.00 0.00 0.00 0.00 0.00 0.00 0.00 0.01 0.01 0.01 0.01 0.00 0.00 0.00 0.00 0.00 0.00 0.01
0.00 0.00 0.00 0.00 0.00 0.00 0.00 0.00 0.00 0.00 0.00 0.00 0.00 0.00 0.00 0.00 0.00 0.00 0.00 0.00 0.00 0.00 0.00 0.00 0.00 0.00 0.00 0.00 0.00 0.00 0.00 0.00 0.00 0.01 0.01 0.01 0.00 0.00 0.00 0.01 0.00 0.00 0.00
0.00 0.00 0.00 0.00 0.00 0.00 0.00 0.00 0.00 0.00 0.00 0.00 0.00 0.00 0.00 0.00 0.00 0.00 0.00 0.00 0.00 0.00 0.00 0.00 0.00 0.00 0.00 0.00 0.00 0.00 0.00 0.00 0.00 0.01 0.01 0.01 0.01 0.01 0.01 0.02 0.02 0.01 0.01
0.00 0.00 0.00 0.00 0.00 0.00 0.00 0.00 0.00 0.00 0.00 0.00 0.00 0.00 0.00 0.00 0.00 0.00 0.00 0.00 0.00 0.00 0.00 0.00 0.00 0.00 0.00 0.00 0.00 0.00 0.00 0.00 0.00 0.01 0.01 0.01 0.01 0.01 0.01 0.01 0.02 0.02 0.01
0.00 0.00 0.00 0.00 0.00 0.00 0.00 0.00 0.00 0.00 0.00 0.00 0.00 0.00 0.00 0.00 0.00 0.00 0.00 0.00 0.00 0.00 0.00 0.00 0.00 0.00 0.01 0.00 0.00 0.00 0.00 0.00 0.00 0.01 0.01 0.01 0.00 0.00 0.00 0.01 0.02 0.02 0.02
0.00 0.00 0.00 0.00 0.00 0.00 0.00 0.00 0.00 0.00 0.00 0.00 0.00 0.00 0.00 0.00 0.00 0.00 0.00 0.00 0.00 0.00 0.00 0.00 0.00 0.01 0.01 0.00 0.00 0.00 0.00 0.01 0.01 0.01 0.01 0.01 0.01 0.00 0.00 0.00 0.01 0.02 0.02
0.00 0.00 0.00 0.00 0.00 0.00 0.00 0.00 0.00 0.00 0.00 0.00 0.00 0.00 0.00 0.00 0.00 0.00 0.00 0.00 0.00 0.00 0.00 0.01 0.01 0.01 0.01 0.00 0.00 0.00 0.00 0.00 0.01 0.01 0.01 0.02 0.00 0.00 0.00 0.00 0.00 0.00 0.01
0.00 0.00 0.00 0.00 0.00 0.00 0.00 0.00 0.00 0.00 0.00 0.00 0.00 0.00 0.00 0.00 0.00 0.00 0.00 0.00 0.00 0.00 0.00 0.01 0.01 0.00 0.01 0.01 0.00 0.00 0.00 0.00 0.00 0.01 0.00 0.01 0.00 0.00 0.01 0.01 0.00 0.00 0.01
0.00 0.00 0.00 0.00 0.00 0.00 0.00 0.00 0.00 0.00 0.00 0.00 0.00 0.00 0.00 0.00 0.00 0.00 0.00 0.00 0.00 0.00 0.01 0.01 0.01 0.01 0.01 0.02 0.02 0.02 0.01 0.01 0.01 0.01 0.01 0.00 0.01 0.01 0.02 0.02 0.02 0.02 0.03
0.00 0.00 0.00 0.00 0.00 0.00 0.00 0.00 0.00 0.00 0.00 0.00 0.00 0.00 0.00 0.00 0.00 0.00 0.00 0.00 0.00 0.00 0.00 0.00 0.01 0.01 0.01 0.01 0.01 0.01 0.01 0.01 0.01 0.01 0.02 0.02 0.03 0.05 0.06 0.05 0.06 0.06 0.06
0.00 0.00 0.00 0.00 0.00 0.00 0.00 0.00 0.00 0.00 0.00 0.00 0.00 0.00 0.00 0.00 0.00 0.00 0.00 0.00 0.00 0.00 0.00 0.00 0.00 0.00 0.00 0.00 0.00 0.00 0.00 0.00 0.01 0.01 0.01 0.03 0.05 0.06 0.08 0.08 0.08 0.08 0.09

GEFSMW_prec_meanprec_060.txt.gz
QPF
0.09 0.12 0.16 0.16 0.10 0.05 0.02 0.01 0.01 0.01 0.00 0.01 0.01 0.01 0.00 0.00 0.00 0.00 0.00 0.00 0.00 0.00 0.00 0.00 0.00 0.00 0.00 0.00 0.00 0.00 0.00 0.00 0.00 0.00 0.00 0.00 0.01 0.03 0.04 0.05 0.06 0.07 0.09
0.10 0.10 0.11 0.12 0.09 0.04 0.02 0.01 0.01 0.01 0.01 0.02 0.01 0.01 0.00 0.00 0.00 0.00 0.00 0.00 0.00 0.00 0.00 0.00 0.00 0.00 0.00 0.00 0.01 0.01 0.01 0.01 0.01 0.01 0.00 0.00 0.02 0.04 0.05 0.07 0.08 0.09 0.11
0.07 0.05 0.05 0.05 0.04 0.01 0.01 0.01 0.02 0.01 0.01 0.01 0.01 0.01 0.00 0.00 0.00 0.00 0.00 0.00 0.00 0.00 0.00 0.00 0.00 0.00 0.00 0.00 0.01 0.01 0.02 0.02 0.01 0.01 0.01 0.01 0.02 0.03 0.04 0.06 0.09 0.12 0.13
0.04 0.04 0.03 0.01 0.01 0.00 0.01 0.01 0.01 0.02 0.01 0.01 0.02 0.01 0.01 0.00 0.00 0.00 0.00 0.00 0.00 0.00 0.00 0.00 0.00 0.00 0.00 0.00 0.00 0.01 0.01 0.01 0.01 0.01 0.01 0.01 0.01 0.01 0.02 0.03 0.06 0.09 0.10
0.02 0.02 0.01 0.00 0.00 0.00 0.00 0.01 0.02 0.03 0.02 0.01 0.01 0.01 0.01 0.00 0.00 0.00 0.00 0.00 0.00 0.00 0.00 0.00 0.00 0.00 0.00 0.00 0.00 0.00 0.01 0.01 0.01 0.01 0.02 0.01 0.02 0.01 0.01 0.01 0.03 0.04 0.05
0.00 0.00 0.00 0.00 0.00 0.00 0.00 0.00 0.02 0.03 0.02 0.01 0.01 0.01 0.00 0.00 0.00 0.00 0.00 0.00 0.00 0.00 0.00 0.00 0.00 0.00 0.00 0.00 0.00 0.00 0.01 0.01 0.01 0.01 0.01 0.01 0.01 0.01 0.02 0.01 0.01 0.01 0.02
0.00 0.00 0.00 0.00 0.00 0.00 0.00 0.00 0.01 0.03 0.02 0.01 0.01 0.00 0.00 0.00 0.00 0.00 0.00 0.00 0.00 0.00 0.00 0.00 0.00 0.00 0.00 0.00 0.00 0.00 0.00 0.00 0.01 0.01 0.01 0.01 0.01 0.01 0.01 0.01 0.00 0.00 0.00
0.00 0.00 0.00 0.00 0.00 0.00 0.00 0.00 0.00 0.01 0.01 0.01 0.00 0.00 0.00 0.00 0.00 0.00 0.00 0.00 0.00 0.00 0.00 0.00 0.00 0.00 0.00 0.00 0.00 0.00 0.00 0.00 0.01 0.01 0.01 0.00 0.00 0.00 0.01 0.01 0.00 0.00 0.00
0.00 0.00 0.00 0.00 0.00 0.00 0.00 0.00 0.00 0.00 0.00 0.00 0.00 0.00 0.00 0.00 0.00 0.00 0.00 0.00 0.00 0.00 0.00 0.00 0.00 0.00 0.00 0.00 0.00 0.00 0.00 0.00 0.00 0.00 0.01 0.01 0.00 0.00 0.00 0.00 0.00 0.00 0.00
0.00 0.00 0.00 0.00 0.00 0.00 0.00 0.00 0.00 0.00 0.00 0.00 0.00 0.00 0.00 0.00 0.00 0.00 0.00 0.00 0.00 0.00 0.00 0.00 0.00 0.00 0.01 0.01 0.01 0.01 0.01 0.01 0.01 0.01 0.01 0.01 0.00 0.00 0.00 0.00 0.00 0.00 0.00
0.00 0.00 0.00 0.00 0.00 0.00 0.00 0.00 0.00 0.00 0.00 0.00 0.00 0.00 0.00 0.00 0.00 0.00 0.00 0.00 0.00 0.00 0.00 0.01 0.01 0.01 0.01 0.01 0.01 0.01 0.01 0.01 0.01 0.01 0.01 0.01 0.01 0.01 0.00 0.00 0.00 0.01 0.01
0.00 0.00 0.00 0.00 0.00 0.00 0.00 0.00 0.00 0.00 0.00 0.00 0.00 0.00 0.00 0.00 0.00 0.00 0.00 0.00 0.00 0.00 0.00 0.00 0.01 0.01 0.01 0.01 0.01 0.01 0.01 0.01 0.01 0.02 0.02 0.02 0.02 0.02 0.01 0.01 0.01 0.01 0.01
0.00 0.00 0.00 0.00 0.00 0.00 0.00 0.00 0.00 0.00 0.00 0.00 0.00 0.00 0.00 0.00 0.00 0.00 0.00 0.00 0.00 0.00 0.00 0.00 0.01 0.01 0.01 0.01 0.01 0.01 0.01 0.01 0.02 0.02 0.02 0.02 0.03 0.02 0.02 0.02 0.01 0.01 0.01
0.00 0.00 0.00 0.00 0.00 0.00 0.00 0.00 0.00 0.00 0.00 0.00 0.00 0.00 0.00 0.00 0.00 0.00 0.00 0.00 0.00 0.00 0.00 0.00 0.01 0.01 0.01 0.01 0.01 0.01 0.02 0.02 0.02 0.02 0.02 0.02 0.02 0.03 0.04 0.03 0.03 0.02 0.02
0.00 0.00 0.00 0.00 0.00 0.00 0.00 0.00 0.00 0.00 0.00 0.00 0.00 0.00 0.00 0.00 0.00 0.00 0.00 0.00 0.00 0.00 0.00 0.01 0.01 0.01 0.00 0.01 0.01 0.01 0.01 0.01 0.01 0.02 0.02 0.02 0.02 0.02 0.02 0.01 0.01 0.02 0.03
0.00 0.00 0.00 0.00 0.00 0.00 0.00 0.00 0.00 0.00 0.00 0.00 0.00 0.00 0.00 0.00 0.00 0.00 0.00 0.00 0.00 0.00 0.00 0.00 0.00 0.00 0.00 0.00 0.00 0.00 0.00 0.00 0.01 0.01 0.02 0.02 0.01 0.01 0.00 0.00 0.00 0.00 0.01
0.00 0.00 0.00 0.00 0.00 0.00 0.00 0.00 0.00 0.00 0.00 0.00 0.00 0.00 0.00 0.00 0.00 0.00 0.00 0.00 0.00 0.00 0.00 0.00 0.00 0.01 0.01 0.00 0.00 0.00 0.00 0.00 0.00 0.01 0.02 0.01 0.01 0.02 0.02 0.02 0.01 0.01 0.00
0.00 0.00 0.00 0.00 0.00 0.00 0.00 0.00 0.00 0.00 0.00 0.00 0.00 0.00 0.00 0.00 0.00 0.00 0.00 0.00 0.00 0.00 0.01 0.00 0.01 0.01 0.02 0.01 0.00 0.00 0.00 0.00 0.00 0.01 0.02 0.03 0.03 0.04 0.04 0.05 0.05 0.04 0.03
0.00 0.00 0.00 0.00 0.00 0.00 0.00 0.00 0.00 0.00 0.00 0.00 0.00 0.00 0.00 0.00 0.00 0.00 0.00 0.00 0.00 0.00 0.00 0.01 0.01 0.02 0.03 0.02 0.00 0.00 0.00 0.00 0.01 0.01 0.02 0.04 0.05 0.04 0.01 0.02 0.03 0.03 0.03
0.00 0.00 0.00 0.00 0.00 0.00 0.00 0.00 0.00 0.00 0.00 0.00 0.00 0.00 0.00 0.00 0.00 0.00 0.00 0.00 0.00 0.00 0.00 0.01 0.01 0.02 0.03 0.04 0.01 0.00 0.00 0.00 0.01 0.02 0.03 0.02 0.01 0.01 0.00 0.01 0.03 0.03 0.03
0.00 0.00 0.00 0.00 0.00 0.00 0.00 0.00 0.00 0.00 0.00 0.00 0.00 0.00 0.00 0.00 0.00 0.00 0.01 0.01 0.01 0.01 0.01 0.01 0.02 0.03 0.03 0.04 0.01 0.00 0.00 0.01 0.01 0.01 0.02 0.03 0.01 0.00 0.00 0.01 0.01 0.01 0.02
0.00 0.00 0.00 0.00 0.00 0.00 0.00 0.00 0.00 0.00 0.00 0.00 0.00 0.00 0.00 0.00 0.00 0.01 0.01 0.01 0.01 0.01 0.01 0.02 0.03 0.04 0.05 0.03 0.02 0.01 0.00 0.00 0.01 0.01 0.02 0.03 0.00 0.00 0.00 0.00 0.00 0.00 0.00
0.00 0.00 0.00 0.00 0.00 0.00 0.00 0.00 0.00 0.01 0.00 0.00 0.00 0.01 0.01 0.01 0.01 0.01 0.01 0.01 0.01 0.01 0.01 0.02 0.03 0.02 0.04 0.05 0.02 0.01 0.00 0.00 0.00 0.00 0.01 0.01 0.00 0.00 0.00 0.00 0.00 0.00 0.00
0.00 0.00 0.00 0.00 0.00 0.00 0.00 0.00 0.00 0.00 0.00 0.01 0.01 0.01 0.01 0.01 0.01 0.01 0.00 0.00 0.00 0.00 0.01 0.02 0.02 0.02 0.03 0.06 0.07 0.06 0.04 0.03 0.02 0.02 0.02 0.01 0.01 0.00 0.00 0.01 0.01 0.01 0.01
0.00 0.00 0.00 0.00 0.00 0.00 0.00 0.00 0.00 0.00 0.01 0.01 0.01 0.01 0.01 0.01 0.01 0.01 0.01 0.00 0.00 0.01 0.01 0.01 0.01 0.01 0.02 0.03 0.02 0.02 0.02 0.03 0.04 0.03 0.02 0.02 0.03 0.04 0.05 0.05 0.06 0.06 0.06
0.00 0.00 0.00 0.00 0.00 0.00 0.00 0.00 0.00 0.01 0.01 0.01 0.02 0.02 0.01 0.01 0.00 0.00 0.01 0.01 0.01 0.01 0.01 0.00 0.00 0.00 0.00 0.00 0.00 0.00 0.00 0.00 0.00 0.00 0.00 0.01 0.03 0.05 0.08 0.10 0.11 0.12 0.11

GEFSMW_prec_meanprec_066.txt.gz
QPF
0.26 0.24 0.21 0.16 0.09 0.05 0.05 0.03 0.02 0.01 0.01 0.01 0.00 0.00 0.00 0.00 0.00 0.00 0.00 0.00 0.00 0.00 0.00 0.00 0.00 0.00 0.00 0.00 0.00 0.00 0.00 0.00 0.00 0.00 0.00 0.00 0.00 0.00 0.01 0.01 0.01 0.02 0.03
0.21 0.18 0.16 0.12 0.10 0.08 0.04 0.02 0.01 0.00 0.00 0.00 0.00 0.00 0.00 0.00 0.00 0.00 0.00 0.00 0.00 0.00 0.00 0.00 0.00 0.00 0.00 0.00 0.00 0.00 0.00 0.00 0.00 0.00 0.00 0.00 0.00 0.00 0.01 0.02 0.02 0.02 0.04
0.14 0.12 0.10 0.10 0.09 0.06 0.03 0.01 0.01 0.00 0.00 0.00 0.00 0.00 0.00 0.00 0.00 0.00 0.00 0.00 0.00 0.00 0.00 0.00 0.00 0.00 0.00 0.00 0.00 0.00 0.00 0.00 0.00 0.00 0.00 0.00 0.00 0.00 0.00 0.01 0.01 0.02 0.02
0.11 0.10 0.09 0.07 0.04 0.02 0.01 0.01 0.00 0.00 0.00 0.00 0.00 0.00 0.00 0.00 0.00 0.00 0.00 0.00 0.00 0.00 0.00 0.00 0.00 0.00 0.00 0.00 0.00 0.00 0.00 0.00 0.00 0.00 0.00 0.00 0.00 0.00 0.00 0.00 0.01 0.01 0.01
0.07 0.07 0.06 0.03 0.02 0.01 0.00 0.00 0.00 0.00 0.00 0.00 0.00 0.00 0.00 0.00 0.00 0.00 0.00 0.00 0.00 0.00 0.00 0.00 0.00 0.00 0.00 0.00 0.00 0.00 0.00 0.00 0.00 0.00 0.00 0.00 0.00 0.00 0.00 0.00 0.00 0.00 0.00
0.03 0.04 0.03 0.02 0.01 0.01 0.01 0.00 0.00 0.00 0.00 0.00 0.00 0.00 0.00 0.00 0.00 0.00 0.00 0.00 0.00 0.00 0.00 0.00 0.00 0.00 0.00 0.00 0.00 0.00 0.00 0.00 0.00 0.00 0.00 0.00 0.00 0.00 0.00 0.00 0.00 0.00 0.00
0.01 0.01 0.01 0.01 0.01 0.01 0.00 0.00 0.00 0.01 0.01 0.00 0.00 0.00 0.00 0.00 0.00 0.00 0.00 0.00 0.00 0.00 0.00 0.00 0.00 0.00 0.00 0.00 0.00 0.00 0.00 0.00 0.00 0.00 0.00 0.00 0.00 0.00 0.00 0.00 0.00 0.00 0.00
0.00 0.00 0.00 0.00 0.00 0.00 0.00 0.00 0.00 0.00 0.00 0.00 0.00 0.00 0.00 0.00 0.00 0.00 0.00 0.00 0.00 0.00 0.00 0.00 0.00 0.00 0.00 0.00 0.00 0.00 0.00 0.00 0.00 0.00 0.00 0.00 0.00 0.00 0.00 0.00 0.00 0.00 0.00
0.00 0.00 0.00 0.00 0.00 0.00 0.00 0.00 0.00 0.00 0.00 0.00 0.00 0.00 0.00 0.00 0.00 0.00 0.00 0.00 0.00 0.00 0.00 0.00 0.00 0.00 0.00 0.00 0.00 0.00 0.00 0.00 0.00 0.00 0.00 0.00 0.00 0.00 0.00 0.00 0.00 0.00 0.00
0.00 0.00 0.00 0.00 0.00 0.00 0.00 0.00 0.00 0.00 0.00 0.00 0.00 0.00 0.00 0.00 0.00 0.00 0.00 0.00 0.00 0.00 0.00 0.00 0.00 0.00 0.00 0.00 0.00 0.00 0.00 0.00 0.00 0.00 0.00 0.00 0.00 0.00 0.00 0.00 0.00 0.00 0.00
0.00 0.00 0.00 0.00 0.00 0.00 0.00 0.00 0.00 0.00 0.00 0.00 0.00 0.00 0.00 0.00 0.00 0.00 0.00 0.00 0.00 0.00 0.00 0.00 0.00 0.00 0.00 0.00 0.00 0.00 0.00 0.00 0.00 0.00 0.00 0.00 0.00 0.00 0.00 0.00 0.00 0.00 0.00
0.00 0.00 0.00 0.00 0.00 0.00 0.00 0.00 0.00 0.00 0.00 0.00 0.00 0.00 0.00 0.00 0.00 0.00 0.00 0.00 0.00 0.00 0.00 0.00 0.00 0.00 0.00 0.00 0.00 0.00 0.00 0.00 0.00 0.00 0.00 0.00 0.00 0.00 0.00 0.00 0.00 0.00 0.00
0.00 0.00 0.00 0.00 0.00 0.00 0.00 0.00 0.00 0.00 0.00 0.00 0.00 0.00 0.00 0.00 0.00 0.00 0.00 0.00 0.00 0.00 0.00 0.00 0.00 0.00 0.00 0.00 0.00 0.00 0.00 0.00 0.00 0.00 0.00 0.00 0.00 0.00 0.00 0.00 0.00 0.00 0.00
0.00 0.00 0.00 0.00 0.00 0.00 0.00 0.00 0.00 0.00 0.00 0.00 0.00 0.00 0.00 0.00 0.00 0.00 0.00 0.00 0.00 0.00 0.00 0.00 0.00 0.00 0.00 0.00 0.00 0.00 0.00 0.00 0.00 0.00 0.00 0.00 0.00 0.00 0.00 0.00 0.01 0.00 0.00
0.00 0.00 0.00 0.00 0.00 0.00 0.00 0.00 0.00 0.00 0.00 0.00 0.00 0.00 0.00 0.00 0.00 0.00 0.00 0.00 0.00 0.00 0.00 0.00 0.00 0.00 0.00 0.00 0.00 0.00 0.00 0.00 0.00 0.00 0.00 0.00 0.00 0.00 0.00 0.00 0.00 0.00 0.00
0.00 0.00 0.00 0.00 0.00 0.00 0.00 0.00 0.00 0.00 0.00 0.00 0.00 0.00 0.00 0.00 0.00 0.00 0.00 0.00 0.00 0.00 0.00 0.00 0.00 0.00 0.00 0.00 0.00 0.00 0.00 0.00 0.00 0.00 0.00 0.00 0.00 0.00 0.00 0.00 0.00 0.00 0.00
0.00 0.00 0.00 0.00 0.00 0.00 0.00 0.00 0.00 0.00 0.00 0.00 0.00 0.00 0.00 0.00 0.00 0.00 0.00 0.00 0.00 0.00 0.00 0.00 0.00 0.00 0.00 0.00 0.00 0.00 0.00 0.00 0.00 0.00 0.00 0.00 0.00 0.00 0.00 0.00 0.00 0.00 0.00
0.00 0.00 0.00 0.00 0.00 0.00 0.00 0.00 0.00 0.00 0.00 0.00 0.00 0.00 0.00 0.00 0.00 0.00 0.00 0.00 0.00 0.00 0.00 0.00 0.00 0.00 0.00 0.00 0.00 0.00 0.00 0.00 0.00 0.00 0.00 0.00 0.00 0.00 0.00 0.00 0.00 0.00 0.00
0.00 0.00 0.00 0.00 0.00 0.00 0.00 0.00 0.00 0.00 0.00 0.00 0.00 0.00 0.00 0.00 0.00 0.00 0.00 0.00 0.00 0.00 0.00 0.00 0.00 0.00 0.00 0.00 0.00 0.00 0.00 0.00 0.00 0.00 0.00 0.00 0.00 0.00 0.00 0.00 0.00 0.00 0.00
0.01 0.00 0.01 0.01 0.01 0.01 0.00 0.00 0.01 0.01 0.01 0.01 0.01 0.01 0.01 0.00 0.00 0.00 0.00 0.00 0.00 0.00 0.00 0.00 0.00 0.00 0.00 0.00 0.00 0.00 0.00 0.00 0.00 0.00 0.00 0.00 0.00 0.00 0.00 0.00 0.00 0.00 0.00
0.01 0.01 0.01 0.00 0.00 0.00 0.00 0.01 0.01 0.02 0.02 0.02 0.01 0.01 0.01 0.01 0.00 0.00 0.00 0.00 0.00 0.01 0.00 0.00 0.00 0.00 0.00 0.00 0.00 0.01 0.01 0.00 0.00 0.00 0.00 0.00 0.00 0.00 0.00 0.00 0.00 0.00 0.00
0.01 0.01 0.01 0.01 0.01 0.01 0.01 0.01 0.02 0.02 0.03 0.02 0.01 0.01 0.01 0.01 0.01 0.01 0.01 0.01 0.01 0.01 0.01 0.01 0.00 0.00 0.00 0.00 0.01 0.01 0.01 0.01 0.01 0.00 0.00 0.00 0.00 0.00 0.00 0.00 0.00 0.00 0.00
0.01 0.01 0.01 0.01 0.01 0.02 0.02 0.02 0.03 0.03 0.03 0.03 0.02 0.02 0.02 0.02 0.02 0.02 0.01 0.01 0.01 0.01 0.01 0.01 0.01 0.01 0.01 0.01 0.01 0.01 0.01 0.01 0.01 0.00 0.00 0.00 0.00 0.00 0.00 0.00 0.00 0.00 0.00
0.01 0.01 0.01 0.01 0.01 0.02 0.02 0.02 0.03 0.04 0.04 0.04 0.04 0.04 0.04 0.03 0.02 0.02 0.01 0.01 0.01 0.01 0.02 0.03 0.03 0.02 0.02 0.02 0.01 0.01 0.01 0.00 0.00 0.00 0.00 0.00 0.00 0.00 0.00 0.00 0.00 0.00 0.00
0.01 0.01 0.01 0.02 0.02 0.02 0.03 0.03 0.03 0.03 0.04 0.05 0.05 0.04 0.04 0.03 0.02 0.02 0.02 0.02 0.01 0.02 0.03 0.04 0.04 0.04 0.03 0.02 0.02 0.01 0.01 0.01 0.00 0.00 0.00 0.00 0.00 0.00 0.00 0.00 0.00 0.00 0.00
0.00 0.01 0.01 0.01 0.01 0.02 0.03 0.02 0.02 0.02 0.04 0.05 0.05 0.04 0.03 0.03 0.02 0.02 0.02 0.02 0.03 0.03 0.05 0.05 0.05 0.04 0.03 0.03 0.03 0.02 0.01 0.01 0.00 0.00 0.00 0.00 0.00 0.00 0.00 0.00 0.00 0.01 0.01

GEFSMW_prec_meanprec_072.txt.gz
QPF
0.17 0.18 0.19 0.24 0.26 0.28 0.21 0.13 0.09 0.05 0.03 0.01 0.00 0.00 0.00 0.00 0.00 0.00 0.00 0.00 0.00 0.00 0.00 0.00 0.00 0.00 0.00 0.00 0.00 0.00 0.00 0.00 0.00 0.00 0.00 0.00 0.00 0.00 0.00 0.00 0.00 0.01 0.01
0.14 0.20 0.20 0.20 0.22 0.25 0.21 0.14 0.07 0.04 0.02 0.01 0.00 0.00 0.00 0.00 0.00 0.00 0.00 0.00 0.00 0.00 0.00 0.00 0.00 0.00 0.00 0.00 0.00 0.00 0.00 0.00 0.00 0.00 0.00 0.00 0.00 0.00 0.00 0.00 0.00 0.00 0.00
0.10 0.15 0.16 0.17 0.23 0.21 0.18 0.11 0.06 0.03 0.02 0.01 0.00 0.00 0.00 0.00 0.00 0.00 0.00 0.00 0.00 0.00 0.00 0.00 0.00 0.00 0.00 0.00 0.00 0.00 0.00 0.00 0.00 0.00 0.00 0.00 0.00 0.00 0.00 0.00 0.00 0.00 0.00
0.07 0.11 0.12 0.11 0.17 0.16 0.12 0.07 0.04 0.02 0.01 0.00 0.00 0.00 0.00 0.00 0.00 0.00 0.00 0.00 0.00 0.00 0.00 0.00 0.00 0.00 0.00 0.00 0.00 0.00 0.00 0.00 0.00 0.00 0.00 0.00 0.00 0.00 0.00 0.00 0.00 0.00 0.00
0.04 0.07 0.08 0.07 0.09 0.08 0.06 0.04 0.02 0.01 0.00 0.00 0.00 0.00 0.00 0.00 0.00 0.00 0.00 0.00 0.00 0.00 0.00 0.00 0.00 0.00 0.00 0.00 0.00 0.00 0.00 0.00 0.00 0.00 0.00 0.00 0.00 0.00 0.00 0.00 0.00 0.00 0.00
0.03 0.04 0.06 0.05 0.04 0.04 0.02 0.02 0.01 0.00 0.00 0.00 0.00 0.00 0.00 0.00 0.00 0.00 0.00 0.00 0.00 0.00 0.00 0.00 0.00 0.00 0.00 0.00 0.00 0.00 0.00 0.00 0.00 0.00 0.00 0.00 0.00 0.00 0.00 0.00 0.00 0.00 0.00
0.02 0.03 0.05 0.03 0.02 0.02 0.01 0.01 0.00 0.00 0.00 0.00 0.00 0.00 0.00 0.00 0.00 0.00 0.00 0.00 0.00 0.00 0.00 0.00 0.00 0.00 0.00 0.00 0.00 0.00 0.00 0.00 0.00 0.00 0.00 0.00 0.00 0.00 0.00 0.00 0.00 0.00 0.00
0.00 0.01 0.04 0.02 0.01 0.01 0.01 0.00 0.00 0.00 0.00 0.00 0.00 0.00 0.00 0.00 0.00 0.00 0.00 0.00 0.00 0.00 0.00 0.00 0.00 0.00 0.00 0.00 0.00 0.00 0.00 0.00 0.00 0.00 0.00 0.00 0.00 0.00 0.00 0.00 0.00 0.00 0.00
0.00 0.00 0.02 0.01 0.01 0.01 0.00 0.00 0.00 0.00 0.00 0.00 0.00 0.00 0.00 0.00 0.00 0.00 0.00 0.00 0.00 0.00 0.00 0.00 0.00 0.00 0.00 0.00 0.00 0.00 0.00 0.00 0.00 0.00 0.00 0.00 0.00 0.00 0.00 0.00 0.00 0.00 0.00
0.00 0.00 0.00 0.00 0.00 0.00 0.00 0.00 0.00 0.00 0.00 0.00 0.00 0.00 0.00 0.00 0.00 0.00 0.00 0.00 0.00 0.00 0.00 0.00 0.00 0.00 0.00 0.00 0.00 0.00 0.00 0.00 0.00 0.00 0.00 0.00 0.00 0.00 0.00 0.00 0.00 0.00 0.00
0.00 0.00 0.00 0.00 0.00 0.00 0.00 0.00 0.00 0.00 0.00 0.00 0.00 0.00 0.00 0.00 0.00 0.00 0.00 0.00 0.00 0.00 0.00 0.00 0.00 0.00 0.00 0.00 0.00 0.00 0.00 0.00 0.00 0.00 0.00 0.00 0.00 0.00 0.00 0.00 0.00 0.00 0.00
0.00 0.00 0.00 0.00 0.00 0.00 0.00 0.00 0.00 0.00 0.00 0.00 0.00 0.00 0.00 0.00 0.00 0.00 0.00 0.00 0.00 0.00 0.00 0.00 0.00 0.00 0.00 0.00 0.00 0.00 0.00 0.00 0.00 0.00 0.00 0.00 0.00 0.00 0.00 0.00 0.00 0.00 0.00
0.00 0.00 0.00 0.00 0.00 0.00 0.00 0.00 0.00 0.00 0.00 0.00 0.00 0.00 0.00 0.00 0.00 0.00 0.00 0.00 0.00 0.00 0.00 0.00 0.00 0.00 0.00 0.00 0.00 0.00 0.00 0.00 0.00 0.00 0.00 0.00 0.00 0.00 0.00 0.00 0.00 0.00 0.00
0.00 0.00 0.00 0.00 0.00 0.00 0.00 0.00 0.00 0.00 0.00 0.00 0.00 0.00 0.00 0.00 0.00 0.00 0.00 0.00 0.00 0.00 0.00 0.00 0.00 0.00 0.00 0.00 0.00 0.00 0.00 0.00 0.00 0.00 0.00 0.00 0.00 0.00 0.00 0.00 0.00 0.00 0.00
0.00 0.00 0.00 0.00 0.00 0.00 0.00 0.00 0.00 0.00 0.00 0.00 0.00 0.00 0.00 0.00 0.00 0.00 0.00 0.00 0.00 0.00 0.00 0.00 0.00 0.00 0.00 0.00 0.00 0.00 0.00 0.00 0.00 0.00 0.00 0.00 0.00 0.00 0.00 0.00 0.00 0.00 0.00
0.00 0.00 0.00 0.00 0.00 0.01 0.00 0.00 0.00 0.00 0.00 0.00 0.00 0.00 0.00 0.00 0.00 0.00 0.00 0.00 0.00 0.00 0.00 0.00 0.00 0.00 0.00 0.00 0.00 0.00 0.00 0.00 0.00 0.00 0.00 0.00 0.00 0.00 0.00 0.00 0.00 0.00 0.00
0.01 0.01 0.01 0.01 0.01 0.01 0.01 0.01 0.01 0.01 0.01 0.01 0.00 0.00 0.00 0.00 0.00 0.00 0.00 0.00 0.00 0.00 0.00 0.00 0.00 0.00 0.00 0.00 0.00 0.00 0.00 0.00 0.00 0.00 0.00 0.00 0.00 0.00 0.00 0.00 0.00 0.00 0.00
0.02 0.01 0.01 0.01 0.01 0.01 0.01 0.01 0.01 0.01 0.01 0.01 0.01 0.01 0.01 0.00 0.00 0.00 0.00 0.00 0.00 0.00 0.00 0.00 0.00 0.00 0.00 0.00 0.00 0.00 0.00 0.00 0.00 0.00 0.00 0.00 0.00 0.00 0.00 0.00 0.00 0.00 0.00
0.02 0.02 0.01 0.01 0.01 0.01 0.01 0.01 0.01 0.01 0.01 0.01 0.01 0.02 0.01 0.01 0.01 0.00 0.00 0.00 0.00 0.00 0.00 0.00 0.00 0.00 0.00 0.00 0.00 0.00 0.00 0.00 0.00 0.00 0.00 0.00 0.00 0.00 0.00 0.00 0.00 0.00 0.00
0.02 0.02 0.01 0.01 0.01 0.01 0.01 0.01 0.01 0.01 0.02 0.03 0.03 0.03 0.02 0.02 0.01 0.01 0.01 0.01 0.01 0.01 0.01 0.01 0.01 0.01 0.01 0.01 0.01 0.01 0.01 0.00 0.00 0.00 0.00 0.00 0.00 0.00 0.00 0.00 0.00 0.00 0.00
0.01 0.01 0.01 0.01 0.01 0.01 0.01 0.01 0.02 0.03 0.05 0.05 0.05 0.04 0.04 0.03 0.03 0.03 0.03 0.03 0.02 0.02 0.03 0.03 0.03 0.02 0.02 0.01 0.01 0.01 0.01 0.00 0.00 0.00 0.00 0.00 0.00 0.00 0.00 0.00 0.00 0.00 0.00
0.01 0.00 0.00 0.00 0.00 0.01 0.01 0.01 0.02 0.04 0.05 0.05 0.06 0.06 0.06 0.06 0.05 0.05 0.04 0.04 0.04 0.03 0.03 0.02 0.02 0.01 0.01 0.01 0.01 0.01 0.01 0.01 0.00 0.00 0.00 0.00 0.00 0.00 0.00 0.00 0.00 0.00 0.00
0.00 0.00 0.00 0.00 0.01 0.01 0.01 0.01 0.02 0.03 0.03 0.04 0.05 0.05 0.05 0.05 0.04 0.03 0.03 0.02 0.02 0.01 0.01 0.01 0.01 0.01 0.01 0.01 0.01 0.01 0.01 0.02 0.02 0.01 0.01 0.01 0.01 0.01 0.01 0.00 0.00 0.00 0.00
0.00 0.00 0.00 0.00 0.01 0.01 0.01 0.01 0.02 0.02 0.02 0.03 0.03 0.04 0.03 0.03 0.03 0.02 0.02 0.01 0.02 0.01 0.01 0.01 0.01 0.01 0.01 0.01 0.01 0.01 0.02 0.02 0.02 0.01 0.01 0.01 0.01 0.01 0.01 0.01 0.01 0.00 0.00
0.01 0.01 0.01 0.01 0.01 0.01 0.01 0.01 0.01 0.01 0.01 0.01 0.02 0.02 0.02 0.02 0.02 0.02 0.01 0.01 0.01 0.01 0.01 0.01 0.01 0.01 0.01 0.01 0.02 0.02 0.01 0.02 0.02 0.02 0.02 0.01 0.01 0.01 0.01 0.01 0.01 0.01 0.01
0.00 0.00 0.00 0.00 0.00 0.00 0.00 0.00 0.00 0.00 0.00 0.01 0.01 0.01 0.01 0.01 0.01 0.01 0.01 0.01 0.01 0.01 0.00 0.00 0.01 0.01 0.01 0.01 0.01 0.02 0.02 0.02 0.02 0.02 0.01 0.01 0.02 0.02 0.01 0.01 0.01 0.01 0.01

GEFSMW_prec_meanprec_078.txt.gz
QPF
0.10 0.12 0.11 0.10 0.14 0.22 0.22 0.17 0.15 0.13 0.11 0.08 0.05 0.04 0.02 0.01 0.00 0.00 0.00 0.00 0.00 0.00 0.00 0.00 0.00 0.00 0.00 0.00 0.00 0.00 0.00 0.00 0.00 0.00 0.00 0.00 0.00 0.00 0.00 0.01 0.02 0.03 0.02
0.11 0.10 0.10 0.10 0.11 0.20 0.21 0.16 0.14 0.12 0.10 0.07 0.05 0.04 0.03 0.01 0.00 0.00 0.00 0.00 0.00 0.00 0.00 0.00 0.00 0.00 0.00 0.00 0.00 0.00 0.00 0.00 0.00 0.00 0.00 0.00 0.00 0.00 0.00 0.00 0.01 0.01 0.02
0.06 0.07 0.07 0.08 0.10 0.14 0.15 0.14 0.13 0.09 0.08 0.06 0.04 0.03 0.02 0.00 0.00 0.00 0.00 0.00 0.00 0.00 0.00 0.00 0.00 0.00 0.00 0.00 0.00 0.00 0.00 0.00 0.00 0.00 0.00 0.00 0.00 0.00 0.00 0.00 0.00 0.00 0.01
0.03 0.03 0.04 0.06 0.08 0.12 0.14 0.12 0.11 0.07 0.05 0.04 0.03 0.02 0.01 0.00 0.00 0.00 0.00 0.00 0.00 0.00 0.00 0.00 0.00 0.00 0.00 0.00 0.00 0.00 0.00 0.00 0.00 0.00 0.00 0.00 0.00 0.00 0.00 0.00 0.00 0.00 0.00
0.01 0.02 0.04 0.06 0.07 0.08 0.10 0.08 0.07 0.05 0.03 0.03 0.02 0.02 0.01 0.01 0.00 0.00 0.00 0.00 0.00 0.00 0.00 0.00 0.00 0.00 0.00 0.00 0.00 0.00 0.00 0.00 0.00 0.00 0.00 0.00 0.00 0.00 0.00 0.00 0.00 0.00 0.00
0.01 0.03 0.03 0.03 0.03 0.06 0.04 0.04 0.03 0.03 0.02 0.01 0.01 0.01 0.00 0.00 0.00 0.00 0.00 0.00 0.00 0.00 0.00 0.00 0.00 0.00 0.00 0.00 0.00 0.00 0.00 0.00 0.00 0.00 0.00 0.00 0.00 0.00 0.00 0.00 0.00 0.00 0.00
0.01 0.01 0.02 0.01 0.02 0.03 0.02 0.02 0.02 0.01 0.01 0.01 0.01 0.00 0.00 0.00 0.00 0.00 0.00 0.00 0.00 0.00 0.00 0.00 0.00 0.00 0.00 0.00 0.00 0.00 0.00 0.00 0.00 0.00 0.00 0.00 0.00 0.00 0.00 0.00 0.00 0.00 0.00
0.00 0.01 0.01 0.01 0.01 0.01 0.02 0.01 0.01 0.01 0.01 0.00 0.00 0.00 0.00 0.00 0.00 0.00 0.00 0.00 0.00 0.00 0.00 0.00 0.00 0.00 0.00 0.00 0.00 0.00 0.00 0.00 0.00 0.00 0.00 0.00 0.00 0.00 0.00 0.00 0.00 0.00 0.00
0.00 0.00 0.00 0.01 0.01 0.01 0.01 0.01 0.01 0.01 0.01 0.00 0.00 0.00 0.00 0.00 0.00 0.00 0.00 0.00 0.00 0.00 0.00 0.00 0.00 0.00 0.00 0.00 0.00 0.00 0.00 0.00 0.00 0.00 0.00 0.00 0.00 0.00 0.00 0.00 0.00 0.00 0.00
0.00 0.00 0.00 0.00 0.00 0.01 0.01 0.01 0.01 0.01 0.00 0.00 0.00 0.00 0.00 0.00 0.00 0.00 0.00 0.00 0.00 0.00 0.00 0.00 0.00 0.00 0.00 0.00 0.00 0.00 0.00 0.00 0.00 0.00 0.00 0.00 0.00 0.00 0.00 0.00 0.00 0.00 0.00
0.00 0.00 0.00 0.00 0.00 0.00 0.00 0.00 0.00 0.00 0.00 0.00 0.00 0.00 0.00 0.00 0.00 0.00 0.00 0.00 0.00 0.00 0.00 0.00 0.00 0.00 0.00 0.00 0.00 0.00 0.00 0.00 0.00 0.00 0.00 0.00 0.00 0.00 0.00 0.00 0.00 0.00 0.00
0.00 0.00 0.00 0.00 0.00 0.00 0.00 0.00 0.00 0.00 0.00 0.00 0.00 0.00 0.00 0.01 0.00 0.00 0.00 0.00 0.00 0.00 0.00 0.00 0.00 0.00 0.00 0.00 0.00 0.00 0.00 0.00 0.00 0.00 0.00 0.00 0.00 0.00 0.00 0.00 0.00 0.00 0.00
0.00 0.00 0.00 0.00 0.00 0.00 0.00 0.00 0.00 0.00 0.00 0.00 0.00 0.00 0.00 0.01 0.01 0.00 0.00 0.00 0.00 0.00 0.00 0.00 0.00 0.00 0.00 0.00 0.00 0.00 0.00 0.00 0.00 0.00 0.00 0.00 0.00 0.00 0.00 0.00 0.00 0.00 0.00
0.00 0.00 0.00 0.00 0.00 0.00 0.00 0.00 0.00 0.01 0.00 0.00 0.00 0.00 0.00 0.00 0.00 0.00 0.00 0.00 0.00 0.00 0.00 0.00 0.00 0.00 0.00 0.00 0.00 0.00 0.00 0.00 0.00 0.00 0.00 0.00 0.00 0.00 0.00 0.00 0.00 0.00 0.00
0.00 0.00 0.00 0.00 0.00 0.00 0.00 0.00 0.00 0.00 0.00 0.00 0.00 0.00 0.00 0.00 0.01 0.00 0.00 0.00 0.00 0.00 0.00 0.00 0.00 0.00 0.00 0.00 0.00 0.00 0.00 0.00 0.00 0.00 0.00 0.00 0.00 0.00 0.00 0.00 0.00 0.00 0.00
0.01 0.01 0.00 0.00 0.00 0.00 0.00 0.00 0.00 0.00 0.00 0.01 0.01 0.01 0.01 0.01 0.01 0.01 0.00 0.00 0.00 0.00 0.00 0.00 0.00 0.00 0.00 0.00 0.00 0.00 0.00 0.00 0.00 0.00 0.00 0.00 0.00 0.00 0.00 0.00 0.00 0.00 0.00
0.01 0.01 0.01 0.01 0.01 0.01 0.01 0.01 0.00 0.01 0.01 0.01 0.01 0.01 0.01 0.01 0.01 0.01 0.00 0.00 0.00 0.00 0.00 0.00 0.00 0.00 0.00 0.00 0.00 0.00 0.00 0.00 0.00 0.00 0.00 0.00 0.00 0.00 0.00 0.00 0.00 0.00 0.00
0.01 0.01 0.01 0.01 0.01 0.01 0.01 0.01 0.01 0.01 0.01 0.01 0.01 0.01 0.01 0.01 0.01 0.01 0.01 0.00 0.00 0.00 0.00 0.00 0.00 0.00 0.00 0.00 0.00 0.00 0.00 0.00 0.00 0.00 0.00 0.00 0.00 0.00 0.00 0.00 0.00 0.00 0.00
0.01 0.01 0.01 0.01 0.01 0.01 0.01 0.01 0.01 0.01 0.01 0.01 0.01 0.02 0.02 0.02 0.02 0.01 0.01 0.01 0.01 0.01 0.01 0.01 0.00 0.00 0.00 0.01 0.01 0.01 0.00 0.00 0.00 0.00 0.00 0.01 0.01 0.01 0.01 0.00 0.00 0.00 0.00
0.01 0.01 0.01 0.01 0.01 0.02 0.01 0.01 0.01 0.01 0.01 0.01 0.01 0.01 0.02 0.02 0.02 0.02 0.01 0.01 0.01 0.01 0.01 0.01 0.01 0.01 0.01 0.01 0.01 0.01 0.01 0.01 0.00 0.01 0.01 0.01 0.00 0.01 0.01 0.01 0.01 0.00 0.01
0.01 0.01 0.01 0.01 0.01 0.01 0.01 0.01 0.01 0.01 0.01 0.01 0.02 0.02 0.02 0.02 0.02 0.01 0.01 0.01 0.01 0.01 0.01 0.01 0.01 0.01 0.01 0.01 0.02 0.02 0.01 0.01 0.01 0.01 0.01 0.01 0.01 0.01 0.01 0.01 0.01 0.01 0.01
0.01 0.00 0.00 0.00 0.00 0.01 0.00 0.00 0.00 0.00 0.01 0.01 0.01 0.01 0.01 0.01 0.01 0.01 0.01 0.02 0.01 0.01 0.01 0.01 0.01 0.01 0.01 0.01 0.01 0.01 0.01 0.01 0.01 0.00 0.00 0.01 0.01 0.01 0.01 0.01 0.01 0.01 0.01
0.01 0.00 0.00 0.01 0.01 0.01 0.00 0.00 0.00 0.00 0.01 0.01 0.01 0.01 0.00 0.01 0.01 0.01 0.01 0.01 0.01 0.00 0.00 0.00 0.00 0.01 0.01 0.01 0.02 0.02 0.02 0.02 0.01 0.01 0.01 0.01 0.01 0.02 0.02 0.01 0.02 0.02 0.02
0.01 0.00 0.00 0.00 0.00 0.00 0.00 0.00 0.00 0.00 0.00 0.00 0.00 0.00 0.00 0.00 0.01 0.00 0.00 0.00 0.00 0.00 0.00 0.00 0.01 0.01 0.01 0.02 0.02 0.02 0.02 0.02 0.02 0.01 0.01 0.01 0.01 0.01 0.01 0.01 0.01 0.01 0.01
0.00 0.00 0.00 0.00 0.00 0.00 0.00 0.00 0.00 0.00 0.00 0.00 0.00 0.00 0.00 0.00 0.00 0.00 0.00 0.00 0.00 0.00 0.00 0.00 0.00 0.00 0.00 0.00 0.01 0.00 0.01 0.01 0.01 0.01 0.01 0.02 0.02 0.03 0.03 0.04 0.04 0.04 0.03
0.00 0.00 0.00 0.00 0.00 0.00 0.00 0.00 0.00 0.00 0.00 0.00 0.00 0.00 0.00 0.00 0.00 0.00 0.00 0.00 0.00 0.00 0.00 0.00 0.00 0.00 0.00 0.00 0.00 0.00 0.00 0.00 0.00 0.01 0.01 0.01 0.01 0.02 0.02 0.03 0.04 0.05 0.05

GEFSMW_prec_meanprec_084.txt.gz
QPF
0.11 0.09 0.09 0.09 0.11 0.13 0.19 0.17 0.15 0.13 0.15 0.15 0.12 0.10 0.06 0.03 0.01 0.00 0.00 0.00 0.00 0.00 0.01 0.00 0.00 0.00 0.00 0.00 0.00 0.00 0.00 0.00 0.01 0.01 0.01 0.01 0.00 0.00 0.01 0.01 0.02 0.03 0.04
0.11 0.10 0.09 0.10 0.10 0.10 0.10 0.11 0.13 0.15 0.15 0.17 0.12 0.08 0.05 0.02 0.01 0.00 0.00 0.00 0.00 0.00 0.00 0.00 0.00 0.00 0.00 0.00 0.00 0.00 0.00 0.00 0.00 0.01 0.01 0.01 0.01 0.01 0.00 0.01 0.01 0.02 0.04
0.08 0.09 0.07 0.09 0.08 0.09 0.10 0.10 0.12 0.14 0.17 0.18 0.11 0.06 0.04 0.02 0.02 0.01 0.01 0.00 0.00 0.00 0.00 0.00 0.00 0.00 0.00 0.00 0.00 0.00 0.00 0.00 0.00 0.00 0.00 0.01 0.02 0.02 0.01 0.00 0.00 0.01 0.02
0.06 0.07 0.07 0.08 0.07 0.08 0.10 0.12 0.12 0.12 0.12 0.12 0.10 0.06 0.03 0.02 0.02 0.01 0.01 0.00 0.00 0.00 0.00 0.00 0.00 0.00 0.00 0.00 0.00 0.00 0.00 0.00 0.00 0.00 0.00 0.00 0.01 0.01 0.01 0.01 0.00 0.00 0.01
0.02 0.03 0.06 0.07 0.06 0.06 0.08 0.11 0.13 0.10 0.10 0.09 0.08 0.06 0.04 0.03 0.01 0.01 0.01 0.00 0.00 0.00 0.00 0.00 0.00 0.00 0.00 0.00 0.00 0.00 0.00 0.00 0.00 0.00 0.00 0.00 0.00 0.00 0.00 0.01 0.00 0.00 0.00
0.02 0.04 0.05 0.07 0.07 0.06 0.06 0.10 0.12 0.10 0.09 0.08 0.06 0.04 0.04 0.03 0.03 0.02 0.01 0.01 0.00 0.00 0.00 0.00 0.00 0.00 0.00 0.00 0.00 0.00 0.00 0.00 0.00 0.00 0.00 0.00 0.00 0.00 0.00 0.00 0.00 0.00 0.00
0.01 0.02 0.03 0.04 0.05 0.05 0.05 0.08 0.09 0.08 0.07 0.06 0.05 0.04 0.03 0.02 0.02 0.02 0.01 0.00 0.00 0.00 0.00 0.00 0.00 0.00 0.00 0.00 0.00 0.00 0.00 0.00 0.00 0.00 0.00 0.00 0.00 0.00 0.00 0.00 0.00 0.00 0.00
0.00 0.01 0.02 0.04 0.03 0.02 0.03 0.04 0.06 0.06 0.06 0.05 0.04 0.03 0.02 0.01 0.01 0.02 0.01 0.00 0.00 0.00 0.00 0.00 0.00 0.00 0.00 0.00 0.00 0.00 0.00 0.00 0.00 0.00 0.00 0.00 0.00 0.00 0.00 0.00 0.00 0.00 0.00
0.00 0.01 0.01 0.03 0.02 0.02 0.02 0.02 0.04 0.04 0.04 0.04 0.03 0.02 0.02 0.01 0.01 0.01 0.01 0.00 0.00 0.00 0.00 0.00 0.00 0.00 0.00 0.00 0.00 0.00 0.00 0.00 0.00 0.00 0.00 0.00 0.00 0.00 0.00 0.00 0.00 0.00 0.00
0.00 0.00 0.00 0.00 0.01 0.01 0.02 0.03 0.03 0.03 0.03 0.03 0.02 0.01 0.01 0.01 0.01 0.01 0.01 0.00 0.00 0.00 0.00 0.00 0.00 0.00 0.00 0.00 0.00 0.00 0.00 0.00 0.00 0.00 0.00 0.00 0.00 0.00 0.00 0.00 0.00 0.00 0.00
0.00 0.00 0.00 0.00 0.01 0.01 0.01 0.02 0.02 0.02 0.01 0.01 0.01 0.01 0.01 0.01 0.01 0.00 0.00 0.01 0.00 0.00 0.00 0.00 0.00 0.00 0.00 0.00 0.00 0.00 0.00 0.00 0.00 0.00 0.00 0.00 0.00 0.00 0.00 0.00 0.00 0.00 0.00
0.00 0.00 0.01 0.02 0.02 0.01 0.01 0.01 0.01 0.00 0.00 0.01 0.01 0.01 0.01 0.01 0.01 0.00 0.00 0.00 0.00 0.00 0.00 0.00 0.00 0.00 0.00 0.00 0.00 0.00 0.00 0.00 0.00 0.00 0.00 0.00 0.00 0.00 0.00 0.00 0.00 0.00 0.00
0.00 0.00 0.01 0.04 0.03 0.01 0.00 0.01 0.01 0.01 0.00 0.00 0.01 0.01 0.01 0.01 0.01 0.01 0.01 0.00 0.00 0.00 0.00 0.00 0.00 0.00 0.00 0.00 0.00 0.00 0.00 0.00 0.00 0.00 0.00 0.00 0.00 0.00 0.00 0.00 0.00 0.00 0.00
0.00 0.00 0.01 0.01 0.01 0.00 0.01 0.01 0.02 0.05 0.02 0.01 0.01 0.01 0.01 0.01 0.01 0.01 0.01 0.01 0.00 0.00 0.00 0.00 0.00 0.00 0.00 0.00 0.00 0.00 0.00 0.00 0.00 0.00 0.00 0.00 0.00 0.00 0.00 0.00 0.00 0.00 0.00
0.00 0.01 0.01 0.02 0.02 0.02 0.01 0.01 0.01 0.02 0.02 0.02 0.02 0.04 0.03 0.03 0.03 0.03 0.02 0.02 0.02 0.01 0.01 0.01 0.01 0.00 0.00 0.00 0.00 0.00 0.00 0.00 0.00 0.00 0.00 0.00 0.00 0.00 0.00 0.00 0.00 0.01 0.01
0.01 0.01 0.01 0.02 0.02 0.02 0.02 0.01 0.02 0.02 0.02 0.03 0.03 0.04 0.04 0.04 0.05 0.06 0.05 0.05 0.04 0.03 0.02 0.01 0.01 0.01 0.01 0.01 0.01 0.00 0.00 0.00 0.00 0.01 0.01 0.01 0.00 0.00 0.00 0.00 0.00 0.00 0.00
0.01 0.01 0.01 0.01 0.01 0.01 0.01 0.01 0.01 0.01 0.01 0.03 0.04 0.04 0.04 0.05 0.06 0.06 0.06 0.06 0.05 0.04 0.03 0.02 0.01 0.01 0.01 0.01 0.01 0.01 0.00 0.00 0.00 0.01 0.01 0.01 0.00 0.01 0.01 0.01 0.01 0.01 0.00
0.01 0.01 0.00 0.01 0.01 0.01 0.01 0.01 0.01 0.01 0.03 0.04 0.05 0.06 0.07 0.07 0.08 0.07 0.06 0.06 0.05 0.04 0.03 0.02 0.02 0.02 0.01 0.01 0.01 0.01 0.01 0.00 0.00 0.00 0.01 0.01 0.01 0.01 0.02 0.02 0.02 0.02 0.02
0.01 0.01 0.01 0.01 0.01 0.02 0.03 0.03 0.04 0.05 0.07 0.08 0.09 0.09 0.09 0.09 0.08 0.07 0.06 0.06 0.06 0.06 0.06 0.05 0.03 0.03 0.03 0.02 0.02 0.01 0.01 0.01 0.01 0.01 0.01 0.02 0.02 0.02 0.02 0.03 0.03 0.03 0.03
0.01 0.01 0.01 0.01 0.03 0.04 0.05 0.05 0.06 0.06 0.06 0.07 0.07 0.06 0.06 0.06 0.05 0.04 0.04 0.04 0.04 0.04 0.05 0.05 0.05 0.05 0.04 0.03 0.03 0.03 0.02 0.01 0.02 0.02 0.02 0.02 0.02 0.02 0.02 0.03 0.03 0.03 0.03
0.01 0.01 0.01 0.01 0.02 0.02 0.03 0.04 0.05 0.06 0.06 0.05 0.05 0.04 0.04 0.04 0.03 0.03 0.03 0.03 0.02 0.02 0.02 0.02 0.03 0.03 0.03 0.04 0.03 0.02 0.02 0.02 0.01 0.01 0.01 0.02 0.03 0.02 0.01 0.02 0.03 0.03 0.03
0.01 0.01 0.01 0.01 0.01 0.01 0.02 0.02 0.02 0.02 0.02 0.02 0.02 0.02 0.02 0.03 0.02 0.02 0.02 0.02 0.02 0.02 0.02 0.02 0.02 0.02 0.02 0.02 0.02 0.02 0.02 0.01 0.01 0.01 0.00 0.01 0.02 0.01 0.01 0.01 0.01 0.01 0.02
0.01 0.01 0.01 0.01 0.01 0.01 0.01 0.01 0.01 0.01 0.01 0.01 0.01 0.02 0.01 0.01 0.01 0.02 0.02 0.02 0.02 0.01 0.01 0.01 0.01 0.01 0.01 0.02 0.01 0.01 0.02 0.01 0.01 0.00 0.00 0.00 0.01 0.01 0.01 0.01 0.01 0.02 0.02
0.01 0.01 0.01 0.02 0.02 0.02 0.02 0.02 0.02 0.02 0.01 0.01 0.01 0.01 0.01 0.01 0.01 0.00 0.00 0.00 0.00 0.00 0.00 0.01 0.01 0.01 0.02 0.01 0.01 0.01 0.01 0.01 0.00 0.00 0.00 0.00 0.00 0.00 0.00 0.01 0.01 0.01 0.02
0.00 0.00 0.00 0.00 0.00 0.01 0.01 0.01 0.01 0.00 0.00 0.00 0.00 0.00 0.00 0.00 0.00 0.00 0.00 0.00 0.00 0.00 0.00 0.00 0.00 0.00 0.00 0.00 0.00 0.00 0.00 0.00 0.00 0.00 0.00 0.00 0.00 0.00 0.00 0.01 0.01 0.02 0.03
0.00 0.00 0.00 0.00 0.00 0.00 0.00 0.00 0.00 0.00 0.00 0.00 0.00 0.00 0.00 0.00 0.00 0.00 0.00 0.00 0.00 0.00 0.00 0.00 0.00 0.00 0.00 0.00 0.00 0.00 0.00 0.00 0.00 0.00 0.00 0.00 0.00 0.01 0.01 0.01 0.01 0.02 0.04

GEFSMW_prec_meanprec_090.txt.gz
QPF
0.14 0.20 0.25 0.28 0.35 0.27 0.21 0.27 0.25 0.21 0.10 0.08 0.08 0.08 0.05 0.03 0.02 0.02 0.01 0.01 0.00 0.00 0.00 0.00 0.00 0.00 0.00 0.00 0.00 0.00 0.00 0.00 0.00 0.00 0.00 0.00 0.00 0.00 0.01 0.00 0.00 0.01 0.01
0.14 0.16 0.24 0.27 0.27 0.20 0.15 0.18 0.18 0.12 0.07 0.04 0.05 0.06 0.04 0.02 0.02 0.01 0.00 0.00 0.00 0.00 0.00 0.00 0.00 0.00 0.00 0.00 0.00 0.00 0.00 0.00 0.00 0.00 0.00 0.00 0.00 0.00 0.00 0.00 0.00 0.00 0.01
0.06 0.10 0.18 0.26 0.21 0.19 0.15 0.13 0.15 0.12 0.07 0.05 0.05 0.06 0.04 0.02 0.01 0.02 0.01 0.00 0.00 0.00 0.00 0.00 0.00 0.00 0.00 0.00 0.00 0.00 0.00 0.00 0.00 0.00 0.00 0.00 0.00 0.00 0.00 0.00 0.00 0.00 0.00
0.03 0.05 0.10 0.14 0.16 0.18 0.17 0.14 0.16 0.13 0.08 0.06 0.05 0.04 0.04 0.02 0.01 0.01 0.01 0.00 0.00 0.00 0.00 0.00 0.00 0.00 0.00 0.00 0.00 0.00 0.00 0.00 0.00 0.00 0.00 0.00 0.00 0.00 0.00 0.00 0.00 0.00 0.00
0.01 0.02 0.04 0.08 0.10 0.11 0.14 0.14 0.15 0.13 0.07 0.06 0.08 0.05 0.04 0.03 0.01 0.01 0.01 0.00 0.00 0.00 0.00 0.00 0.00 0.00 0.00 0.00 0.00 0.00 0.00 0.00 0.00 0.00 0.00 0.00 0.00 0.00 0.00 0.00 0.00 0.00 0.00
0.01 0.01 0.03 0.06 0.09 0.11 0.11 0.10 0.12 0.12 0.08 0.06 0.08 0.08 0.05 0.03 0.01 0.01 0.01 0.00 0.00 0.00 0.00 0.00 0.00 0.00 0.00 0.00 0.00 0.00 0.00 0.00 0.00 0.00 0.00 0.00 0.00 0.00 0.00 0.00 0.00 0.00 0.00
0.03 0.01 0.01 0.03 0.06 0.10 0.11 0.09 0.09 0.10 0.10 0.07 0.06 0.08 0.07 0.03 0.01 0.01 0.01 0.00 0.00 0.00 0.00 0.00 0.00 0.00 0.00 0.00 0.00 0.00 0.00 0.00 0.00 0.00 0.00 0.00 0.00 0.00 0.00 0.00 0.00 0.00 0.00
0.04 0.02 0.01 0.01 0.02 0.03 0.06 0.08 0.07 0.07 0.11 0.09 0.06 0.05 0.04 0.03 0.01 0.00 0.00 0.00 0.00 0.00 0.00 0.00 0.00 0.00 0.00 0.00 0.00 0.00 0.00 0.00 0.00 0.00 0.00 0.00 0.00 0.00 0.00 0.00 0.00 0.00 0.00
0.01 0.01 0.01 0.01 0.01 0.02 0.03 0.04 0.06 0.07 0.09 0.09 0.06 0.04 0.03 0.02 0.01 0.00 0.00 0.00 0.00 0.00 0.00 0.00 0.00 0.00 0.00 0.00 0.00 0.00 0.00 0.00 0.00 0.00 0.00 0.00 0.00 0.00 0.00 0.00 0.00 0.00 0.00
0.00 0.01 0.01 0.01 0.01 0.02 0.03 0.04 0.07 0.08 0.07 0.06 0.04 0.03 0.02 0.01 0.01 0.00 0.00 0.00 0.00 0.00 0.00 0.00 0.00 0.00 0.00 0.00 0.00 0.00 0.00 0.00 0.00 0.00 0.00 0.00 0.00 0.00 0.00 0.00 0.00 0.00 0.00
0.00 0.01 0.01 0.01 0.01 0.01 0.02 0.03 0.04 0.05 0.05 0.03 0.02 0.02 0.02 0.01 0.00 0.00 0.00 0.00 0.00 0.00 0.00 0.00 0.00 0.00 0.00 0.00 0.00 0.00 0.00 0.00 0.00 0.00 0.00 0.00 0.00 0.00 0.00 0.00 0.00 0.00 0.00
0.01 0.01 0.01 0.01 0.02 0.02 0.02 0.03 0.04 0.03 0.02 0.01 0.01 0.01 0.01 0.01 0.01 0.00 0.00 0.00 0.00 0.01 0.01 0.01 0.00 0.00 0.00 0.00 0.00 0.00 0.00 0.00 0.00 0.00 0.00 0.00 0.00 0.00 0.00 0.00 0.00 0.00 0.00
0.01 0.01 0.02 0.02 0.04 0.04 0.03 0.04 0.07 0.06 0.03 0.02 0.02 0.02 0.02 0.02 0.02 0.02 0.02 0.02 0.01 0.02 0.02 0.02 0.02 0.02 0.02 0.02 0.02 0.01 0.00 0.00 0.00 0.00 0.00 0.00 0.00 0.00 0.00 0.00 0.00 0.00 0.00
0.02 0.01 0.02 0.04 0.04 0.03 0.03 0.04 0.05 0.07 0.08 0.09 0.08 0.07 0.06 0.05 0.04 0.03 0.03 0.03 0.03 0.03 0.05 0.06 0.06 0.05 0.04 0.06 0.04 0.02 0.01 0.01 0.00 0.00 0.00 0.00 0.00 0.00 0.00 0.00 0.00 0.00 0.00
0.03 0.02 0.03 0.05 0.07 0.06 0.06 0.07 0.08 0.10 0.11 0.12 0.15 0.15 0.15 0.12 0.08 0.06 0.07 0.08 0.09 0.10 0.13 0.12 0.11 0.09 0.08 0.06 0.04 0.02 0.02 0.01 0.01 0.01 0.01 0.01 0.01 0.01 0.01 0.01 0.01 0.01 0.01
0.02 0.03 0.03 0.05 0.05 0.07 0.08 0.10 0.13 0.14 0.12 0.12 0.13 0.14 0.16 0.14 0.11 0.11 0.15 0.18 0.19 0.20 0.19 0.16 0.15 0.16 0.13 0.10 0.09 0.07 0.05 0.03 0.03 0.03 0.02 0.02 0.02 0.02 0.02 0.02 0.01 0.01 0.01
0.03 0.04 0.04 0.05 0.06 0.07 0.07 0.08 0.10 0.12 0.15 0.19 0.23 0.25 0.24 0.20 0.20 0.22 0.24 0.23 0.22 0.22 0.20 0.18 0.16 0.14 0.12 0.10 0.08 0.07 0.05 0.04 0.04 0.04 0.03 0.03 0.02 0.02 0.01 0.01 0.01 0.01 0.01
0.05 0.05 0.05 0.06 0.07 0.08 0.09 0.10 0.12 0.13 0.14 0.16 0.20 0.22 0.25 0.27 0.29 0.33 0.36 0.34 0.32 0.29 0.24 0.21 0.19 0.16 0.14 0.13 0.11 0.09 0.06 0.05 0.04 0.03 0.02 0.02 0.01 0.01 0.01 0.01 0.01 0.01 0.01
0.04 0.04 0.05 0.05 0.07 0.08 0.09 0.11 0.14 0.18 0.19 0.20 0.22 0.25 0.26 0.28 0.32 0.36 0.37 0.33 0.31 0.26 0.21 0.21 0.21 0.19 0.17 0.16 0.13 0.11 0.08 0.06 0.05 0.04 0.03 0.02 0.02 0.02 0.02 0.01 0.01 0.01 0.01
0.02 0.02 0.02 0.03 0.05 0.06 0.09 0.11 0.13 0.17 0.21 0.21 0.20 0.22 0.26 0.26 0.26 0.27 0.26 0.21 0.18 0.16 0.16 0.17 0.17 0.15 0.12 0.12 0.11 0.10 0.07 0.05 0.04 0.03 0.02 0.02 0.01 0.01 0.01 0.01 0.00 0.01 0.01
0.01 0.01 0.01 0.01 0.03 0.04 0.05 0.07 0.10 0.13 0.13 0.12 0.13 0.15 0.19 0.22 0.21 0.19 0.16 0.12 0.10 0.09 0.10 0.08 0.08 0.07 0.06 0.05 0.05 0.05 0.04 0.04 0.03 0.03 0.02 0.02 0.02 0.01 0.01 0.01 0.00 0.00 0.00
0.01 0.02 0.02 0.02 0.02 0.03 0.04 0.05 0.05 0.06 0.06 0.06 0.04 0.04 0.04 0.05 0.05 0.04 0.04 0.04 0.04 0.04 0.04 0.04 0.04 0.03 0.02 0.02 0.02 0.02 0.03 0.03 0.02 0.02 0.02 0.02 0.02 0.01 0.01 0.01 0.01 0.01 0.01
0.02 0.02 0.02 0.02 0.03 0.03 0.02 0.02 0.02 0.02 0.02 0.01 0.01 0.01 0.01 0.01 0.01 0.01 0.01 0.02 0.03 0.03 0.03 0.03 0.02 0.01 0.01 0.01 0.01 0.01 0.01 0.01 0.01 0.00 0.00 0.00 0.00 0.00 0.00 0.00 0.00 0.00 0.00
0.01 0.01 0.01 0.01 0.01 0.01 0.01 0.00 0.00 0.00 0.00 0.00 0.00 0.00 0.00 0.00 0.01 0.01 0.01 0.01 0.01 0.01 0.01 0.00 0.00 0.00 0.00 0.00 0.00 0.00 0.00 0.00 0.00 0.00 0.00 0.00 0.00 0.00 0.00 0.00 0.00 0.00 0.00
0.00 0.00 0.00 0.00 0.00 0.00 0.00 0.00 0.00 0.00 0.00 0.00 0.00 0.00 0.00 0.00 0.00 0.00 0.00 0.00 0.00 0.00 0.00 0.00 0.00 0.00 0.00 0.00 0.00 0.00 0.00 0.00 0.00 0.00 0.00 0.00 0.00 0.00 0.00 0.00 0.00 0.00 0.00
0.00 0.00 0.00 0.00 0.00 0.00 0.00 0.00 0.00 0.00 0.00 0.00 0.00 0.00 0.00 0.00 0.00 0.00 0.00 0.00 0.00 0.00 0.00 0.00 0.00 0.00 0.00 0.00 0.00 0.00 0.00 0.00 0.00 0.00 0.00 0.00 0.00 0.00 0.00 0.00 0.00 0.00 0.00

GEFSMW_prec_meanprec_096.txt.gz
QPF
0.10 0.09 0.10 0.15 0.18 0.20 0.25 0.20 0.19 0.18 0.15 0.13 0.12 0.09 0.08 0.07 0.05 0.04 0.02 0.01 0.01 0.01 0.01 0.01 0.01 0.01 0.01 0.00 0.00 0.00 0.00 0.00 0.00 0.00 0.00 0.00 0.00 0.00 0.00 0.00 0.01 0.01 0.01
0.06 0.07 0.10 0.14 0.19 0.21 0.24 0.24 0.21 0.18 0.15 0.11 0.10 0.10 0.08 0.07 0.05 0.03 0.02 0.01 0.01 0.01 0.01 0.00 0.00 0.01 0.00 0.00 0.00 0.00 0.00 0.00 0.00 0.00 0.00 0.00 0.00 0.00 0.00 0.00 0.00 0.00 0.00
0.03 0.04 0.08 0.11 0.14 0.19 0.22 0.25 0.23 0.17 0.17 0.14 0.12 0.10 0.08 0.05 0.03 0.03 0.02 0.01 0.01 0.01 0.01 0.00 0.00 0.00 0.00 0.00 0.00 0.00 0.00 0.00 0.00 0.00 0.00 0.00 0.00 0.00 0.00 0.00 0.00 0.00 0.00
0.01 0.04 0.06 0.09 0.10 0.13 0.16 0.23 0.21 0.19 0.18 0.16 0.11 0.07 0.05 0.03 0.02 0.02 0.02 0.01 0.01 0.00 0.00 0.00 0.00 0.00 0.00 0.00 0.00 0.00 0.00 0.00 0.00 0.00 0.00 0.00 0.00 0.00 0.00 0.00 0.00 0.00 0.00
0.01 0.03 0.04 0.06 0.10 0.13 0.15 0.17 0.19 0.18 0.16 0.13 0.10 0.07 0.05 0.04 0.02 0.02 0.01 0.01 0.00 0.00 0.00 0.00 0.00 0.00 0.00 0.00 0.00 0.00 0.00 0.00 0.00 0.00 0.00 0.00 0.00 0.00 0.00 0.00 0.00 0.00 0.00
0.01 0.02 0.03 0.05 0.07 0.10 0.14 0.16 0.18 0.16 0.13 0.11 0.09 0.07 0.06 0.05 0.02 0.01 0.01 0.01 0.00 0.00 0.00 0.00 0.00 0.00 0.00 0.00 0.00 0.00 0.00 0.00 0.00 0.00 0.00 0.00 0.00 0.00 0.00 0.00 0.00 0.00 0.00
0.01 0.02 0.01 0.02 0.03 0.05 0.08 0.09 0.12 0.12 0.11 0.11 0.10 0.07 0.07 0.04 0.02 0.01 0.01 0.00 0.00 0.00 0.00 0.00 0.00 0.00 0.00 0.00 0.00 0.00 0.00 0.00 0.00 0.00 0.00 0.00 0.00 0.00 0.00 0.00 0.00 0.00 0.00
0.02 0.02 0.01 0.01 0.01 0.03 0.05 0.06 0.07 0.09 0.09 0.10 0.10 0.07 0.06 0.04 0.02 0.01 0.01 0.00 0.00 0.00 0.00 0.00 0.00 0.00 0.00 0.00 0.00 0.00 0.00 0.00 0.00 0.00 0.00 0.00 0.00 0.00 0.00 0.00 0.00 0.00 0.00
0.01 0.01 0.01 0.01 0.01 0.01 0.04 0.07 0.08 0.09 0.10 0.11 0.11 0.07 0.05 0.03 0.02 0.02 0.01 0.00 0.00 0.00 0.00 0.00 0.00 0.00 0.00 0.00 0.00 0.00 0.00 0.00 0.00 0.00 0.00 0.00 0.00 0.00 0.00 0.00 0.00 0.00 0.00
0.00 0.00 0.00 0.00 0.00 0.00 0.01 0.03 0.04 0.06 0.10 0.12 0.12 0.07 0.05 0.04 0.03 0.02 0.01 0.01 0.00 0.00 0.00 0.00 0.00 0.00 0.00 0.00 0.00 0.00 0.00 0.00 0.00 0.00 0.00 0.00 0.00 0.00 0.00 0.00 0.00 0.00 0.00
0.00 0.00 0.00 0.00 0.00 0.00 0.01 0.01 0.03 0.04 0.07 0.10 0.11 0.08 0.05 0.04 0.03 0.02 0.01 0.01 0.01 0.00 0.00 0.00 0.00 0.00 0.00 0.00 0.00 0.00 0.00 0.00 0.00 0.00 0.00 0.00 0.00 0.00 0.00 0.00 0.00 0.00 0.00
0.00 0.00 0.00 0.00 0.01 0.00 0.00 0.01 0.02 0.03 0.05 0.07 0.08 0.07 0.06 0.05 0.04 0.02 0.01 0.01 0.00 0.00 0.00 0.00 0.00 0.00 0.00 0.00 0.00 0.00 0.00 0.00 0.00 0.00 0.00 0.00 0.00 0.00 0.00 0.00 0.00 0.00 0.00
0.00 0.00 0.01 0.01 0.01 0.01 0.00 0.01 0.02 0.03 0.06 0.06 0.05 0.05 0.05 0.04 0.03 0.02 0.01 0.01 0.01 0.01 0.01 0.01 0.01 0.01 0.01 0.01 0.02 0.02 0.02 0.02 0.02 0.01 0.01 0.00 0.00 0.00 0.00 0.00 0.00 0.00 0.00
0.01 0.01 0.01 0.01 0.02 0.02 0.03 0.05 0.06 0.07 0.08 0.06 0.04 0.05 0.04 0.03 0.03 0.02 0.02 0.02 0.01 0.01 0.02 0.03 0.03 0.02 0.02 0.03 0.04 0.04 0.03 0.03 0.02 0.02 0.01 0.01 0.00 0.00 0.00 0.00 0.00 0.00 0.00
0.01 0.01 0.02 0.02 0.03 0.04 0.06 0.09 0.10 0.11 0.09 0.05 0.05 0.05 0.06 0.04 0.04 0.04 0.03 0.03 0.03 0.03 0.05 0.05 0.04 0.04 0.05 0.05 0.05 0.05 0.03 0.03 0.03 0.02 0.02 0.02 0.02 0.02 0.01 0.01 0.01 0.01 0.01
0.01 0.01 0.02 0.03 0.04 0.04 0.05 0.06 0.08 0.08 0.07 0.07 0.07 0.07 0.09 0.08 0.07 0.06 0.05 0.06 0.06 0.08 0.08 0.07 0.07 0.07 0.07 0.08 0.08 0.06 0.05 0.04 0.03 0.03 0.03 0.03 0.03 0.03 0.03 0.02 0.02 0.02 0.01
0.01 0.02 0.03 0.03 0.04 0.05 0.06 0.07 0.08 0.08 0.08 0.09 0.10 0.11 0.12 0.12 0.10 0.10 0.08 0.07 0.07 0.08 0.08 0.09 0.09 0.09 0.10 0.11 0.09 0.08 0.07 0.07 0.06 0.06 0.05 0.05 0.05 0.04 0.04 0.03 0.03 0.03 0.02
0.03 0.04 0.05 0.05 0.05 0.05 0.05 0.08 0.10 0.11 0.12 0.13 0.14 0.13 0.14 0.13 0.11 0.11 0.09 0.09 0.09 0.09 0.11 0.13 0.13 0.12 0.12 0.12 0.10 0.09 0.08 0.08 0.07 0.07 0.07 0.06 0.05 0.05 0.04 0.03 0.03 0.03 0.03
0.03 0.03 0.05 0.06 0.05 0.05 0.06 0.07 0.08 0.10 0.11 0.12 0.12 0.11 0.10 0.11 0.10 0.08 0.08 0.08 0.09 0.11 0.14 0.14 0.14 0.13 0.11 0.10 0.10 0.10 0.09 0.08 0.08 0.08 0.07 0.06 0.06 0.05 0.04 0.02 0.02 0.01 0.01
0.04 0.03 0.03 0.04 0.05 0.06 0.06 0.08 0.09 0.11 0.12 0.13 0.11 0.07 0.06 0.07 0.07 0.06 0.07 0.07 0.06 0.06 0.06 0.05 0.07 0.08 0.10 0.11 0.12 0.12 0.09 0.08 0.09 0.08 0.07 0.06 0.06 0.05 0.04 0.02 0.01 0.01 0.01
0.04 0.03 0.03 0.03 0.04 0.04 0.05 0.06 0.07 0.08 0.08 0.06 0.04 0.03 0.03 0.04 0.05 0.06 0.05 0.04 0.03 0.03 0.03 0.04 0.04 0.04 0.03 0.04 0.04 0.05 0.05 0.05 0.06 0.07 0.07 0.06 0.06 0.05 0.04 0.03 0.02 0.01 0.01
0.04 0.03 0.03 0.02 0.03 0.03 0.02 0.03 0.04 0.04 0.03 0.02 0.02 0.02 0.02 0.02 0.01 0.02 0.02 0.02 0.02 0.02 0.02 0.02 0.02 0.02 0.02 0.02 0.02 0.01 0.01 0.01 0.02 0.02 0.03 0.03 0.03 0.03 0.03 0.02 0.02 0.01 0.01
0.04 0.05 0.04 0.03 0.03 0.03 0.04 0.03 0.02 0.02 0.02 0.01 0.01 0.01 0.01 0.01 0.00 0.00 0.01 0.01 0.01 0.01 0.01 0.02 0.02 0.02 0.01 0.01 0.01 0.00 0.00 0.00 0.00 0.00 0.00 0.01 0.01 0.01 0.01 0.00 0.00 0.00 0.00
0.04 0.04 0.04 0.04 0.03 0.03 0.03 0.03 0.02 0.01 0.02 0.02 0.01 0.01 0.01 0.00 0.00 0.00 0.00 0.00 0.00 0.00 0.00 0.00 0.00 0.00 0.00 0.00 0.00 0.00 0.00 0.00 0.00 0.00 0.00 0.00 0.00 0.00 0.00 0.00 0.00 0.00 0.00
0.03 0.03 0.03 0.03 0.02 0.01 0.01 0.01 0.01 0.01 0.00 0.00 0.00 0.00 0.00 0.00 0.00 0.00 0.00 0.00 0.00 0.00 0.00 0.00 0.00 0.00 0.00 0.00 0.00 0.00 0.00 0.00 0.00 0.00 0.00 0.00 0.00 0.00 0.00 0.00 0.00 0.00 0.00
0.02 0.01 0.01 0.01 0.00 0.00 0.00 0.00 0.00 0.00 0.00 0.00 0.00 0.00 0.00 0.00 0.00 0.00 0.00 0.00 0.00 0.00 0.00 0.00 0.00 0.00 0.00 0.00 0.00 0.00 0.00 0.00 0.00 0.00 0.00 0.00 0.00 0.00 0.00 0.00 0.00 0.00 0.00

GEFSMW_prec_meanprec_102.txt.gz
QPF
0.03 0.05 0.06 0.07 0.10 0.11 0.11 0.12 0.12 0.12 0.12 0.11 0.12 0.11 0.09 0.08 0.09 0.07 0.06 0.06 0.06 0.04 0.04 0.04 0.03 0.03 0.03 0.03 0.02 0.02 0.02 0.01 0.01 0.02 0.02 0.02 0.01 0.02 0.02 0.02 0.03 0.03 0.02
0.01 0.02 0.05 0.05 0.06 0.08 0.09 0.11 0.12 0.11 0.12 0.11 0.13 0.12 0.10 0.09 0.08 0.07 0.06 0.05 0.04 0.03 0.02 0.03 0.03 0.03 0.02 0.02 0.02 0.02 0.02 0.01 0.00 0.01 0.02 0.02 0.01 0.01 0.01 0.01 0.01 0.02 0.02
0.01 0.02 0.03 0.03 0.04 0.06 0.07 0.09 0.11 0.12 0.12 0.11 0.12 0.13 0.10 0.07 0.06 0.06 0.06 0.04 0.02 0.02 0.02 0.02 0.02 0.02 0.02 0.02 0.02 0.01 0.01 0.01 0.00 0.00 0.01 0.01 0.01 0.01 0.01 0.01 0.00 0.00 0.01
0.01 0.02 0.03 0.03 0.04 0.05 0.07 0.11 0.11 0.12 0.11 0.09 0.10 0.10 0.08 0.06 0.06 0.06 0.05 0.04 0.02 0.01 0.01 0.01 0.01 0.01 0.01 0.01 0.01 0.00 0.00 0.00 0.00 0.00 0.00 0.01 0.01 0.01 0.01 0.01 0.00 0.00 0.00
0.01 0.01 0.02 0.04 0.07 0.06 0.08 0.12 0.12 0.10 0.08 0.08 0.09 0.11 0.08 0.08 0.08 0.06 0.05 0.04 0.02 0.01 0.01 0.01 0.01 0.01 0.01 0.00 0.00 0.00 0.00 0.00 0.00 0.00 0.00 0.00 0.00 0.00 0.00 0.00 0.00 0.00 0.00
0.00 0.01 0.01 0.04 0.06 0.07 0.11 0.13 0.11 0.09 0.08 0.07 0.08 0.10 0.09 0.09 0.08 0.07 0.05 0.04 0.02 0.01 0.01 0.01 0.01 0.00 0.00 0.00 0.00 0.00 0.00 0.00 0.00 0.00 0.00 0.00 0.00 0.00 0.00 0.00 0.00 0.00 0.00
0.00 0.01 0.01 0.02 0.03 0.05 0.09 0.10 0.10 0.09 0.08 0.08 0.08 0.08 0.08 0.08 0.07 0.06 0.05 0.03 0.02 0.01 0.00 0.01 0.01 0.00 0.00 0.00 0.00 0.00 0.00 0.00 0.00 0.00 0.00 0.00 0.00 0.00 0.00 0.00 0.00 0.00 0.00
0.01 0.01 0.01 0.01 0.02 0.03 0.06 0.07 0.08 0.08 0.07 0.08 0.07 0.08 0.08 0.07 0.06 0.05 0.03 0.02 0.02 0.01 0.01 0.01 0.00 0.00 0.00 0.00 0.00 0.00 0.00 0.00 0.00 0.00 0.00 0.00 0.00 0.00 0.00 0.00 0.00 0.01 0.01
0.00 0.01 0.01 0.01 0.02 0.02 0.03 0.05 0.07 0.08 0.07 0.08 0.07 0.07 0.07 0.07 0.07 0.04 0.03 0.01 0.01 0.01 0.01 0.01 0.01 0.01 0.01 0.01 0.01 0.01 0.01 0.01 0.01 0.00 0.00 0.00 0.00 0.00 0.00 0.00 0.00 0.00 0.00
0.00 0.00 0.01 0.01 0.01 0.01 0.02 0.05 0.09 0.12 0.09 0.08 0.08 0.07 0.08 0.08 0.07 0.04 0.03 0.02 0.01 0.01 0.01 0.01 0.00 0.00 0.00 0.01 0.01 0.01 0.00 0.00 0.00 0.00 0.00 0.00 0.00 0.00 0.00 0.00 0.00 0.00 0.00
0.00 0.00 0.00 0.01 0.01 0.01 0.01 0.02 0.05 0.08 0.08 0.09 0.09 0.08 0.09 0.07 0.06 0.04 0.03 0.02 0.02 0.01 0.01 0.01 0.01 0.01 0.01 0.01 0.01 0.01 0.00 0.00 0.00 0.00 0.00 0.00 0.00 0.00 0.01 0.01 0.01 0.00 0.00
0.00 0.00 0.00 0.00 0.00 0.00 0.01 0.01 0.02 0.04 0.07 0.07 0.06 0.07 0.08 0.07 0.06 0.05 0.03 0.02 0.02 0.01 0.01 0.01 0.01 0.01 0.02 0.02 0.02 0.01 0.01 0.01 0.01 0.01 0.00 0.00 0.00 0.00 0.00 0.00 0.01 0.01 0.01
0.00 0.00 0.00 0.00 0.00 0.00 0.01 0.01 0.01 0.03 0.05 0.06 0.04 0.04 0.08 0.08 0.07 0.04 0.03 0.03 0.02 0.02 0.02 0.02 0.02 0.02 0.02 0.02 0.01 0.01 0.01 0.01 0.02 0.02 0.01 0.01 0.00 0.00 0.00 0.00 0.00 0.00 0.00
0.00 0.00 0.00 0.00 0.00 0.00 0.01 0.01 0.01 0.02 0.03 0.05 0.05 0.05 0.08 0.09 0.07 0.04 0.04 0.03 0.03 0.03 0.02 0.02 0.03 0.03 0.02 0.02 0.02 0.02 0.02 0.03 0.03 0.03 0.03 0.02 0.01 0.01 0.01 0.01 0.01 0.01 0.01
0.00 0.00 0.00 0.01 0.01 0.01 0.01 0.01 0.02 0.02 0.03 0.04 0.04 0.05 0.06 0.08 0.06 0.04 0.05 0.05 0.04 0.04 0.04 0.04 0.03 0.03 0.03 0.03 0.03 0.03 0.03 0.03 0.04 0.03 0.03 0.02 0.02 0.02 0.02 0.02 0.02 0.02 0.02
0.00 0.00 0.00 0.01 0.01 0.01 0.01 0.02 0.03 0.03 0.03 0.04 0.03 0.04 0.05 0.06 0.06 0.06 0.06 0.05 0.05 0.05 0.05 0.04 0.04 0.03 0.03 0.03 0.04 0.04 0.04 0.04 0.04 0.04 0.04 0.04 0.04 0.05 0.05 0.05 0.05 0.04 0.04
0.00 0.00 0.00 0.00 0.01 0.01 0.01 0.02 0.02 0.02 0.03 0.03 0.04 0.04 0.04 0.05 0.06 0.06 0.06 0.05 0.04 0.04 0.03 0.03 0.03 0.03 0.04 0.03 0.03 0.03 0.03 0.03 0.04 0.05 0.05 0.05 0.05 0.05 0.04 0.04 0.04 0.04 0.04
0.00 0.00 0.01 0.01 0.01 0.01 0.01 0.02 0.02 0.03 0.03 0.04 0.04 0.04 0.05 0.05 0.05 0.05 0.04 0.03 0.03 0.03 0.03 0.02 0.02 0.02 0.04 0.04 0.04 0.04 0.03 0.03 0.04 0.04 0.04 0.04 0.04 0.04 0.04 0.04 0.03 0.03 0.03
0.01 0.01 0.01 0.02 0.01 0.01 0.02 0.03 0.03 0.03 0.03 0.03 0.03 0.03 0.03 0.03 0.03 0.03 0.03 0.03 0.02 0.03 0.03 0.02 0.02 0.02 0.03 0.03 0.03 0.03 0.02 0.03 0.04 0.04 0.05 0.04 0.03 0.04 0.05 0.05 0.04 0.04 0.04
0.01 0.01 0.01 0.01 0.02 0.02 0.02 0.03 0.03 0.03 0.04 0.04 0.04 0.04 0.03 0.03 0.03 0.02 0.02 0.02 0.02 0.02 0.02 0.02 0.02 0.02 0.02 0.02 0.01 0.01 0.01 0.02 0.03 0.03 0.03 0.03 0.03 0.03 0.04 0.05 0.05 0.05 0.05
0.02 0.02 0.01 0.02 0.02 0.02 0.03 0.03 0.04 0.04 0.05 0.05 0.04 0.03 0.03 0.03 0.03 0.02 0.02 0.01 0.02 0.02 0.03 0.03 0.02 0.01 0.01 0.01 0.01 0.01 0.01 0.02 0.02 0.02 0.02 0.02 0.02 0.02 0.02 0.03 0.04 0.04 0.04
0.03 0.02 0.02 0.02 0.02 0.02 0.02 0.03 0.04 0.04 0.04 0.03 0.03 0.03 0.02 0.02 0.02 0.02 0.01 0.01 0.01 0.01 0.01 0.01 0.01 0.01 0.01 0.01 0.01 0.00 0.00 0.00 0.00 0.01 0.01 0.01 0.01 0.01 0.01 0.01 0.02 0.02 0.01
0.03 0.03 0.02 0.02 0.02 0.03 0.03 0.03 0.03 0.02 0.02 0.02 0.02 0.01 0.01 0.01 0.01 0.01 0.01 0.01 0.01 0.00 0.01 0.01 0.01 0.01 0.01 0.00 0.00 0.00 0.00 0.00 0.00 0.00 0.00 0.00 0.00 0.00 0.00 0.00 0.00 0.00 0.00
0.04 0.04 0.05 0.05 0.05 0.04 0.03 0.03 0.02 0.01 0.01 0.01 0.01 0.01 0.01 0.01 0.00 0.00 0.00 0.00 0.00 0.00 0.00 0.01 0.01 0.01 0.00 0.00 0.00 0.00 0.00 0.00 0.00 0.00 0.00 0.00 0.00 0.00 0.00 0.00 0.00 0.00 0.00
0.04 0.04 0.05 0.06 0.06 0.05 0.03 0.02 0.01 0.01 0.01 0.01 0.01 0.00 0.00 0.00 0.00 0.00 0.00 0.00 0.00 0.00 0.00 0.00 0.00 0.00 0.00 0.00 0.00 0.00 0.00 0.00 0.00 0.00 0.00 0.00 0.00 0.00 0.00 0.00 0.00 0.00 0.00
0.05 0.05 0.05 0.06 0.06 0.04 0.02 0.01 0.01 0.01 0.01 0.00 0.00 0.00 0.00 0.00 0.00 0.00 0.00 0.00 0.00 0.00 0.00 0.00 0.00 0.00 0.00 0.00 0.00 0.00 0.00 0.00 0.00 0.00 0.00 0.00 0.00 0.00 0.00 0.00 0.00 0.00 0.00

GEFSMW_prec_meanprec_108.txt.gz
QPF
0.03 0.03 0.04 0.05 0.10 0.14 0.16 0.19 0.25 0.25 0.20 0.18 0.15 0.14 0.14 0.11 0.08 0.07 0.06 0.04 0.03 0.04 0.04 0.02 0.03 0.03 0.05 0.04 0.04 0.04 0.04 0.02 0.01 0.01 0.03 0.03 0.02 0.01 0.01 0.01 0.02 0.01 0.03
0.02 0.03 0.03 0.05 0.09 0.12 0.13 0.14 0.17 0.20 0.16 0.15 0.15 0.14 0.13 0.09 0.07 0.05 0.05 0.03 0.03 0.04 0.02 0.02 0.02 0.02 0.03 0.04 0.05 0.05 0.06 0.04 0.02 0.02 0.04 0.04 0.03 0.02 0.01 0.01 0.01 0.01 0.02
0.02 0.03 0.03 0.05 0.10 0.14 0.14 0.14 0.15 0.17 0.17 0.18 0.16 0.14 0.13 0.10 0.08 0.06 0.04 0.03 0.03 0.02 0.01 0.01 0.01 0.02 0.02 0.03 0.04 0.04 0.05 0.04 0.03 0.01 0.02 0.04 0.04 0.04 0.02 0.01 0.01 0.01 0.01
0.01 0.02 0.02 0.04 0.06 0.10 0.14 0.15 0.14 0.17 0.17 0.15 0.12 0.09 0.08 0.08 0.06 0.05 0.04 0.05 0.02 0.02 0.01 0.01 0.01 0.02 0.02 0.03 0.02 0.03 0.03 0.03 0.02 0.01 0.01 0.01 0.02 0.03 0.04 0.02 0.01 0.01 0.01
0.00 0.01 0.01 0.02 0.05 0.08 0.11 0.14 0.16 0.18 0.18 0.16 0.14 0.13 0.10 0.09 0.08 0.08 0.07 0.07 0.04 0.02 0.02 0.01 0.02 0.02 0.02 0.03 0.02 0.02 0.02 0.01 0.01 0.01 0.00 0.00 0.00 0.01 0.01 0.02 0.01 0.00 0.00
0.00 0.01 0.02 0.03 0.05 0.06 0.10 0.13 0.17 0.18 0.18 0.16 0.14 0.13 0.12 0.12 0.11 0.10 0.08 0.07 0.04 0.03 0.02 0.02 0.02 0.01 0.02 0.03 0.02 0.01 0.02 0.02 0.01 0.01 0.00 0.00 0.01 0.00 0.00 0.00 0.00 0.00 0.00
0.01 0.02 0.03 0.03 0.04 0.05 0.08 0.11 0.14 0.17 0.17 0.14 0.11 0.11 0.12 0.10 0.09 0.09 0.06 0.06 0.04 0.03 0.02 0.03 0.02 0.02 0.02 0.02 0.02 0.02 0.02 0.01 0.01 0.01 0.01 0.00 0.00 0.00 0.00 0.00 0.00 0.00 0.00
0.01 0.03 0.03 0.02 0.03 0.05 0.07 0.10 0.13 0.16 0.18 0.14 0.13 0.10 0.08 0.08 0.09 0.09 0.06 0.05 0.03 0.02 0.02 0.02 0.02 0.02 0.02 0.01 0.01 0.01 0.01 0.02 0.02 0.01 0.01 0.01 0.00 0.00 0.00 0.01 0.01 0.01 0.01
0.00 0.02 0.03 0.02 0.02 0.04 0.05 0.08 0.10 0.14 0.16 0.15 0.12 0.09 0.06 0.07 0.10 0.09 0.06 0.04 0.03 0.03 0.02 0.01 0.01 0.01 0.01 0.01 0.01 0.01 0.01 0.01 0.01 0.01 0.01 0.01 0.01 0.01 0.01 0.01 0.01 0.02 0.02
0.00 0.01 0.02 0.02 0.02 0.03 0.04 0.06 0.07 0.09 0.12 0.15 0.12 0.09 0.10 0.07 0.09 0.09 0.08 0.07 0.06 0.05 0.04 0.02 0.02 0.03 0.02 0.02 0.02 0.02 0.01 0.01 0.01 0.01 0.01 0.01 0.01 0.01 0.01 0.01 0.01 0.02 0.02
0.00 0.00 0.00 0.01 0.02 0.02 0.03 0.04 0.04 0.05 0.07 0.09 0.10 0.11 0.10 0.08 0.08 0.09 0.07 0.07 0.07 0.07 0.05 0.04 0.03 0.03 0.04 0.03 0.04 0.03 0.01 0.01 0.01 0.01 0.01 0.01 0.01 0.01 0.01 0.01 0.01 0.01 0.01
0.00 0.00 0.00 0.00 0.01 0.02 0.02 0.02 0.03 0.03 0.05 0.06 0.07 0.08 0.11 0.11 0.09 0.08 0.06 0.06 0.07 0.07 0.05 0.04 0.04 0.03 0.03 0.04 0.04 0.02 0.02 0.02 0.02 0.02 0.03 0.03 0.03 0.02 0.02 0.02 0.01 0.01 0.01
0.00 0.00 0.00 0.00 0.01 0.01 0.02 0.02 0.02 0.03 0.04 0.04 0.05 0.07 0.11 0.11 0.10 0.08 0.06 0.06 0.06 0.05 0.04 0.04 0.05 0.05 0.04 0.04 0.03 0.03 0.04 0.04 0.05 0.06 0.06 0.05 0.05 0.04 0.04 0.03 0.03 0.02 0.02
0.00 0.00 0.00 0.00 0.01 0.02 0.02 0.03 0.03 0.03 0.03 0.05 0.06 0.06 0.08 0.10 0.10 0.07 0.05 0.05 0.05 0.05 0.05 0.06 0.07 0.06 0.05 0.05 0.06 0.07 0.08 0.09 0.09 0.09 0.07 0.08 0.08 0.07 0.07 0.07 0.06 0.05 0.04
0.00 0.00 0.00 0.00 0.01 0.01 0.02 0.02 0.03 0.03 0.05 0.08 0.08 0.08 0.08 0.07 0.07 0.07 0.07 0.07 0.06 0.06 0.08 0.09 0.09 0.08 0.07 0.06 0.07 0.08 0.10 0.14 0.12 0.11 0.10 0.11 0.09 0.07 0.07 0.07 0.07 0.06 0.06
0.00 0.00 0.00 0.01 0.01 0.01 0.01 0.02 0.03 0.04 0.06 0.07 0.09 0.10 0.10 0.10 0.10 0.09 0.08 0.08 0.08 0.10 0.11 0.11 0.10 0.11 0.07 0.05 0.04 0.05 0.07 0.10 0.10 0.11 0.11 0.09 0.07 0.05 0.04 0.03 0.03 0.03 0.04
0.00 0.00 0.01 0.01 0.01 0.01 0.02 0.02 0.02 0.05 0.07 0.09 0.11 0.11 0.11 0.11 0.09 0.10 0.10 0.11 0.12 0.12 0.12 0.11 0.10 0.09 0.06 0.03 0.01 0.01 0.02 0.04 0.05 0.06 0.06 0.06 0.05 0.04 0.04 0.05 0.03 0.02 0.02
0.02 0.02 0.04 0.03 0.03 0.02 0.03 0.03 0.04 0.06 0.07 0.08 0.10 0.12 0.12 0.12 0.12 0.12 0.12 0.11 0.11 0.11 0.10 0.08 0.08 0.07 0.05 0.03 0.03 0.02 0.02 0.02 0.02 0.02 0.02 0.03 0.03 0.03 0.04 0.04 0.04 0.04 0.04
0.03 0.04 0.05 0.03 0.04 0.04 0.04 0.05 0.06 0.09 0.10 0.11 0.12 0.12 0.13 0.15 0.14 0.13 0.11 0.10 0.10 0.09 0.08 0.07 0.06 0.06 0.06 0.04 0.03 0.01 0.01 0.02 0.02 0.02 0.02 0.02 0.02 0.03 0.02 0.02 0.03 0.04 0.03
0.04 0.04 0.04 0.04 0.06 0.07 0.06 0.06 0.08 0.11 0.13 0.14 0.15 0.15 0.16 0.16 0.14 0.12 0.11 0.11 0.11 0.09 0.08 0.07 0.06 0.05 0.05 0.03 0.01 0.01 0.01 0.02 0.02 0.02 0.02 0.02 0.01 0.01 0.01 0.01 0.01 0.01 0.01
0.03 0.04 0.05 0.06 0.09 0.09 0.08 0.10 0.10 0.10 0.12 0.14 0.14 0.13 0.12 0.11 0.10 0.09 0.08 0.08 0.07 0.05 0.05 0.05 0.05 0.03 0.02 0.01 0.00 0.00 0.01 0.01 0.01 0.01 0.01 0.00 0.00 0.00 0.00 0.00 0.00 0.00 0.00
0.04 0.03 0.04 0.05 0.08 0.08 0.07 0.07 0.08 0.09 0.10 0.09 0.09 0.10 0.11 0.10 0.09 0.08 0.07 0.06 0.05 0.04 0.04 0.04 0.03 0.03 0.02 0.01 0.00 0.00 0.00 0.00 0.00 0.01 0.00 0.00 0.00 0.00 0.00 0.00 0.00 0.00 0.00
0.06 0.06 0.05 0.05 0.05 0.05 0.05 0.04 0.05 0.05 0.06 0.08 0.08 0.07 0.07 0.06 0.06 0.06 0.05 0.05 0.04 0.03 0.03 0.02 0.02 0.02 0.01 0.00 0.00 0.00 0.00 0.00 0.00 0.00 0.00 0.00 0.00 0.00 0.00 0.00 0.00 0.00 0.00
0.07 0.08 0.07 0.06 0.06 0.06 0.06 0.05 0.04 0.04 0.05 0.06 0.06 0.05 0.04 0.03 0.02 0.02 0.02 0.01 0.01 0.01 0.01 0.01 0.01 0.01 0.01 0.00 0.00 0.00 0.00 0.00 0.00 0.00 0.00 0.00 0.00 0.00 0.00 0.00 0.00 0.00 0.00
0.04 0.05 0.07 0.07 0.06 0.07 0.07 0.07 0.07 0.06 0.05 0.05 0.05 0.03 0.03 0.02 0.02 0.01 0.01 0.01 0.01 0.01 0.01 0.01 0.01 0.01 0.01 0.01 0.00 0.00 0.00 0.00 0.00 0.00 0.00 0.00 0.00 0.00 0.00 0.00 0.00 0.00 0.00
0.03 0.04 0.04 0.05 0.06 0.06 0.06 0.05 0.04 0.03 0.03 0.02 0.02 0.01 0.01 0.02 0.02 0.02 0.02 0.02 0.01 0.01 0.01 0.01 0.01 0.00 0.00 0.00 0.00 0.00 0.00 0.00 0.00 0.00 0.00 0.00 0.00 0.00 0.00 0.00 0.00 0.00 0.00

GEFSMW_prec_meanprec_114.txt.gz
QPF
0.04 0.06 0.06 0.07 0.10 0.15 0.24 0.23 0.21 0.20 0.18 0.15 0.13 0.13 0.15 0.16 0.08 0.06 0.05 0.04 0.04 0.04 0.04 0.02 0.02 0.01 0.01 0.01 0.01 0.01 0.02 0.02 0.02 0.02 0.03 0.02 0.01 0.01 0.01 0.01 0.01 0.02 0.02
0.05 0.07 0.08 0.09 0.12 0.16 0.21 0.21 0.17 0.17 0.16 0.11 0.09 0.09 0.14 0.13 0.08 0.06 0.05 0.03 0.03 0.03 0.04 0.03 0.02 0.01 0.01 0.03 0.01 0.02 0.01 0.02 0.02 0.02 0.02 0.01 0.01 0.01 0.01 0.01 0.01 0.01 0.02
0.06 0.07 0.08 0.08 0.09 0.14 0.16 0.15 0.15 0.13 0.13 0.12 0.11 0.11 0.16 0.15 0.11 0.09 0.05 0.03 0.03 0.02 0.03 0.02 0.01 0.01 0.02 0.03 0.01 0.01 0.00 0.01 0.02 0.01 0.01 0.01 0.01 0.01 0.01 0.02 0.02 0.01 0.01
0.06 0.07 0.09 0.07 0.05 0.07 0.11 0.14 0.14 0.11 0.11 0.12 0.11 0.09 0.10 0.09 0.07 0.06 0.05 0.03 0.03 0.02 0.02 0.02 0.01 0.01 0.01 0.02 0.01 0.00 0.00 0.00 0.01 0.01 0.01 0.00 0.00 0.01 0.01 0.01 0.01 0.01 0.00
0.05 0.05 0.06 0.05 0.03 0.04 0.09 0.11 0.12 0.12 0.10 0.10 0.10 0.09 0.09 0.08 0.08 0.08 0.08 0.06 0.05 0.04 0.02 0.02 0.01 0.01 0.01 0.01 0.01 0.01 0.00 0.00 0.00 0.01 0.01 0.01 0.00 0.00 0.00 0.00 0.00 0.00 0.00
0.05 0.05 0.05 0.04 0.04 0.05 0.08 0.09 0.10 0.12 0.12 0.11 0.10 0.10 0.10 0.09 0.08 0.08 0.09 0.08 0.09 0.08 0.04 0.02 0.01 0.01 0.00 0.01 0.01 0.01 0.01 0.01 0.00 0.00 0.00 0.01 0.01 0.00 0.00 0.00 0.00 0.00 0.00
0.05 0.06 0.06 0.04 0.02 0.04 0.05 0.05 0.07 0.09 0.11 0.12 0.10 0.09 0.08 0.07 0.06 0.05 0.07 0.08 0.09 0.08 0.05 0.02 0.01 0.01 0.01 0.01 0.01 0.01 0.01 0.01 0.01 0.00 0.00 0.00 0.00 0.00 0.00 0.00 0.00 0.00 0.00
0.04 0.05 0.03 0.02 0.02 0.02 0.03 0.03 0.06 0.08 0.11 0.13 0.12 0.10 0.08 0.07 0.05 0.06 0.06 0.06 0.08 0.08 0.06 0.04 0.02 0.01 0.01 0.01 0.01 0.02 0.02 0.02 0.01 0.00 0.00 0.00 0.00 0.00 0.00 0.00 0.00 0.00 0.00
0.03 0.03 0.04 0.04 0.02 0.02 0.03 0.04 0.04 0.07 0.09 0.11 0.13 0.11 0.07 0.05 0.05 0.06 0.07 0.07 0.08 0.07 0.07 0.06 0.04 0.03 0.02 0.01 0.01 0.01 0.01 0.00 0.00 0.00 0.00 0.01 0.01 0.00 0.00 0.00 0.00 0.00 0.00
0.03 0.02 0.03 0.04 0.03 0.02 0.02 0.04 0.05 0.09 0.08 0.08 0.11 0.11 0.09 0.06 0.05 0.05 0.06 0.06 0.06 0.06 0.06 0.05 0.05 0.05 0.05 0.04 0.03 0.02 0.01 0.01 0.00 0.00 0.01 0.01 0.01 0.01 0.01 0.01 0.00 0.01 0.00
0.03 0.02 0.02 0.03 0.03 0.04 0.03 0.04 0.06 0.09 0.09 0.07 0.09 0.09 0.08 0.06 0.06 0.06 0.06 0.05 0.05 0.06 0.07 0.06 0.06 0.05 0.04 0.05 0.04 0.02 0.02 0.01 0.01 0.01 0.01 0.01 0.01 0.01 0.02 0.02 0.01 0.01 0.01
0.04 0.03 0.02 0.01 0.03 0.04 0.04 0.04 0.04 0.04 0.05 0.06 0.07 0.09 0.08 0.06 0.06 0.07 0.08 0.07 0.06 0.08 0.09 0.09 0.07 0.05 0.03 0.04 0.05 0.04 0.02 0.01 0.01 0.01 0.01 0.01 0.01 0.02 0.03 0.02 0.02 0.01 0.01
0.05 0.04 0.02 0.01 0.01 0.02 0.04 0.05 0.04 0.02 0.03 0.04 0.05 0.07 0.08 0.08 0.08 0.09 0.10 0.10 0.09 0.10 0.09 0.07 0.07 0.06 0.04 0.04 0.04 0.03 0.02 0.02 0.03 0.03 0.04 0.03 0.02 0.03 0.03 0.03 0.02 0.01 0.01
0.03 0.04 0.04 0.03 0.02 0.02 0.03 0.03 0.04 0.02 0.02 0.03 0.04 0.05 0.06 0.09 0.10 0.11 0.12 0.11 0.09 0.09 0.09 0.08 0.08 0.08 0.06 0.04 0.03 0.04 0.03 0.03 0.04 0.05 0.05 0.05 0.04 0.04 0.04 0.03 0.03 0.03 0.02
0.04 0.04 0.05 0.07 0.05 0.05 0.04 0.03 0.03 0.04 0.04 0.04 0.06 0.07 0.08 0.10 0.13 0.14 0.15 0.13 0.11 0.10 0.11 0.12 0.11 0.08 0.06 0.05 0.05 0.06 0.05 0.05 0.05 0.05 0.05 0.05 0.05 0.04 0.04 0.04 0.04 0.03 0.03
0.07 0.08 0.09 0.11 0.08 0.05 0.03 0.03 0.03 0.04 0.05 0.07 0.07 0.09 0.12 0.12 0.12 0.12 0.15 0.14 0.11 0.10 0.11 0.11 0.10 0.08 0.07 0.07 0.08 0.07 0.06 0.05 0.05 0.04 0.04 0.04 0.04 0.04 0.05 0.05 0.04 0.03 0.02
0.07 0.07 0.09 0.10 0.08 0.04 0.02 0.02 0.03 0.06 0.08 0.09 0.09 0.10 0.12 0.14 0.13 0.12 0.18 0.17 0.14 0.11 0.12 0.10 0.08 0.07 0.07 0.07 0.06 0.05 0.05 0.05 0.04 0.03 0.03 0.02 0.02 0.02 0.02 0.02 0.03 0.02 0.02
0.14 0.11 0.10 0.14 0.11 0.05 0.03 0.04 0.07 0.09 0.10 0.08 0.07 0.08 0.09 0.12 0.13 0.14 0.18 0.19 0.18 0.17 0.15 0.13 0.10 0.08 0.06 0.05 0.04 0.05 0.05 0.04 0.03 0.02 0.02 0.02 0.01 0.00 0.00 0.00 0.01 0.01 0.01
0.14 0.19 0.19 0.22 0.14 0.09 0.07 0.08 0.09 0.10 0.10 0.08 0.08 0.09 0.11 0.14 0.16 0.18 0.20 0.22 0.22 0.19 0.15 0.12 0.09 0.08 0.06 0.06 0.06 0.05 0.05 0.04 0.02 0.01 0.01 0.01 0.01 0.00 0.00 0.00 0.00 0.00 0.00
0.22 0.27 0.26 0.23 0.17 0.14 0.15 0.12 0.11 0.11 0.11 0.10 0.10 0.12 0.15 0.17 0.19 0.19 0.20 0.21 0.19 0.15 0.11 0.10 0.08 0.06 0.06 0.05 0.04 0.03 0.03 0.02 0.02 0.02 0.02 0.02 0.01 0.01 0.00 0.00 0.00 0.00 0.00
0.33 0.30 0.28 0.27 0.23 0.18 0.16 0.15 0.14 0.13 0.13 0.14 0.16 0.17 0.16 0.17 0.18 0.17 0.15 0.13 0.11 0.10 0.09 0.07 0.07 0.06 0.06 0.06 0.05 0.04 0.04 0.04 0.04 0.03 0.02 0.01 0.01 0.00 0.00 0.00 0.00 0.00 0.00
0.36 0.32 0.24 0.19 0.16 0.16 0.16 0.17 0.17 0.14 0.15 0.17 0.18 0.18 0.15 0.14 0.14 0.15 0.14 0.11 0.10 0.10 0.10 0.10 0.10 0.07 0.05 0.05 0.04 0.03 0.03 0.01 0.01 0.00 0.00 0.00 0.00 0.00 0.00 0.00 0.00 0.00 0.00
0.25 0.22 0.20 0.16 0.16 0.15 0.15 0.16 0.17 0.18 0.17 0.17 0.17 0.15 0.14 0.16 0.16 0.14 0.12 0.10 0.08 0.07 0.07 0.06 0.05 0.04 0.02 0.02 0.02 0.01 0.01 0.01 0.00 0.01 0.01 0.01 0.01 0.00 0.00 0.00 0.00 0.00 0.00
0.19 0.16 0.16 0.14 0.17 0.18 0.19 0.17 0.15 0.14 0.14 0.13 0.13 0.14 0.14 0.14 0.13 0.11 0.09 0.08 0.08 0.07 0.06 0.05 0.04 0.03 0.02 0.02 0.02 0.02 0.02 0.02 0.02 0.02 0.01 0.01 0.01 0.00 0.00 0.00 0.00 0.00 0.00
0.13 0.11 0.11 0.11 0.15 0.18 0.17 0.17 0.15 0.12 0.09 0.08 0.08 0.09 0.07 0.06 0.05 0.04 0.04 0.05 0.06 0.06 0.06 0.05 0.04 0.03 0.03 0.03 0.02 0.01 0.01 0.01 0.01 0.00 0.00 0.00 0.00 0.00 0.00 0.00 0.00 0.00 0.00
0.10 0.10 0.09 0.10 0.12 0.13 0.13 0.13 0.12 0.11 0.10 0.09 0.07 0.05 0.04 0.03 0.03 0.03 0.04 0.04 0.04 0.03 0.02 0.01 0.01 0.01 0.01 0.01 0.01 0.00 0.00 0.00 0.00 0.00 0.00 0.00 0.00 0.00 0.00 0.00 0.00 0.00 0.00

GEFSMW_prec_meanprec_120.txt.gz
QPF
0.04 0.09 0.12 0.14 0.19 0.21 0.23 0.21 0.20 0.19 0.23 0.24 0.21 0.15 0.12 0.11 0.10 0.08 0.07 0.05 0.04 0.05 0.05 0.04 0.03 0.02 0.01 0.02 0.02 0.02 0.02 0.01 0.01 0.02 0.02 0.02 0.01 0.01 0.01 0.02 0.02 0.01 0.01
0.04 0.07 0.11 0.14 0.21 0.24 0.28 0.28 0.25 0.23 0.21 0.18 0.17 0.15 0.13 0.14 0.13 0.09 0.07 0.05 0.04 0.04 0.04 0.04 0.02 0.02 0.03 0.04 0.03 0.02 0.02 0.02 0.01 0.01 0.01 0.01 0.01 0.01 0.01 0.01 0.01 0.01 0.01
0.04 0.06 0.08 0.11 0.20 0.16 0.15 0.20 0.24 0.25 0.22 0.20 0.18 0.20 0.20 0.18 0.14 0.09 0.05 0.05 0.05 0.05 0.04 0.04 0.03 0.02 0.03 0.02 0.01 0.01 0.01 0.01 0.01 0.01 0.00 0.00 0.00 0.00 0.00 0.00 0.01 0.01 0.01
0.04 0.06 0.08 0.08 0.11 0.11 0.10 0.12 0.19 0.21 0.22 0.21 0.17 0.14 0.14 0.12 0.08 0.07 0.06 0.07 0.06 0.05 0.04 0.05 0.03 0.02 0.02 0.01 0.01 0.02 0.01 0.01 0.01 0.00 0.00 0.00 0.00 0.00 0.00 0.00 0.00 0.00 0.00
0.05 0.07 0.08 0.06 0.07 0.08 0.09 0.13 0.15 0.20 0.24 0.21 0.17 0.14 0.13 0.11 0.11 0.11 0.10 0.08 0.07 0.06 0.05 0.05 0.04 0.02 0.02 0.01 0.02 0.02 0.02 0.02 0.01 0.01 0.00 0.00 0.00 0.00 0.00 0.00 0.00 0.00 0.00
0.03 0.05 0.05 0.06 0.07 0.09 0.09 0.13 0.12 0.15 0.22 0.22 0.16 0.14 0.13 0.10 0.10 0.11 0.11 0.09 0.08 0.07 0.07 0.05 0.04 0.03 0.02 0.01 0.02 0.03 0.03 0.03 0.02 0.01 0.01 0.00 0.00 0.00 0.00 0.00 0.00 0.00 0.00
0.03 0.04 0.03 0.05 0.06 0.05 0.07 0.09 0.10 0.14 0.18 0.19 0.15 0.12 0.10 0.07 0.06 0.07 0.08 0.08 0.07 0.06 0.05 0.04 0.04 0.03 0.02 0.01 0.02 0.03 0.02 0.02 0.03 0.02 0.01 0.00 0.00 0.00 0.00 0.00 0.00 0.00 0.00
0.02 0.02 0.03 0.03 0.03 0.03 0.04 0.06 0.08 0.11 0.15 0.14 0.13 0.11 0.08 0.05 0.04 0.04 0.04 0.06 0.06 0.05 0.06 0.06 0.04 0.04 0.03 0.02 0.02 0.03 0.02 0.02 0.02 0.02 0.01 0.00 0.00 0.00 0.00 0.00 0.00 0.00 0.00
0.01 0.01 0.02 0.02 0.02 0.01 0.02 0.03 0.05 0.07 0.12 0.12 0.12 0.11 0.08 0.06 0.04 0.04 0.05 0.05 0.06 0.07 0.07 0.06 0.05 0.03 0.04 0.02 0.02 0.02 0.02 0.01 0.01 0.01 0.01 0.00 0.00 0.00 0.00 0.00 0.00 0.00 0.00
0.01 0.01 0.01 0.02 0.02 0.01 0.01 0.02 0.04 0.06 0.08 0.10 0.09 0.08 0.07 0.07 0.06 0.05 0.05 0.05 0.06 0.06 0.06 0.05 0.04 0.04 0.05 0.04 0.03 0.03 0.02 0.02 0.01 0.01 0.01 0.01 0.01 0.01 0.01 0.01 0.01 0.00 0.00
0.01 0.01 0.02 0.03 0.02 0.02 0.02 0.03 0.04 0.05 0.06 0.07 0.06 0.06 0.07 0.08 0.07 0.06 0.05 0.05 0.06 0.06 0.06 0.05 0.04 0.03 0.03 0.04 0.04 0.03 0.03 0.02 0.02 0.02 0.01 0.01 0.01 0.01 0.01 0.01 0.00 0.00 0.00
0.01 0.01 0.02 0.03 0.03 0.03 0.03 0.02 0.03 0.04 0.04 0.05 0.05 0.05 0.07 0.09 0.07 0.06 0.06 0.06 0.05 0.05 0.06 0.04 0.03 0.03 0.03 0.03 0.04 0.04 0.03 0.03 0.02 0.01 0.01 0.01 0.01 0.01 0.01 0.01 0.00 0.00 0.00
0.01 0.01 0.03 0.04 0.04 0.05 0.03 0.03 0.04 0.06 0.05 0.05 0.06 0.07 0.08 0.08 0.06 0.05 0.07 0.07 0.06 0.06 0.06 0.06 0.05 0.04 0.04 0.04 0.04 0.04 0.03 0.03 0.02 0.01 0.01 0.01 0.00 0.01 0.00 0.00 0.00 0.00 0.01
0.01 0.01 0.03 0.03 0.03 0.03 0.03 0.04 0.06 0.10 0.11 0.10 0.10 0.11 0.12 0.11 0.10 0.09 0.09 0.09 0.09 0.08 0.08 0.07 0.06 0.05 0.06 0.05 0.04 0.04 0.03 0.03 0.02 0.02 0.01 0.01 0.01 0.01 0.01 0.01 0.01 0.01 0.01
0.01 0.01 0.02 0.02 0.02 0.03 0.03 0.02 0.04 0.07 0.12 0.15 0.16 0.16 0.17 0.17 0.13 0.11 0.11 0.12 0.13 0.13 0.11 0.11 0.08 0.08 0.07 0.07 0.06 0.05 0.03 0.03 0.03 0.02 0.02 0.02 0.02 0.01 0.01 0.01 0.01 0.01 0.01
0.02 0.02 0.01 0.02 0.02 0.03 0.03 0.02 0.02 0.03 0.05 0.08 0.08 0.09 0.11 0.14 0.10 0.09 0.09 0.10 0.11 0.12 0.12 0.13 0.12 0.10 0.10 0.10 0.09 0.07 0.06 0.05 0.04 0.03 0.03 0.03 0.02 0.02 0.02 0.02 0.01 0.01 0.01
0.01 0.01 0.01 0.02 0.03 0.02 0.02 0.02 0.02 0.03 0.03 0.04 0.05 0.06 0.09 0.13 0.12 0.10 0.08 0.09 0.10 0.09 0.08 0.09 0.09 0.09 0.09 0.09 0.09 0.09 0.08 0.07 0.06 0.05 0.05 0.04 0.03 0.02 0.01 0.01 0.01 0.01 0.01
0.02 0.02 0.02 0.03 0.06 0.04 0.03 0.03 0.04 0.05 0.06 0.07 0.07 0.06 0.07 0.08 0.11 0.12 0.10 0.11 0.14 0.13 0.11 0.08 0.08 0.08 0.08 0.09 0.08 0.09 0.08 0.08 0.07 0.07 0.06 0.05 0.04 0.03 0.02 0.01 0.01 0.00 0.00
0.02 0.03 0.03 0.04 0.07 0.09 0.06 0.08 0.11 0.11 0.10 0.09 0.08 0.10 0.10 0.10 0.11 0.11 0.11 0.10 0.13 0.13 0.10 0.09 0.07 0.08 0.09 0.10 0.09 0.09 0.07 0.06 0.06 0.05 0.04 0.03 0.02 0.02 0.01 0.01 0.01 0.01 0.01
0.04 0.05 0.06 0.06 0.10 0.12 0.11 0.11 0.12 0.13 0.12 0.10 0.10 0.12 0.15 0.14 0.14 0.14 0.13 0.13 0.14 0.13 0.10 0.08 0.07 0.07 0.08 0.09 0.08 0.06 0.05 0.04 0.04 0.03 0.03 0.03 0.03 0.03 0.03 0.03 0.03 0.02 0.02
0.07 0.08 0.09 0.10 0.11 0.11 0.11 0.11 0.11 0.12 0.13 0.14 0.15 0.19 0.21 0.24 0.21 0.20 0.18 0.17 0.17 0.15 0.13 0.10 0.07 0.06 0.06 0.06 0.06 0.06 0.06 0.06 0.06 0.05 0.05 0.04 0.04 0.03 0.02 0.02 0.01 0.01 0.01
0.07 0.10 0.13 0.12 0.11 0.12 0.12 0.12 0.14 0.15 0.16 0.16 0.18 0.23 0.23 0.25 0.28 0.25 0.22 0.18 0.14 0.13 0.11 0.09 0.07 0.06 0.05 0.05 0.05 0.06 0.06 0.05 0.05 0.04 0.03 0.02 0.02 0.02 0.02 0.01 0.01 0.01 0.01
0.06 0.08 0.13 0.15 0.15 0.16 0.16 0.15 0.16 0.17 0.16 0.19 0.22 0.23 0.23 0.22 0.24 0.22 0.20 0.15 0.12 0.11 0.10 0.09 0.09 0.08 0.07 0.07 0.07 0.07 0.07 0.06 0.05 0.05 0.05 0.04 0.04 0.04 0.04 0.03 0.02 0.01 0.00
0.08 0.06 0.08 0.12 0.17 0.19 0.21 0.21 0.18 0.18 0.18 0.20 0.20 0.20 0.23 0.20 0.19 0.19 0.19 0.16 0.13 0.11 0.09 0.09 0.10 0.11 0.11 0.11 0.09 0.08 0.06 0.06 0.04 0.04 0.04 0.03 0.03 0.02 0.01 0.01 0.01 0.00 0.00
0.10 0.10 0.10 0.11 0.14 0.18 0.23 0.25 0.21 0.18 0.19 0.19 0.16 0.15 0.17 0.18 0.17 0.18 0.19 0.18 0.15 0.13 0.12 0.12 0.12 0.12 0.11 0.09 0.07 0.06 0.05 0.04 0.03 0.02 0.01 0.01 0.01 0.01 0.00 0.00 0.00 0.00 0.00
0.09 0.09 0.10 0.11 0.14 0.17 0.22 0.23 0.19 0.17 0.17 0.19 0.16 0.14 0.14 0.15 0.15 0.16 0.17 0.17 0.14 0.12 0.10 0.09 0.08 0.07 0.06 0.05 0.04 0.02 0.02 0.01 0.01 0.01 0.01 0.00 0.00 0.00 0.00 0.00 0.00 0.00 0.00

GEFSMW_prec_meanprec_126.txt.gz
QPF
0.02 0.03 0.04 0.06 0.06 0.07 0.10 0.13 0.12 0.07 0.07 0.07 0.07 0.09 0.10 0.07 0.07 0.07 0.07 0.08 0.08 0.08 0.08 0.06 0.06 0.05 0.05 0.06 0.06 0.05 0.05 0.05 0.04 0.05 0.05 0.03 0.03 0.03 0.03 0.03 0.04 0.03 0.04
0.02 0.05 0.06 0.05 0.05 0.05 0.09 0.14 0.13 0.09 0.08 0.09 0.09 0.09 0.09 0.06 0.07 0.06 0.06 0.06 0.06 0.06 0.06 0.06 0.05 0.05 0.06 0.07 0.06 0.05 0.05 0.04 0.03 0.04 0.05 0.04 0.03 0.02 0.01 0.01 0.02 0.02 0.03
0.01 0.02 0.03 0.03 0.04 0.03 0.04 0.10 0.11 0.10 0.12 0.13 0.11 0.13 0.12 0.10 0.08 0.06 0.06 0.05 0.04 0.04 0.05 0.05 0.06 0.06 0.04 0.06 0.07 0.05 0.04 0.04 0.03 0.03 0.04 0.04 0.03 0.03 0.01 0.01 0.01 0.01 0.02
0.01 0.01 0.02 0.02 0.02 0.03 0.03 0.06 0.10 0.13 0.19 0.17 0.09 0.07 0.08 0.08 0.06 0.06 0.07 0.07 0.06 0.05 0.05 0.05 0.06 0.05 0.04 0.04 0.04 0.03 0.04 0.04 0.04 0.03 0.03 0.02 0.02 0.02 0.03 0.02 0.01 0.01 0.01
0.01 0.01 0.02 0.01 0.02 0.03 0.03 0.05 0.07 0.09 0.12 0.10 0.10 0.10 0.07 0.08 0.09 0.09 0.10 0.09 0.07 0.06 0.04 0.05 0.05 0.05 0.03 0.02 0.02 0.03 0.05 0.04 0.04 0.03 0.03 0.02 0.02 0.02 0.03 0.04 0.02 0.01 0.00
0.01 0.01 0.02 0.01 0.02 0.03 0.03 0.03 0.04 0.06 0.08 0.08 0.08 0.10 0.09 0.09 0.09 0.09 0.10 0.07 0.06 0.06 0.06 0.06 0.06 0.05 0.03 0.03 0.04 0.05 0.05 0.04 0.04 0.04 0.02 0.02 0.02 0.02 0.03 0.03 0.03 0.02 0.01
0.00 0.01 0.02 0.01 0.01 0.03 0.03 0.02 0.02 0.04 0.08 0.10 0.08 0.08 0.10 0.10 0.08 0.09 0.10 0.08 0.06 0.04 0.04 0.05 0.05 0.04 0.02 0.03 0.03 0.05 0.05 0.04 0.04 0.04 0.03 0.02 0.02 0.02 0.01 0.01 0.02 0.02 0.01
0.00 0.01 0.01 0.01 0.01 0.02 0.02 0.03 0.04 0.05 0.09 0.11 0.10 0.07 0.09 0.10 0.09 0.09 0.08 0.06 0.05 0.05 0.05 0.05 0.04 0.03 0.03 0.03 0.04 0.03 0.04 0.03 0.03 0.03 0.03 0.02 0.02 0.01 0.01 0.01 0.02 0.02 0.02
0.00 0.01 0.01 0.01 0.01 0.01 0.02 0.02 0.04 0.05 0.09 0.11 0.11 0.08 0.08 0.08 0.09 0.08 0.07 0.07 0.06 0.05 0.06 0.07 0.06 0.06 0.05 0.05 0.05 0.03 0.03 0.03 0.03 0.02 0.03 0.02 0.02 0.02 0.01 0.01 0.01 0.02 0.02
0.00 0.00 0.00 0.01 0.00 0.01 0.01 0.01 0.02 0.04 0.07 0.08 0.07 0.05 0.07 0.06 0.09 0.10 0.08 0.06 0.05 0.05 0.07 0.07 0.07 0.08 0.07 0.05 0.05 0.04 0.04 0.04 0.04 0.03 0.03 0.02 0.02 0.02 0.02 0.01 0.01 0.01 0.01
0.00 0.00 0.00 0.00 0.00 0.01 0.01 0.01 0.02 0.02 0.03 0.04 0.05 0.04 0.04 0.04 0.05 0.07 0.07 0.05 0.05 0.06 0.06 0.07 0.07 0.08 0.08 0.07 0.06 0.06 0.06 0.05 0.05 0.03 0.03 0.03 0.02 0.03 0.02 0.01 0.01 0.01 0.01
0.00 0.00 0.00 0.00 0.00 0.00 0.01 0.01 0.02 0.03 0.03 0.03 0.04 0.04 0.04 0.04 0.04 0.05 0.06 0.07 0.07 0.07 0.07 0.07 0.07 0.06 0.06 0.07 0.07 0.07 0.06 0.06 0.05 0.04 0.03 0.03 0.03 0.03 0.02 0.02 0.01 0.01 0.01
0.00 0.00 0.00 0.00 0.00 0.01 0.01 0.01 0.01 0.03 0.04 0.03 0.04 0.05 0.05 0.05 0.05 0.05 0.06 0.07 0.07 0.07 0.08 0.08 0.07 0.06 0.06 0.07 0.07 0.07 0.07 0.06 0.05 0.05 0.05 0.04 0.04 0.03 0.03 0.03 0.02 0.02 0.02
0.00 0.00 0.00 0.00 0.00 0.01 0.01 0.01 0.01 0.02 0.05 0.06 0.06 0.07 0.08 0.07 0.08 0.10 0.10 0.10 0.10 0.09 0.10 0.10 0.09 0.09 0.08 0.07 0.07 0.07 0.06 0.05 0.04 0.04 0.04 0.04 0.04 0.05 0.05 0.03 0.03 0.02 0.02
0.00 0.00 0.00 0.00 0.00 0.00 0.00 0.00 0.01 0.01 0.04 0.08 0.10 0.14 0.17 0.18 0.17 0.16 0.15 0.15 0.13 0.11 0.11 0.10 0.11 0.11 0.10 0.10 0.09 0.07 0.06 0.05 0.05 0.05 0.06 0.06 0.05 0.05 0.06 0.04 0.04 0.04 0.03
0.00 0.00 0.00 0.00 0.00 0.00 0.01 0.01 0.01 0.02 0.04 0.06 0.09 0.10 0.13 0.17 0.18 0.15 0.14 0.13 0.11 0.10 0.11 0.11 0.11 0.10 0.08 0.09 0.09 0.08 0.08 0.07 0.08 0.08 0.07 0.06 0.06 0.06 0.05 0.04 0.03 0.03 0.03
0.00 0.00 0.00 0.01 0.01 0.01 0.01 0.01 0.01 0.02 0.03 0.04 0.06 0.05 0.07 0.10 0.15 0.15 0.14 0.15 0.12 0.09 0.08 0.08 0.08 0.07 0.07 0.07 0.07 0.08 0.09 0.10 0.10 0.10 0.08 0.07 0.06 0.06 0.05 0.04 0.03 0.02 0.02
0.00 0.00 0.01 0.01 0.01 0.01 0.01 0.01 0.01 0.01 0.02 0.03 0.04 0.04 0.05 0.07 0.10 0.13 0.14 0.15 0.14 0.11 0.09 0.07 0.07 0.07 0.06 0.06 0.06 0.08 0.08 0.08 0.09 0.09 0.08 0.07 0.06 0.05 0.05 0.04 0.04 0.04 0.04
0.00 0.00 0.01 0.02 0.02 0.02 0.01 0.01 0.01 0.01 0.02 0.03 0.03 0.04 0.05 0.06 0.07 0.08 0.11 0.13 0.11 0.10 0.09 0.08 0.07 0.07 0.08 0.08 0.07 0.06 0.07 0.07 0.06 0.05 0.05 0.04 0.04 0.05 0.05 0.05 0.05 0.05 0.06
0.01 0.01 0.01 0.03 0.04 0.04 0.02 0.01 0.02 0.02 0.02 0.03 0.03 0.05 0.07 0.06 0.06 0.07 0.09 0.09 0.09 0.11 0.10 0.09 0.09 0.08 0.08 0.09 0.08 0.06 0.05 0.04 0.03 0.03 0.03 0.05 0.05 0.06 0.06 0.05 0.04 0.04 0.04
0.02 0.02 0.02 0.03 0.03 0.03 0.03 0.04 0.04 0.03 0.04 0.03 0.03 0.05 0.06 0.07 0.08 0.10 0.12 0.13 0.14 0.16 0.18 0.17 0.16 0.14 0.12 0.10 0.07 0.05 0.04 0.03 0.03 0.02 0.02 0.04 0.05 0.04 0.04 0.03 0.02 0.02 0.01
0.02 0.02 0.02 0.02 0.03 0.03 0.03 0.04 0.04 0.04 0.04 0.03 0.04 0.04 0.05 0.06 0.08 0.12 0.17 0.19 0.18 0.19 0.21 0.20 0.17 0.13 0.10 0.09 0.07 0.05 0.04 0.04 0.04 0.04 0.04 0.04 0.04 0.03 0.02 0.02 0.02 0.02 0.02
0.02 0.03 0.02 0.02 0.02 0.02 0.02 0.03 0.04 0.05 0.06 0.07 0.06 0.07 0.09 0.09 0.10 0.13 0.17 0.18 0.16 0.14 0.12 0.10 0.09 0.09 0.09 0.09 0.09 0.07 0.07 0.06 0.05 0.05 0.04 0.04 0.03 0.03 0.03 0.03 0.03 0.03 0.02
0.03 0.03 0.03 0.02 0.02 0.02 0.03 0.03 0.04 0.06 0.09 0.11 0.13 0.14 0.14 0.14 0.14 0.15 0.15 0.15 0.15 0.12 0.10 0.09 0.09 0.08 0.08 0.09 0.09 0.09 0.07 0.06 0.04 0.04 0.05 0.04 0.03 0.03 0.02 0.02 0.01 0.01 0.01
0.02 0.03 0.03 0.03 0.03 0.03 0.04 0.05 0.06 0.09 0.11 0.11 0.13 0.21 0.24 0.20 0.16 0.16 0.18 0.15 0.15 0.15 0.15 0.14 0.14 0.14 0.14 0.14 0.13 0.11 0.09 0.07 0.06 0.05 0.04 0.03 0.02 0.01 0.01 0.00 0.00 0.00 0.00
0.02 0.02 0.03 0.05 0.07 0.07 0.06 0.06 0.07 0.09 0.10 0.11 0.13 0.15 0.16 0.17 0.19 0.18 0.18 0.21 0.21 0.23 0.22 0.21 0.19 0.18 0.17 0.15 0.11 0.08 0.07 0.05 0.04 0.02 0.02 0.01 0.01 0.00 0.00 0.00 0.00 0.00 0.00

GEFSMW_prec_meanprec_132.txt.gz
QPF
0.00 0.00 0.01 0.01 0.01 0.04 0.06 0.06 0.05 0.07 0.08 0.10 0.10 0.10 0.11 0.12 0.09 0.05 0.05 0.05 0.05 0.06 0.06 0.07 0.07 0.04 0.05 0.05 0.04 0.04 0.05 0.05 0.03 0.06 0.09 0.05 0.02 0.02 0.02 0.02 0.03 0.01 0.01
0.00 0.00 0.01 0.01 0.02 0.03 0.03 0.03 0.04 0.06 0.07 0.10 0.12 0.11 0.12 0.10 0.07 0.06 0.08 0.04 0.04 0.05 0.05 0.07 0.06 0.05 0.07 0.05 0.04 0.05 0.06 0.06 0.03 0.05 0.09 0.08 0.07 0.04 0.01 0.01 0.02 0.02 0.02
0.00 0.01 0.01 0.02 0.02 0.02 0.03 0.03 0.04 0.05 0.07 0.10 0.12 0.14 0.14 0.13 0.10 0.09 0.08 0.06 0.03 0.03 0.04 0.05 0.06 0.06 0.04 0.05 0.04 0.04 0.05 0.06 0.04 0.03 0.07 0.09 0.10 0.08 0.05 0.03 0.01 0.02 0.03
0.01 0.01 0.02 0.02 0.01 0.02 0.03 0.04 0.06 0.06 0.07 0.10 0.10 0.10 0.09 0.10 0.09 0.08 0.08 0.08 0.06 0.04 0.04 0.04 0.04 0.04 0.04 0.07 0.04 0.03 0.04 0.06 0.05 0.04 0.03 0.04 0.06 0.07 0.09 0.06 0.03 0.02 0.01
0.00 0.01 0.01 0.02 0.02 0.01 0.02 0.04 0.07 0.08 0.06 0.08 0.10 0.12 0.12 0.13 0.12 0.10 0.10 0.09 0.09 0.07 0.05 0.05 0.05 0.05 0.05 0.06 0.05 0.05 0.03 0.03 0.03 0.04 0.03 0.03 0.04 0.03 0.05 0.08 0.06 0.04 0.02
0.00 0.01 0.01 0.02 0.02 0.02 0.04 0.06 0.08 0.08 0.08 0.08 0.10 0.10 0.13 0.14 0.12 0.11 0.11 0.10 0.09 0.08 0.07 0.06 0.05 0.04 0.05 0.07 0.06 0.06 0.04 0.04 0.04 0.04 0.03 0.02 0.02 0.03 0.04 0.05 0.05 0.04 0.03
0.01 0.01 0.01 0.01 0.01 0.02 0.04 0.05 0.08 0.08 0.08 0.08 0.10 0.09 0.13 0.15 0.12 0.12 0.11 0.10 0.07 0.06 0.08 0.08 0.07 0.05 0.05 0.06 0.06 0.05 0.06 0.06 0.05 0.05 0.03 0.02 0.02 0.01 0.02 0.03 0.04 0.04 0.04
0.00 0.01 0.01 0.00 0.00 0.01 0.04 0.06 0.09 0.10 0.10 0.09 0.09 0.10 0.13 0.14 0.11 0.12 0.10 0.08 0.05 0.05 0.06 0.09 0.08 0.07 0.07 0.06 0.07 0.06 0.05 0.05 0.04 0.03 0.03 0.03 0.01 0.01 0.02 0.02 0.03 0.04 0.05
0.01 0.01 0.02 0.01 0.00 0.01 0.03 0.06 0.09 0.11 0.11 0.12 0.11 0.10 0.11 0.11 0.11 0.12 0.11 0.08 0.08 0.07 0.09 0.08 0.07 0.09 0.10 0.11 0.10 0.07 0.05 0.05 0.04 0.03 0.03 0.02 0.01 0.01 0.01 0.01 0.01 0.03 0.05
0.00 0.01 0.02 0.02 0.01 0.01 0.02 0.03 0.05 0.09 0.11 0.13 0.13 0.11 0.12 0.11 0.11 0.13 0.12 0.11 0.10 0.10 0.12 0.10 0.08 0.07 0.07 0.10 0.10 0.07 0.07 0.07 0.05 0.04 0.03 0.03 0.02 0.01 0.01 0.01 0.01 0.01 0.02
0.01 0.02 0.02 0.01 0.01 0.01 0.01 0.01 0.02 0.05 0.08 0.09 0.09 0.10 0.13 0.13 0.12 0.12 0.13 0.13 0.11 0.12 0.13 0.11 0.09 0.07 0.06 0.07 0.09 0.11 0.09 0.07 0.06 0.05 0.04 0.04 0.04 0.04 0.02 0.02 0.02 0.02 0.02
0.00 0.02 0.01 0.01 0.01 0.01 0.02 0.02 0.01 0.03 0.04 0.04 0.05 0.06 0.09 0.11 0.10 0.09 0.13 0.15 0.12 0.10 0.10 0.10 0.11 0.08 0.07 0.07 0.07 0.09 0.09 0.08 0.08 0.09 0.09 0.07 0.06 0.06 0.05 0.04 0.04 0.04 0.04
0.00 0.00 0.00 0.00 0.00 0.01 0.01 0.01 0.02 0.02 0.02 0.02 0.04 0.05 0.07 0.07 0.06 0.08 0.10 0.14 0.14 0.11 0.09 0.10 0.10 0.09 0.09 0.08 0.07 0.08 0.09 0.09 0.09 0.10 0.10 0.09 0.08 0.08 0.06 0.05 0.05 0.04 0.04
0.00 0.00 0.00 0.00 0.01 0.01 0.01 0.00 0.01 0.02 0.02 0.02 0.03 0.05 0.07 0.08 0.06 0.07 0.08 0.09 0.13 0.12 0.09 0.09 0.11 0.11 0.10 0.09 0.08 0.08 0.10 0.11 0.10 0.10 0.09 0.07 0.06 0.06 0.07 0.07 0.06 0.05 0.06
0.00 0.00 0.00 0.00 0.01 0.01 0.01 0.00 0.01 0.01 0.02 0.03 0.04 0.06 0.10 0.11 0.10 0.09 0.09 0.11 0.13 0.13 0.12 0.11 0.12 0.11 0.10 0.08 0.09 0.09 0.09 0.10 0.08 0.07 0.07 0.05 0.05 0.05 0.06 0.05 0.07 0.08 0.09
0.00 0.00 0.00 0.00 0.01 0.01 0.01 0.00 0.01 0.01 0.01 0.02 0.04 0.07 0.10 0.11 0.10 0.09 0.11 0.12 0.13 0.13 0.14 0.13 0.12 0.12 0.09 0.08 0.08 0.09 0.10 0.09 0.09 0.09 0.08 0.07 0.06 0.06 0.06 0.05 0.06 0.07 0.08
0.00 0.00 0.00 0.01 0.02 0.01 0.01 0.01 0.01 0.01 0.02 0.03 0.04 0.06 0.07 0.07 0.07 0.07 0.08 0.10 0.12 0.13 0.14 0.14 0.12 0.10 0.08 0.07 0.06 0.06 0.08 0.10 0.11 0.11 0.12 0.11 0.08 0.08 0.07 0.07 0.06 0.06 0.06
0.01 0.01 0.01 0.01 0.02 0.02 0.02 0.01 0.01 0.02 0.02 0.03 0.04 0.05 0.06 0.06 0.07 0.08 0.08 0.09 0.13 0.16 0.16 0.15 0.15 0.14 0.10 0.07 0.06 0.06 0.08 0.09 0.08 0.08 0.10 0.11 0.09 0.07 0.07 0.06 0.05 0.04 0.03
0.01 0.01 0.01 0.01 0.02 0.02 0.02 0.02 0.02 0.02 0.02 0.02 0.03 0.04 0.06 0.06 0.07 0.07 0.08 0.10 0.13 0.15 0.17 0.16 0.15 0.14 0.11 0.09 0.08 0.08 0.08 0.08 0.08 0.07 0.07 0.06 0.05 0.06 0.05 0.04 0.04 0.03 0.03
0.01 0.01 0.01 0.02 0.03 0.03 0.03 0.03 0.03 0.03 0.03 0.03 0.03 0.04 0.06 0.07 0.08 0.08 0.08 0.09 0.11 0.13 0.14 0.14 0.14 0.12 0.11 0.12 0.09 0.07 0.07 0.08 0.08 0.09 0.07 0.07 0.06 0.05 0.04 0.04 0.04 0.04 0.03
0.01 0.01 0.02 0.02 0.03 0.03 0.03 0.03 0.03 0.03 0.04 0.03 0.04 0.05 0.06 0.07 0.11 0.12 0.10 0.10 0.10 0.10 0.11 0.10 0.11 0.11 0.11 0.14 0.14 0.14 0.14 0.13 0.12 0.11 0.09 0.08 0.07 0.05 0.03 0.03 0.03 0.04 0.04
0.01 0.02 0.02 0.02 0.02 0.02 0.03 0.02 0.03 0.04 0.04 0.04 0.04 0.05 0.05 0.05 0.06 0.10 0.10 0.11 0.11 0.10 0.10 0.10 0.10 0.10 0.10 0.11 0.12 0.13 0.14 0.13 0.11 0.11 0.09 0.07 0.06 0.05 0.04 0.03 0.03 0.03 0.02
0.01 0.02 0.02 0.02 0.02 0.03 0.04 0.04 0.04 0.05 0.05 0.06 0.06 0.05 0.05 0.06 0.07 0.07 0.09 0.11 0.11 0.11 0.09 0.09 0.08 0.07 0.06 0.07 0.08 0.08 0.09 0.08 0.07 0.08 0.09 0.07 0.06 0.05 0.05 0.05 0.05 0.04 0.04
0.01 0.02 0.02 0.02 0.02 0.03 0.03 0.04 0.04 0.06 0.06 0.06 0.06 0.07 0.08 0.08 0.08 0.09 0.09 0.12 0.14 0.15 0.13 0.12 0.09 0.07 0.06 0.07 0.09 0.10 0.11 0.11 0.10 0.09 0.10 0.09 0.08 0.07 0.06 0.06 0.05 0.04 0.03
0.01 0.02 0.03 0.03 0.03 0.03 0.03 0.03 0.03 0.03 0.04 0.05 0.06 0.08 0.09 0.09 0.09 0.10 0.11 0.14 0.17 0.21 0.22 0.19 0.16 0.13 0.12 0.12 0.12 0.11 0.13 0.14 0.15 0.14 0.13 0.12 0.10 0.08 0.06 0.04 0.03 0.03 0.02
0.02 0.03 0.03 0.03 0.03 0.03 0.04 0.04 0.04 0.03 0.04 0.06 0.07 0.08 0.08 0.08 0.07 0.09 0.11 0.13 0.13 0.15 0.17 0.18 0.17 0.17 0.16 0.15 0.13 0.12 0.12 0.12 0.12 0.10 0.09 0.08 0.06 0.05 0.05 0.04 0.04 0.03 0.02

GEFSMW_prec_meanprec_138.txt.gz
QPF
0.04 0.04 0.03 0.04 0.03 0.04 0.05 0.06 0.06 0.06 0.06 0.07 0.08 0.07 0.08 0.10 0.17 0.17 0.08 0.04 0.04 0.04 0.03 0.02 0.03 0.03 0.05 0.04 0.02 0.02 0.02 0.02 0.03 0.05 0.08 0.06 0.06 0.05 0.04 0.05 0.05 0.04 0.04
0.03 0.04 0.03 0.03 0.05 0.05 0.04 0.05 0.06 0.07 0.07 0.09 0.09 0.07 0.07 0.08 0.10 0.12 0.08 0.04 0.04 0.04 0.03 0.03 0.03 0.03 0.04 0.04 0.03 0.01 0.02 0.02 0.02 0.04 0.04 0.04 0.04 0.05 0.05 0.06 0.06 0.06 0.06
0.02 0.04 0.03 0.04 0.07 0.06 0.05 0.06 0.06 0.05 0.06 0.11 0.14 0.12 0.12 0.11 0.09 0.09 0.09 0.06 0.04 0.04 0.04 0.03 0.04 0.03 0.03 0.03 0.03 0.02 0.03 0.02 0.03 0.03 0.02 0.01 0.01 0.01 0.03 0.04 0.05 0.05 0.05
0.03 0.05 0.05 0.07 0.10 0.08 0.07 0.08 0.08 0.05 0.06 0.09 0.11 0.10 0.09 0.08 0.06 0.06 0.09 0.10 0.07 0.05 0.05 0.04 0.05 0.05 0.04 0.02 0.03 0.02 0.03 0.03 0.03 0.02 0.01 0.01 0.01 0.00 0.01 0.02 0.05 0.05 0.04
0.04 0.06 0.06 0.07 0.07 0.07 0.07 0.07 0.09 0.10 0.08 0.08 0.06 0.06 0.08 0.09 0.09 0.09 0.09 0.09 0.08 0.07 0.06 0.06 0.06 0.06 0.04 0.03 0.03 0.03 0.03 0.02 0.01 0.01 0.01 0.01 0.01 0.01 0.01 0.01 0.03 0.05 0.05
0.03 0.04 0.05 0.06 0.05 0.04 0.05 0.06 0.09 0.08 0.08 0.07 0.05 0.05 0.07 0.08 0.08 0.08 0.09 0.07 0.07 0.07 0.06 0.07 0.07 0.07 0.05 0.03 0.02 0.02 0.03 0.03 0.02 0.01 0.01 0.01 0.01 0.01 0.00 0.01 0.01 0.02 0.02
0.03 0.03 0.03 0.04 0.03 0.03 0.03 0.06 0.06 0.07 0.09 0.09 0.07 0.05 0.07 0.07 0.07 0.06 0.06 0.06 0.07 0.05 0.04 0.05 0.05 0.05 0.04 0.04 0.04 0.04 0.02 0.02 0.02 0.02 0.01 0.01 0.01 0.01 0.00 0.01 0.01 0.01 0.01
0.06 0.04 0.03 0.04 0.05 0.05 0.05 0.07 0.09 0.11 0.14 0.13 0.09 0.07 0.08 0.10 0.10 0.08 0.08 0.07 0.06 0.04 0.04 0.04 0.04 0.03 0.04 0.05 0.07 0.06 0.03 0.02 0.02 0.01 0.01 0.01 0.01 0.01 0.01 0.00 0.01 0.01 0.01
0.08 0.08 0.05 0.05 0.06 0.06 0.06 0.07 0.09 0.11 0.14 0.15 0.15 0.17 0.17 0.14 0.11 0.10 0.10 0.08 0.07 0.07 0.08 0.06 0.04 0.06 0.07 0.08 0.09 0.08 0.07 0.05 0.03 0.03 0.03 0.02 0.01 0.01 0.01 0.01 0.01 0.01 0.01
0.08 0.09 0.06 0.06 0.06 0.05 0.04 0.04 0.06 0.08 0.09 0.12 0.13 0.17 0.22 0.19 0.14 0.11 0.10 0.08 0.07 0.07 0.09 0.10 0.07 0.08 0.09 0.09 0.10 0.09 0.09 0.09 0.07 0.05 0.05 0.03 0.02 0.02 0.02 0.01 0.01 0.01 0.01
0.04 0.05 0.06 0.07 0.05 0.04 0.02 0.01 0.02 0.04 0.07 0.07 0.10 0.11 0.16 0.17 0.15 0.14 0.12 0.10 0.08 0.08 0.08 0.09 0.09 0.09 0.10 0.10 0.08 0.09 0.11 0.10 0.09 0.08 0.07 0.05 0.04 0.04 0.03 0.03 0.02 0.02 0.03
0.03 0.03 0.04 0.06 0.04 0.02 0.01 0.01 0.02 0.02 0.07 0.05 0.06 0.05 0.08 0.11 0.12 0.11 0.11 0.11 0.10 0.10 0.10 0.10 0.10 0.10 0.10 0.11 0.10 0.10 0.13 0.14 0.11 0.09 0.08 0.07 0.07 0.07 0.06 0.05 0.04 0.03 0.04
0.04 0.03 0.03 0.05 0.04 0.03 0.02 0.02 0.01 0.01 0.04 0.05 0.05 0.03 0.04 0.06 0.08 0.09 0.09 0.09 0.10 0.11 0.10 0.11 0.10 0.10 0.10 0.12 0.12 0.13 0.15 0.14 0.14 0.12 0.09 0.07 0.08 0.08 0.08 0.07 0.06 0.05 0.05
0.04 0.03 0.03 0.04 0.04 0.04 0.03 0.02 0.01 0.01 0.02 0.03 0.03 0.03 0.03 0.04 0.07 0.09 0.09 0.11 0.12 0.13 0.15 0.14 0.13 0.13 0.14 0.14 0.14 0.15 0.16 0.12 0.11 0.12 0.11 0.09 0.07 0.09 0.10 0.10 0.10 0.11 0.10
0.04 0.03 0.03 0.05 0.07 0.08 0.05 0.04 0.03 0.02 0.02 0.03 0.03 0.03 0.05 0.07 0.10 0.12 0.13 0.13 0.15 0.17 0.17 0.16 0.15 0.15 0.18 0.17 0.15 0.14 0.15 0.14 0.11 0.10 0.11 0.10 0.10 0.10 0.09 0.09 0.10 0.10 0.11
0.04 0.03 0.03 0.05 0.07 0.07 0.07 0.05 0.04 0.03 0.03 0.03 0.02 0.02 0.03 0.05 0.08 0.10 0.12 0.14 0.16 0.18 0.16 0.11 0.11 0.13 0.16 0.19 0.21 0.19 0.19 0.19 0.14 0.13 0.15 0.15 0.13 0.13 0.13 0.13 0.11 0.10 0.10
0.03 0.04 0.04 0.04 0.04 0.04 0.04 0.03 0.03 0.03 0.02 0.02 0.02 0.01 0.02 0.02 0.04 0.06 0.08 0.09 0.10 0.12 0.12 0.10 0.10 0.09 0.12 0.15 0.15 0.15 0.15 0.16 0.15 0.15 0.17 0.16 0.15 0.15 0.13 0.12 0.11 0.10 0.09
0.05 0.10 0.13 0.07 0.03 0.01 0.02 0.02 0.02 0.02 0.02 0.01 0.02 0.02 0.02 0.02 0.03 0.03 0.03 0.03 0.05 0.07 0.10 0.11 0.10 0.13 0.17 0.18 0.16 0.15 0.13 0.14 0.14 0.13 0.12 0.13 0.14 0.13 0.11 0.09 0.07 0.06 0.06
0.04 0.07 0.10 0.11 0.06 0.03 0.02 0.02 0.03 0.03 0.02 0.01 0.02 0.03 0.04 0.04 0.04 0.04 0.04 0.03 0.04 0.06 0.10 0.14 0.15 0.18 0.21 0.22 0.21 0.19 0.17 0.17 0.16 0.16 0.15 0.13 0.13 0.12 0.10 0.07 0.07 0.06 0.06
0.04 0.04 0.04 0.04 0.06 0.05 0.03 0.03 0.03 0.02 0.01 0.01 0.01 0.02 0.03 0.04 0.03 0.03 0.04 0.04 0.05 0.06 0.08 0.11 0.12 0.14 0.16 0.19 0.18 0.15 0.15 0.16 0.16 0.15 0.13 0.12 0.11 0.12 0.12 0.11 0.10 0.09 0.07
0.04 0.03 0.03 0.03 0.03 0.03 0.03 0.03 0.04 0.03 0.02 0.02 0.01 0.01 0.02 0.03 0.03 0.02 0.03 0.04 0.06 0.07 0.07 0.08 0.09 0.10 0.11 0.13 0.13 0.13 0.12 0.12 0.11 0.10 0.10 0.11 0.11 0.11 0.11 0.10 0.09 0.09 0.07
0.04 0.03 0.03 0.02 0.02 0.02 0.02 0.03 0.03 0.03 0.03 0.04 0.04 0.04 0.04 0.03 0.03 0.02 0.03 0.04 0.05 0.06 0.07 0.08 0.09 0.10 0.10 0.10 0.08 0.08 0.10 0.10 0.08 0.08 0.09 0.11 0.12 0.12 0.11 0.11 0.12 0.11 0.10
0.03 0.03 0.03 0.03 0.03 0.03 0.03 0.04 0.04 0.05 0.04 0.05 0.06 0.06 0.06 0.04 0.04 0.03 0.04 0.04 0.05 0.05 0.06 0.07 0.07 0.07 0.07 0.06 0.07 0.07 0.09 0.10 0.08 0.09 0.09 0.09 0.10 0.10 0.11 0.13 0.12 0.10 0.08
0.03 0.03 0.03 0.03 0.03 0.03 0.03 0.03 0.04 0.05 0.06 0.05 0.04 0.04 0.05 0.06 0.06 0.05 0.05 0.04 0.04 0.05 0.04 0.06 0.07 0.08 0.07 0.07 0.07 0.08 0.09 0.11 0.12 0.12 0.12 0.11 0.10 0.10 0.10 0.09 0.08 0.06 0.05
0.02 0.02 0.02 0.03 0.04 0.03 0.03 0.04 0.05 0.06 0.06 0.04 0.03 0.03 0.04 0.04 0.04 0.04 0.04 0.04 0.03 0.05 0.06 0.08 0.10 0.12 0.13 0.13 0.13 0.12 0.11 0.10 0.10 0.10 0.11 0.11 0.10 0.09 0.07 0.06 0.05 0.05 0.05
0.02 0.03 0.03 0.03 0.04 0.04 0.05 0.05 0.06 0.06 0.05 0.04 0.04 0.04 0.03 0.04 0.05 0.04 0.04 0.03 0.03 0.04 0.06 0.08 0.09 0.11 0.14 0.15 0.14 0.14 0.13 0.12 0.12 0.11 0.11 0.10 0.09 0.07 0.07 0.05 0.04 0.03 0.02

GEFSMW_prec_meanprec_144.txt.gz
QPF
0.02 0.03 0.04 0.08 0.11 0.11 0.14 0.11 0.09 0.12 0.13 0.10 0.10 0.13 0.17 0.16 0.12 0.13 0.11 0.07 0.06 0.06 0.05 0.05 0.04 0.04 0.03 0.04 0.04 0.05 0.03 0.03 0.03 0.04 0.04 0.04 0.03 0.03 0.04 0.04 0.03 0.04 0.03
0.02 0.04 0.05 0.07 0.10 0.13 0.15 0.16 0.13 0.15 0.14 0.11 0.10 0.12 0.13 0.14 0.10 0.12 0.11 0.07 0.05 0.05 0.05 0.05 0.05 0.04 0.05 0.05 0.04 0.04 0.03 0.03 0.03 0.03 0.03 0.02 0.02 0.02 0.03 0.03 0.03 0.04 0.03
0.03 0.04 0.05 0.07 0.12 0.20 0.25 0.23 0.20 0.20 0.17 0.14 0.15 0.16 0.15 0.16 0.13 0.09 0.07 0.05 0.05 0.05 0.04 0.04 0.04 0.04 0.05 0.05 0.03 0.02 0.02 0.03 0.03 0.02 0.02 0.00 0.00 0.01 0.01 0.01 0.02 0.04 0.04
0.03 0.03 0.05 0.09 0.22 0.31 0.25 0.19 0.19 0.20 0.20 0.19 0.14 0.13 0.10 0.09 0.08 0.07 0.06 0.07 0.05 0.04 0.05 0.04 0.04 0.05 0.05 0.04 0.03 0.02 0.02 0.03 0.04 0.03 0.01 0.01 0.00 0.01 0.00 0.01 0.01 0.03 0.03
0.03 0.03 0.06 0.16 0.22 0.23 0.16 0.15 0.16 0.16 0.17 0.16 0.15 0.13 0.10 0.09 0.10 0.10 0.07 0.07 0.07 0.06 0.06 0.06 0.04 0.04 0.05 0.04 0.03 0.03 0.03 0.03 0.03 0.02 0.02 0.02 0.01 0.01 0.01 0.00 0.00 0.01 0.01
0.03 0.04 0.08 0.13 0.11 0.12 0.11 0.12 0.14 0.13 0.11 0.13 0.14 0.11 0.09 0.10 0.11 0.09 0.07 0.06 0.08 0.09 0.07 0.05 0.05 0.04 0.04 0.03 0.04 0.05 0.05 0.04 0.03 0.03 0.02 0.02 0.01 0.01 0.01 0.00 0.00 0.00 0.00
0.03 0.05 0.06 0.07 0.09 0.11 0.11 0.11 0.11 0.11 0.10 0.11 0.15 0.14 0.14 0.13 0.11 0.09 0.08 0.08 0.07 0.06 0.06 0.05 0.04 0.03 0.03 0.04 0.05 0.05 0.03 0.03 0.02 0.03 0.02 0.02 0.01 0.01 0.00 0.00 0.00 0.00 0.00
0.03 0.04 0.06 0.07 0.09 0.13 0.15 0.11 0.09 0.08 0.09 0.09 0.12 0.14 0.15 0.16 0.14 0.11 0.10 0.08 0.07 0.06 0.07 0.07 0.05 0.05 0.05 0.05 0.05 0.03 0.03 0.03 0.02 0.02 0.03 0.03 0.02 0.02 0.02 0.01 0.01 0.00 0.00
0.05 0.07 0.06 0.08 0.10 0.10 0.15 0.11 0.07 0.08 0.09 0.11 0.12 0.14 0.15 0.17 0.17 0.14 0.12 0.09 0.08 0.08 0.08 0.07 0.07 0.06 0.06 0.05 0.05 0.04 0.04 0.04 0.03 0.03 0.04 0.04 0.03 0.03 0.02 0.02 0.02 0.01 0.00
0.03 0.05 0.10 0.08 0.09 0.07 0.06 0.05 0.05 0.06 0.07 0.09 0.09 0.08 0.12 0.16 0.17 0.15 0.11 0.09 0.10 0.10 0.09 0.09 0.08 0.07 0.06 0.05 0.06 0.05 0.05 0.04 0.03 0.04 0.04 0.03 0.03 0.03 0.03 0.03 0.03 0.02 0.02
0.01 0.02 0.05 0.05 0.06 0.05 0.04 0.04 0.04 0.04 0.04 0.06 0.09 0.06 0.06 0.09 0.08 0.09 0.12 0.12 0.11 0.09 0.08 0.09 0.09 0.07 0.06 0.07 0.07 0.05 0.06 0.04 0.04 0.05 0.04 0.04 0.04 0.04 0.04 0.04 0.03 0.03 0.03
0.03 0.03 0.03 0.05 0.06 0.05 0.04 0.04 0.03 0.03 0.03 0.04 0.10 0.10 0.05 0.06 0.06 0.08 0.11 0.13 0.13 0.11 0.10 0.09 0.08 0.07 0.06 0.07 0.08 0.07 0.07 0.06 0.05 0.05 0.05 0.04 0.04 0.04 0.05 0.06 0.06 0.05 0.05
0.03 0.03 0.04 0.05 0.05 0.04 0.04 0.04 0.03 0.02 0.02 0.02 0.09 0.10 0.05 0.04 0.05 0.07 0.09 0.10 0.11 0.12 0.09 0.07 0.06 0.07 0.07 0.07 0.07 0.07 0.08 0.09 0.09 0.09 0.10 0.09 0.07 0.04 0.05 0.05 0.06 0.07 0.07
0.02 0.03 0.04 0.06 0.04 0.03 0.03 0.03 0.03 0.02 0.01 0.03 0.09 0.10 0.05 0.03 0.04 0.05 0.07 0.08 0.09 0.09 0.09 0.07 0.08 0.10 0.10 0.10 0.09 0.08 0.09 0.11 0.11 0.10 0.10 0.10 0.09 0.07 0.06 0.05 0.06 0.07 0.08
0.02 0.02 0.03 0.05 0.06 0.03 0.02 0.02 0.02 0.02 0.02 0.02 0.04 0.05 0.05 0.03 0.03 0.04 0.06 0.06 0.07 0.06 0.08 0.09 0.10 0.11 0.11 0.10 0.11 0.11 0.11 0.12 0.11 0.11 0.11 0.11 0.12 0.11 0.10 0.09 0.08 0.09 0.08
0.01 0.01 0.02 0.02 0.03 0.02 0.02 0.02 0.02 0.02 0.02 0.02 0.02 0.02 0.02 0.02 0.03 0.04 0.05 0.06 0.06 0.07 0.08 0.10 0.11 0.11 0.12 0.14 0.13 0.13 0.15 0.17 0.18 0.17 0.16 0.16 0.16 0.16 0.15 0.15 0.15 0.16 0.16
0.01 0.01 0.01 0.01 0.01 0.01 0.01 0.02 0.02 0.02 0.02 0.02 0.01 0.01 0.01 0.01 0.03 0.03 0.03 0.05 0.05 0.05 0.07 0.09 0.09 0.09 0.09 0.10 0.12 0.14 0.13 0.13 0.14 0.14 0.13 0.13 0.16 0.15 0.14 0.15 0.16 0.15 0.15
0.01 0.01 0.01 0.01 0.01 0.01 0.01 0.01 0.01 0.01 0.01 0.01 0.01 0.00 0.01 0.01 0.01 0.02 0.02 0.02 0.02 0.02 0.04 0.06 0.06 0.06 0.06 0.07 0.08 0.11 0.12 0.12 0.12 0.12 0.12 0.14 0.14 0.13 0.12 0.12 0.11 0.08 0.07
0.01 0.01 0.01 0.02 0.01 0.01 0.01 0.01 0.01 0.01 0.01 0.01 0.01 0.01 0.00 0.00 0.00 0.01 0.01 0.02 0.02 0.02 0.02 0.04 0.07 0.08 0.10 0.11 0.12 0.13 0.14 0.16 0.18 0.18 0.17 0.16 0.15 0.16 0.13 0.10 0.08 0.06 0.06
0.01 0.02 0.01 0.01 0.01 0.01 0.01 0.01 0.01 0.02 0.01 0.01 0.01 0.01 0.01 0.01 0.01 0.01 0.01 0.02 0.02 0.02 0.02 0.02 0.04 0.06 0.07 0.09 0.10 0.11 0.11 0.12 0.12 0.13 0.15 0.16 0.15 0.15 0.14 0.13 0.13 0.11 0.09
0.02 0.02 0.02 0.02 0.01 0.01 0.01 0.01 0.01 0.01 0.02 0.02 0.01 0.01 0.01 0.01 0.02 0.02 0.03 0.03 0.03 0.03 0.03 0.04 0.05 0.06 0.07 0.09 0.09 0.09 0.08 0.08 0.09 0.09 0.09 0.11 0.13 0.13 0.12 0.10 0.09 0.10 0.10
0.04 0.03 0.03 0.03 0.03 0.02 0.01 0.01 0.01 0.01 0.01 0.01 0.02 0.02 0.01 0.02 0.02 0.02 0.02 0.03 0.04 0.04 0.04 0.05 0.06 0.06 0.07 0.07 0.08 0.08 0.08 0.08 0.08 0.07 0.07 0.08 0.10 0.09 0.08 0.06 0.06 0.07 0.08
0.06 0.05 0.05 0.05 0.04 0.03 0.02 0.01 0.01 0.02 0.02 0.03 0.02 0.03 0.03 0.03 0.03 0.03 0.02 0.02 0.03 0.03 0.03 0.03 0.03 0.03 0.03 0.05 0.06 0.06 0.06 0.06 0.05 0.05 0.06 0.07 0.07 0.06 0.06 0.06 0.07 0.07 0.07
0.08 0.07 0.06 0.05 0.04 0.03 0.02 0.02 0.01 0.02 0.02 0.02 0.02 0.03 0.03 0.03 0.03 0.04 0.03 0.02 0.02 0.02 0.02 0.02 0.03 0.03 0.03 0.03 0.03 0.04 0.04 0.04 0.04 0.05 0.06 0.06 0.06 0.06 0.06 0.06 0.06 0.05 0.05
0.06 0.05 0.04 0.03 0.02 0.02 0.02 0.02 0.02 0.03 0.04 0.04 0.03 0.03 0.03 0.03 0.03 0.04 0.04 0.03 0.02 0.03 0.03 0.04 0.04 0.04 0.03 0.03 0.04 0.05 0.06 0.07 0.07 0.07 0.08 0.08 0.08 0.07 0.06 0.06 0.05 0.05 0.04
0.04 0.03 0.02 0.02 0.03 0.03 0.02 0.03 0.03 0.03 0.04 0.04 0.05 0.04 0.04 0.03 0.03 0.03 0.03 0.04 0.04 0.04 0.04 0.04 0.04 0.03 0.03 0.04 0.05 0.07 0.09 0.10 0.10 0.09 0.09 0.09 0.09 0.08 0.08 0.08 0.07 0.06 0.04

GEFSMW_prec_meanprec_150.txt.gz
QPF
0.00 0.00 0.01 0.05 0.08 0.09 0.08 0.07 0.07 0.07 0.06 0.05 0.06 0.06 0.06 0.07 0.11 0.10 0.08 0.08 0.05 0.04 0.04 0.04 0.06 0.07 0.08 0.09 0.09 0.09 0.08 0.07 0.09 0.10 0.08 0.06 0.03 0.03 0.04 0.03 0.05 0.04 0.05
0.00 0.01 0.02 0.03 0.04 0.06 0.09 0.10 0.13 0.13 0.11 0.08 0.07 0.07 0.08 0.10 0.12 0.11 0.09 0.08 0.06 0.05 0.04 0.05 0.05 0.05 0.08 0.09 0.08 0.08 0.09 0.08 0.08 0.10 0.11 0.08 0.06 0.04 0.02 0.03 0.04 0.04 0.04
0.01 0.01 0.02 0.03 0.03 0.06 0.12 0.09 0.11 0.14 0.14 0.12 0.10 0.08 0.09 0.09 0.09 0.09 0.08 0.08 0.08 0.05 0.04 0.05 0.06 0.06 0.06 0.07 0.09 0.08 0.11 0.11 0.09 0.07 0.09 0.08 0.07 0.07 0.03 0.01 0.03 0.03 0.04
0.01 0.02 0.03 0.03 0.03 0.05 0.10 0.07 0.07 0.08 0.12 0.12 0.08 0.10 0.12 0.10 0.08 0.08 0.08 0.10 0.10 0.07 0.04 0.06 0.06 0.06 0.05 0.08 0.07 0.06 0.08 0.10 0.09 0.06 0.05 0.05 0.05 0.07 0.06 0.03 0.01 0.01 0.03
0.01 0.01 0.01 0.02 0.03 0.03 0.05 0.05 0.05 0.06 0.08 0.07 0.06 0.09 0.09 0.10 0.09 0.08 0.09 0.10 0.10 0.08 0.06 0.05 0.06 0.06 0.05 0.08 0.08 0.07 0.07 0.07 0.08 0.06 0.05 0.05 0.04 0.03 0.05 0.06 0.03 0.02 0.01
0.00 0.01 0.01 0.01 0.02 0.02 0.02 0.03 0.04 0.05 0.05 0.04 0.05 0.07 0.10 0.10 0.10 0.09 0.10 0.11 0.10 0.10 0.09 0.07 0.07 0.05 0.06 0.07 0.08 0.09 0.07 0.07 0.08 0.08 0.06 0.06 0.05 0.04 0.04 0.05 0.04 0.03 0.01
0.00 0.02 0.02 0.01 0.02 0.03 0.03 0.03 0.04 0.05 0.06 0.06 0.06 0.06 0.08 0.10 0.10 0.08 0.09 0.11 0.11 0.11 0.09 0.07 0.07 0.06 0.06 0.07 0.09 0.09 0.07 0.06 0.08 0.09 0.06 0.06 0.04 0.04 0.04 0.05 0.04 0.04 0.02
0.00 0.03 0.04 0.03 0.03 0.04 0.05 0.07 0.07 0.06 0.04 0.03 0.04 0.06 0.07 0.07 0.08 0.08 0.07 0.09 0.09 0.08 0.09 0.09 0.08 0.08 0.08 0.06 0.08 0.08 0.07 0.08 0.08 0.06 0.07 0.07 0.05 0.03 0.05 0.06 0.07 0.06 0.04
0.00 0.02 0.04 0.04 0.04 0.04 0.07 0.08 0.07 0.06 0.05 0.04 0.04 0.05 0.06 0.07 0.08 0.08 0.08 0.08 0.09 0.09 0.09 0.09 0.09 0.09 0.09 0.09 0.10 0.09 0.09 0.09 0.08 0.06 0.08 0.08 0.06 0.05 0.04 0.05 0.06 0.08 0.07
0.00 0.01 0.02 0.03 0.03 0.03 0.04 0.05 0.04 0.04 0.04 0.05 0.05 0.04 0.04 0.06 0.09 0.12 0.10 0.09 0.08 0.07 0.06 0.06 0.09 0.09 0.09 0.09 0.11 0.09 0.09 0.09 0.07 0.06 0.07 0.08 0.07 0.06 0.04 0.05 0.05 0.07 0.08
0.00 0.00 0.01 0.01 0.02 0.02 0.02 0.02 0.03 0.04 0.03 0.04 0.04 0.03 0.03 0.04 0.05 0.07 0.08 0.08 0.07 0.06 0.06 0.06 0.08 0.10 0.11 0.11 0.12 0.12 0.12 0.11 0.10 0.08 0.06 0.07 0.07 0.06 0.05 0.05 0.06 0.07 0.09
0.00 0.00 0.00 0.01 0.01 0.01 0.01 0.01 0.02 0.02 0.02 0.02 0.02 0.02 0.03 0.03 0.03 0.04 0.04 0.04 0.05 0.06 0.06 0.07 0.09 0.09 0.10 0.12 0.12 0.11 0.10 0.10 0.10 0.09 0.08 0.07 0.07 0.07 0.06 0.06 0.05 0.07 0.11
0.00 0.00 0.00 0.00 0.01 0.01 0.01 0.01 0.01 0.01 0.01 0.01 0.01 0.02 0.03 0.02 0.02 0.02 0.03 0.04 0.05 0.07 0.07 0.07 0.08 0.08 0.08 0.09 0.10 0.12 0.11 0.10 0.09 0.09 0.09 0.10 0.12 0.11 0.09 0.08 0.07 0.08 0.10
0.00 0.00 0.00 0.01 0.01 0.01 0.01 0.00 0.00 0.01 0.00 0.00 0.01 0.03 0.04 0.04 0.03 0.02 0.04 0.06 0.07 0.08 0.09 0.09 0.09 0.10 0.10 0.09 0.10 0.11 0.12 0.11 0.11 0.12 0.12 0.13 0.14 0.15 0.15 0.13 0.12 0.11 0.12
0.00 0.00 0.01 0.02 0.02 0.02 0.01 0.00 0.00 0.01 0.00 0.01 0.05 0.08 0.08 0.05 0.03 0.03 0.05 0.06 0.06 0.07 0.09 0.09 0.08 0.09 0.11 0.12 0.12 0.11 0.10 0.11 0.11 0.12 0.12 0.10 0.10 0.12 0.15 0.15 0.14 0.14 0.14
0.00 0.00 0.01 0.04 0.04 0.02 0.01 0.00 0.00 0.00 0.00 0.01 0.02 0.07 0.07 0.05 0.02 0.02 0.02 0.03 0.04 0.05 0.05 0.06 0.06 0.06 0.08 0.12 0.14 0.12 0.13 0.14 0.14 0.14 0.13 0.12 0.12 0.12 0.14 0.15 0.16 0.16 0.16
0.00 0.00 0.00 0.02 0.04 0.03 0.02 0.01 0.00 0.00 0.01 0.01 0.00 0.01 0.03 0.03 0.02 0.01 0.01 0.02 0.03 0.03 0.04 0.05 0.04 0.06 0.08 0.09 0.12 0.15 0.14 0.14 0.13 0.13 0.13 0.11 0.10 0.11 0.10 0.11 0.13 0.13 0.14
0.00 0.00 0.00 0.00 0.02 0.02 0.01 0.01 0.00 0.00 0.00 0.01 0.01 0.00 0.01 0.01 0.01 0.01 0.01 0.02 0.02 0.02 0.03 0.03 0.03 0.03 0.03 0.04 0.05 0.07 0.08 0.08 0.09 0.10 0.11 0.11 0.11 0.11 0.11 0.11 0.11 0.11 0.11
0.00 0.00 0.00 0.00 0.00 0.01 0.01 0.00 0.00 0.00 0.00 0.01 0.01 0.00 0.01 0.01 0.01 0.01 0.01 0.02 0.02 0.02 0.03 0.03 0.03 0.02 0.04 0.04 0.05 0.05 0.07 0.09 0.10 0.11 0.12 0.14 0.15 0.17 0.16 0.13 0.12 0.11 0.09
0.00 0.00 0.01 0.01 0.01 0.01 0.01 0.00 0.00 0.00 0.00 0.01 0.01 0.01 0.01 0.01 0.00 0.00 0.01 0.01 0.01 0.01 0.01 0.02 0.01 0.02 0.04 0.06 0.03 0.03 0.04 0.06 0.07 0.09 0.10 0.12 0.12 0.16 0.17 0.14 0.14 0.13 0.11
0.01 0.01 0.01 0.01 0.00 0.00 0.00 0.01 0.00 0.00 0.00 0.01 0.01 0.01 0.01 0.00 0.00 0.00 0.01 0.01 0.01 0.01 0.01 0.02 0.02 0.03 0.04 0.05 0.04 0.03 0.02 0.03 0.04 0.05 0.06 0.08 0.10 0.10 0.12 0.13 0.13 0.14 0.12
0.01 0.01 0.01 0.01 0.01 0.02 0.01 0.01 0.01 0.01 0.01 0.00 0.01 0.01 0.01 0.00 0.00 0.01 0.01 0.01 0.01 0.02 0.02 0.03 0.03 0.03 0.02 0.03 0.04 0.04 0.03 0.04 0.05 0.06 0.06 0.07 0.09 0.09 0.09 0.10 0.11 0.10 0.09
0.02 0.02 0.01 0.01 0.02 0.02 0.01 0.01 0.01 0.01 0.01 0.01 0.01 0.01 0.01 0.01 0.01 0.01 0.03 0.03 0.02 0.01 0.01 0.01 0.01 0.02 0.02 0.03 0.05 0.05 0.04 0.05 0.04 0.05 0.06 0.07 0.07 0.06 0.05 0.05 0.06 0.05 0.05
0.03 0.03 0.02 0.02 0.01 0.01 0.01 0.01 0.01 0.01 0.00 0.00 0.01 0.01 0.01 0.01 0.01 0.02 0.03 0.02 0.02 0.02 0.02 0.01 0.02 0.02 0.03 0.03 0.02 0.03 0.04 0.05 0.05 0.05 0.06 0.06 0.05 0.06 0.05 0.06 0.06 0.05 0.05
0.04 0.04 0.03 0.02 0.02 0.01 0.01 0.01 0.02 0.01 0.01 0.01 0.01 0.01 0.01 0.01 0.02 0.03 0.02 0.02 0.01 0.02 0.02 0.02 0.02 0.02 0.03 0.03 0.03 0.02 0.03 0.03 0.04 0.04 0.05 0.05 0.05 0.06 0.07 0.07 0.06 0.06 0.05
0.05 0.06 0.05 0.04 0.03 0.02 0.02 0.03 0.03 0.03 0.02 0.02 0.01 0.01 0.02 0.02 0.02 0.02 0.02 0.02 0.02 0.02 0.02 0.02 0.03 0.03 0.03 0.03 0.02 0.02 0.03 0.04 0.06 0.06 0.06 0.06 0.07 0.07 0.07 0.06 0.06 0.06 0.08

GEFSMW_prec_meanprec_156.txt.gz
QPF
0.00 0.00 0.00 0.00 0.00 0.01 0.02 0.03 0.03 0.03 0.03 0.04 0.04 0.05 0.07 0.08 0.06 0.05 0.06 0.06 0.06 0.06 0.07 0.07 0.07 0.05 0.05 0.05 0.05 0.07 0.08 0.07 0.06 0.07 0.08 0.06 0.04 0.04 0.02 0.01 0.03 0.02 0.03
0.00 0.00 0.00 0.01 0.01 0.01 0.02 0.03 0.03 0.05 0.04 0.04 0.05 0.06 0.08 0.08 0.07 0.07 0.08 0.06 0.06 0.06 0.07 0.08 0.07 0.06 0.08 0.07 0.08 0.09 0.11 0.09 0.07 0.07 0.12 0.13 0.12 0.09 0.03 0.02 0.01 0.01 0.02
0.00 0.00 0.00 0.01 0.02 0.01 0.02 0.03 0.04 0.05 0.06 0.06 0.07 0.07 0.09 0.10 0.09 0.07 0.07 0.06 0.07 0.07 0.07 0.06 0.06 0.07 0.05 0.09 0.10 0.09 0.11 0.12 0.10 0.07 0.10 0.14 0.18 0.14 0.06 0.02 0.02 0.02 0.03
0.00 0.00 0.00 0.01 0.02 0.02 0.02 0.04 0.04 0.04 0.06 0.07 0.07 0.08 0.08 0.09 0.09 0.08 0.08 0.08 0.09 0.08 0.05 0.04 0.05 0.06 0.05 0.08 0.06 0.09 0.11 0.12 0.11 0.10 0.08 0.09 0.13 0.15 0.11 0.07 0.04 0.04 0.03
0.00 0.00 0.00 0.01 0.02 0.01 0.02 0.03 0.05 0.05 0.05 0.08 0.09 0.08 0.09 0.10 0.10 0.10 0.10 0.08 0.08 0.06 0.06 0.06 0.06 0.06 0.06 0.08 0.07 0.12 0.11 0.11 0.10 0.10 0.09 0.11 0.10 0.09 0.10 0.13 0.09 0.07 0.03
0.00 0.00 0.00 0.00 0.02 0.01 0.02 0.03 0.05 0.05 0.05 0.07 0.07 0.07 0.09 0.09 0.09 0.10 0.10 0.09 0.08 0.07 0.09 0.10 0.10 0.09 0.09 0.11 0.09 0.11 0.11 0.12 0.12 0.09 0.09 0.10 0.09 0.08 0.10 0.10 0.09 0.07 0.04
0.00 0.00 0.00 0.00 0.01 0.02 0.02 0.04 0.04 0.05 0.05 0.04 0.05 0.06 0.07 0.08 0.09 0.08 0.09 0.08 0.08 0.08 0.08 0.10 0.10 0.09 0.10 0.12 0.13 0.13 0.14 0.13 0.12 0.09 0.08 0.09 0.09 0.07 0.07 0.09 0.09 0.09 0.05
0.01 0.01 0.00 0.00 0.01 0.02 0.02 0.04 0.05 0.06 0.06 0.05 0.06 0.06 0.08 0.12 0.13 0.09 0.08 0.08 0.08 0.07 0.07 0.10 0.11 0.11 0.11 0.10 0.14 0.10 0.11 0.12 0.10 0.07 0.10 0.09 0.07 0.06 0.08 0.10 0.12 0.13 0.09
0.01 0.03 0.01 0.01 0.01 0.02 0.03 0.03 0.04 0.05 0.07 0.06 0.07 0.09 0.12 0.14 0.14 0.10 0.08 0.08 0.08 0.07 0.08 0.10 0.11 0.13 0.14 0.14 0.16 0.12 0.11 0.13 0.10 0.08 0.10 0.10 0.07 0.07 0.08 0.09 0.11 0.13 0.13
0.01 0.03 0.03 0.02 0.02 0.03 0.05 0.06 0.06 0.05 0.06 0.07 0.10 0.10 0.12 0.13 0.10 0.08 0.08 0.07 0.08 0.08 0.09 0.11 0.11 0.11 0.12 0.15 0.15 0.14 0.13 0.14 0.12 0.12 0.13 0.12 0.08 0.08 0.08 0.08 0.09 0.11 0.13
0.01 0.01 0.02 0.02 0.02 0.02 0.06 0.09 0.08 0.05 0.05 0.07 0.09 0.11 0.08 0.05 0.05 0.06 0.07 0.08 0.09 0.08 0.07 0.08 0.10 0.10 0.12 0.14 0.16 0.14 0.12 0.11 0.11 0.11 0.12 0.10 0.10 0.11 0.11 0.11 0.11 0.10 0.12
0.06 0.04 0.01 0.01 0.01 0.00 0.01 0.03 0.03 0.02 0.03 0.05 0.06 0.07 0.06 0.06 0.07 0.08 0.08 0.08 0.08 0.07 0.08 0.08 0.07 0.07 0.11 0.14 0.14 0.11 0.11 0.10 0.09 0.09 0.09 0.09 0.09 0.11 0.12 0.12 0.12 0.11 0.12
0.02 0.03 0.01 0.01 0.01 0.01 0.00 0.00 0.01 0.01 0.02 0.02 0.03 0.04 0.05 0.05 0.06 0.06 0.06 0.06 0.06 0.07 0.08 0.07 0.06 0.05 0.06 0.10 0.12 0.10 0.11 0.11 0.11 0.12 0.11 0.09 0.09 0.10 0.12 0.11 0.09 0.08 0.08
0.00 0.00 0.00 0.01 0.02 0.02 0.02 0.01 0.02 0.01 0.01 0.01 0.02 0.04 0.04 0.05 0.05 0.04 0.04 0.04 0.05 0.04 0.05 0.05 0.05 0.05 0.05 0.06 0.09 0.10 0.10 0.11 0.12 0.14 0.16 0.15 0.13 0.11 0.10 0.09 0.09 0.10 0.11
0.00 0.00 0.00 0.01 0.02 0.02 0.02 0.03 0.03 0.03 0.01 0.01 0.01 0.03 0.04 0.05 0.06 0.06 0.05 0.04 0.04 0.03 0.04 0.04 0.05 0.06 0.06 0.06 0.08 0.10 0.10 0.12 0.13 0.15 0.16 0.16 0.15 0.13 0.12 0.10 0.12 0.12 0.13
0.00 0.00 0.00 0.01 0.01 0.02 0.02 0.03 0.03 0.03 0.02 0.01 0.01 0.03 0.04 0.04 0.05 0.05 0.04 0.05 0.05 0.05 0.05 0.05 0.05 0.05 0.03 0.05 0.06 0.06 0.07 0.09 0.09 0.09 0.09 0.10 0.09 0.09 0.10 0.09 0.10 0.09 0.11
0.00 0.00 0.00 0.01 0.02 0.02 0.03 0.03 0.02 0.03 0.02 0.02 0.02 0.02 0.03 0.05 0.05 0.04 0.03 0.04 0.03 0.03 0.03 0.04 0.04 0.03 0.04 0.04 0.04 0.05 0.05 0.08 0.09 0.08 0.09 0.08 0.07 0.07 0.07 0.08 0.08 0.07 0.08
0.00 0.00 0.00 0.01 0.03 0.05 0.05 0.05 0.04 0.03 0.03 0.03 0.03 0.02 0.03 0.05 0.06 0.04 0.03 0.03 0.02 0.02 0.02 0.02 0.02 0.03 0.03 0.02 0.02 0.03 0.03 0.05 0.06 0.06 0.07 0.08 0.08 0.08 0.08 0.08 0.09 0.09 0.09
0.01 0.01 0.00 0.01 0.02 0.06 0.08 0.07 0.05 0.03 0.02 0.02 0.02 0.01 0.02 0.03 0.04 0.04 0.03 0.02 0.02 0.02 0.02 0.02 0.01 0.01 0.01 0.01 0.01 0.01 0.01 0.02 0.02 0.03 0.04 0.05 0.06 0.08 0.10 0.11 0.11 0.11 0.10
0.01 0.01 0.01 0.01 0.01 0.01 0.02 0.02 0.02 0.01 0.01 0.01 0.02 0.02 0.01 0.01 0.01 0.01 0.02 0.02 0.02 0.02 0.02 0.01 0.01 0.01 0.01 0.02 0.01 0.01 0.01 0.02 0.02 0.02 0.02 0.03 0.05 0.08 0.09 0.11 0.13 0.13 0.11
0.01 0.01 0.00 0.00 0.00 0.00 0.01 0.01 0.01 0.01 0.01 0.02 0.01 0.01 0.01 0.01 0.01 0.01 0.01 0.01 0.02 0.02 0.01 0.01 0.02 0.02 0.03 0.03 0.02 0.02 0.01 0.02 0.02 0.02 0.01 0.02 0.04 0.05 0.07 0.09 0.11 0.14 0.13
0.02 0.02 0.01 0.02 0.02 0.01 0.01 0.01 0.02 0.02 0.02 0.02 0.01 0.01 0.01 0.01 0.01 0.02 0.02 0.02 0.03 0.03 0.02 0.03 0.03 0.03 0.03 0.02 0.02 0.02 0.02 0.02 0.02 0.03 0.03 0.03 0.03 0.04 0.05 0.05 0.06 0.07 0.06
0.02 0.03 0.03 0.03 0.03 0.03 0.02 0.02 0.02 0.02 0.02 0.01 0.01 0.01 0.01 0.01 0.02 0.02 0.03 0.03 0.03 0.03 0.03 0.03 0.03 0.02 0.02 0.02 0.01 0.01 0.02 0.01 0.01 0.01 0.02 0.03 0.03 0.04 0.04 0.04 0.05 0.04 0.04
0.02 0.03 0.03 0.04 0.04 0.04 0.03 0.03 0.02 0.01 0.01 0.01 0.01 0.01 0.01 0.01 0.01 0.01 0.02 0.02 0.02 0.03 0.02 0.03 0.02 0.02 0.03 0.02 0.02 0.01 0.01 0.01 0.01 0.01 0.02 0.03 0.04 0.04 0.04 0.04 0.04 0.03 0.03
0.02 0.04 0.05 0.06 0.06 0.05 0.04 0.03 0.02 0.01 0.01 0.01 0.01 0.01 0.01 0.01 0.01 0.02 0.02 0.02 0.02 0.02 0.02 0.02 0.02 0.03 0.03 0.04 0.03 0.03 0.02 0.02 0.02 0.02 0.02 0.02 0.03 0.03 0.03 0.04 0.03 0.03 0.03
0.03 0.04 0.04 0.05 0.04 0.03 0.02 0.02 0.01 0.02 0.02 0.02 0.02 0.02 0.02 0.02 0.02 0.03 0.02 0.02 0.02 0.02 0.02 0.02 0.02 0.02 0.03 0.03 0.03 0.03 0.02 0.03 0.02 0.02 0.01 0.01 0.01 0.02 0.02 0.02 0.03 0.02 0.02

GEFSMW_prec_meanprec_162.txt.gz
QPF
0.01 0.01 0.01 0.01 0.01 0.01 0.01 0.01 0.01 0.02 0.03 0.03 0.03 0.06 0.09 0.10 0.08 0.08 0.07 0.07 0.07 0.06 0.05 0.05 0.05 0.06 0.05 0.04 0.04 0.04 0.04 0.04 0.05 0.05 0.05 0.07 0.07 0.06 0.05 0.05 0.05 0.05 0.04
0.01 0.01 0.01 0.02 0.01 0.02 0.02 0.02 0.02 0.03 0.03 0.04 0.04 0.04 0.07 0.08 0.09 0.08 0.07 0.06 0.07 0.07 0.05 0.05 0.06 0.05 0.06 0.05 0.04 0.03 0.03 0.04 0.04 0.04 0.04 0.03 0.04 0.05 0.04 0.06 0.05 0.06 0.06
0.02 0.02 0.02 0.02 0.02 0.01 0.02 0.02 0.02 0.04 0.04 0.04 0.04 0.04 0.06 0.06 0.06 0.08 0.07 0.06 0.05 0.06 0.06 0.05 0.05 0.04 0.04 0.04 0.02 0.02 0.03 0.04 0.04 0.04 0.04 0.05 0.06 0.03 0.03 0.04 0.07 0.08 0.08
0.05 0.03 0.01 0.01 0.02 0.01 0.02 0.03 0.03 0.04 0.04 0.03 0.04 0.04 0.05 0.05 0.04 0.05 0.06 0.06 0.06 0.04 0.04 0.03 0.04 0.04 0.04 0.03 0.03 0.02 0.02 0.03 0.03 0.03 0.03 0.06 0.04 0.03 0.02 0.03 0.05 0.08 0.11
0.02 0.02 0.01 0.01 0.02 0.01 0.02 0.03 0.04 0.03 0.03 0.04 0.04 0.05 0.06 0.05 0.06 0.07 0.08 0.06 0.06 0.06 0.05 0.05 0.04 0.05 0.06 0.04 0.03 0.04 0.04 0.04 0.03 0.04 0.05 0.05 0.03 0.02 0.02 0.02 0.04 0.05 0.07
0.03 0.02 0.01 0.01 0.02 0.02 0.02 0.03 0.04 0.04 0.04 0.04 0.05 0.06 0.07 0.07 0.07 0.09 0.09 0.07 0.07 0.06 0.07 0.08 0.07 0.06 0.06 0.05 0.03 0.04 0.06 0.07 0.05 0.05 0.08 0.06 0.05 0.04 0.03 0.03 0.03 0.04 0.04
0.01 0.01 0.01 0.01 0.03 0.03 0.03 0.04 0.04 0.04 0.05 0.05 0.06 0.08 0.10 0.11 0.10 0.10 0.09 0.06 0.05 0.05 0.06 0.08 0.06 0.04 0.04 0.06 0.08 0.08 0.07 0.07 0.07 0.06 0.08 0.08 0.05 0.05 0.05 0.04 0.04 0.03 0.03
0.02 0.02 0.03 0.02 0.02 0.02 0.03 0.04 0.05 0.05 0.06 0.06 0.07 0.09 0.09 0.08 0.09 0.09 0.07 0.04 0.05 0.06 0.06 0.05 0.06 0.06 0.06 0.09 0.11 0.09 0.08 0.08 0.08 0.07 0.07 0.07 0.06 0.07 0.06 0.06 0.07 0.05 0.03
0.04 0.05 0.05 0.04 0.03 0.02 0.02 0.03 0.05 0.06 0.07 0.07 0.07 0.06 0.06 0.10 0.11 0.08 0.05 0.05 0.06 0.06 0.07 0.05 0.05 0.05 0.06 0.07 0.08 0.07 0.08 0.09 0.08 0.08 0.07 0.07 0.07 0.07 0.05 0.07 0.08 0.07 0.05
0.06 0.10 0.12 0.07 0.04 0.03 0.03 0.03 0.04 0.06 0.08 0.09 0.07 0.05 0.03 0.04 0.04 0.04 0.03 0.03 0.04 0.04 0.05 0.05 0.04 0.05 0.04 0.05 0.05 0.04 0.05 0.06 0.07 0.07 0.07 0.05 0.05 0.05 0.05 0.05 0.07 0.07 0.08
0.12 0.18 0.18 0.13 0.11 0.06 0.04 0.03 0.06 0.09 0.08 0.08 0.06 0.05 0.06 0.05 0.04 0.03 0.02 0.03 0.04 0.04 0.03 0.05 0.05 0.05 0.05 0.05 0.04 0.05 0.05 0.06 0.06 0.06 0.06 0.05 0.06 0.05 0.05 0.06 0.09 0.10 0.11
0.19 0.16 0.12 0.12 0.16 0.09 0.04 0.02 0.06 0.14 0.11 0.09 0.04 0.03 0.05 0.06 0.04 0.03 0.03 0.05 0.05 0.05 0.05 0.05 0.05 0.04 0.04 0.04 0.04 0.05 0.06 0.05 0.05 0.06 0.08 0.08 0.08 0.07 0.07 0.10 0.11 0.11 0.11
0.10 0.09 0.08 0.06 0.08 0.06 0.04 0.02 0.02 0.06 0.07 0.06 0.03 0.03 0.03 0.04 0.04 0.04 0.05 0.07 0.07 0.06 0.05 0.05 0.03 0.03 0.03 0.03 0.03 0.04 0.05 0.06 0.06 0.07 0.08 0.07 0.09 0.09 0.10 0.11 0.10 0.10 0.11
0.04 0.04 0.04 0.05 0.08 0.07 0.03 0.02 0.02 0.01 0.01 0.01 0.01 0.02 0.03 0.02 0.03 0.04 0.04 0.04 0.05 0.05 0.04 0.04 0.04 0.03 0.03 0.03 0.04 0.06 0.06 0.06 0.06 0.06 0.06 0.07 0.09 0.10 0.11 0.11 0.10 0.10 0.12
0.05 0.07 0.06 0.06 0.05 0.04 0.03 0.02 0.03 0.03 0.03 0.02 0.01 0.02 0.03 0.03 0.03 0.04 0.04 0.03 0.05 0.05 0.05 0.04 0.04 0.03 0.03 0.03 0.05 0.06 0.06 0.06 0.05 0.05 0.06 0.07 0.08 0.09 0.10 0.10 0.10 0.12 0.12
0.05 0.05 0.10 0.07 0.05 0.03 0.02 0.02 0.03 0.04 0.04 0.04 0.03 0.03 0.03 0.03 0.03 0.04 0.05 0.05 0.05 0.06 0.05 0.05 0.04 0.04 0.04 0.04 0.04 0.04 0.04 0.04 0.04 0.05 0.07 0.07 0.05 0.04 0.04 0.05 0.07 0.07 0.06
0.05 0.05 0.06 0.05 0.05 0.03 0.02 0.02 0.02 0.05 0.07 0.07 0.06 0.05 0.04 0.03 0.02 0.03 0.04 0.05 0.04 0.04 0.04 0.04 0.04 0.03 0.03 0.04 0.03 0.03 0.03 0.03 0.03 0.03 0.03 0.04 0.03 0.03 0.04 0.05 0.05 0.05 0.06
0.07 0.06 0.10 0.09 0.06 0.05 0.03 0.03 0.04 0.05 0.07 0.07 0.07 0.06 0.03 0.02 0.01 0.03 0.05 0.05 0.04 0.04 0.04 0.03 0.03 0.02 0.02 0.03 0.03 0.03 0.03 0.03 0.02 0.01 0.01 0.02 0.02 0.03 0.04 0.04 0.04 0.04 0.06
0.09 0.09 0.07 0.04 0.03 0.03 0.03 0.04 0.03 0.04 0.06 0.07 0.07 0.05 0.02 0.02 0.01 0.03 0.06 0.06 0.07 0.07 0.05 0.03 0.02 0.02 0.02 0.03 0.03 0.02 0.02 0.02 0.02 0.02 0.02 0.01 0.01 0.02 0.03 0.03 0.03 0.03 0.04
0.09 0.09 0.08 0.04 0.03 0.02 0.03 0.07 0.08 0.09 0.08 0.06 0.07 0.05 0.03 0.02 0.02 0.02 0.03 0.03 0.05 0.07 0.07 0.04 0.02 0.01 0.01 0.02 0.02 0.01 0.01 0.01 0.01 0.02 0.01 0.01 0.01 0.02 0.02 0.02 0.02 0.02 0.03
0.06 0.06 0.05 0.05 0.04 0.04 0.04 0.05 0.07 0.07 0.06 0.05 0.04 0.03 0.02 0.02 0.02 0.02 0.01 0.01 0.01 0.01 0.02 0.03 0.02 0.02 0.02 0.03 0.02 0.01 0.01 0.01 0.01 0.01 0.01 0.01 0.01 0.02 0.02 0.01 0.01 0.01 0.01
0.05 0.05 0.04 0.05 0.06 0.07 0.08 0.07 0.06 0.05 0.04 0.03 0.03 0.02 0.02 0.02 0.02 0.01 0.01 0.01 0.01 0.01 0.01 0.02 0.02 0.02 0.02 0.02 0.02 0.02 0.01 0.01 0.01 0.01 0.01 0.01 0.02 0.03 0.02 0.02 0.01 0.01 0.01
0.05 0.04 0.04 0.04 0.04 0.05 0.06 0.07 0.06 0.06 0.04 0.05 0.05 0.03 0.02 0.02 0.01 0.01 0.01 0.01 0.01 0.01 0.02 0.02 0.02 0.01 0.02 0.02 0.03 0.03 0.02 0.02 0.01 0.00 0.00 0.00 0.01 0.01 0.02 0.01 0.01 0.01 0.01
0.04 0.04 0.04 0.04 0.04 0.04 0.05 0.05 0.05 0.04 0.03 0.03 0.02 0.02 0.01 0.01 0.01 0.01 0.01 0.01 0.01 0.01 0.01 0.01 0.01 0.01 0.01 0.01 0.01 0.02 0.02 0.03 0.02 0.02 0.02 0.02 0.02 0.02 0.02 0.01 0.01 0.01 0.01
0.05 0.04 0.04 0.03 0.04 0.05 0.06 0.06 0.06 0.04 0.04 0.02 0.01 0.01 0.01 0.01 0.01 0.01 0.01 0.01 0.01 0.01 0.01 0.01 0.01 0.01 0.01 0.01 0.01 0.01 0.02 0.03 0.04 0.04 0.03 0.03 0.03 0.02 0.01 0.01 0.01 0.01 0.01
0.08 0.07 0.05 0.05 0.06 0.06 0.06 0.06 0.05 0.05 0.03 0.02 0.02 0.02 0.02 0.01 0.01 0.01 0.01 0.01 0.01 0.00 0.01 0.01 0.01 0.02 0.03 0.03 0.03 0.03 0.03 0.02 0.02 0.02 0.01 0.02 0.02 0.02 0.02 0.02 0.02 0.02 0.02

GEFSMW_prec_meanprec_168.txt.gz
QPF
0.01 0.01 0.02 0.02 0.02 0.02 0.02 0.01 0.02 0.05 0.07 0.07 0.09 0.08 0.08 0.07 0.07 0.06 0.07 0.07 0.07 0.09 0.09 0.07 0.05 0.03 0.03 0.04 0.06 0.05 0.03 0.03 0.04 0.04 0.04 0.04 0.03 0.02 0.02 0.02 0.02 0.03 0.04
0.01 0.01 0.02 0.03 0.02 0.02 0.01 0.02 0.03 0.05 0.06 0.06 0.07 0.06 0.06 0.05 0.07 0.07 0.08 0.06 0.06 0.08 0.07 0.06 0.05 0.04 0.04 0.05 0.06 0.05 0.04 0.04 0.04 0.03 0.04 0.02 0.01 0.01 0.01 0.02 0.02 0.03 0.03
0.02 0.02 0.02 0.03 0.03 0.03 0.02 0.02 0.04 0.05 0.06 0.06 0.07 0.06 0.05 0.05 0.05 0.08 0.10 0.08 0.09 0.11 0.08 0.05 0.06 0.05 0.06 0.05 0.04 0.03 0.03 0.03 0.04 0.04 0.03 0.02 0.00 0.00 0.01 0.01 0.01 0.02 0.02
0.03 0.03 0.03 0.02 0.04 0.05 0.03 0.03 0.04 0.05 0.05 0.05 0.05 0.06 0.06 0.05 0.05 0.06 0.09 0.11 0.11 0.13 0.11 0.08 0.07 0.07 0.07 0.07 0.06 0.04 0.03 0.03 0.03 0.03 0.02 0.02 0.01 0.01 0.00 0.01 0.00 0.01 0.01
0.03 0.03 0.03 0.04 0.05 0.06 0.05 0.05 0.05 0.04 0.03 0.03 0.04 0.05 0.06 0.06 0.06 0.06 0.07 0.10 0.12 0.12 0.11 0.08 0.07 0.08 0.09 0.09 0.10 0.08 0.05 0.03 0.03 0.03 0.03 0.03 0.02 0.01 0.01 0.01 0.01 0.01 0.01
0.03 0.03 0.04 0.06 0.08 0.10 0.09 0.07 0.07 0.05 0.04 0.03 0.03 0.04 0.05 0.05 0.05 0.05 0.05 0.07 0.08 0.09 0.07 0.07 0.08 0.11 0.10 0.09 0.09 0.08 0.07 0.05 0.04 0.05 0.05 0.04 0.03 0.02 0.02 0.01 0.01 0.01 0.01
0.04 0.05 0.06 0.08 0.11 0.11 0.11 0.08 0.08 0.07 0.06 0.05 0.05 0.05 0.04 0.03 0.03 0.04 0.05 0.05 0.05 0.05 0.05 0.05 0.06 0.07 0.09 0.09 0.09 0.09 0.08 0.08 0.06 0.07 0.06 0.06 0.05 0.05 0.03 0.02 0.01 0.01 0.01
0.05 0.08 0.10 0.12 0.12 0.11 0.08 0.06 0.07 0.06 0.05 0.06 0.06 0.05 0.04 0.03 0.03 0.03 0.03 0.03 0.03 0.03 0.04 0.05 0.05 0.05 0.05 0.05 0.05 0.05 0.05 0.06 0.06 0.07 0.08 0.08 0.06 0.07 0.07 0.05 0.04 0.02 0.01
0.05 0.05 0.10 0.16 0.19 0.16 0.08 0.07 0.09 0.06 0.04 0.05 0.07 0.06 0.04 0.04 0.04 0.04 0.03 0.02 0.03 0.03 0.04 0.05 0.04 0.03 0.04 0.04 0.04 0.04 0.04 0.04 0.05 0.06 0.08 0.08 0.07 0.08 0.08 0.07 0.07 0.05 0.03
0.02 0.02 0.05 0.14 0.13 0.07 0.06 0.08 0.06 0.05 0.04 0.05 0.07 0.07 0.07 0.05 0.06 0.04 0.02 0.02 0.02 0.03 0.03 0.04 0.04 0.04 0.04 0.04 0.03 0.03 0.03 0.03 0.04 0.04 0.05 0.05 0.07 0.08 0.08 0.08 0.07 0.06 0.05
0.01 0.01 0.03 0.05 0.03 0.03 0.04 0.04 0.05 0.05 0.04 0.04 0.08 0.10 0.08 0.06 0.05 0.03 0.02 0.02 0.02 0.02 0.02 0.03 0.04 0.04 0.04 0.04 0.04 0.03 0.03 0.03 0.03 0.03 0.03 0.03 0.04 0.05 0.06 0.07 0.07 0.06 0.06
0.00 0.01 0.02 0.03 0.03 0.04 0.03 0.05 0.07 0.06 0.06 0.07 0.05 0.06 0.06 0.06 0.05 0.03 0.03 0.02 0.02 0.02 0.03 0.04 0.04 0.04 0.05 0.05 0.04 0.03 0.02 0.02 0.02 0.02 0.02 0.02 0.02 0.03 0.04 0.05 0.06 0.06 0.07
0.00 0.01 0.01 0.02 0.02 0.02 0.03 0.06 0.09 0.09 0.10 0.09 0.06 0.04 0.03 0.03 0.04 0.04 0.04 0.04 0.03 0.04 0.05 0.04 0.03 0.03 0.05 0.05 0.04 0.04 0.03 0.03 0.03 0.03 0.03 0.03 0.04 0.04 0.04 0.05 0.05 0.07 0.09
0.01 0.01 0.01 0.01 0.02 0.02 0.02 0.03 0.04 0.06 0.06 0.06 0.07 0.07 0.06 0.04 0.05 0.05 0.05 0.04 0.03 0.03 0.03 0.03 0.03 0.03 0.03 0.04 0.04 0.04 0.03 0.02 0.03 0.04 0.03 0.04 0.04 0.04 0.04 0.04 0.05 0.07 0.09
0.01 0.01 0.01 0.01 0.02 0.03 0.03 0.03 0.02 0.02 0.03 0.03 0.03 0.04 0.05 0.05 0.04 0.04 0.05 0.06 0.04 0.04 0.04 0.04 0.05 0.05 0.05 0.05 0.05 0.05 0.05 0.04 0.04 0.04 0.04 0.03 0.03 0.04 0.04 0.05 0.05 0.05 0.05
0.01 0.01 0.01 0.02 0.03 0.03 0.03 0.02 0.02 0.02 0.02 0.02 0.02 0.03 0.04 0.05 0.05 0.05 0.06 0.06 0.05 0.05 0.04 0.04 0.04 0.05 0.06 0.07 0.08 0.09 0.09 0.07 0.06 0.06 0.04 0.04 0.04 0.05 0.05 0.05 0.03 0.03 0.02
0.01 0.01 0.01 0.02 0.03 0.02 0.03 0.02 0.02 0.03 0.02 0.02 0.02 0.03 0.04 0.04 0.03 0.03 0.03 0.05 0.05 0.04 0.04 0.04 0.04 0.04 0.05 0.06 0.08 0.08 0.07 0.05 0.06 0.06 0.04 0.03 0.03 0.03 0.02 0.01 0.01 0.01 0.01
0.01 0.02 0.02 0.02 0.02 0.03 0.06 0.05 0.03 0.03 0.03 0.02 0.02 0.03 0.03 0.03 0.03 0.03 0.03 0.05 0.05 0.05 0.05 0.05 0.05 0.05 0.04 0.04 0.03 0.03 0.03 0.03 0.04 0.04 0.05 0.03 0.02 0.02 0.01 0.01 0.01 0.01 0.01
0.02 0.02 0.03 0.02 0.02 0.04 0.04 0.04 0.04 0.04 0.03 0.02 0.03 0.04 0.04 0.04 0.03 0.03 0.04 0.04 0.03 0.03 0.04 0.05 0.06 0.06 0.06 0.04 0.02 0.02 0.02 0.01 0.02 0.03 0.04 0.04 0.03 0.03 0.03 0.02 0.01 0.01 0.01
0.03 0.03 0.04 0.04 0.03 0.04 0.04 0.05 0.05 0.06 0.06 0.04 0.05 0.06 0.06 0.06 0.05 0.05 0.04 0.03 0.03 0.04 0.06 0.08 0.09 0.08 0.08 0.06 0.04 0.03 0.03 0.02 0.02 0.03 0.04 0.05 0.05 0.04 0.04 0.03 0.03 0.02 0.01
0.04 0.05 0.05 0.05 0.04 0.04 0.05 0.05 0.06 0.08 0.10 0.09 0.09 0.10 0.09 0.09 0.08 0.06 0.04 0.02 0.02 0.02 0.04 0.07 0.09 0.09 0.09 0.10 0.08 0.06 0.05 0.05 0.04 0.02 0.02 0.02 0.03 0.03 0.03 0.03 0.02 0.02 0.02
0.06 0.07 0.10 0.09 0.06 0.07 0.06 0.05 0.07 0.10 0.10 0.08 0.09 0.10 0.09 0.09 0.07 0.04 0.03 0.02 0.02 0.01 0.02 0.02 0.02 0.03 0.04 0.06 0.05 0.05 0.04 0.03 0.02 0.01 0.00 0.01 0.01 0.01 0.01 0.01 0.01 0.01 0.01
0.06 0.07 0.08 0.08 0.06 0.06 0.06 0.06 0.06 0.06 0.06 0.06 0.08 0.11 0.09 0.07 0.05 0.04 0.03 0.02 0.02 0.02 0.02 0.01 0.01 0.01 0.02 0.02 0.02 0.03 0.03 0.02 0.01 0.01 0.01 0.01 0.01 0.00 0.01 0.01 0.01 0.01 0.01
0.07 0.06 0.05 0.05 0.06 0.07 0.08 0.07 0.05 0.05 0.06 0.06 0.05 0.04 0.03 0.03 0.03 0.04 0.03 0.02 0.02 0.02 0.01 0.01 0.01 0.01 0.01 0.01 0.01 0.02 0.02 0.02 0.02 0.01 0.01 0.01 0.01 0.01 0.02 0.02 0.02 0.01 0.01
0.09 0.06 0.05 0.06 0.06 0.06 0.08 0.09 0.08 0.05 0.05 0.05 0.05 0.03 0.02 0.02 0.03 0.02 0.02 0.01 0.01 0.01 0.01 0.01 0.00 0.00 0.00 0.01 0.01 0.01 0.01 0.02 0.02 0.02 0.02 0.01 0.01 0.02 0.01 0.01 0.01 0.02 0.02
0.07 0.08 0.08 0.07 0.06 0.04 0.03 0.03 0.04 0.04 0.04 0.05 0.04 0.03 0.03 0.03 0.02 0.02 0.02 0.01 0.01 0.01 0.01 0.01 0.01 0.00 0.01 0.01 0.01 0.01 0.01 0.01 0.01 0.01 0.00 0.01 0.01 0.01 0.01 0.01 0.01 0.01 0.01

GEFSMW_prec_meanprec_174.txt.gz
QPF
0.00 0.00 0.00 0.01 0.02 0.02 0.04 0.04 0.05 0.06 0.04 0.05 0.08 0.08 0.11 0.11 0.10 0.09 0.08 0.08 0.08 0.11 0.12 0.09 0.10 0.09 0.09 0.10 0.08 0.09 0.10 0.11 0.10 0.09 0.06 0.04 0.03 0.03 0.03 0.03 0.03 0.04 0.05
0.00 0.00 0.01 0.01 0.01 0.01 0.04 0.04 0.05 0.05 0.05 0.08 0.13 0.09 0.10 0.09 0.10 0.10 0.11 0.09 0.07 0.09 0.08 0.10 0.10 0.11 0.11 0.10 0.09 0.09 0.08 0.09 0.09 0.11 0.10 0.08 0.07 0.03 0.01 0.02 0.03 0.03 0.04
0.01 0.01 0.01 0.01 0.01 0.01 0.02 0.03 0.05 0.06 0.07 0.08 0.11 0.10 0.10 0.08 0.10 0.12 0.10 0.08 0.06 0.07 0.08 0.08 0.10 0.11 0.08 0.09 0.11 0.10 0.08 0.09 0.08 0.08 0.10 0.11 0.09 0.06 0.03 0.02 0.02 0.02 0.02
0.00 0.01 0.02 0.01 0.02 0.03 0.02 0.03 0.04 0.07 0.07 0.09 0.09 0.11 0.11 0.09 0.13 0.14 0.11 0.11 0.09 0.07 0.08 0.08 0.08 0.08 0.07 0.09 0.08 0.08 0.08 0.09 0.09 0.08 0.07 0.09 0.09 0.09 0.05 0.03 0.02 0.02 0.02
0.01 0.01 0.01 0.02 0.02 0.03 0.03 0.02 0.04 0.05 0.05 0.05 0.06 0.09 0.09 0.08 0.11 0.18 0.13 0.13 0.13 0.10 0.09 0.09 0.09 0.09 0.08 0.08 0.07 0.09 0.09 0.07 0.08 0.09 0.08 0.08 0.08 0.07 0.06 0.05 0.05 0.03 0.02
0.01 0.01 0.01 0.01 0.02 0.04 0.05 0.03 0.04 0.04 0.03 0.04 0.05 0.06 0.06 0.07 0.07 0.09 0.08 0.07 0.07 0.08 0.08 0.08 0.08 0.07 0.07 0.08 0.08 0.08 0.08 0.08 0.09 0.10 0.08 0.09 0.09 0.08 0.08 0.07 0.06 0.05 0.03
0.00 0.00 0.00 0.01 0.01 0.01 0.02 0.02 0.02 0.02 0.03 0.04 0.05 0.05 0.05 0.05 0.06 0.06 0.04 0.04 0.04 0.05 0.07 0.06 0.08 0.06 0.06 0.07 0.07 0.08 0.09 0.10 0.10 0.09 0.09 0.08 0.08 0.09 0.09 0.09 0.06 0.03 0.02
0.00 0.00 0.00 0.00 0.00 0.00 0.01 0.01 0.01 0.02 0.02 0.03 0.03 0.04 0.04 0.04 0.04 0.05 0.04 0.03 0.04 0.04 0.04 0.05 0.06 0.05 0.05 0.05 0.06 0.07 0.07 0.07 0.08 0.07 0.08 0.09 0.09 0.09 0.08 0.08 0.08 0.05 0.04
0.00 0.00 0.00 0.00 0.00 0.00 0.00 0.00 0.01 0.02 0.02 0.03 0.03 0.05 0.05 0.04 0.04 0.05 0.05 0.03 0.04 0.03 0.03 0.04 0.05 0.04 0.05 0.06 0.06 0.06 0.06 0.07 0.07 0.07 0.08 0.08 0.09 0.09 0.09 0.09 0.09 0.10 0.08
0.00 0.00 0.00 0.00 0.01 0.00 0.00 0.00 0.01 0.01 0.02 0.03 0.04 0.05 0.07 0.06 0.05 0.06 0.06 0.04 0.04 0.03 0.04 0.05 0.05 0.04 0.05 0.04 0.04 0.05 0.06 0.05 0.06 0.07 0.08 0.08 0.08 0.08 0.08 0.08 0.08 0.10 0.09
0.00 0.00 0.00 0.02 0.01 0.00 0.00 0.01 0.01 0.02 0.02 0.03 0.03 0.04 0.06 0.06 0.05 0.05 0.07 0.05 0.03 0.03 0.04 0.04 0.04 0.03 0.04 0.04 0.04 0.05 0.05 0.05 0.05 0.05 0.05 0.06 0.07 0.08 0.07 0.07 0.07 0.07 0.07
0.00 0.00 0.00 0.02 0.02 0.01 0.00 0.01 0.02 0.02 0.03 0.03 0.03 0.04 0.06 0.04 0.03 0.03 0.04 0.03 0.03 0.02 0.03 0.04 0.05 0.04 0.04 0.05 0.05 0.05 0.05 0.05 0.04 0.04 0.04 0.05 0.06 0.06 0.07 0.07 0.06 0.06 0.08
0.00 0.00 0.00 0.01 0.01 0.01 0.01 0.02 0.03 0.03 0.03 0.04 0.04 0.05 0.05 0.05 0.04 0.04 0.04 0.04 0.04 0.03 0.03 0.05 0.05 0.05 0.04 0.04 0.04 0.05 0.05 0.04 0.04 0.04 0.05 0.06 0.07 0.07 0.07 0.06 0.06 0.06 0.07
0.00 0.00 0.00 0.00 0.00 0.00 0.01 0.01 0.02 0.04 0.04 0.03 0.04 0.06 0.06 0.06 0.05 0.05 0.05 0.05 0.06 0.06 0.06 0.06 0.07 0.07 0.05 0.05 0.05 0.05 0.05 0.05 0.05 0.05 0.05 0.06 0.05 0.06 0.06 0.05 0.06 0.07 0.08
0.00 0.00 0.00 0.00 0.00 0.00 0.01 0.01 0.01 0.02 0.02 0.01 0.01 0.01 0.03 0.05 0.04 0.02 0.02 0.03 0.06 0.09 0.10 0.08 0.08 0.07 0.06 0.05 0.05 0.07 0.07 0.09 0.08 0.07 0.06 0.05 0.05 0.05 0.05 0.04 0.05 0.06 0.06
0.00 0.00 0.00 0.00 0.01 0.01 0.01 0.01 0.01 0.01 0.01 0.01 0.01 0.01 0.01 0.01 0.02 0.01 0.02 0.03 0.04 0.05 0.07 0.08 0.09 0.06 0.04 0.04 0.05 0.07 0.09 0.09 0.08 0.07 0.06 0.05 0.05 0.05 0.05 0.05 0.04 0.05 0.06
0.00 0.00 0.00 0.00 0.00 0.01 0.01 0.01 0.01 0.01 0.00 0.00 0.01 0.01 0.01 0.01 0.01 0.01 0.02 0.03 0.04 0.05 0.06 0.05 0.05 0.04 0.04 0.04 0.05 0.05 0.07 0.09 0.07 0.07 0.08 0.06 0.04 0.04 0.03 0.04 0.03 0.03 0.02
0.01 0.01 0.00 0.00 0.01 0.02 0.02 0.02 0.01 0.01 0.01 0.01 0.01 0.01 0.01 0.02 0.02 0.03 0.05 0.05 0.05 0.05 0.05 0.05 0.05 0.05 0.04 0.04 0.04 0.04 0.05 0.05 0.05 0.04 0.03 0.03 0.03 0.02 0.02 0.03 0.03 0.02 0.02
0.00 0.00 0.00 0.01 0.03 0.04 0.03 0.03 0.02 0.01 0.01 0.01 0.01 0.01 0.01 0.02 0.02 0.03 0.04 0.05 0.06 0.06 0.05 0.04 0.05 0.06 0.06 0.07 0.06 0.06 0.06 0.05 0.04 0.03 0.02 0.02 0.02 0.02 0.02 0.03 0.03 0.03 0.02
0.01 0.01 0.01 0.04 0.05 0.04 0.05 0.05 0.03 0.02 0.01 0.01 0.02 0.01 0.02 0.02 0.03 0.04 0.04 0.04 0.05 0.07 0.07 0.04 0.04 0.04 0.07 0.11 0.13 0.10 0.07 0.06 0.04 0.03 0.04 0.03 0.03 0.04 0.04 0.04 0.04 0.03 0.03
0.01 0.01 0.02 0.03 0.04 0.04 0.05 0.04 0.03 0.02 0.02 0.02 0.02 0.02 0.02 0.03 0.03 0.04 0.04 0.04 0.04 0.05 0.05 0.04 0.03 0.04 0.05 0.06 0.09 0.09 0.08 0.08 0.08 0.08 0.07 0.07 0.06 0.06 0.05 0.04 0.04 0.04 0.04
0.03 0.03 0.03 0.04 0.05 0.06 0.06 0.05 0.03 0.03 0.03 0.03 0.04 0.04 0.05 0.06 0.04 0.04 0.04 0.03 0.03 0.03 0.03 0.04 0.04 0.03 0.03 0.03 0.03 0.03 0.03 0.04 0.05 0.04 0.04 0.04 0.03 0.02 0.02 0.02 0.02 0.03 0.03
0.03 0.04 0.04 0.04 0.05 0.05 0.05 0.06 0.04 0.03 0.03 0.03 0.04 0.08 0.11 0.11 0.08 0.05 0.04 0.03 0.03 0.03 0.03 0.03 0.02 0.02 0.02 0.02 0.01 0.01 0.02 0.02 0.02 0.02 0.02 0.02 0.01 0.01 0.01 0.01 0.01 0.01 0.01
0.02 0.04 0.04 0.05 0.04 0.03 0.04 0.04 0.03 0.03 0.03 0.02 0.02 0.02 0.04 0.06 0.05 0.04 0.03 0.03 0.03 0.03 0.03 0.02 0.02 0.02 0.02 0.02 0.01 0.01 0.01 0.01 0.01 0.00 0.01 0.00 0.00 0.00 0.00 0.00 0.01 0.01 0.01
0.03 0.04 0.04 0.03 0.03 0.02 0.02 0.03 0.03 0.02 0.02 0.02 0.01 0.01 0.02 0.01 0.01 0.01 0.02 0.02 0.02 0.02 0.02 0.03 0.03 0.02 0.02 0.01 0.01 0.01 0.01 0.00 0.00 0.00 0.00 0.00 0.00 0.00 0.00 0.00 0.00 0.01 0.01
0.03 0.03 0.03 0.03 0.04 0.03 0.03 0.03 0.02 0.02 0.02 0.02 0.02 0.02 0.02 0.01 0.01 0.01 0.01 0.01 0.01 0.01 0.01 0.01 0.01 0.01 0.01 0.01 0.01 0.00 0.00 0.00 0.00 0.00 0.00 0.00 0.00 0.00 0.00 0.01 0.00 0.01 0.01

GEFSMW_prec_meanprec_180.txt.gz
QPF
0.00 0.00 0.01 0.00 0.01 0.02 0.01 0.02 0.04 0.05 0.06 0.07 0.07 0.08 0.08 0.08 0.08 0.05 0.05 0.06 0.05 0.05 0.06 0.06 0.10 0.09 0.09 0.08 0.08 0.08 0.09 0.07 0.07 0.09 0.11 0.07 0.06 0.05 0.05 0.05 0.06 0.07 0.07
0.00 0.00 0.01 0.00 0.00 0.02 0.02 0.04 0.06 0.05 0.05 0.07 0.08 0.08 0.07 0.06 0.06 0.06 0.08 0.07 0.05 0.05 0.06 0.09 0.10 0.10 0.12 0.11 0.10 0.11 0.12 0.09 0.09 0.11 0.16 0.14 0.12 0.08 0.06 0.07 0.06 0.06 0.06
0.00 0.00 0.01 0.00 0.00 0.01 0.01 0.03 0.05 0.04 0.05 0.06 0.07 0.08 0.08 0.07 0.07 0.07 0.09 0.07 0.05 0.05 0.07 0.08 0.09 0.12 0.13 0.15 0.13 0.12 0.12 0.11 0.12 0.12 0.16 0.19 0.17 0.14 0.10 0.08 0.07 0.05 0.04
0.00 0.00 0.00 0.00 0.00 0.01 0.01 0.02 0.03 0.04 0.03 0.04 0.07 0.12 0.11 0.11 0.09 0.08 0.08 0.08 0.06 0.07 0.09 0.08 0.10 0.12 0.10 0.13 0.11 0.14 0.15 0.14 0.12 0.12 0.13 0.14 0.17 0.18 0.14 0.09 0.05 0.03 0.03
0.00 0.00 0.00 0.00 0.00 0.00 0.00 0.02 0.04 0.05 0.04 0.04 0.06 0.10 0.13 0.11 0.09 0.09 0.12 0.11 0.08 0.06 0.06 0.07 0.09 0.10 0.08 0.10 0.09 0.13 0.13 0.13 0.11 0.13 0.13 0.14 0.15 0.15 0.16 0.14 0.10 0.08 0.06
0.00 0.00 0.00 0.00 0.00 0.00 0.00 0.01 0.03 0.04 0.04 0.03 0.04 0.07 0.10 0.10 0.10 0.11 0.11 0.09 0.06 0.05 0.05 0.06 0.08 0.07 0.08 0.08 0.08 0.09 0.10 0.11 0.12 0.13 0.12 0.13 0.12 0.15 0.16 0.15 0.13 0.11 0.06
0.00 0.00 0.00 0.01 0.01 0.00 0.01 0.00 0.01 0.02 0.03 0.03 0.04 0.06 0.07 0.07 0.09 0.10 0.08 0.06 0.04 0.03 0.04 0.05 0.07 0.07 0.08 0.08 0.08 0.07 0.08 0.09 0.09 0.10 0.10 0.10 0.09 0.10 0.12 0.12 0.10 0.10 0.07
0.00 0.00 0.00 0.00 0.00 0.00 0.00 0.01 0.01 0.02 0.02 0.03 0.04 0.06 0.05 0.06 0.07 0.08 0.07 0.05 0.03 0.03 0.03 0.04 0.04 0.05 0.06 0.07 0.10 0.07 0.07 0.07 0.07 0.06 0.09 0.09 0.09 0.10 0.11 0.11 0.11 0.09 0.08
0.00 0.00 0.00 0.00 0.00 0.00 0.00 0.01 0.02 0.02 0.02 0.02 0.04 0.04 0.04 0.05 0.07 0.08 0.06 0.05 0.05 0.03 0.03 0.05 0.06 0.05 0.06 0.07 0.08 0.08 0.07 0.09 0.08 0.08 0.09 0.08 0.09 0.10 0.10 0.12 0.13 0.10 0.08
0.00 0.00 0.00 0.00 0.00 0.00 0.00 0.01 0.02 0.03 0.03 0.03 0.04 0.04 0.04 0.05 0.07 0.07 0.07 0.06 0.06 0.06 0.08 0.08 0.07 0.06 0.07 0.07 0.08 0.07 0.07 0.08 0.08 0.08 0.09 0.08 0.09 0.11 0.10 0.10 0.10 0.10 0.09
0.00 0.00 0.00 0.00 0.01 0.00 0.00 0.00 0.01 0.03 0.03 0.04 0.04 0.04 0.04 0.05 0.07 0.08 0.07 0.07 0.08 0.08 0.11 0.09 0.08 0.08 0.09 0.09 0.08 0.07 0.07 0.08 0.07 0.07 0.08 0.07 0.08 0.08 0.07 0.08 0.09 0.09 0.09
0.00 0.00 0.00 0.00 0.03 0.01 0.00 0.01 0.01 0.02 0.03 0.03 0.03 0.03 0.03 0.04 0.05 0.05 0.05 0.06 0.06 0.05 0.06 0.06 0.06 0.06 0.08 0.08 0.07 0.06 0.08 0.08 0.07 0.06 0.06 0.05 0.06 0.07 0.07 0.07 0.07 0.08 0.09
0.01 0.00 0.00 0.01 0.07 0.03 0.01 0.01 0.01 0.02 0.03 0.04 0.04 0.04 0.03 0.03 0.03 0.04 0.05 0.06 0.05 0.05 0.05 0.05 0.05 0.06 0.07 0.07 0.06 0.06 0.07 0.07 0.07 0.05 0.05 0.04 0.04 0.04 0.05 0.06 0.06 0.06 0.07
0.03 0.00 0.00 0.01 0.03 0.03 0.02 0.03 0.04 0.07 0.05 0.04 0.04 0.03 0.03 0.02 0.03 0.03 0.04 0.05 0.07 0.08 0.07 0.07 0.07 0.08 0.08 0.08 0.07 0.07 0.07 0.06 0.05 0.05 0.04 0.04 0.03 0.03 0.04 0.05 0.05 0.06 0.07
0.04 0.00 0.00 0.00 0.01 0.02 0.02 0.02 0.02 0.05 0.06 0.05 0.03 0.02 0.02 0.01 0.01 0.02 0.03 0.04 0.05 0.06 0.07 0.06 0.06 0.06 0.07 0.06 0.06 0.06 0.05 0.05 0.05 0.04 0.04 0.04 0.04 0.04 0.03 0.03 0.04 0.05 0.06
0.02 0.00 0.00 0.00 0.00 0.00 0.01 0.01 0.01 0.01 0.01 0.01 0.01 0.01 0.01 0.01 0.02 0.02 0.02 0.05 0.06 0.05 0.05 0.04 0.03 0.04 0.04 0.04 0.04 0.04 0.05 0.05 0.05 0.05 0.04 0.04 0.04 0.04 0.03 0.03 0.03 0.04 0.05
0.00 0.00 0.00 0.00 0.00 0.01 0.01 0.01 0.00 0.01 0.01 0.01 0.01 0.01 0.01 0.01 0.02 0.02 0.03 0.04 0.05 0.06 0.06 0.05 0.04 0.04 0.04 0.04 0.04 0.03 0.03 0.04 0.05 0.04 0.04 0.04 0.03 0.03 0.04 0.04 0.03 0.03 0.03
0.00 0.00 0.00 0.00 0.01 0.01 0.01 0.04 0.03 0.01 0.01 0.01 0.00 0.01 0.01 0.01 0.02 0.03 0.04 0.05 0.06 0.06 0.06 0.06 0.07 0.07 0.05 0.04 0.03 0.02 0.02 0.04 0.05 0.05 0.05 0.06 0.05 0.04 0.04 0.03 0.04 0.03 0.04
0.00 0.00 0.00 0.01 0.01 0.01 0.02 0.03 0.02 0.01 0.02 0.01 0.01 0.01 0.02 0.03 0.03 0.03 0.04 0.05 0.06 0.06 0.07 0.08 0.10 0.09 0.07 0.05 0.03 0.03 0.04 0.05 0.06 0.06 0.06 0.06 0.05 0.04 0.02 0.02 0.03 0.03 0.03
0.00 0.00 0.01 0.01 0.02 0.02 0.02 0.02 0.02 0.01 0.01 0.02 0.01 0.02 0.03 0.03 0.04 0.04 0.06 0.07 0.07 0.08 0.11 0.10 0.11 0.09 0.06 0.06 0.04 0.04 0.04 0.05 0.07 0.08 0.07 0.07 0.06 0.03 0.02 0.02 0.03 0.02 0.02
0.01 0.01 0.02 0.03 0.03 0.03 0.03 0.02 0.02 0.02 0.02 0.02 0.03 0.03 0.04 0.04 0.04 0.05 0.06 0.06 0.08 0.10 0.11 0.08 0.08 0.08 0.07 0.06 0.04 0.04 0.04 0.05 0.06 0.07 0.07 0.07 0.06 0.04 0.04 0.04 0.03 0.02 0.02
0.01 0.02 0.03 0.04 0.04 0.03 0.03 0.04 0.06 0.06 0.04 0.03 0.03 0.04 0.04 0.03 0.03 0.06 0.07 0.07 0.08 0.09 0.09 0.07 0.06 0.06 0.05 0.05 0.04 0.04 0.03 0.03 0.04 0.03 0.02 0.02 0.02 0.02 0.01 0.01 0.01 0.01 0.01
0.02 0.03 0.04 0.05 0.05 0.04 0.05 0.07 0.09 0.08 0.06 0.04 0.03 0.03 0.04 0.05 0.06 0.08 0.10 0.10 0.09 0.08 0.07 0.05 0.04 0.03 0.04 0.04 0.04 0.03 0.02 0.02 0.02 0.01 0.01 0.01 0.01 0.00 0.00 0.00 0.00 0.00 0.00
0.03 0.05 0.06 0.07 0.07 0.07 0.07 0.09 0.09 0.06 0.05 0.05 0.04 0.04 0.03 0.05 0.08 0.11 0.12 0.11 0.07 0.05 0.04 0.03 0.02 0.02 0.03 0.03 0.03 0.03 0.03 0.02 0.02 0.01 0.01 0.01 0.00 0.00 0.00 0.00 0.00 0.00 0.00
0.06 0.06 0.07 0.07 0.08 0.07 0.07 0.09 0.11 0.07 0.05 0.05 0.05 0.05 0.04 0.03 0.04 0.05 0.05 0.04 0.03 0.02 0.02 0.02 0.02 0.02 0.02 0.03 0.03 0.03 0.02 0.02 0.02 0.01 0.01 0.01 0.01 0.00 0.00 0.01 0.01 0.01 0.01
0.03 0.04 0.04 0.05 0.06 0.07 0.07 0.07 0.07 0.05 0.05 0.05 0.06 0.05 0.04 0.03 0.02 0.03 0.03 0.02 0.02 0.01 0.01 0.01 0.01 0.01 0.01 0.01 0.01 0.01 0.01 0.02 0.02 0.01 0.01 0.01 0.01 0.01 0.01 0.01 0.01 0.01 0.01

GEFSMW_prec_meanprec_186.txt.gz
QPF
0.03 0.03 0.02 0.00 0.00 0.01 0.01 0.02 0.03 0.03 0.03 0.03 0.03 0.03 0.04 0.04 0.03 0.03 0.02 0.04 0.05 0.04 0.04 0.05 0.07 0.06 0.05 0.05 0.06 0.04 0.04 0.03 0.04 0.05 0.04 0.05 0.07 0.07 0.06 0.07 0.08 0.08 0.07
0.03 0.06 0.03 0.01 0.00 0.01 0.01 0.02 0.04 0.03 0.03 0.04 0.04 0.03 0.03 0.03 0.03 0.03 0.04 0.04 0.05 0.04 0.04 0.05 0.05 0.05 0.05 0.06 0.06 0.05 0.04 0.03 0.04 0.05 0.05 0.06 0.09 0.08 0.07 0.08 0.09 0.09 0.09
0.06 0.05 0.02 0.01 0.01 0.01 0.01 0.01 0.02 0.02 0.02 0.04 0.04 0.03 0.04 0.03 0.03 0.05 0.06 0.06 0.05 0.05 0.06 0.05 0.04 0.04 0.04 0.06 0.06 0.06 0.04 0.04 0.06 0.06 0.05 0.06 0.05 0.06 0.06 0.07 0.07 0.08 0.09
0.05 0.04 0.02 0.01 0.01 0.01 0.01 0.02 0.02 0.02 0.02 0.03 0.03 0.04 0.04 0.05 0.04 0.04 0.04 0.04 0.05 0.04 0.04 0.04 0.04 0.04 0.05 0.05 0.03 0.04 0.04 0.05 0.06 0.07 0.06 0.05 0.05 0.04 0.03 0.03 0.05 0.05 0.06
0.02 0.01 0.01 0.01 0.01 0.01 0.01 0.02 0.02 0.03 0.03 0.03 0.04 0.05 0.05 0.06 0.05 0.04 0.03 0.04 0.06 0.06 0.05 0.04 0.03 0.03 0.04 0.03 0.04 0.05 0.05 0.04 0.05 0.05 0.06 0.06 0.07 0.06 0.03 0.03 0.03 0.04 0.05
0.02 0.02 0.02 0.02 0.02 0.02 0.01 0.01 0.01 0.02 0.02 0.02 0.03 0.04 0.06 0.05 0.04 0.03 0.03 0.04 0.06 0.07 0.05 0.04 0.03 0.03 0.04 0.04 0.04 0.06 0.04 0.03 0.03 0.04 0.04 0.05 0.05 0.05 0.06 0.05 0.04 0.03 0.03
0.03 0.03 0.02 0.04 0.03 0.02 0.01 0.01 0.01 0.02 0.02 0.02 0.03 0.03 0.04 0.03 0.03 0.03 0.03 0.03 0.03 0.03 0.03 0.04 0.04 0.04 0.04 0.06 0.06 0.07 0.05 0.04 0.04 0.03 0.03 0.02 0.03 0.04 0.05 0.04 0.04 0.03 0.01
0.05 0.03 0.02 0.02 0.03 0.02 0.01 0.01 0.01 0.01 0.01 0.02 0.02 0.03 0.03 0.03 0.03 0.02 0.02 0.03 0.03 0.03 0.04 0.05 0.05 0.04 0.04 0.05 0.06 0.07 0.08 0.07 0.06 0.05 0.04 0.02 0.03 0.05 0.06 0.06 0.06 0.05 0.04
0.03 0.02 0.01 0.04 0.03 0.02 0.01 0.01 0.01 0.01 0.01 0.01 0.02 0.03 0.03 0.02 0.02 0.03 0.02 0.03 0.04 0.04 0.04 0.05 0.06 0.04 0.04 0.04 0.05 0.07 0.08 0.07 0.06 0.05 0.05 0.03 0.03 0.05 0.07 0.06 0.06 0.05 0.05
0.03 0.03 0.03 0.04 0.02 0.02 0.02 0.01 0.01 0.01 0.02 0.02 0.02 0.02 0.02 0.03 0.03 0.04 0.03 0.04 0.03 0.04 0.04 0.04 0.05 0.05 0.04 0.05 0.06 0.06 0.06 0.06 0.06 0.07 0.09 0.07 0.05 0.06 0.06 0.06 0.06 0.07 0.06
0.02 0.02 0.04 0.03 0.03 0.02 0.02 0.01 0.01 0.01 0.02 0.03 0.02 0.02 0.02 0.03 0.05 0.05 0.05 0.04 0.03 0.03 0.05 0.04 0.04 0.04 0.03 0.04 0.04 0.05 0.06 0.08 0.09 0.10 0.10 0.07 0.07 0.06 0.05 0.06 0.06 0.05 0.05
0.03 0.02 0.02 0.02 0.04 0.08 0.03 0.04 0.04 0.03 0.02 0.03 0.03 0.03 0.03 0.03 0.04 0.05 0.04 0.04 0.03 0.02 0.03 0.03 0.03 0.04 0.04 0.04 0.04 0.05 0.06 0.09 0.10 0.11 0.11 0.09 0.08 0.06 0.05 0.05 0.05 0.06 0.05
0.04 0.02 0.02 0.02 0.04 0.07 0.05 0.07 0.07 0.03 0.03 0.03 0.04 0.03 0.03 0.02 0.03 0.02 0.03 0.04 0.03 0.02 0.01 0.01 0.01 0.02 0.04 0.05 0.05 0.05 0.06 0.07 0.08 0.08 0.08 0.08 0.07 0.07 0.06 0.05 0.06 0.06 0.07
0.06 0.03 0.02 0.03 0.04 0.06 0.05 0.05 0.05 0.05 0.07 0.06 0.06 0.04 0.03 0.02 0.01 0.02 0.03 0.04 0.03 0.02 0.01 0.01 0.02 0.03 0.03 0.04 0.04 0.06 0.07 0.08 0.07 0.06 0.06 0.06 0.07 0.06 0.06 0.05 0.05 0.06 0.07
0.04 0.03 0.03 0.03 0.03 0.06 0.07 0.07 0.06 0.06 0.10 0.11 0.08 0.05 0.04 0.03 0.02 0.01 0.02 0.02 0.02 0.02 0.02 0.02 0.04 0.07 0.07 0.06 0.06 0.07 0.07 0.08 0.08 0.07 0.06 0.05 0.05 0.05 0.04 0.03 0.04 0.05 0.05
0.03 0.03 0.03 0.03 0.04 0.04 0.06 0.06 0.05 0.04 0.03 0.04 0.04 0.03 0.02 0.02 0.02 0.02 0.02 0.02 0.02 0.03 0.03 0.03 0.03 0.03 0.04 0.06 0.09 0.10 0.11 0.10 0.08 0.08 0.07 0.07 0.06 0.05 0.05 0.05 0.05 0.06 0.05
0.05 0.07 0.04 0.05 0.07 0.06 0.05 0.08 0.07 0.04 0.02 0.03 0.02 0.01 0.02 0.03 0.03 0.02 0.02 0.02 0.02 0.03 0.04 0.05 0.06 0.04 0.04 0.05 0.06 0.06 0.06 0.07 0.07 0.08 0.07 0.07 0.07 0.07 0.06 0.07 0.07 0.07 0.06
0.04 0.04 0.04 0.07 0.08 0.05 0.05 0.07 0.07 0.04 0.03 0.03 0.03 0.02 0.03 0.03 0.03 0.03 0.02 0.02 0.02 0.03 0.04 0.05 0.07 0.05 0.06 0.07 0.07 0.07 0.06 0.05 0.06 0.06 0.06 0.06 0.07 0.08 0.08 0.07 0.06 0.04 0.04
0.03 0.03 0.04 0.04 0.04 0.03 0.05 0.06 0.05 0.05 0.05 0.04 0.03 0.03 0.03 0.03 0.03 0.03 0.02 0.02 0.02 0.03 0.04 0.05 0.06 0.07 0.08 0.09 0.09 0.08 0.06 0.07 0.07 0.06 0.05 0.06 0.06 0.07 0.07 0.07 0.06 0.04 0.03
0.03 0.03 0.03 0.04 0.05 0.04 0.05 0.05 0.05 0.05 0.05 0.05 0.06 0.05 0.04 0.04 0.04 0.04 0.04 0.04 0.04 0.04 0.05 0.05 0.07 0.07 0.06 0.07 0.09 0.08 0.06 0.07 0.06 0.05 0.05 0.07 0.09 0.11 0.13 0.12 0.10 0.08 0.06
0.02 0.03 0.03 0.06 0.06 0.05 0.06 0.07 0.08 0.08 0.07 0.08 0.08 0.08 0.07 0.07 0.07 0.05 0.04 0.04 0.04 0.05 0.05 0.05 0.07 0.08 0.07 0.07 0.07 0.08 0.08 0.07 0.06 0.05 0.04 0.04 0.05 0.06 0.07 0.07 0.06 0.06 0.05
0.02 0.03 0.05 0.07 0.08 0.07 0.08 0.09 0.10 0.10 0.09 0.09 0.09 0.09 0.11 0.10 0.08 0.06 0.05 0.05 0.05 0.05 0.05 0.06 0.08 0.08 0.07 0.06 0.05 0.05 0.05 0.04 0.03 0.03 0.02 0.02 0.01 0.01 0.01 0.01 0.01 0.01 0.01
0.02 0.03 0.04 0.07 0.09 0.10 0.10 0.12 0.12 0.13 0.12 0.13 0.16 0.19 0.18 0.14 0.10 0.07 0.06 0.06 0.06 0.06 0.07 0.09 0.08 0.09 0.10 0.09 0.07 0.04 0.03 0.03 0.02 0.01 0.01 0.01 0.01 0.01 0.01 0.00 0.00 0.00 0.00
0.02 0.03 0.04 0.05 0.08 0.10 0.11 0.12 0.14 0.18 0.25 0.28 0.26 0.22 0.20 0.16 0.11 0.07 0.05 0.06 0.08 0.10 0.09 0.09 0.10 0.10 0.09 0.07 0.05 0.03 0.02 0.02 0.01 0.01 0.01 0.01 0.01 0.01 0.01 0.01 0.00 0.00 0.01
0.04 0.03 0.03 0.05 0.06 0.09 0.10 0.11 0.14 0.21 0.25 0.24 0.19 0.14 0.12 0.12 0.08 0.06 0.05 0.05 0.05 0.05 0.04 0.03 0.03 0.02 0.02 0.02 0.02 0.01 0.01 0.01 0.01 0.01 0.01 0.01 0.01 0.01 0.01 0.01 0.01 0.01 0.01
0.03 0.02 0.02 0.04 0.05 0.07 0.08 0.09 0.11 0.15 0.16 0.13 0.09 0.06 0.05 0.05 0.05 0.04 0.05 0.04 0.03 0.02 0.01 0.01 0.02 0.01 0.01 0.01 0.01 0.01 0.01 0.01 0.01 0.01 0.00 0.01 0.01 0.01 0.01 0.01 0.01 0.01 0.01

GEFSMW_prec_meanprec_192.txt.gz
QPF
0.01 0.02 0.06 0.06 0.06 0.05 0.02 0.02 0.02 0.02 0.02 0.02 0.02 0.02 0.03 0.02 0.02 0.02 0.02 0.03 0.04 0.04 0.05 0.06 0.07 0.06 0.06 0.06 0.07 0.06 0.04 0.03 0.04 0.03 0.02 0.02 0.02 0.03 0.04 0.04 0.05 0.05 0.06
0.01 0.05 0.09 0.05 0.03 0.02 0.02 0.01 0.01 0.01 0.01 0.02 0.03 0.02 0.03 0.02 0.01 0.02 0.02 0.03 0.04 0.05 0.06 0.07 0.08 0.07 0.05 0.04 0.05 0.06 0.05 0.03 0.03 0.03 0.04 0.04 0.03 0.02 0.02 0.02 0.03 0.04 0.04
0.02 0.03 0.03 0.03 0.02 0.01 0.01 0.01 0.00 0.01 0.01 0.02 0.03 0.02 0.02 0.02 0.01 0.02 0.03 0.04 0.04 0.05 0.06 0.08 0.07 0.07 0.07 0.05 0.03 0.04 0.05 0.04 0.03 0.04 0.05 0.02 0.02 0.02 0.01 0.02 0.02 0.02 0.02
0.03 0.02 0.02 0.02 0.02 0.02 0.02 0.02 0.01 0.01 0.01 0.01 0.02 0.03 0.03 0.03 0.02 0.04 0.05 0.05 0.04 0.04 0.06 0.09 0.08 0.07 0.06 0.04 0.04 0.04 0.04 0.04 0.03 0.03 0.03 0.02 0.02 0.02 0.01 0.02 0.02 0.02 0.02
0.02 0.02 0.03 0.03 0.02 0.02 0.02 0.03 0.03 0.01 0.01 0.01 0.02 0.03 0.02 0.04 0.05 0.05 0.05 0.04 0.04 0.05 0.06 0.08 0.08 0.06 0.05 0.04 0.05 0.05 0.04 0.05 0.04 0.05 0.05 0.05 0.04 0.04 0.03 0.03 0.02 0.01 0.01
0.02 0.03 0.03 0.02 0.02 0.01 0.02 0.02 0.02 0.01 0.01 0.02 0.02 0.03 0.03 0.04 0.06 0.04 0.04 0.04 0.05 0.05 0.05 0.05 0.05 0.05 0.04 0.04 0.04 0.05 0.05 0.06 0.05 0.05 0.05 0.06 0.05 0.04 0.05 0.05 0.05 0.03 0.02
0.04 0.04 0.03 0.02 0.01 0.01 0.01 0.02 0.02 0.01 0.02 0.02 0.01 0.02 0.03 0.05 0.04 0.03 0.03 0.03 0.03 0.04 0.05 0.05 0.04 0.04 0.04 0.04 0.05 0.06 0.06 0.05 0.04 0.03 0.03 0.03 0.03 0.02 0.02 0.03 0.04 0.03 0.02
0.06 0.04 0.02 0.02 0.01 0.01 0.01 0.02 0.02 0.02 0.02 0.02 0.01 0.02 0.03 0.03 0.02 0.01 0.02 0.03 0.03 0.04 0.04 0.03 0.05 0.06 0.04 0.03 0.05 0.07 0.06 0.05 0.05 0.05 0.04 0.03 0.02 0.02 0.03 0.03 0.03 0.02 0.01
0.02 0.01 0.01 0.01 0.01 0.01 0.01 0.01 0.01 0.01 0.01 0.02 0.02 0.02 0.02 0.02 0.02 0.02 0.02 0.02 0.02 0.03 0.03 0.03 0.04 0.04 0.05 0.05 0.06 0.08 0.09 0.07 0.05 0.05 0.05 0.04 0.03 0.03 0.03 0.03 0.03 0.03 0.02
0.01 0.01 0.01 0.01 0.01 0.01 0.01 0.01 0.01 0.01 0.01 0.02 0.02 0.02 0.02 0.02 0.03 0.03 0.03 0.02 0.04 0.05 0.04 0.04 0.06 0.08 0.08 0.09 0.10 0.10 0.11 0.09 0.06 0.04 0.04 0.04 0.04 0.04 0.04 0.04 0.03 0.03 0.02
0.01 0.01 0.01 0.01 0.01 0.01 0.02 0.02 0.02 0.02 0.02 0.02 0.02 0.02 0.02 0.02 0.03 0.03 0.04 0.05 0.05 0.05 0.05 0.05 0.05 0.06 0.07 0.07 0.07 0.07 0.07 0.06 0.05 0.05 0.04 0.04 0.04 0.04 0.04 0.04 0.04 0.03 0.03
0.03 0.03 0.02 0.02 0.02 0.02 0.03 0.03 0.05 0.04 0.03 0.02 0.02 0.02 0.02 0.02 0.02 0.03 0.04 0.04 0.03 0.03 0.04 0.04 0.04 0.04 0.05 0.05 0.05 0.05 0.04 0.05 0.05 0.05 0.05 0.05 0.05 0.06 0.06 0.06 0.05 0.05 0.05
0.03 0.05 0.06 0.05 0.04 0.04 0.04 0.05 0.06 0.07 0.07 0.04 0.02 0.02 0.02 0.02 0.03 0.03 0.04 0.03 0.02 0.02 0.03 0.03 0.02 0.03 0.04 0.04 0.04 0.05 0.05 0.05 0.05 0.05 0.06 0.07 0.07 0.07 0.08 0.09 0.09 0.09 0.08
0.03 0.03 0.04 0.06 0.06 0.07 0.07 0.06 0.07 0.10 0.08 0.05 0.04 0.04 0.03 0.03 0.03 0.02 0.03 0.03 0.02 0.03 0.03 0.02 0.02 0.03 0.03 0.04 0.04 0.04 0.04 0.04 0.04 0.04 0.03 0.04 0.05 0.05 0.06 0.07 0.07 0.08 0.07
0.03 0.04 0.04 0.05 0.05 0.07 0.09 0.07 0.05 0.05 0.05 0.05 0.04 0.04 0.04 0.04 0.04 0.03 0.03 0.02 0.02 0.02 0.03 0.03 0.03 0.03 0.04 0.03 0.03 0.04 0.03 0.03 0.04 0.05 0.06 0.06 0.06 0.07 0.07 0.06 0.05 0.06 0.07
0.01 0.01 0.03 0.04 0.05 0.06 0.05 0.04 0.03 0.04 0.06 0.06 0.06 0.04 0.04 0.03 0.03 0.03 0.03 0.02 0.02 0.02 0.03 0.04 0.05 0.05 0.04 0.04 0.03 0.04 0.03 0.04 0.04 0.05 0.07 0.10 0.09 0.09 0.08 0.06 0.05 0.05 0.04
0.01 0.01 0.03 0.04 0.04 0.03 0.02 0.03 0.05 0.06 0.06 0.06 0.06 0.05 0.04 0.04 0.03 0.02 0.02 0.02 0.03 0.03 0.03 0.04 0.06 0.05 0.04 0.04 0.04 0.04 0.04 0.03 0.03 0.04 0.04 0.07 0.09 0.08 0.06 0.06 0.05 0.04 0.05
0.03 0.05 0.05 0.04 0.04 0.03 0.03 0.03 0.04 0.04 0.04 0.03 0.04 0.05 0.05 0.04 0.04 0.04 0.03 0.02 0.02 0.02 0.03 0.04 0.05 0.03 0.03 0.04 0.04 0.05 0.04 0.03 0.03 0.03 0.03 0.04 0.05 0.06 0.07 0.06 0.04 0.04 0.06
0.05 0.06 0.05 0.05 0.03 0.02 0.02 0.03 0.03 0.03 0.04 0.04 0.06 0.07 0.06 0.05 0.05 0.04 0.04 0.04 0.05 0.05 0.04 0.04 0.03 0.02 0.03 0.04 0.04 0.05 0.05 0.04 0.05 0.05 0.05 0.04 0.03 0.05 0.06 0.05 0.04 0.04 0.05
0.03 0.04 0.04 0.03 0.02 0.01 0.02 0.03 0.04 0.05 0.05 0.06 0.07 0.07 0.07 0.07 0.07 0.06 0.06 0.06 0.06 0.05 0.04 0.04 0.04 0.03 0.03 0.04 0.04 0.05 0.06 0.07 0.09 0.09 0.08 0.06 0.04 0.05 0.05 0.04 0.05 0.05 0.07
0.05 0.04 0.04 0.03 0.02 0.01 0.02 0.03 0.05 0.05 0.06 0.06 0.06 0.07 0.08 0.08 0.08 0.07 0.07 0.07 0.07 0.06 0.06 0.06 0.06 0.05 0.03 0.04 0.05 0.05 0.05 0.07 0.08 0.08 0.08 0.08 0.08 0.06 0.04 0.03 0.03 0.04 0.04
0.08 0.07 0.07 0.06 0.05 0.04 0.04 0.06 0.06 0.08 0.09 0.08 0.08 0.08 0.09 0.10 0.10 0.09 0.09 0.09 0.08 0.08 0.08 0.09 0.08 0.06 0.05 0.05 0.05 0.04 0.05 0.06 0.06 0.07 0.07 0.06 0.05 0.03 0.02 0.01 0.01 0.01 0.01
0.07 0.06 0.05 0.05 0.07 0.09 0.09 0.09 0.08 0.10 0.10 0.09 0.08 0.08 0.09 0.08 0.08 0.08 0.10 0.12 0.12 0.10 0.08 0.07 0.06 0.05 0.05 0.05 0.06 0.07 0.08 0.06 0.04 0.04 0.05 0.05 0.04 0.03 0.01 0.01 0.01 0.01 0.00
0.07 0.06 0.05 0.05 0.06 0.08 0.10 0.11 0.10 0.10 0.09 0.08 0.09 0.10 0.09 0.09 0.09 0.09 0.09 0.09 0.11 0.11 0.07 0.05 0.04 0.04 0.05 0.05 0.07 0.11 0.12 0.09 0.06 0.06 0.06 0.06 0.06 0.04 0.02 0.02 0.01 0.01 0.01
0.08 0.08 0.07 0.06 0.06 0.07 0.09 0.09 0.09 0.09 0.09 0.08 0.08 0.07 0.06 0.06 0.07 0.08 0.08 0.09 0.10 0.11 0.09 0.06 0.05 0.03 0.02 0.03 0.03 0.03 0.04 0.04 0.04 0.03 0.03 0.04 0.04 0.03 0.02 0.02 0.02 0.01 0.01
0.08 0.07 0.06 0.05 0.05 0.06 0.06 0.07 0.07 0.07 0.08 0.08 0.08 0.09 0.06 0.04 0.03 0.03 0.03 0.04 0.05 0.06 0.05 0.05 0.04 0.03 0.02 0.02 0.02 0.01 0.01 0.01 0.02 0.02 0.01 0.01 0.01 0.01 0.01 0.01 0.01 0.01 0.01

GEFSMW_prec_meanprec_198.txt.gz
QPF
0.00 0.00 0.00 0.00 0.00 0.01 0.01 0.01 0.02 0.02 0.02 0.02 0.02 0.03 0.04 0.03 0.02 0.03 0.04 0.06 0.04 0.04 0.07 0.06 0.08 0.08 0.09 0.09 0.10 0.10 0.09 0.08 0.08 0.08 0.07 0.05 0.03 0.03 0.03 0.04 0.05 0.05 0.03
0.00 0.00 0.00 0.01 0.01 0.01 0.01 0.01 0.01 0.01 0.01 0.02 0.04 0.03 0.03 0.03 0.02 0.02 0.04 0.05 0.05 0.06 0.07 0.08 0.07 0.08 0.09 0.10 0.10 0.10 0.10 0.08 0.08 0.10 0.10 0.07 0.05 0.03 0.02 0.02 0.03 0.03 0.02
0.00 0.00 0.00 0.01 0.01 0.01 0.00 0.00 0.00 0.00 0.01 0.02 0.02 0.02 0.03 0.03 0.02 0.03 0.05 0.05 0.04 0.05 0.07 0.08 0.06 0.07 0.09 0.11 0.12 0.10 0.10 0.10 0.10 0.09 0.10 0.09 0.07 0.05 0.04 0.03 0.03 0.03 0.04
0.00 0.00 0.00 0.00 0.01 0.01 0.00 0.00 0.01 0.01 0.01 0.01 0.02 0.03 0.03 0.03 0.03 0.03 0.04 0.06 0.04 0.04 0.04 0.06 0.06 0.08 0.10 0.12 0.10 0.09 0.12 0.14 0.13 0.10 0.08 0.09 0.07 0.08 0.07 0.05 0.03 0.03 0.04
0.00 0.00 0.00 0.00 0.00 0.01 0.01 0.01 0.01 0.01 0.01 0.01 0.03 0.04 0.04 0.03 0.03 0.03 0.03 0.04 0.04 0.03 0.03 0.05 0.08 0.11 0.10 0.10 0.09 0.09 0.10 0.09 0.10 0.08 0.07 0.08 0.10 0.10 0.10 0.10 0.10 0.08 0.07
0.00 0.00 0.00 0.00 0.00 0.01 0.01 0.01 0.01 0.01 0.01 0.01 0.01 0.03 0.04 0.03 0.03 0.03 0.05 0.05 0.04 0.03 0.03 0.03 0.04 0.06 0.08 0.08 0.09 0.10 0.08 0.08 0.08 0.08 0.06 0.07 0.10 0.11 0.10 0.10 0.10 0.09 0.07
0.00 0.00 0.00 0.00 0.01 0.01 0.01 0.01 0.01 0.02 0.02 0.01 0.01 0.01 0.02 0.02 0.04 0.04 0.03 0.04 0.03 0.03 0.03 0.03 0.04 0.05 0.08 0.07 0.07 0.08 0.08 0.09 0.08 0.07 0.07 0.08 0.08 0.07 0.08 0.06 0.04 0.06 0.06
0.00 0.00 0.01 0.01 0.01 0.01 0.01 0.01 0.01 0.01 0.01 0.01 0.01 0.01 0.01 0.02 0.02 0.02 0.02 0.04 0.03 0.03 0.03 0.03 0.04 0.06 0.07 0.06 0.06 0.08 0.08 0.08 0.07 0.06 0.07 0.08 0.06 0.06 0.07 0.08 0.07 0.06 0.05
0.00 0.00 0.00 0.01 0.01 0.01 0.01 0.01 0.01 0.01 0.01 0.01 0.01 0.01 0.01 0.01 0.01 0.02 0.02 0.03 0.03 0.02 0.03 0.04 0.06 0.06 0.05 0.06 0.06 0.07 0.08 0.08 0.06 0.06 0.05 0.05 0.05 0.05 0.05 0.06 0.07 0.07 0.06
0.00 0.00 0.01 0.01 0.00 0.01 0.01 0.01 0.01 0.01 0.00 0.00 0.00 0.01 0.01 0.01 0.01 0.02 0.02 0.03 0.04 0.03 0.03 0.04 0.06 0.06 0.05 0.06 0.06 0.05 0.06 0.05 0.04 0.03 0.04 0.04 0.04 0.05 0.05 0.04 0.05 0.06 0.06
0.00 0.00 0.01 0.00 0.00 0.01 0.01 0.01 0.01 0.01 0.00 0.00 0.00 0.01 0.01 0.01 0.02 0.02 0.02 0.03 0.05 0.06 0.06 0.05 0.06 0.06 0.05 0.05 0.05 0.04 0.03 0.02 0.02 0.02 0.02 0.03 0.04 0.04 0.04 0.04 0.04 0.05 0.06
0.00 0.00 0.01 0.00 0.00 0.00 0.01 0.01 0.01 0.01 0.01 0.01 0.01 0.01 0.01 0.01 0.02 0.02 0.02 0.03 0.05 0.06 0.06 0.06 0.06 0.06 0.05 0.05 0.05 0.04 0.03 0.02 0.02 0.02 0.03 0.04 0.04 0.05 0.04 0.04 0.04 0.04 0.05
0.00 0.00 0.00 0.00 0.01 0.01 0.02 0.01 0.01 0.01 0.01 0.01 0.01 0.01 0.01 0.01 0.02 0.02 0.02 0.04 0.05 0.05 0.06 0.05 0.05 0.04 0.04 0.03 0.03 0.04 0.03 0.03 0.03 0.03 0.04 0.05 0.07 0.06 0.06 0.05 0.05 0.04 0.04
0.01 0.01 0.01 0.01 0.01 0.02 0.01 0.01 0.01 0.01 0.01 0.01 0.01 0.01 0.01 0.01 0.02 0.03 0.03 0.04 0.04 0.04 0.05 0.04 0.04 0.03 0.02 0.02 0.03 0.03 0.03 0.04 0.03 0.05 0.06 0.05 0.05 0.05 0.06 0.06 0.05 0.05 0.06
0.00 0.01 0.01 0.01 0.01 0.01 0.02 0.02 0.02 0.01 0.01 0.01 0.01 0.02 0.02 0.01 0.01 0.02 0.03 0.03 0.03 0.03 0.03 0.02 0.02 0.01 0.01 0.01 0.02 0.04 0.04 0.04 0.03 0.04 0.03 0.03 0.04 0.05 0.05 0.05 0.05 0.06 0.06
0.00 0.00 0.00 0.00 0.01 0.01 0.02 0.02 0.03 0.02 0.02 0.02 0.03 0.04 0.04 0.03 0.03 0.02 0.02 0.02 0.01 0.01 0.01 0.01 0.01 0.01 0.00 0.01 0.02 0.03 0.03 0.04 0.04 0.04 0.03 0.03 0.03 0.02 0.03 0.03 0.04 0.04 0.05
0.00 0.00 0.00 0.01 0.01 0.02 0.02 0.03 0.04 0.04 0.05 0.05 0.05 0.06 0.06 0.05 0.03 0.01 0.01 0.01 0.02 0.02 0.01 0.01 0.02 0.02 0.02 0.03 0.03 0.04 0.04 0.03 0.03 0.03 0.03 0.02 0.03 0.04 0.04 0.06 0.05 0.05 0.04
0.00 0.01 0.01 0.02 0.02 0.02 0.02 0.01 0.01 0.02 0.02 0.03 0.03 0.03 0.03 0.02 0.01 0.01 0.01 0.02 0.02 0.02 0.02 0.02 0.03 0.03 0.03 0.03 0.04 0.05 0.03 0.03 0.03 0.03 0.02 0.03 0.03 0.04 0.05 0.07 0.07 0.06 0.05
0.00 0.01 0.02 0.02 0.03 0.02 0.02 0.01 0.01 0.01 0.01 0.02 0.02 0.03 0.03 0.03 0.02 0.02 0.02 0.02 0.02 0.02 0.02 0.02 0.03 0.03 0.04 0.05 0.05 0.05 0.03 0.03 0.04 0.04 0.03 0.03 0.03 0.04 0.05 0.05 0.07 0.06 0.06
0.01 0.01 0.02 0.02 0.02 0.01 0.02 0.02 0.01 0.02 0.02 0.03 0.03 0.03 0.04 0.04 0.04 0.03 0.02 0.02 0.02 0.03 0.03 0.03 0.03 0.03 0.04 0.04 0.04 0.04 0.03 0.03 0.03 0.04 0.05 0.06 0.06 0.06 0.05 0.04 0.05 0.05 0.06
0.02 0.02 0.02 0.01 0.01 0.01 0.02 0.02 0.03 0.04 0.04 0.05 0.05 0.05 0.06 0.06 0.04 0.02 0.02 0.01 0.02 0.02 0.02 0.02 0.02 0.03 0.03 0.03 0.04 0.04 0.03 0.03 0.03 0.04 0.05 0.07 0.09 0.09 0.08 0.06 0.05 0.04 0.04
0.01 0.02 0.02 0.01 0.01 0.01 0.02 0.03 0.03 0.04 0.06 0.09 0.09 0.08 0.07 0.06 0.05 0.03 0.02 0.02 0.02 0.02 0.01 0.01 0.02 0.03 0.03 0.03 0.03 0.03 0.03 0.03 0.03 0.04 0.05 0.04 0.04 0.05 0.06 0.05 0.04 0.03 0.02
0.01 0.02 0.02 0.02 0.02 0.02 0.03 0.03 0.04 0.04 0.06 0.07 0.07 0.07 0.06 0.04 0.04 0.03 0.03 0.03 0.02 0.02 0.02 0.02 0.02 0.03 0.03 0.03 0.02 0.02 0.03 0.03 0.03 0.03 0.03 0.04 0.05 0.04 0.05 0.06 0.05 0.03 0.02
0.02 0.03 0.02 0.02 0.02 0.03 0.03 0.04 0.05 0.06 0.06 0.05 0.05 0.05 0.05 0.06 0.05 0.05 0.05 0.04 0.03 0.02 0.02 0.01 0.01 0.01 0.01 0.01 0.01 0.02 0.02 0.02 0.02 0.02 0.02 0.04 0.06 0.07 0.07 0.07 0.06 0.05 0.04
0.02 0.03 0.03 0.04 0.04 0.04 0.05 0.05 0.06 0.08 0.08 0.06 0.05 0.06 0.07 0.09 0.10 0.08 0.05 0.03 0.02 0.02 0.01 0.01 0.02 0.02 0.01 0.02 0.02 0.02 0.02 0.03 0.03 0.02 0.02 0.01 0.02 0.03 0.04 0.04 0.04 0.04 0.04
0.02 0.03 0.05 0.06 0.06 0.05 0.06 0.07 0.08 0.09 0.09 0.10 0.12 0.12 0.12 0.13 0.13 0.09 0.05 0.03 0.02 0.02 0.02 0.03 0.03 0.03 0.03 0.04 0.03 0.03 0.03 0.04 0.03 0.02 0.01 0.01 0.01 0.02 0.02 0.02 0.02 0.02 0.01

GEFSMW_prec_meanprec_204.txt.gz
QPF
0.00 0.00 0.00 0.00 0.00 0.01 0.01 0.01 0.02 0.03 0.05 0.07 0.06 0.06 0.07 0.07 0.04 0.04 0.04 0.05 0.05 0.06 0.06 0.06 0.08 0.08 0.10 0.09 0.09 0.11 0.12 0.12 0.12 0.12 0.12 0.09 0.06 0.06 0.07 0.08 0.08 0.08 0.07
0.00 0.00 0.00 0.00 0.00 0.01 0.01 0.01 0.02 0.03 0.02 0.04 0.05 0.06 0.06 0.05 0.04 0.04 0.05 0.05 0.06 0.07 0.06 0.07 0.07 0.07 0.09 0.09 0.10 0.12 0.11 0.10 0.11 0.13 0.16 0.13 0.10 0.08 0.05 0.05 0.05 0.05 0.07
0.00 0.00 0.01 0.01 0.00 0.00 0.00 0.01 0.02 0.02 0.02 0.04 0.03 0.03 0.05 0.04 0.04 0.04 0.05 0.05 0.04 0.05 0.06 0.07 0.06 0.06 0.06 0.09 0.11 0.10 0.11 0.11 0.11 0.12 0.16 0.16 0.16 0.13 0.07 0.05 0.05 0.05 0.06
0.00 0.00 0.00 0.00 0.00 0.00 0.00 0.01 0.01 0.02 0.03 0.04 0.03 0.04 0.04 0.05 0.06 0.06 0.04 0.04 0.03 0.02 0.02 0.03 0.04 0.06 0.07 0.09 0.08 0.10 0.11 0.11 0.11 0.12 0.12 0.12 0.12 0.12 0.10 0.07 0.05 0.05 0.05
0.00 0.00 0.00 0.01 0.02 0.01 0.01 0.01 0.01 0.02 0.03 0.04 0.05 0.05 0.05 0.06 0.06 0.06 0.07 0.06 0.04 0.03 0.01 0.02 0.04 0.06 0.06 0.06 0.06 0.08 0.08 0.09 0.10 0.10 0.10 0.10 0.10 0.11 0.11 0.10 0.08 0.06 0.04
0.00 0.00 0.00 0.01 0.01 0.01 0.01 0.02 0.01 0.01 0.02 0.02 0.03 0.04 0.06 0.07 0.06 0.07 0.07 0.06 0.04 0.03 0.02 0.02 0.04 0.06 0.05 0.05 0.04 0.05 0.05 0.07 0.09 0.09 0.08 0.09 0.09 0.10 0.10 0.09 0.09 0.08 0.04
0.00 0.00 0.00 0.01 0.01 0.02 0.01 0.01 0.01 0.02 0.01 0.02 0.02 0.03 0.04 0.05 0.05 0.05 0.05 0.05 0.03 0.03 0.04 0.04 0.05 0.05 0.04 0.04 0.06 0.05 0.05 0.06 0.07 0.07 0.07 0.07 0.06 0.07 0.10 0.10 0.09 0.08 0.06
0.00 0.00 0.00 0.00 0.01 0.01 0.01 0.00 0.01 0.01 0.02 0.03 0.03 0.03 0.04 0.05 0.04 0.05 0.05 0.05 0.03 0.03 0.03 0.05 0.05 0.04 0.05 0.05 0.07 0.05 0.04 0.05 0.05 0.05 0.07 0.06 0.06 0.08 0.10 0.10 0.11 0.11 0.11
0.00 0.00 0.00 0.00 0.00 0.00 0.00 0.01 0.01 0.01 0.02 0.03 0.04 0.04 0.03 0.03 0.04 0.05 0.05 0.04 0.04 0.03 0.02 0.05 0.06 0.06 0.07 0.08 0.08 0.06 0.05 0.06 0.05 0.05 0.07 0.07 0.06 0.06 0.07 0.09 0.10 0.10 0.10
0.00 0.00 0.00 0.00 0.00 0.00 0.00 0.01 0.02 0.02 0.02 0.03 0.03 0.02 0.02 0.02 0.04 0.04 0.05 0.05 0.05 0.04 0.04 0.06 0.06 0.08 0.08 0.08 0.08 0.08 0.07 0.06 0.05 0.05 0.06 0.06 0.05 0.05 0.06 0.08 0.09 0.10 0.10
0.00 0.00 0.00 0.00 0.00 0.00 0.01 0.00 0.01 0.02 0.03 0.03 0.03 0.03 0.03 0.02 0.03 0.04 0.04 0.04 0.05 0.05 0.05 0.06 0.05 0.05 0.05 0.05 0.06 0.05 0.05 0.06 0.05 0.04 0.04 0.05 0.06 0.05 0.05 0.06 0.08 0.08 0.08
0.01 0.01 0.01 0.01 0.00 0.00 0.01 0.01 0.01 0.02 0.02 0.03 0.03 0.03 0.03 0.02 0.03 0.03 0.03 0.03 0.04 0.04 0.04 0.05 0.05 0.05 0.05 0.04 0.03 0.03 0.04 0.06 0.04 0.04 0.05 0.03 0.04 0.05 0.05 0.05 0.05 0.06 0.07
0.00 0.01 0.04 0.03 0.01 0.01 0.01 0.00 0.01 0.02 0.02 0.03 0.02 0.02 0.02 0.02 0.02 0.02 0.02 0.03 0.04 0.04 0.04 0.04 0.05 0.06 0.05 0.04 0.03 0.03 0.03 0.04 0.05 0.05 0.05 0.04 0.04 0.04 0.04 0.04 0.05 0.05 0.06
0.01 0.01 0.02 0.01 0.01 0.01 0.00 0.01 0.02 0.03 0.03 0.02 0.01 0.01 0.02 0.02 0.02 0.02 0.03 0.03 0.04 0.04 0.05 0.06 0.06 0.06 0.05 0.04 0.03 0.03 0.03 0.03 0.03 0.04 0.04 0.04 0.04 0.03 0.04 0.04 0.03 0.04 0.05
0.01 0.01 0.01 0.01 0.01 0.01 0.01 0.02 0.02 0.02 0.02 0.02 0.01 0.02 0.02 0.02 0.03 0.03 0.03 0.03 0.03 0.03 0.05 0.05 0.05 0.05 0.04 0.03 0.04 0.03 0.03 0.03 0.03 0.03 0.03 0.03 0.03 0.03 0.03 0.02 0.03 0.04 0.04
0.01 0.01 0.01 0.01 0.01 0.02 0.02 0.01 0.01 0.01 0.00 0.01 0.01 0.02 0.03 0.04 0.04 0.04 0.03 0.03 0.02 0.02 0.03 0.03 0.03 0.03 0.02 0.02 0.02 0.02 0.03 0.03 0.04 0.04 0.03 0.02 0.03 0.03 0.03 0.02 0.02 0.02 0.03
0.01 0.01 0.02 0.02 0.03 0.05 0.07 0.04 0.02 0.01 0.01 0.01 0.02 0.05 0.06 0.08 0.08 0.08 0.06 0.05 0.04 0.03 0.02 0.02 0.03 0.02 0.02 0.01 0.01 0.01 0.02 0.03 0.03 0.04 0.04 0.03 0.03 0.04 0.04 0.04 0.03 0.02 0.02
0.01 0.02 0.01 0.01 0.03 0.06 0.08 0.07 0.04 0.02 0.01 0.01 0.02 0.03 0.05 0.07 0.08 0.09 0.08 0.06 0.05 0.04 0.02 0.02 0.02 0.03 0.02 0.01 0.02 0.02 0.02 0.02 0.02 0.03 0.04 0.05 0.06 0.06 0.06 0.04 0.02 0.02 0.02
0.01 0.01 0.01 0.01 0.03 0.07 0.12 0.11 0.04 0.02 0.01 0.02 0.03 0.04 0.05 0.05 0.05 0.06 0.07 0.06 0.05 0.04 0.03 0.03 0.03 0.04 0.04 0.03 0.03 0.03 0.03 0.03 0.03 0.04 0.04 0.05 0.04 0.04 0.04 0.03 0.03 0.03 0.04
0.01 0.01 0.01 0.01 0.02 0.03 0.04 0.06 0.05 0.04 0.03 0.03 0.03 0.03 0.04 0.05 0.05 0.05 0.05 0.05 0.05 0.05 0.05 0.05 0.05 0.04 0.04 0.04 0.03 0.03 0.03 0.03 0.02 0.02 0.02 0.02 0.02 0.02 0.03 0.02 0.02 0.03 0.03
0.02 0.02 0.02 0.02 0.02 0.03 0.03 0.04 0.04 0.04 0.03 0.03 0.03 0.03 0.04 0.04 0.04 0.03 0.04 0.05 0.05 0.06 0.07 0.06 0.06 0.04 0.04 0.04 0.05 0.04 0.03 0.03 0.02 0.02 0.02 0.02 0.03 0.03 0.03 0.03 0.02 0.03 0.04
0.02 0.02 0.03 0.03 0.03 0.03 0.03 0.04 0.04 0.05 0.05 0.04 0.03 0.03 0.03 0.03 0.02 0.02 0.03 0.05 0.07 0.07 0.06 0.05 0.05 0.04 0.04 0.04 0.03 0.03 0.03 0.03 0.03 0.02 0.02 0.02 0.04 0.04 0.03 0.03 0.03 0.04 0.04
0.02 0.03 0.02 0.03 0.03 0.04 0.05 0.05 0.06 0.07 0.07 0.07 0.06 0.05 0.04 0.03 0.03 0.03 0.04 0.04 0.05 0.05 0.05 0.04 0.04 0.04 0.03 0.02 0.02 0.02 0.02 0.02 0.02 0.02 0.02 0.02 0.03 0.03 0.03 0.03 0.03 0.03 0.04
0.02 0.02 0.02 0.03 0.03 0.04 0.06 0.07 0.07 0.08 0.08 0.09 0.07 0.06 0.05 0.04 0.04 0.05 0.07 0.09 0.10 0.09 0.06 0.04 0.02 0.02 0.03 0.02 0.02 0.02 0.01 0.01 0.01 0.01 0.01 0.01 0.02 0.02 0.02 0.03 0.04 0.05 0.05
0.02 0.03 0.03 0.03 0.03 0.04 0.04 0.05 0.06 0.07 0.07 0.07 0.07 0.06 0.05 0.05 0.05 0.08 0.11 0.10 0.07 0.05 0.04 0.03 0.02 0.02 0.01 0.01 0.02 0.02 0.01 0.01 0.01 0.01 0.02 0.02 0.01 0.01 0.01 0.02 0.02 0.03 0.03
0.02 0.02 0.02 0.02 0.03 0.05 0.05 0.05 0.06 0.06 0.08 0.09 0.09 0.10 0.10 0.11 0.10 0.10 0.08 0.05 0.04 0.04 0.03 0.02 0.02 0.02 0.02 0.02 0.02 0.02 0.02 0.02 0.02 0.02 0.03 0.04 0.04 0.04 0.03 0.03 0.02 0.02 0.01

GEFSMW_prec_meanprec_210.txt.gz
QPF
0.02 0.08 0.04 0.01 0.00 0.00 0.00 0.00 0.00 0.01 0.01 0.01 0.01 0.01 0.02 0.02 0.02 0.01 0.02 0.02 0.04 0.05 0.05 0.05 0.06 0.06 0.05 0.05 0.05 0.06 0.07 0.07 0.07 0.05 0.05 0.06 0.05 0.05 0.07 0.09 0.12 0.09 0.07
0.01 0.02 0.03 0.02 0.01 0.00 0.00 0.01 0.00 0.00 0.00 0.01 0.01 0.01 0.01 0.01 0.01 0.01 0.02 0.02 0.03 0.03 0.03 0.04 0.04 0.04 0.05 0.03 0.03 0.06 0.07 0.06 0.05 0.04 0.05 0.04 0.04 0.04 0.05 0.06 0.06 0.06 0.06
0.00 0.01 0.01 0.01 0.01 0.01 0.00 0.00 0.00 0.00 0.01 0.01 0.01 0.01 0.01 0.02 0.02 0.01 0.01 0.02 0.02 0.02 0.03 0.02 0.02 0.03 0.03 0.02 0.03 0.04 0.05 0.05 0.05 0.03 0.03 0.04 0.04 0.04 0.05 0.03 0.04 0.04 0.04
0.00 0.00 0.00 0.00 0.00 0.00 0.00 0.00 0.00 0.00 0.01 0.01 0.01 0.01 0.01 0.02 0.02 0.02 0.01 0.02 0.02 0.01 0.01 0.02 0.02 0.02 0.02 0.02 0.02 0.03 0.04 0.04 0.04 0.03 0.04 0.05 0.06 0.07 0.07 0.04 0.05 0.06 0.04
0.01 0.00 0.00 0.00 0.00 0.01 0.00 0.00 0.01 0.01 0.01 0.01 0.02 0.03 0.03 0.03 0.03 0.03 0.03 0.03 0.03 0.02 0.02 0.02 0.02 0.02 0.02 0.02 0.02 0.03 0.04 0.04 0.03 0.03 0.04 0.05 0.07 0.09 0.08 0.06 0.06 0.05 0.03
0.01 0.00 0.00 0.00 0.01 0.01 0.01 0.01 0.02 0.02 0.02 0.01 0.02 0.04 0.04 0.04 0.04 0.04 0.05 0.05 0.03 0.02 0.02 0.02 0.02 0.02 0.03 0.02 0.02 0.03 0.03 0.02 0.03 0.03 0.04 0.05 0.06 0.05 0.04 0.05 0.05 0.03 0.02
0.01 0.01 0.00 0.00 0.00 0.00 0.00 0.01 0.02 0.02 0.02 0.02 0.03 0.04 0.03 0.02 0.03 0.03 0.03 0.03 0.03 0.03 0.02 0.03 0.03 0.02 0.02 0.02 0.02 0.02 0.02 0.02 0.03 0.03 0.02 0.03 0.03 0.03 0.03 0.05 0.04 0.03 0.02
0.03 0.02 0.02 0.02 0.02 0.02 0.01 0.01 0.01 0.02 0.02 0.02 0.03 0.04 0.03 0.02 0.02 0.02 0.03 0.03 0.03 0.03 0.03 0.03 0.03 0.03 0.03 0.03 0.03 0.04 0.03 0.03 0.02 0.02 0.02 0.02 0.03 0.03 0.02 0.02 0.03 0.03 0.03
0.06 0.08 0.06 0.04 0.04 0.03 0.02 0.02 0.02 0.03 0.03 0.03 0.03 0.03 0.03 0.02 0.02 0.02 0.02 0.02 0.02 0.03 0.03 0.03 0.03 0.04 0.06 0.06 0.06 0.06 0.05 0.04 0.03 0.02 0.04 0.04 0.03 0.02 0.02 0.03 0.04 0.04 0.04
0.15 0.21 0.19 0.10 0.05 0.04 0.03 0.02 0.02 0.03 0.02 0.02 0.02 0.02 0.02 0.02 0.02 0.01 0.01 0.01 0.01 0.02 0.03 0.03 0.03 0.03 0.07 0.08 0.06 0.05 0.06 0.06 0.05 0.05 0.04 0.03 0.02 0.02 0.02 0.02 0.03 0.04 0.04
0.20 0.28 0.35 0.25 0.10 0.05 0.03 0.02 0.02 0.01 0.02 0.02 0.02 0.02 0.02 0.02 0.03 0.02 0.02 0.02 0.02 0.02 0.03 0.03 0.03 0.04 0.05 0.07 0.07 0.05 0.03 0.04 0.04 0.04 0.04 0.04 0.03 0.02 0.02 0.02 0.03 0.04 0.04
0.12 0.13 0.26 0.29 0.13 0.07 0.04 0.03 0.02 0.02 0.02 0.02 0.01 0.02 0.01 0.02 0.02 0.02 0.02 0.02 0.02 0.03 0.04 0.04 0.04 0.04 0.04 0.04 0.04 0.03 0.03 0.03 0.03 0.04 0.05 0.05 0.04 0.03 0.03 0.03 0.02 0.03 0.02
0.04 0.07 0.10 0.13 0.09 0.07 0.07 0.06 0.06 0.06 0.05 0.04 0.03 0.03 0.03 0.03 0.03 0.04 0.03 0.03 0.03 0.03 0.03 0.04 0.04 0.05 0.05 0.04 0.04 0.04 0.04 0.04 0.04 0.03 0.04 0.04 0.05 0.04 0.03 0.02 0.02 0.02 0.02
0.04 0.06 0.09 0.13 0.12 0.13 0.13 0.10 0.07 0.07 0.07 0.05 0.05 0.05 0.05 0.07 0.07 0.08 0.08 0.07 0.05 0.03 0.02 0.03 0.04 0.05 0.07 0.06 0.06 0.06 0.06 0.06 0.05 0.04 0.03 0.04 0.04 0.03 0.03 0.03 0.03 0.04 0.03
0.03 0.04 0.08 0.09 0.14 0.19 0.19 0.14 0.09 0.06 0.06 0.07 0.08 0.07 0.07 0.07 0.08 0.12 0.15 0.15 0.12 0.06 0.03 0.04 0.06 0.08 0.09 0.08 0.08 0.09 0.08 0.07 0.06 0.05 0.04 0.03 0.03 0.04 0.04 0.04 0.03 0.04 0.04
0.04 0.05 0.05 0.06 0.07 0.11 0.16 0.16 0.12 0.08 0.08 0.08 0.10 0.10 0.08 0.09 0.11 0.17 0.19 0.16 0.11 0.08 0.05 0.04 0.06 0.06 0.07 0.06 0.07 0.06 0.05 0.04 0.04 0.04 0.03 0.02 0.03 0.03 0.04 0.05 0.04 0.04 0.05
0.02 0.03 0.03 0.03 0.04 0.06 0.10 0.17 0.16 0.14 0.12 0.11 0.14 0.14 0.10 0.10 0.12 0.13 0.12 0.10 0.09 0.07 0.07 0.08 0.08 0.07 0.06 0.06 0.04 0.04 0.04 0.03 0.03 0.03 0.02 0.02 0.03 0.03 0.05 0.06 0.07 0.07 0.06
0.04 0.03 0.02 0.03 0.03 0.03 0.03 0.06 0.10 0.11 0.11 0.13 0.12 0.11 0.11 0.11 0.10 0.09 0.09 0.11 0.12 0.12 0.11 0.09 0.08 0.07 0.06 0.05 0.04 0.04 0.04 0.03 0.03 0.02 0.02 0.03 0.03 0.03 0.06 0.07 0.06 0.06 0.05
0.06 0.05 0.03 0.02 0.03 0.03 0.03 0.04 0.06 0.06 0.06 0.09 0.15 0.18 0.15 0.14 0.12 0.09 0.10 0.11 0.10 0.09 0.09 0.08 0.08 0.08 0.06 0.07 0.06 0.05 0.05 0.04 0.03 0.02 0.02 0.03 0.02 0.04 0.05 0.05 0.04 0.03 0.02
0.05 0.06 0.04 0.02 0.02 0.03 0.03 0.02 0.03 0.05 0.08 0.10 0.14 0.19 0.16 0.11 0.09 0.08 0.08 0.07 0.07 0.08 0.08 0.08 0.08 0.08 0.08 0.10 0.11 0.09 0.06 0.04 0.03 0.03 0.02 0.02 0.02 0.04 0.03 0.02 0.02 0.02 0.02
0.03 0.03 0.03 0.02 0.02 0.02 0.02 0.02 0.02 0.03 0.04 0.05 0.08 0.10 0.10 0.09 0.13 0.15 0.12 0.08 0.07 0.06 0.06 0.07 0.09 0.13 0.12 0.12 0.11 0.10 0.08 0.05 0.04 0.03 0.03 0.03 0.04 0.04 0.03 0.03 0.02 0.02 0.03
0.04 0.03 0.02 0.02 0.02 0.02 0.02 0.02 0.03 0.04 0.05 0.07 0.10 0.13 0.12 0.11 0.14 0.19 0.17 0.11 0.09 0.06 0.04 0.04 0.04 0.05 0.06 0.05 0.04 0.05 0.05 0.04 0.04 0.03 0.03 0.02 0.03 0.02 0.02 0.01 0.01 0.02 0.02
0.03 0.02 0.02 0.02 0.03 0.02 0.02 0.02 0.03 0.04 0.06 0.07 0.11 0.13 0.12 0.14 0.15 0.14 0.16 0.13 0.09 0.07 0.05 0.03 0.04 0.04 0.04 0.03 0.02 0.01 0.02 0.02 0.01 0.01 0.01 0.01 0.01 0.01 0.01 0.02 0.02 0.02 0.02
0.04 0.06 0.04 0.03 0.04 0.04 0.03 0.04 0.05 0.04 0.05 0.06 0.09 0.12 0.13 0.12 0.15 0.19 0.14 0.11 0.09 0.07 0.06 0.05 0.05 0.05 0.04 0.03 0.02 0.01 0.01 0.02 0.01 0.01 0.01 0.01 0.01 0.01 0.01 0.01 0.01 0.01 0.01
0.01 0.05 0.08 0.04 0.03 0.04 0.05 0.05 0.05 0.05 0.06 0.06 0.07 0.08 0.08 0.09 0.11 0.12 0.12 0.10 0.10 0.10 0.10 0.10 0.09 0.06 0.03 0.03 0.03 0.02 0.02 0.01 0.01 0.01 0.01 0.01 0.01 0.01 0.01 0.01 0.00 0.01 0.01
0.02 0.02 0.04 0.04 0.03 0.04 0.05 0.06 0.06 0.06 0.07 0.08 0.08 0.09 0.10 0.12 0.16 0.15 0.15 0.16 0.15 0.15 0.16 0.14 0.10 0.07 0.05 0.04 0.04 0.04 0.04 0.03 0.02 0.02 0.01 0.01 0.01 0.01 0.01 0.01 0.01 0.01 0.01

GEFSMW_prec_meanprec_216.txt.gz
QPF
0.01 0.01 0.01 0.00 0.00 0.00 0.00 0.00 0.01 0.01 0.01 0.00 0.00 0.01 0.01 0.02 0.02 0.01 0.01 0.02 0.03 0.05 0.05 0.05 0.04 0.04 0.04 0.05 0.05 0.08 0.08 0.07 0.06 0.04 0.03 0.02 0.03 0.03 0.02 0.03 0.04 0.05 0.05
0.01 0.00 0.01 0.00 0.01 0.01 0.00 0.00 0.00 0.01 0.01 0.01 0.01 0.01 0.01 0.02 0.02 0.02 0.02 0.02 0.03 0.05 0.05 0.05 0.05 0.05 0.06 0.06 0.06 0.07 0.07 0.06 0.06 0.05 0.05 0.03 0.03 0.02 0.01 0.01 0.01 0.02 0.03
0.00 0.00 0.01 0.01 0.01 0.01 0.01 0.01 0.02 0.02 0.01 0.01 0.01 0.01 0.01 0.02 0.02 0.01 0.01 0.02 0.03 0.03 0.04 0.05 0.05 0.06 0.07 0.07 0.05 0.05 0.05 0.05 0.06 0.06 0.05 0.03 0.02 0.02 0.02 0.02 0.02 0.02 0.03
0.01 0.01 0.01 0.01 0.01 0.01 0.02 0.03 0.03 0.02 0.01 0.01 0.01 0.01 0.02 0.03 0.03 0.03 0.03 0.02 0.02 0.02 0.03 0.05 0.06 0.07 0.05 0.05 0.06 0.08 0.08 0.07 0.05 0.05 0.04 0.03 0.03 0.03 0.03 0.03 0.04 0.04 0.04
0.01 0.01 0.01 0.01 0.02 0.02 0.02 0.02 0.02 0.01 0.01 0.01 0.01 0.02 0.03 0.03 0.03 0.02 0.02 0.02 0.03 0.03 0.03 0.04 0.06 0.07 0.07 0.07 0.07 0.07 0.07 0.07 0.06 0.05 0.05 0.04 0.04 0.03 0.03 0.03 0.03 0.03 0.04
0.00 0.01 0.01 0.02 0.01 0.01 0.01 0.01 0.02 0.02 0.02 0.02 0.02 0.03 0.04 0.04 0.02 0.02 0.01 0.01 0.02 0.03 0.04 0.05 0.05 0.05 0.05 0.05 0.05 0.04 0.05 0.05 0.05 0.05 0.04 0.03 0.03 0.04 0.05 0.04 0.04 0.03 0.03
0.00 0.01 0.02 0.02 0.01 0.01 0.01 0.01 0.02 0.03 0.02 0.02 0.03 0.05 0.06 0.05 0.03 0.02 0.01 0.02 0.02 0.02 0.02 0.03 0.03 0.03 0.03 0.03 0.04 0.03 0.04 0.05 0.04 0.03 0.02 0.02 0.02 0.02 0.03 0.03 0.03 0.02 0.02
0.01 0.01 0.02 0.02 0.03 0.02 0.02 0.03 0.03 0.03 0.03 0.03 0.04 0.05 0.06 0.04 0.02 0.02 0.01 0.02 0.02 0.01 0.02 0.02 0.02 0.02 0.02 0.03 0.03 0.04 0.05 0.06 0.04 0.02 0.01 0.02 0.02 0.02 0.02 0.02 0.02 0.02 0.01
0.01 0.01 0.03 0.04 0.05 0.03 0.03 0.04 0.04 0.04 0.04 0.04 0.03 0.04 0.04 0.03 0.03 0.03 0.03 0.02 0.02 0.03 0.02 0.02 0.02 0.02 0.03 0.04 0.06 0.05 0.04 0.06 0.05 0.04 0.03 0.02 0.02 0.02 0.02 0.01 0.01 0.01 0.01
0.01 0.02 0.06 0.08 0.06 0.04 0.03 0.04 0.04 0.05 0.06 0.05 0.04 0.04 0.04 0.04 0.03 0.03 0.03 0.03 0.03 0.04 0.03 0.02 0.02 0.03 0.04 0.05 0.05 0.04 0.05 0.04 0.05 0.05 0.04 0.03 0.02 0.02 0.02 0.02 0.02 0.02 0.02
0.01 0.03 0.05 0.08 0.05 0.04 0.04 0.06 0.08 0.08 0.07 0.06 0.05 0.05 0.05 0.05 0.04 0.04 0.04 0.03 0.04 0.04 0.03 0.03 0.03 0.03 0.04 0.04 0.04 0.04 0.06 0.04 0.04 0.05 0.05 0.04 0.04 0.04 0.05 0.05 0.04 0.04 0.03
0.02 0.02 0.02 0.03 0.02 0.04 0.06 0.08 0.09 0.09 0.07 0.05 0.05 0.05 0.06 0.06 0.05 0.05 0.04 0.04 0.03 0.04 0.04 0.04 0.04 0.04 0.05 0.04 0.03 0.03 0.05 0.05 0.05 0.06 0.07 0.06 0.07 0.04 0.04 0.04 0.03 0.02 0.02
0.01 0.01 0.01 0.01 0.03 0.03 0.03 0.04 0.04 0.03 0.04 0.05 0.05 0.04 0.05 0.06 0.07 0.08 0.07 0.07 0.06 0.05 0.04 0.04 0.04 0.04 0.05 0.05 0.04 0.05 0.06 0.07 0.06 0.07 0.06 0.05 0.05 0.04 0.04 0.04 0.03 0.03 0.02
0.01 0.01 0.01 0.02 0.03 0.02 0.02 0.02 0.03 0.03 0.03 0.04 0.05 0.05 0.06 0.07 0.08 0.09 0.11 0.11 0.10 0.07 0.05 0.04 0.04 0.04 0.05 0.05 0.06 0.09 0.09 0.08 0.07 0.07 0.06 0.05 0.04 0.03 0.03 0.04 0.04 0.04 0.04
0.01 0.01 0.01 0.01 0.01 0.01 0.02 0.02 0.02 0.01 0.02 0.03 0.03 0.04 0.07 0.06 0.06 0.08 0.11 0.14 0.15 0.10 0.07 0.05 0.04 0.04 0.05 0.06 0.08 0.09 0.10 0.10 0.09 0.09 0.07 0.06 0.05 0.04 0.04 0.04 0.04 0.05 0.05
0.02 0.01 0.01 0.01 0.01 0.01 0.01 0.01 0.01 0.01 0.01 0.02 0.03 0.06 0.07 0.05 0.06 0.08 0.11 0.09 0.07 0.07 0.07 0.06 0.06 0.07 0.07 0.07 0.08 0.08 0.07 0.06 0.06 0.06 0.06 0.06 0.06 0.04 0.03 0.03 0.04 0.04 0.03
0.02 0.02 0.01 0.01 0.01 0.00 0.00 0.00 0.01 0.01 0.02 0.02 0.03 0.05 0.05 0.04 0.04 0.07 0.08 0.08 0.07 0.07 0.06 0.06 0.07 0.08 0.09 0.10 0.08 0.07 0.06 0.05 0.06 0.06 0.05 0.05 0.04 0.03 0.02 0.02 0.03 0.03 0.03
0.02 0.02 0.02 0.01 0.01 0.00 0.00 0.00 0.00 0.01 0.01 0.02 0.03 0.04 0.07 0.06 0.05 0.05 0.06 0.08 0.09 0.10 0.10 0.10 0.10 0.11 0.11 0.12 0.09 0.08 0.06 0.04 0.04 0.04 0.04 0.03 0.03 0.03 0.02 0.02 0.02 0.02 0.02
0.02 0.03 0.02 0.02 0.02 0.01 0.01 0.01 0.01 0.01 0.01 0.01 0.02 0.02 0.05 0.06 0.06 0.06 0.07 0.09 0.13 0.14 0.12 0.12 0.12 0.12 0.12 0.12 0.09 0.08 0.05 0.03 0.02 0.03 0.04 0.03 0.02 0.03 0.04 0.03 0.04 0.05 0.04
0.03 0.02 0.02 0.03 0.02 0.02 0.02 0.01 0.01 0.01 0.01 0.01 0.02 0.02 0.03 0.04 0.06 0.06 0.08 0.10 0.12 0.12 0.11 0.09 0.09 0.07 0.06 0.07 0.08 0.07 0.05 0.03 0.02 0.02 0.03 0.04 0.03 0.03 0.03 0.03 0.03 0.04 0.04
0.03 0.02 0.02 0.02 0.02 0.02 0.02 0.02 0.01 0.02 0.01 0.02 0.03 0.03 0.03 0.04 0.05 0.06 0.07 0.07 0.09 0.11 0.12 0.12 0.10 0.08 0.07 0.05 0.05 0.04 0.04 0.03 0.03 0.03 0.03 0.03 0.03 0.02 0.03 0.03 0.03 0.05 0.05
0.03 0.03 0.03 0.03 0.03 0.03 0.03 0.02 0.02 0.02 0.02 0.03 0.03 0.04 0.04 0.05 0.05 0.05 0.07 0.08 0.08 0.09 0.10 0.10 0.08 0.06 0.06 0.06 0.05 0.04 0.03 0.03 0.03 0.03 0.03 0.03 0.03 0.03 0.02 0.02 0.02 0.02 0.02
0.06 0.05 0.05 0.04 0.03 0.02 0.02 0.02 0.02 0.02 0.02 0.02 0.04 0.05 0.05 0.05 0.05 0.05 0.07 0.09 0.09 0.08 0.08 0.07 0.06 0.06 0.06 0.06 0.05 0.03 0.03 0.02 0.02 0.02 0.02 0.02 0.02 0.03 0.03 0.03 0.02 0.01 0.01
0.05 0.05 0.05 0.04 0.03 0.02 0.02 0.01 0.02 0.03 0.03 0.04 0.05 0.06 0.06 0.06 0.07 0.07 0.09 0.10 0.11 0.10 0.08 0.06 0.06 0.06 0.07 0.06 0.04 0.03 0.03 0.03 0.02 0.02 0.02 0.01 0.01 0.01 0.01 0.02 0.02 0.02 0.01
0.05 0.04 0.03 0.04 0.04 0.02 0.02 0.02 0.02 0.03 0.04 0.06 0.07 0.08 0.07 0.08 0.09 0.10 0.11 0.12 0.13 0.12 0.10 0.09 0.10 0.09 0.07 0.05 0.04 0.03 0.04 0.04 0.04 0.03 0.02 0.02 0.01 0.01 0.01 0.01 0.01 0.01 0.01
0.04 0.04 0.03 0.03 0.03 0.02 0.02 0.03 0.03 0.03 0.04 0.06 0.07 0.08 0.08 0.08 0.08 0.09 0.11 0.12 0.13 0.13 0.12 0.13 0.13 0.11 0.07 0.06 0.06 0.05 0.04 0.04 0.05 0.04 0.03 0.02 0.02 0.02 0.01 0.01 0.01 0.02 0.01

GEFSMW_prec_meanprec_222.txt.gz
QPF
0.00 0.00 0.00 0.00 0.00 0.00 0.00 0.01 0.01 0.01 0.01 0.02 0.02 0.03 0.04 0.05 0.04 0.05 0.04 0.05 0.07 0.07 0.09 0.08 0.08 0.08 0.08 0.10 0.10 0.10 0.10 0.11 0.10 0.11 0.10 0.08 0.05 0.04 0.06 0.05 0.04 0.03 0.03
0.00 0.00 0.00 0.00 0.00 0.00 0.00 0.00 0.01 0.01 0.01 0.02 0.03 0.03 0.04 0.04 0.03 0.03 0.03 0.04 0.07 0.07 0.07 0.09 0.10 0.09 0.11 0.11 0.10 0.11 0.10 0.09 0.08 0.10 0.10 0.10 0.08 0.05 0.03 0.03 0.03 0.03 0.04
0.00 0.00 0.01 0.01 0.00 0.00 0.00 0.00 0.00 0.00 0.01 0.01 0.01 0.02 0.04 0.04 0.03 0.04 0.05 0.04 0.04 0.03 0.04 0.05 0.08 0.10 0.10 0.09 0.11 0.12 0.12 0.12 0.10 0.10 0.11 0.09 0.09 0.07 0.05 0.03 0.02 0.03 0.05
0.00 0.01 0.01 0.00 0.00 0.00 0.00 0.00 0.00 0.01 0.01 0.01 0.01 0.02 0.03 0.03 0.04 0.04 0.04 0.04 0.03 0.02 0.02 0.05 0.08 0.10 0.08 0.07 0.08 0.10 0.11 0.12 0.10 0.10 0.10 0.09 0.08 0.09 0.08 0.05 0.02 0.02 0.02
0.00 0.00 0.00 0.00 0.00 0.00 0.00 0.00 0.00 0.00 0.01 0.01 0.02 0.03 0.02 0.03 0.03 0.03 0.04 0.04 0.02 0.01 0.01 0.03 0.07 0.08 0.06 0.06 0.06 0.08 0.08 0.08 0.08 0.09 0.08 0.07 0.07 0.07 0.08 0.06 0.04 0.02 0.02
0.00 0.00 0.00 0.00 0.00 0.00 0.00 0.00 0.00 0.00 0.01 0.01 0.01 0.03 0.03 0.03 0.03 0.03 0.03 0.03 0.01 0.02 0.01 0.03 0.05 0.06 0.05 0.06 0.06 0.07 0.07 0.07 0.07 0.07 0.07 0.06 0.05 0.05 0.06 0.06 0.04 0.03 0.02
0.00 0.00 0.00 0.00 0.00 0.00 0.00 0.00 0.00 0.01 0.01 0.02 0.02 0.02 0.03 0.04 0.04 0.03 0.03 0.02 0.01 0.02 0.03 0.04 0.05 0.04 0.03 0.04 0.05 0.06 0.06 0.07 0.07 0.06 0.05 0.04 0.04 0.04 0.04 0.04 0.03 0.03 0.02
0.00 0.00 0.00 0.00 0.00 0.00 0.00 0.01 0.01 0.02 0.01 0.02 0.02 0.02 0.02 0.03 0.03 0.03 0.02 0.02 0.02 0.02 0.03 0.03 0.03 0.02 0.03 0.03 0.05 0.05 0.07 0.07 0.06 0.05 0.05 0.04 0.04 0.04 0.03 0.03 0.04 0.03 0.02
0.00 0.01 0.00 0.00 0.00 0.01 0.01 0.01 0.03 0.03 0.04 0.04 0.04 0.04 0.03 0.03 0.03 0.03 0.02 0.01 0.02 0.02 0.02 0.02 0.02 0.02 0.03 0.04 0.05 0.06 0.06 0.05 0.04 0.04 0.05 0.05 0.04 0.03 0.02 0.03 0.03 0.04 0.03
0.00 0.00 0.00 0.01 0.01 0.01 0.01 0.01 0.03 0.04 0.06 0.07 0.06 0.06 0.06 0.04 0.03 0.02 0.01 0.02 0.03 0.02 0.02 0.02 0.02 0.02 0.02 0.03 0.04 0.04 0.05 0.04 0.04 0.04 0.06 0.06 0.04 0.03 0.02 0.03 0.03 0.03 0.03
0.00 0.00 0.00 0.00 0.01 0.02 0.01 0.02 0.04 0.07 0.08 0.07 0.06 0.04 0.03 0.02 0.02 0.01 0.01 0.02 0.03 0.02 0.01 0.01 0.01 0.02 0.03 0.03 0.04 0.04 0.04 0.04 0.04 0.04 0.05 0.05 0.05 0.04 0.04 0.04 0.04 0.04 0.05
0.00 0.00 0.00 0.01 0.02 0.02 0.02 0.02 0.03 0.04 0.05 0.05 0.04 0.03 0.02 0.02 0.02 0.01 0.01 0.01 0.01 0.01 0.01 0.01 0.01 0.02 0.02 0.03 0.03 0.04 0.04 0.03 0.04 0.04 0.05 0.05 0.05 0.05 0.05 0.05 0.05 0.04 0.05
0.01 0.01 0.00 0.01 0.02 0.01 0.01 0.02 0.02 0.02 0.01 0.02 0.02 0.02 0.02 0.02 0.01 0.01 0.01 0.01 0.01 0.01 0.00 0.01 0.01 0.01 0.02 0.04 0.04 0.05 0.05 0.04 0.06 0.06 0.07 0.08 0.07 0.05 0.05 0.04 0.04 0.04 0.04
0.04 0.04 0.01 0.01 0.01 0.01 0.01 0.01 0.00 0.01 0.01 0.01 0.01 0.02 0.01 0.01 0.02 0.01 0.01 0.00 0.01 0.01 0.00 0.00 0.01 0.01 0.02 0.03 0.04 0.06 0.07 0.07 0.09 0.11 0.13 0.13 0.09 0.07 0.07 0.05 0.05 0.05 0.05
0.02 0.01 0.01 0.01 0.01 0.01 0.01 0.01 0.00 0.00 0.01 0.01 0.01 0.01 0.01 0.01 0.01 0.01 0.01 0.01 0.01 0.01 0.01 0.01 0.02 0.02 0.03 0.03 0.04 0.05 0.07 0.07 0.08 0.10 0.13 0.14 0.12 0.09 0.07 0.05 0.05 0.06 0.06
0.00 0.00 0.00 0.01 0.00 0.00 0.00 0.00 0.00 0.00 0.00 0.00 0.00 0.00 0.00 0.00 0.01 0.01 0.01 0.01 0.01 0.02 0.03 0.04 0.05 0.05 0.06 0.06 0.06 0.06 0.06 0.06 0.06 0.07 0.06 0.07 0.07 0.06 0.05 0.04 0.04 0.05 0.05
0.00 0.00 0.00 0.00 0.00 0.00 0.00 0.00 0.00 0.00 0.00 0.00 0.00 0.00 0.00 0.00 0.00 0.01 0.01 0.02 0.02 0.02 0.03 0.03 0.06 0.07 0.08 0.09 0.09 0.08 0.07 0.06 0.06 0.06 0.05 0.04 0.04 0.03 0.03 0.04 0.04 0.03 0.03
0.01 0.01 0.00 0.01 0.00 0.00 0.00 0.00 0.00 0.00 0.00 0.00 0.00 0.01 0.01 0.01 0.01 0.02 0.02 0.02 0.02 0.03 0.04 0.03 0.04 0.06 0.07 0.07 0.07 0.07 0.06 0.05 0.04 0.04 0.04 0.05 0.05 0.05 0.04 0.05 0.05 0.04 0.04
0.01 0.01 0.01 0.01 0.01 0.01 0.01 0.01 0.01 0.01 0.01 0.01 0.01 0.02 0.02 0.03 0.05 0.07 0.07 0.05 0.04 0.03 0.03 0.03 0.03 0.05 0.07 0.07 0.06 0.05 0.03 0.03 0.02 0.02 0.03 0.03 0.03 0.03 0.04 0.04 0.05 0.04 0.04
0.02 0.02 0.01 0.01 0.02 0.02 0.02 0.02 0.02 0.01 0.01 0.01 0.02 0.02 0.02 0.03 0.06 0.09 0.10 0.07 0.05 0.03 0.02 0.02 0.02 0.04 0.05 0.05 0.04 0.04 0.04 0.03 0.03 0.03 0.03 0.03 0.03 0.04 0.04 0.03 0.04 0.03 0.03
0.03 0.02 0.02 0.02 0.02 0.02 0.02 0.02 0.02 0.02 0.02 0.01 0.01 0.01 0.02 0.02 0.03 0.04 0.04 0.04 0.02 0.02 0.01 0.02 0.02 0.02 0.02 0.02 0.02 0.03 0.04 0.04 0.03 0.04 0.03 0.03 0.04 0.04 0.05 0.05 0.04 0.04 0.05
0.02 0.02 0.02 0.02 0.03 0.03 0.03 0.03 0.03 0.03 0.02 0.02 0.02 0.02 0.02 0.03 0.03 0.04 0.04 0.03 0.02 0.02 0.02 0.02 0.02 0.02 0.02 0.02 0.02 0.02 0.03 0.03 0.03 0.03 0.03 0.04 0.04 0.04 0.05 0.04 0.03 0.04 0.05
0.02 0.03 0.02 0.02 0.03 0.03 0.02 0.03 0.03 0.02 0.02 0.02 0.02 0.02 0.02 0.02 0.03 0.04 0.04 0.03 0.03 0.03 0.03 0.02 0.02 0.03 0.02 0.03 0.04 0.03 0.03 0.03 0.03 0.02 0.03 0.04 0.03 0.03 0.03 0.03 0.03 0.03 0.03
0.02 0.02 0.03 0.03 0.03 0.03 0.03 0.04 0.03 0.03 0.03 0.02 0.01 0.01 0.01 0.02 0.02 0.03 0.03 0.03 0.03 0.03 0.04 0.03 0.03 0.03 0.03 0.04 0.04 0.05 0.05 0.04 0.02 0.02 0.03 0.02 0.02 0.02 0.02 0.02 0.02 0.02 0.02
0.02 0.02 0.02 0.03 0.03 0.03 0.04 0.04 0.04 0.03 0.03 0.02 0.01 0.01 0.02 0.02 0.02 0.02 0.02 0.03 0.03 0.04 0.04 0.04 0.05 0.05 0.04 0.05 0.06 0.05 0.05 0.04 0.03 0.03 0.02 0.02 0.02 0.02 0.02 0.02 0.02 0.02 0.02
0.01 0.02 0.02 0.02 0.02 0.03 0.03 0.03 0.03 0.03 0.04 0.03 0.02 0.02 0.02 0.02 0.02 0.02 0.02 0.04 0.04 0.04 0.05 0.06 0.07 0.08 0.08 0.08 0.08 0.08 0.05 0.04 0.03 0.03 0.02 0.02 0.02 0.02 0.02 0.02 0.02 0.02 0.02

GEFSMW_prec_meanprec_228.txt.gz
QPF
0.00 0.00 0.00 0.00 0.00 0.00 0.00 0.01 0.03 0.03 0.04 0.05 0.05 0.05 0.07 0.07 0.07 0.07 0.06 0.08 0.09 0.10 0.11 0.08 0.08 0.08 0.08 0.07 0.07 0.08 0.08 0.08 0.08 0.08 0.08 0.08 0.07 0.06 0.06 0.06 0.07 0.06 0.05
0.00 0.00 0.00 0.00 0.00 0.00 0.00 0.01 0.01 0.02 0.02 0.03 0.04 0.05 0.06 0.05 0.05 0.06 0.08 0.06 0.06 0.06 0.07 0.08 0.07 0.07 0.08 0.08 0.07 0.07 0.07 0.07 0.10 0.11 0.12 0.10 0.11 0.10 0.06 0.05 0.04 0.05 0.06
0.00 0.00 0.00 0.00 0.00 0.00 0.00 0.01 0.01 0.01 0.01 0.03 0.03 0.04 0.05 0.04 0.05 0.06 0.06 0.04 0.04 0.04 0.04 0.05 0.05 0.06 0.07 0.07 0.07 0.07 0.08 0.07 0.09 0.11 0.13 0.13 0.12 0.12 0.08 0.05 0.03 0.04 0.05
0.00 0.00 0.00 0.00 0.00 0.00 0.00 0.00 0.00 0.01 0.01 0.02 0.03 0.03 0.02 0.03 0.05 0.05 0.03 0.04 0.04 0.03 0.03 0.04 0.05 0.06 0.05 0.07 0.05 0.05 0.08 0.08 0.09 0.11 0.10 0.09 0.09 0.11 0.10 0.08 0.04 0.03 0.03
0.00 0.00 0.00 0.00 0.00 0.00 0.00 0.00 0.00 0.01 0.01 0.02 0.02 0.03 0.03 0.03 0.03 0.03 0.05 0.05 0.04 0.03 0.03 0.04 0.05 0.05 0.05 0.05 0.05 0.07 0.07 0.09 0.08 0.09 0.10 0.08 0.08 0.08 0.08 0.08 0.07 0.06 0.03
0.00 0.00 0.00 0.00 0.00 0.00 0.00 0.00 0.00 0.01 0.01 0.01 0.01 0.03 0.04 0.04 0.05 0.04 0.04 0.03 0.03 0.03 0.03 0.04 0.05 0.05 0.05 0.05 0.05 0.06 0.06 0.07 0.08 0.08 0.09 0.10 0.09 0.09 0.10 0.08 0.07 0.07 0.04
0.00 0.00 0.00 0.00 0.00 0.00 0.00 0.00 0.00 0.01 0.01 0.00 0.01 0.01 0.02 0.03 0.04 0.03 0.04 0.04 0.03 0.03 0.03 0.04 0.05 0.04 0.05 0.04 0.05 0.06 0.05 0.06 0.07 0.08 0.08 0.10 0.10 0.09 0.09 0.09 0.08 0.06 0.05
0.00 0.00 0.00 0.00 0.00 0.00 0.00 0.00 0.00 0.00 0.01 0.01 0.01 0.01 0.02 0.02 0.03 0.03 0.03 0.03 0.02 0.01 0.01 0.01 0.02 0.02 0.03 0.04 0.06 0.05 0.05 0.05 0.06 0.06 0.08 0.09 0.08 0.07 0.05 0.06 0.09 0.09 0.06
0.00 0.00 0.00 0.00 0.00 0.00 0.00 0.01 0.02 0.02 0.02 0.02 0.01 0.01 0.01 0.02 0.03 0.03 0.02 0.02 0.02 0.02 0.02 0.02 0.02 0.02 0.02 0.04 0.05 0.05 0.06 0.06 0.06 0.05 0.06 0.06 0.06 0.06 0.03 0.03 0.05 0.07 0.07
0.00 0.00 0.00 0.00 0.00 0.01 0.01 0.01 0.03 0.04 0.04 0.03 0.02 0.02 0.02 0.02 0.03 0.03 0.03 0.02 0.02 0.03 0.03 0.02 0.03 0.03 0.03 0.03 0.04 0.05 0.05 0.06 0.06 0.06 0.07 0.07 0.06 0.06 0.05 0.05 0.05 0.05 0.06
0.00 0.00 0.00 0.00 0.00 0.01 0.01 0.02 0.04 0.04 0.04 0.03 0.03 0.03 0.03 0.02 0.02 0.02 0.02 0.03 0.03 0.02 0.02 0.03 0.04 0.04 0.03 0.04 0.04 0.03 0.05 0.05 0.06 0.06 0.07 0.07 0.08 0.08 0.08 0.08 0.07 0.07 0.06
0.01 0.01 0.01 0.02 0.02 0.02 0.03 0.04 0.05 0.05 0.06 0.05 0.06 0.08 0.07 0.04 0.03 0.02 0.02 0.02 0.02 0.02 0.02 0.02 0.03 0.02 0.02 0.02 0.02 0.02 0.04 0.06 0.06 0.07 0.08 0.07 0.09 0.09 0.09 0.08 0.06 0.06 0.06
0.03 0.02 0.02 0.02 0.03 0.03 0.04 0.04 0.05 0.06 0.06 0.04 0.03 0.04 0.03 0.02 0.02 0.02 0.02 0.02 0.01 0.01 0.01 0.01 0.02 0.02 0.02 0.02 0.02 0.03 0.04 0.06 0.07 0.09 0.10 0.10 0.12 0.11 0.10 0.09 0.08 0.08 0.07
0.09 0.04 0.01 0.01 0.01 0.02 0.02 0.02 0.02 0.02 0.02 0.02 0.01 0.01 0.02 0.02 0.03 0.02 0.02 0.02 0.02 0.01 0.01 0.01 0.02 0.02 0.02 0.02 0.02 0.03 0.05 0.06 0.08 0.09 0.10 0.10 0.12 0.12 0.13 0.12 0.11 0.10 0.10
0.07 0.04 0.01 0.01 0.01 0.01 0.01 0.01 0.01 0.01 0.01 0.01 0.01 0.01 0.01 0.01 0.01 0.02 0.01 0.01 0.02 0.01 0.02 0.02 0.03 0.03 0.02 0.02 0.03 0.04 0.05 0.06 0.07 0.08 0.08 0.08 0.11 0.12 0.13 0.13 0.12 0.12 0.10
0.04 0.01 0.00 0.01 0.00 0.00 0.00 0.01 0.01 0.01 0.01 0.01 0.02 0.02 0.02 0.01 0.02 0.02 0.01 0.01 0.02 0.02 0.03 0.03 0.03 0.03 0.03 0.03 0.03 0.05 0.05 0.06 0.07 0.07 0.08 0.09 0.11 0.09 0.09 0.09 0.08 0.08 0.07
0.06 0.03 0.01 0.00 0.00 0.00 0.01 0.00 0.00 0.00 0.00 0.01 0.02 0.02 0.02 0.02 0.02 0.02 0.02 0.02 0.03 0.03 0.04 0.04 0.04 0.03 0.03 0.03 0.03 0.04 0.04 0.06 0.07 0.09 0.09 0.08 0.09 0.08 0.07 0.06 0.05 0.04 0.04
0.04 0.02 0.02 0.02 0.02 0.02 0.01 0.01 0.01 0.01 0.01 0.02 0.03 0.03 0.03 0.02 0.02 0.02 0.02 0.03 0.03 0.04 0.04 0.05 0.05 0.04 0.03 0.03 0.03 0.04 0.04 0.06 0.08 0.09 0.09 0.09 0.09 0.07 0.07 0.05 0.04 0.03 0.03
0.04 0.03 0.03 0.02 0.03 0.04 0.04 0.03 0.04 0.04 0.04 0.04 0.04 0.05 0.05 0.05 0.04 0.04 0.04 0.06 0.06 0.06 0.05 0.05 0.04 0.03 0.03 0.04 0.04 0.05 0.03 0.04 0.06 0.06 0.07 0.07 0.05 0.04 0.05 0.04 0.05 0.04 0.03
0.03 0.03 0.02 0.02 0.02 0.04 0.05 0.04 0.05 0.06 0.06 0.05 0.05 0.06 0.07 0.08 0.07 0.06 0.06 0.07 0.08 0.07 0.06 0.06 0.04 0.03 0.03 0.04 0.03 0.04 0.05 0.05 0.05 0.06 0.06 0.05 0.04 0.04 0.03 0.04 0.04 0.03 0.04
0.04 0.03 0.02 0.02 0.02 0.04 0.05 0.06 0.05 0.07 0.07 0.07 0.08 0.08 0.08 0.08 0.09 0.08 0.07 0.08 0.08 0.08 0.07 0.06 0.04 0.03 0.03 0.03 0.02 0.01 0.02 0.03 0.04 0.04 0.04 0.03 0.03 0.03 0.03 0.04 0.04 0.04 0.05
0.03 0.02 0.02 0.02 0.03 0.04 0.04 0.05 0.06 0.07 0.07 0.07 0.09 0.10 0.11 0.08 0.06 0.07 0.07 0.07 0.06 0.07 0.06 0.04 0.03 0.02 0.02 0.02 0.02 0.01 0.01 0.01 0.02 0.03 0.03 0.03 0.03 0.03 0.03 0.03 0.03 0.04 0.05
0.02 0.02 0.02 0.03 0.04 0.04 0.04 0.05 0.06 0.07 0.08 0.09 0.09 0.10 0.10 0.06 0.04 0.04 0.04 0.04 0.04 0.03 0.02 0.02 0.03 0.03 0.02 0.02 0.02 0.01 0.01 0.01 0.01 0.02 0.03 0.04 0.04 0.03 0.03 0.03 0.03 0.03 0.03
0.02 0.02 0.03 0.03 0.04 0.04 0.05 0.06 0.07 0.09 0.10 0.10 0.10 0.11 0.11 0.09 0.04 0.03 0.03 0.03 0.03 0.02 0.02 0.02 0.03 0.03 0.03 0.02 0.02 0.02 0.02 0.03 0.04 0.04 0.05 0.04 0.03 0.03 0.03 0.03 0.03 0.02 0.02
0.03 0.03 0.03 0.04 0.04 0.04 0.05 0.05 0.06 0.07 0.07 0.07 0.07 0.07 0.09 0.10 0.08 0.06 0.03 0.02 0.02 0.02 0.01 0.01 0.01 0.02 0.01 0.02 0.03 0.03 0.03 0.04 0.05 0.05 0.04 0.04 0.04 0.03 0.03 0.03 0.03 0.03 0.03
0.03 0.03 0.03 0.03 0.03 0.03 0.03 0.03 0.04 0.05 0.05 0.05 0.04 0.03 0.04 0.05 0.06 0.05 0.04 0.04 0.03 0.03 0.02 0.01 0.02 0.02 0.02 0.03 0.04 0.05 0.06 0.06 0.06 0.05 0.05 0.05 0.04 0.03 0.03 0.03 0.03 0.03 0.03

GEFSMW_prec_meanprec_234.txt.gz
QPF
0.00 0.00 0.00 0.00 0.00 0.01 0.00 0.00 0.00 0.00 0.00 0.00 0.00 0.00 0.01 0.02 0.03 0.03 0.02 0.03 0.03 0.03 0.04 0.04 0.06 0.06 0.06 0.08 0.07 0.06 0.04 0.04 0.04 0.04 0.05 0.06 0.09 0.09 0.05 0.04 0.03 0.04 0.04
0.01 0.00 0.00 0.00 0.00 0.00 0.00 0.00 0.00 0.01 0.00 0.00 0.00 0.00 0.01 0.01 0.02 0.02 0.02 0.02 0.03 0.04 0.05 0.05 0.06 0.06 0.06 0.07 0.06 0.04 0.04 0.03 0.04 0.05 0.03 0.02 0.04 0.04 0.03 0.03 0.03 0.02 0.02
0.01 0.00 0.00 0.01 0.00 0.00 0.00 0.01 0.01 0.00 0.00 0.00 0.00 0.00 0.01 0.03 0.02 0.02 0.01 0.02 0.03 0.03 0.04 0.05 0.05 0.06 0.05 0.04 0.05 0.04 0.04 0.04 0.05 0.05 0.05 0.03 0.02 0.02 0.02 0.02 0.03 0.02 0.01
0.01 0.00 0.00 0.00 0.00 0.00 0.01 0.01 0.00 0.00 0.00 0.00 0.00 0.00 0.00 0.01 0.01 0.01 0.01 0.01 0.02 0.03 0.03 0.04 0.04 0.05 0.05 0.04 0.05 0.05 0.05 0.05 0.05 0.06 0.05 0.03 0.03 0.02 0.02 0.03 0.03 0.03 0.02
0.01 0.00 0.01 0.01 0.01 0.00 0.00 0.00 0.00 0.00 0.00 0.00 0.00 0.00 0.01 0.01 0.01 0.01 0.01 0.02 0.02 0.02 0.03 0.04 0.05 0.03 0.04 0.03 0.04 0.04 0.05 0.04 0.04 0.04 0.04 0.03 0.03 0.03 0.03 0.02 0.04 0.04 0.04
0.01 0.01 0.01 0.02 0.01 0.00 0.01 0.00 0.00 0.00 0.00 0.00 0.00 0.00 0.01 0.02 0.01 0.01 0.01 0.01 0.01 0.01 0.01 0.02 0.03 0.02 0.01 0.02 0.03 0.04 0.04 0.03 0.03 0.03 0.03 0.03 0.03 0.02 0.04 0.02 0.02 0.03 0.02
0.02 0.01 0.01 0.01 0.01 0.01 0.01 0.00 0.00 0.00 0.01 0.01 0.01 0.01 0.02 0.03 0.02 0.02 0.02 0.01 0.01 0.00 0.01 0.01 0.01 0.01 0.01 0.01 0.03 0.04 0.03 0.02 0.02 0.02 0.03 0.03 0.02 0.02 0.03 0.03 0.02 0.04 0.03
0.03 0.03 0.02 0.01 0.02 0.02 0.01 0.00 0.01 0.01 0.01 0.02 0.02 0.03 0.02 0.02 0.03 0.02 0.02 0.01 0.01 0.01 0.01 0.00 0.01 0.01 0.01 0.01 0.02 0.02 0.02 0.02 0.02 0.02 0.03 0.03 0.02 0.03 0.04 0.04 0.05 0.06 0.05
0.04 0.04 0.02 0.02 0.01 0.01 0.01 0.01 0.02 0.02 0.02 0.02 0.02 0.02 0.02 0.03 0.03 0.02 0.02 0.01 0.01 0.01 0.01 0.01 0.01 0.01 0.02 0.02 0.03 0.02 0.02 0.02 0.02 0.02 0.03 0.03 0.02 0.03 0.04 0.05 0.06 0.07 0.06
0.07 0.06 0.05 0.03 0.02 0.02 0.02 0.02 0.03 0.03 0.03 0.02 0.02 0.02 0.02 0.02 0.02 0.02 0.03 0.04 0.03 0.02 0.02 0.01 0.01 0.02 0.02 0.03 0.03 0.02 0.02 0.03 0.02 0.02 0.03 0.03 0.04 0.03 0.03 0.05 0.08 0.08 0.07
0.12 0.07 0.07 0.06 0.04 0.03 0.03 0.04 0.04 0.05 0.06 0.06 0.05 0.04 0.04 0.03 0.03 0.03 0.03 0.03 0.03 0.02 0.02 0.01 0.02 0.02 0.02 0.02 0.03 0.03 0.04 0.03 0.02 0.02 0.04 0.04 0.05 0.05 0.05 0.06 0.07 0.09 0.10
0.14 0.09 0.08 0.08 0.08 0.07 0.06 0.07 0.08 0.08 0.06 0.06 0.06 0.05 0.09 0.12 0.11 0.09 0.05 0.03 0.02 0.02 0.01 0.02 0.03 0.02 0.03 0.03 0.03 0.03 0.03 0.03 0.02 0.03 0.05 0.05 0.05 0.05 0.07 0.09 0.07 0.07 0.09
0.11 0.08 0.08 0.09 0.12 0.14 0.11 0.09 0.09 0.09 0.10 0.08 0.05 0.04 0.06 0.08 0.06 0.05 0.03 0.02 0.02 0.02 0.01 0.02 0.02 0.02 0.03 0.03 0.02 0.03 0.02 0.02 0.02 0.04 0.05 0.04 0.04 0.04 0.06 0.07 0.07 0.06 0.08
0.10 0.12 0.12 0.10 0.11 0.14 0.16 0.13 0.11 0.09 0.07 0.05 0.03 0.03 0.03 0.04 0.03 0.03 0.03 0.03 0.03 0.02 0.02 0.01 0.02 0.02 0.02 0.03 0.03 0.02 0.03 0.02 0.02 0.03 0.03 0.03 0.04 0.05 0.06 0.06 0.07 0.08 0.08
0.12 0.16 0.16 0.14 0.11 0.11 0.11 0.13 0.14 0.11 0.07 0.05 0.04 0.04 0.05 0.05 0.05 0.04 0.03 0.03 0.02 0.02 0.03 0.02 0.03 0.03 0.03 0.02 0.02 0.02 0.03 0.03 0.02 0.02 0.02 0.03 0.05 0.05 0.06 0.05 0.06 0.09 0.09
0.08 0.09 0.10 0.13 0.12 0.09 0.09 0.08 0.07 0.08 0.07 0.05 0.04 0.05 0.05 0.06 0.06 0.06 0.05 0.04 0.04 0.04 0.04 0.04 0.04 0.04 0.03 0.04 0.03 0.03 0.03 0.04 0.03 0.03 0.03 0.04 0.05 0.05 0.05 0.05 0.06 0.06 0.07
0.08 0.09 0.08 0.11 0.17 0.13 0.08 0.06 0.05 0.05 0.06 0.06 0.06 0.07 0.08 0.08 0.07 0.06 0.06 0.05 0.05 0.05 0.04 0.05 0.05 0.04 0.04 0.05 0.06 0.06 0.05 0.04 0.04 0.04 0.04 0.04 0.04 0.04 0.04 0.05 0.06 0.05 0.04
0.09 0.10 0.10 0.08 0.16 0.18 0.15 0.10 0.09 0.09 0.08 0.07 0.07 0.08 0.09 0.10 0.07 0.05 0.04 0.04 0.04 0.04 0.05 0.05 0.06 0.04 0.04 0.05 0.06 0.06 0.06 0.05 0.05 0.05 0.06 0.06 0.06 0.07 0.08 0.08 0.07 0.06 0.04
0.09 0.07 0.06 0.06 0.11 0.15 0.16 0.17 0.15 0.15 0.14 0.13 0.12 0.11 0.12 0.14 0.12 0.09 0.06 0.05 0.05 0.06 0.06 0.06 0.05 0.05 0.05 0.06 0.05 0.06 0.07 0.06 0.05 0.05 0.04 0.04 0.04 0.06 0.07 0.07 0.08 0.08 0.06
0.08 0.07 0.06 0.06 0.08 0.11 0.12 0.16 0.21 0.19 0.21 0.21 0.20 0.18 0.18 0.18 0.16 0.13 0.10 0.06 0.06 0.06 0.06 0.06 0.05 0.05 0.06 0.05 0.05 0.06 0.05 0.05 0.06 0.06 0.06 0.06 0.05 0.05 0.07 0.08 0.07 0.07 0.06
0.09 0.10 0.09 0.07 0.07 0.09 0.09 0.10 0.14 0.16 0.16 0.17 0.18 0.18 0.19 0.22 0.24 0.24 0.19 0.12 0.09 0.09 0.12 0.07 0.07 0.05 0.05 0.06 0.06 0.06 0.07 0.06 0.05 0.04 0.04 0.03 0.04 0.04 0.05 0.07 0.07 0.08 0.09
0.06 0.07 0.09 0.08 0.06 0.06 0.06 0.07 0.08 0.09 0.10 0.11 0.13 0.12 0.12 0.15 0.21 0.25 0.26 0.24 0.16 0.09 0.09 0.09 0.09 0.07 0.07 0.07 0.07 0.06 0.06 0.05 0.04 0.03 0.02 0.02 0.02 0.02 0.02 0.03 0.05 0.07 0.07
0.03 0.04 0.05 0.06 0.05 0.04 0.04 0.04 0.06 0.07 0.07 0.09 0.10 0.11 0.13 0.14 0.16 0.18 0.19 0.17 0.18 0.17 0.10 0.08 0.06 0.05 0.04 0.03 0.03 0.03 0.03 0.03 0.02 0.02 0.02 0.02 0.02 0.01 0.01 0.02 0.04 0.05 0.03
0.03 0.03 0.04 0.04 0.05 0.05 0.04 0.03 0.04 0.05 0.06 0.07 0.09 0.11 0.09 0.10 0.14 0.16 0.16 0.16 0.16 0.15 0.10 0.08 0.06 0.05 0.03 0.02 0.02 0.03 0.02 0.02 0.01 0.01 0.01 0.01 0.01 0.01 0.02 0.03 0.03 0.03 0.02
0.02 0.05 0.05 0.05 0.04 0.05 0.05 0.04 0.04 0.04 0.05 0.05 0.05 0.07 0.08 0.08 0.10 0.14 0.15 0.11 0.12 0.16 0.15 0.12 0.08 0.06 0.06 0.04 0.03 0.03 0.03 0.02 0.02 0.02 0.01 0.02 0.02 0.03 0.03 0.02 0.01 0.02 0.02
0.02 0.03 0.05 0.07 0.05 0.04 0.05 0.05 0.04 0.03 0.03 0.04 0.04 0.04 0.05 0.06 0.05 0.07 0.11 0.11 0.08 0.08 0.08 0.08 0.07 0.06 0.06 0.07 0.05 0.04 0.04 0.04 0.04 0.03 0.03 0.04 0.04 0.03 0.03 0.02 0.02 0.02 0.02

GEFSMW_prec_meanprec_240.txt.gz
QPF
0.01 0.01 0.01 0.01 0.01 0.01 0.01 0.01 0.01 0.00 0.00 0.00 0.00 0.00 0.01 0.01 0.02 0.02 0.03 0.02 0.02 0.03 0.03 0.04 0.05 0.04 0.04 0.05 0.07 0.06 0.06 0.05 0.05 0.04 0.04 0.03 0.03 0.02 0.02 0.02 0.02 0.02 0.02
0.00 0.00 0.00 0.00 0.00 0.00 0.00 0.01 0.00 0.00 0.00 0.00 0.00 0.00 0.01 0.01 0.02 0.02 0.03 0.02 0.03 0.03 0.03 0.04 0.06 0.05 0.04 0.05 0.06 0.06 0.06 0.06 0.05 0.03 0.03 0.03 0.03 0.02 0.02 0.01 0.02 0.01 0.02
0.00 0.01 0.00 0.00 0.00 0.00 0.00 0.00 0.00 0.00 0.00 0.00 0.00 0.00 0.00 0.01 0.01 0.01 0.01 0.02 0.04 0.04 0.04 0.05 0.07 0.06 0.04 0.04 0.05 0.05 0.05 0.05 0.07 0.05 0.04 0.02 0.02 0.02 0.01 0.01 0.02 0.02 0.02
0.01 0.00 0.00 0.00 0.00 0.00 0.00 0.00 0.00 0.00 0.00 0.00 0.00 0.00 0.00 0.00 0.01 0.01 0.01 0.03 0.03 0.05 0.05 0.05 0.06 0.06 0.05 0.04 0.05 0.04 0.03 0.04 0.05 0.06 0.03 0.03 0.02 0.02 0.01 0.01 0.01 0.01 0.02
0.00 0.00 0.00 0.00 0.00 0.01 0.00 0.00 0.00 0.00 0.00 0.00 0.00 0.00 0.00 0.00 0.01 0.01 0.02 0.02 0.03 0.05 0.04 0.03 0.03 0.03 0.03 0.03 0.04 0.04 0.03 0.04 0.05 0.06 0.04 0.03 0.03 0.02 0.02 0.01 0.01 0.00 0.01
0.00 0.00 0.01 0.01 0.01 0.01 0.00 0.01 0.01 0.01 0.00 0.00 0.00 0.01 0.01 0.01 0.01 0.01 0.01 0.01 0.02 0.04 0.04 0.03 0.03 0.02 0.02 0.02 0.04 0.05 0.04 0.04 0.04 0.04 0.04 0.03 0.02 0.02 0.02 0.01 0.01 0.00 0.00
0.00 0.01 0.01 0.01 0.01 0.01 0.01 0.01 0.02 0.02 0.01 0.01 0.01 0.02 0.02 0.02 0.01 0.01 0.01 0.01 0.02 0.02 0.03 0.04 0.04 0.03 0.02 0.03 0.03 0.04 0.04 0.04 0.03 0.03 0.03 0.02 0.02 0.02 0.02 0.02 0.01 0.01 0.00
0.01 0.01 0.01 0.02 0.01 0.01 0.02 0.02 0.04 0.03 0.02 0.02 0.02 0.03 0.03 0.02 0.01 0.02 0.02 0.02 0.02 0.03 0.03 0.03 0.03 0.02 0.03 0.04 0.04 0.04 0.04 0.04 0.03 0.03 0.02 0.03 0.03 0.03 0.03 0.02 0.02 0.01 0.00
0.01 0.02 0.02 0.03 0.03 0.03 0.03 0.04 0.05 0.05 0.05 0.04 0.03 0.03 0.03 0.03 0.03 0.04 0.04 0.04 0.03 0.03 0.03 0.02 0.02 0.01 0.02 0.05 0.05 0.04 0.04 0.05 0.04 0.04 0.03 0.03 0.04 0.04 0.03 0.03 0.03 0.02 0.01
0.04 0.04 0.05 0.06 0.05 0.04 0.04 0.05 0.04 0.05 0.05 0.05 0.05 0.04 0.04 0.03 0.03 0.05 0.05 0.04 0.04 0.03 0.02 0.01 0.01 0.01 0.02 0.03 0.03 0.03 0.04 0.04 0.03 0.03 0.03 0.03 0.04 0.03 0.02 0.03 0.03 0.03 0.02
0.06 0.07 0.06 0.06 0.08 0.09 0.05 0.05 0.06 0.06 0.07 0.08 0.09 0.08 0.07 0.07 0.06 0.06 0.05 0.04 0.03 0.02 0.01 0.01 0.01 0.01 0.01 0.01 0.02 0.02 0.04 0.04 0.03 0.03 0.03 0.03 0.03 0.02 0.02 0.02 0.02 0.02 0.02
0.04 0.05 0.06 0.07 0.08 0.06 0.06 0.07 0.10 0.11 0.11 0.13 0.15 0.12 0.09 0.06 0.05 0.04 0.04 0.03 0.02 0.01 0.01 0.01 0.01 0.01 0.01 0.03 0.03 0.01 0.03 0.03 0.03 0.03 0.03 0.02 0.02 0.02 0.02 0.02 0.01 0.01 0.02
0.02 0.02 0.04 0.07 0.09 0.09 0.10 0.12 0.13 0.12 0.12 0.14 0.14 0.11 0.08 0.05 0.04 0.04 0.03 0.03 0.03 0.02 0.02 0.02 0.01 0.01 0.02 0.03 0.02 0.03 0.02 0.02 0.01 0.02 0.01 0.01 0.02 0.02 0.02 0.03 0.02 0.02 0.03
0.01 0.03 0.05 0.07 0.08 0.09 0.11 0.11 0.10 0.10 0.10 0.09 0.08 0.08 0.08 0.07 0.06 0.04 0.04 0.04 0.04 0.03 0.02 0.02 0.01 0.01 0.02 0.02 0.02 0.02 0.02 0.02 0.02 0.01 0.02 0.01 0.02 0.02 0.03 0.04 0.03 0.03 0.03
0.02 0.03 0.04 0.06 0.07 0.07 0.09 0.09 0.08 0.08 0.09 0.07 0.07 0.07 0.05 0.04 0.04 0.05 0.05 0.04 0.03 0.02 0.02 0.01 0.01 0.03 0.03 0.02 0.03 0.03 0.03 0.03 0.02 0.02 0.03 0.03 0.04 0.03 0.04 0.04 0.03 0.05 0.04
0.02 0.03 0.04 0.05 0.06 0.06 0.06 0.06 0.07 0.06 0.06 0.06 0.06 0.05 0.06 0.08 0.10 0.09 0.08 0.07 0.05 0.04 0.04 0.03 0.03 0.03 0.04 0.04 0.04 0.04 0.04 0.04 0.03 0.03 0.03 0.03 0.04 0.04 0.03 0.04 0.04 0.05 0.04
0.03 0.03 0.04 0.05 0.05 0.04 0.04 0.04 0.05 0.06 0.05 0.06 0.07 0.08 0.15 0.19 0.19 0.16 0.10 0.07 0.06 0.05 0.04 0.03 0.03 0.03 0.03 0.04 0.04 0.05 0.06 0.05 0.04 0.04 0.04 0.03 0.03 0.03 0.03 0.04 0.05 0.05 0.05
0.03 0.03 0.04 0.05 0.04 0.04 0.05 0.05 0.06 0.11 0.11 0.08 0.08 0.10 0.12 0.13 0.13 0.10 0.09 0.07 0.04 0.03 0.02 0.02 0.03 0.03 0.02 0.03 0.05 0.07 0.08 0.07 0.06 0.06 0.05 0.03 0.02 0.02 0.02 0.03 0.04 0.05 0.05
0.04 0.04 0.04 0.05 0.06 0.06 0.05 0.04 0.04 0.09 0.15 0.12 0.12 0.10 0.07 0.06 0.06 0.07 0.07 0.05 0.04 0.03 0.03 0.04 0.04 0.03 0.03 0.04 0.05 0.06 0.05 0.04 0.04 0.04 0.04 0.03 0.03 0.03 0.03 0.04 0.05 0.06 0.06
0.05 0.04 0.04 0.05 0.06 0.06 0.06 0.06 0.07 0.08 0.14 0.18 0.15 0.10 0.07 0.04 0.03 0.03 0.04 0.04 0.03 0.03 0.04 0.05 0.05 0.05 0.04 0.05 0.05 0.04 0.04 0.03 0.04 0.05 0.05 0.05 0.04 0.04 0.05 0.05 0.05 0.05 0.06
0.05 0.05 0.05 0.07 0.07 0.06 0.07 0.09 0.12 0.11 0.12 0.14 0.13 0.12 0.09 0.06 0.04 0.03 0.03 0.04 0.04 0.05 0.05 0.06 0.06 0.06 0.05 0.05 0.05 0.04 0.04 0.05 0.06 0.06 0.05 0.05 0.05 0.05 0.05 0.05 0.05 0.04 0.04
0.04 0.05 0.06 0.07 0.08 0.08 0.07 0.06 0.08 0.10 0.11 0.11 0.11 0.11 0.12 0.11 0.08 0.07 0.06 0.06 0.06 0.07 0.07 0.06 0.05 0.05 0.04 0.04 0.05 0.04 0.04 0.04 0.03 0.02 0.02 0.02 0.02 0.02 0.02 0.02 0.02 0.02 0.03
0.03 0.03 0.04 0.04 0.04 0.05 0.06 0.05 0.05 0.06 0.07 0.08 0.09 0.09 0.11 0.18 0.16 0.12 0.10 0.10 0.09 0.08 0.07 0.06 0.05 0.06 0.06 0.05 0.04 0.04 0.03 0.02 0.01 0.01 0.01 0.01 0.01 0.01 0.01 0.01 0.01 0.02 0.02
0.04 0.03 0.03 0.03 0.04 0.03 0.02 0.03 0.04 0.04 0.04 0.04 0.05 0.06 0.08 0.11 0.16 0.15 0.13 0.11 0.11 0.15 0.16 0.13 0.09 0.08 0.07 0.07 0.07 0.06 0.05 0.03 0.02 0.01 0.01 0.01 0.01 0.01 0.01 0.01 0.01 0.01 0.01
0.03 0.03 0.04 0.03 0.03 0.03 0.03 0.02 0.02 0.03 0.03 0.03 0.03 0.04 0.06 0.09 0.10 0.12 0.12 0.11 0.08 0.08 0.10 0.12 0.13 0.12 0.10 0.10 0.10 0.08 0.06 0.04 0.03 0.03 0.02 0.01 0.01 0.01 0.01 0.01 0.01 0.01 0.01
0.02 0.02 0.03 0.04 0.03 0.02 0.03 0.03 0.02 0.03 0.03 0.03 0.04 0.03 0.04 0.05 0.06 0.07 0.08 0.06 0.05 0.05 0.05 0.07 0.08 0.10 0.11 0.12 0.14 0.13 0.09 0.07 0.06 0.05 0.02 0.02 0.02 0.03 0.03 0.03 0.02 0.02 0.02